# Wetter Temperatur Luftdruck Luftfeuchtigkeit Sichtweite Windgeschwindigkeit Windrichtung Zeit
1 Clear 20 1019 68 10000 6.2 10 19:59 17.10.2019
2 Clear 20 1019 60 10000 6.2 20 19:39 17.10.2019
3 Clear 20 1019 60 10000 6.2 20 19:19 17.10.2019
4 Clear 21 1019 56 10000 6.2 20 18:58 17.10.2019
5 Clear 20 1019 56 10000 6.2 20 18:38 17.10.2019
6 Clear 21 1019 56 10000 6.2 20 18:20 17.10.2019
7 Clear 22 1020 53 10000 5.1 40 17:42 17.10.2019
8 Clear 22 1020 53 10000 5.1 40 17:23 17.10.2019
9 Clear 22 1020 53 10000 5.7 30 16:57 17.10.2019
10 Clouds 22 1020 53 10000 7.2 20 16:38 17.10.2019
11 Clouds 22 1020 53 10000 7.2 20 16:18 17.10.2019
12 Clear 22 1020 56 10000 5.7 20 15:56 17.10.2019
13 Clouds 22 1020 49 10000 7.2 20 15:38 17.10.2019
14 Clouds 22 1020 49 10000 7.2 20 15:19 17.10.2019
15 Clear 22 1021 53 10000 5.1 360 14:54 17.10.2019
16 Clouds 21 1021 53 10000 2.1 40 14:36 17.10.2019
17 Clouds 21 1021 53 10000 2.1 40 14:18 17.10.2019
18 Clouds 21 1022 52 10000 4.6 20 13:39 17.10.2019
19 Clouds 21 1022 52 10000 4.6 20 13:19 17.10.2019
20 Clouds 19 1022 52 10000 3.6 10 12:43 17.10.2019
21 Clouds 18 1021 72 10000 3.6 60 12:21 17.10.2019
22 Clouds 19 1022 72 10000 4.1 50 11:59 17.10.2019
23 Clear 19 1022 63 8000 2.1 40 11:41 17.10.2019
24 Clear 19 1022 63 8000 2.1 40 11:41 17.10.2019
25 Clear 19 1022 63 8000 2.1 40 11:41 17.10.2019
26 Clear 19 1022 63 8000 2.1 40 11:41 17.10.2019
27 Clear 18 1022 63 8000 2.1 40 11:20 17.10.2019
28 Clear 16 1022 82 10000 1.921 47 10:56 17.10.2019
29 Clear 16 1022 82 10000 1.921 47 10:56 17.10.2019
30 Clear 16 1021 72 6000 1.5 180 10:38 17.10.2019
31 Clear 16 1021 72 6000 1.5 180 10:19 17.10.2019
32 Clear 12 1021 93 10000 1.921 47 09:55 17.10.2019
33 Clear 11 1020 87 6000 1 160 09:36 17.10.2019
34 Clear 11 1020 87 6000 1 160 09:18 17.10.2019
35 Clear 11 1020 87 6000 1 160 09:18 17.10.2019
36 Clear 11 1020 87 10000 0.5 0 08:43 17.10.2019
37 Clear 11 1020 87 6000 1.5 180 08:24 17.10.2019
38 Clear 10 1020 87 10000 1 130 07:56 17.10.2019
39 Clear 11 1020 81 10000 1 120 07:38 17.10.2019
40 Clear 11 1020 81 10000 1 120 07:18 17.10.2019
41 Clear 11 1020 81 10000 1 120 07:18 17.10.2019
42 Clear 11 1020 81 10000 0.5 100 06:40 17.10.2019
43 Clear 16 1020 81 10000 0.5 100 06:21 17.10.2019
44 Clear 16 1020 81 10000 0.5 100 05:57 17.10.2019
45 Clear 15 1020 76 10000 1 100 05:32 17.10.2019
46 Clear 15 1020 81 10000 1 110 04:56 17.10.2019
47 Clear 15 1020 82 10000 1.5 80 03:55 17.10.2019
48 Clear 16 1021 82 10000 2.1 50 02:50 17.10.2019
49 Clear 16 1021 76 10000 2.1 70 01:39 17.10.2019
50 Clear 16 1021 72 10000 1.5 70 00:40 17.10.2019
51 Clear 17 1021 72 10000 1.5 70 00:19 17.10.2019
52 Clear 17 1021 72 10000 1.5 360 23:42 16.10.2019
53 Clear 17 1021 72 10000 1.5 360 23:21 16.10.2019
54 Clear 17 1021 67 10000 2.1 360 22:56 16.10.2019
55 Clear 17 1021 67 10000 2.1 360 22:56 16.10.2019
56 Clear 17 1019 63 10000 2.1 360 22:37 16.10.2019
57 Clear 17 1019 63 10000 2.1 360 22:37 16.10.2019
58 Clear 17 1019 63 10000 2.1 360 22:19 16.10.2019
59 Clear 17 1019 63 10000 2.1 360 22:19 16.10.2019
60 Clear 17 1019 63 10000 2.1 360 22:19 16.10.2019
61 Clear 18 1020 67 10000 2.6 350 21:57 16.10.2019
62 Clear 18 1019 63 10000 3.1 360 21:37 16.10.2019
63 Clear 18 1019 63 10000 3.1 360 21:19 16.10.2019
64 Clouds 19 1019 68 10000 4.6 340 20:58 16.10.2019
65 Clouds 19 1019 68 10000 5.7 350 20:39 16.10.2019
66 Clouds 19 1019 68 10000 5.7 350 20:20 16.10.2019
67 Clear 20 1019 60 10000 5.1 350 19:59 16.10.2019
68 Clear 20 1019 56 10000 4.6 20 19:38 16.10.2019
69 Clear 20 1019 56 10000 4.6 20 19:20 16.10.2019
70 Clear 21 1019 49 10000 5.7 60 18:40 16.10.2019
71 Clear 21 1019 49 10000 5.7 60 18:20 16.10.2019
72 Clear 21 1019 53 10000 5.1 360 17:58 16.10.2019
73 Clear 21 1019 53 10000 5.1 360 17:58 16.10.2019
74 Clear 21 1019 49 10000 6.7 60 17:39 16.10.2019
75 Clear 21 1019 49 10000 6.7 60 17:21 16.10.2019
76 Clear 21 1019 49 10000 4.6 10 16:59 16.10.2019
77 Clear 21 1020 46 10000 6.2 20 16:41 16.10.2019
78 Clear 21 1020 46 10000 6.2 20 16:21 16.10.2019
79 Clear 21 1020 49 10000 5.1 20 15:57 16.10.2019
80 Clear 21 1020 49 10000 5.1 20 15:56 16.10.2019
81 Clear 21 1020 49 10000 5.1 20 15:56 16.10.2019
82 Clear 21 1020 49 10000 5.1 20 15:56 16.10.2019
83 Clear 21 1020 46 10000 7.2 20 15:38 16.10.2019
84 Clear 21 1020 46 10000 7.2 20 15:18 16.10.2019
85 Clear 21 1021 46 10000 6.2 20 14:56 16.10.2019
86 Clear 21 1021 46 10000 6.2 20 14:56 16.10.2019
87 Clear 21 1021 46 10000 6.2 20 14:37 16.10.2019
88 Clear 21 1021 46 10000 6.2 20 14:18 16.10.2019
89 Clouds 21 1021 40 10000 3.6 340 13:56 16.10.2019
90 Clear 20 1021 46 10000 6.2 360 13:36 16.10.2019
91 Clear 20 1021 46 10000 6.2 360 13:18 16.10.2019
92 Clear 20 1021 46 10000 4.1 40 12:40 16.10.2019
93 Clear 20 1021 46 10000 4.1 40 12:18 16.10.2019
94 Clear 19 1022 52 10000 3.6 10 11:43 16.10.2019
95 Clear 17 1021 52 10000 3.6 20 11:18 16.10.2019
96 Clouds 16 1021 76 10000 1 0 10:39 16.10.2019
97 Clouds 15 1021 76 10000 1 0 10:20 16.10.2019
98 Clouds 14 1021 81 10000 1.5 60 09:56 16.10.2019
99 Clear 13 1020 87 10000 1.5 180 09:38 16.10.2019
100 Clear 12 1020 87 10000 1.5 180 09:19 16.10.2019
101 Clear 13 1020 87 10000 1 80 08:43 16.10.2019
102 Clear 13 1020 82 10000 1 160 08:24 16.10.2019
103 Clear 11 1020 100 10000 1.26 93 07:46 16.10.2019
104 Clear 12 1020 93 10000 1.26 93 07:25 16.10.2019
105 Clear 12 1021 100 10000 1.26 93 06:59 16.10.2019
106 Clear 13 1020 93 10000 1.26 93 06:39 16.10.2019
107 Clear 17 1021 93 10000 1 70 05:54 16.10.2019
108 Clear 16 1021 82 10000 2.1 30 03:26 16.10.2019
109 Clear 17 1022 87 10000 2.1 40 02:49 16.10.2019
110 Clear 17 1022 82 10000 2.6 30 01:19 16.10.2019
111 Clear 17 1022 87 10000 1.5 20 00:50 16.10.2019
112 Clear 17 1022 87 10000 2.1 20 00:28 16.10.2019
113 Clear 18 1022 82 10000 2.1 10 23:41 15.10.2019
114 Clear 18 1022 82 10000 2.1 10 23:22 15.10.2019
115 Clear 18 1022 82 10000 2.1 20 22:56 15.10.2019
116 Clear 18 1022 72 10000 4.1 40 22:38 15.10.2019
117 Clear 18 1022 72 10000 4.1 40 22:38 15.10.2019
118 Clear 18 1022 72 10000 4.1 40 22:20 15.10.2019
119 Clear 19 1022 88 10000 2.1 30 21:56 15.10.2019
120 Clear 19 1022 88 10000 2.1 30 21:56 15.10.2019
121 Clear 19 1022 88 10000 2.1 30 21:56 15.10.2019
122 Clear 19 1022 88 10000 2.1 30 21:56 15.10.2019
123 Clear 19 1021 68 10000 3.1 40 21:38 15.10.2019
124 Clear 19 1021 68 10000 3.1 40 21:38 15.10.2019
125 Clear 19 1021 68 10000 3.1 40 21:20 15.10.2019
126 Clouds 19 1021 72 10000 5.7 340 20:57 15.10.2019
127 Clouds 19 1021 68 10000 7.2 20 20:39 15.10.2019
128 Clouds 19 1021 68 10000 7.2 20 20:39 15.10.2019
129 Clouds 19 1021 68 10000 7.2 20 20:20 15.10.2019
130 Clouds 20 1021 68 10000 6.7 340 19:58 15.10.2019
131 Clouds 21 1020 68 10000 7.2 40 19:40 15.10.2019
132 Clouds 21 1020 68 10000 7.2 40 19:20 15.10.2019
133 Clouds 21 1020 56 10000 6.2 340 18:47 15.10.2019
134 Clouds 22 1020 64 10000 5.1 40 18:29 15.10.2019
135 Clouds 22 1020 64 10000 7.2 20 17:59 15.10.2019
136 Clouds 22 1020 64 10000 7.2 20 17:40 15.10.2019
137 Clouds 22 1020 64 10000 7.2 20 17:40 15.10.2019
138 Clouds 22 1020 64 10000 7.2 20 17:40 15.10.2019
139 Clouds 22 1020 64 10000 7.2 20 17:20 15.10.2019
140 -273 0 0 0 0 0 16:56 15.10.2019
141 Clouds 22 1020 50 10000 6.7 340 16:37 15.10.2019
142 Clouds 22 1020 50 10000 6.7 340 16:19 15.10.2019
143 Clouds 22 1021 56 10000 6.2 40 15:42 15.10.2019
144 Clouds 22 1021 56 10000 6.2 40 15:21 15.10.2019
145 Clouds 22 1021 49 10000 4.6 350 14:58 15.10.2019
146 Clouds 22 1021 60 10000 5.1 360 14:38 15.10.2019
147 Clouds 22 1021 60 10000 5.1 360 14:38 15.10.2019
148 Clouds 22 1021 60 10000 5.1 360 14:38 15.10.2019
149 Clouds 22 1021 60 10000 5.1 360 14:38 15.10.2019
150 Clouds 22 1021 60 10000 5.1 360 14:20 15.10.2019
151 Clouds 23 1021 48 10000 2.1 320 13:55 15.10.2019
152 Clouds 22 1022 60 10000 5.1 20 13:37 15.10.2019
153 Clouds 22 1022 60 10000 5.1 20 13:18 15.10.2019
154 Clouds 21 1022 60 10000 3.1 20 12:42 15.10.2019
155 Clouds 21 1022 60 10000 3.1 20 12:21 15.10.2019
156 Clouds 19 1022 64 10000 3.1 40 11:56 15.10.2019
157 Clouds 19 1022 68 10000 3.1 80 11:37 15.10.2019
158 Clouds 19 1022 68 10000 3.1 80 11:19 15.10.2019
159 Clouds 19 1022 68 10000 3.1 80 11:19 15.10.2019
160 Clouds 18 1022 77 10000 2.1 80 10:44 15.10.2019
161 Clouds 18 1022 77 10000 2.1 80 10:44 15.10.2019
162 Clouds 17 1021 82 10000 1 160 10:21 15.10.2019
163 Clouds 15 1021 93 10000 2.6 90 09:58 15.10.2019
164 Clouds 14 1021 93 10000 2.1 180 09:38 15.10.2019
165 Clouds 13 1021 93 10000 2.1 180 09:19 15.10.2019
166 Clear 13 1021 100 10000 1.58 67.565 08:54 15.10.2019
167 Clear 13 1021 100 10000 1.58 67.565 08:36 15.10.2019
168 Clouds 14 1021 87 10000 1 200 08:18 15.10.2019
169 Clear 13 1021 100 10000 1.58 67.565 07:41 15.10.2019
170 Clear 13 1021 100 10000 1.58 67.565 07:20 15.10.2019
171 Clear 13 1021 100 10000 1.58 67.565 06:45 15.10.2019
172 Clear 18 1021 100 10000 1.58 67.565 06:27 15.10.2019
173 Clear 17 1021 100 10000 2.9 38.567 05:44 15.10.2019
174 Clear 17 1021 100 10000 2.9 38.567 05:24 15.10.2019
175 Clear 17 1021 100 10000 2.9 38.567 04:33 15.10.2019
176 Clear 17 1022 100 10000 2.9 38.567 03:38 15.10.2019
177 Clear 17 1022 100 10000 2.9 38.567 03:38 15.10.2019
178 Clear 18 1022 100 10000 3.47 14.678 02:51 15.10.2019
179 Clear 17 1022 93 10000 2.1 40 01:49 15.10.2019
180 Clear 18 1023 93 10000 2.1 40 01:22 15.10.2019
181 Clear 18 1023 93 10000 2.1 40 00:49 15.10.2019
182 Clear 18 1023 93 10000 1 40 00:22 15.10.2019
183 Clear 18 1023 93 10000 2.1 40 23:45 14.10.2019
184 Clear 18 1023 93 10000 2.1 360 23:21 14.10.2019
185 Clear 19 1023 88 10000 2.1 360 22:58 14.10.2019
186 Clouds 19 1021 82 10000 2.1 20 22:38 14.10.2019
187 Clouds 19 1021 82 10000 2.1 20 22:19 14.10.2019
188 Clear 19 1022 88 10000 4.1 320 21:56 14.10.2019
189 Clouds 22 1021 72 10000 1 20 21:37 14.10.2019
190 Clouds 22 1021 72 10000 1 20 21:19 14.10.2019
191 Clouds 20 1021 68 10000 5.1 340 20:55 14.10.2019
192 Clouds 20 1021 68 10000 5.1 340 20:36 14.10.2019
193 Clouds 20 1021 68 10000 5.1 340 20:18 14.10.2019
194 Clouds 21 1021 64 10000 4.1 320 19:41 14.10.2019
195 Clouds 21 1021 64 10000 4.1 320 19:23 14.10.2019
196 Clouds 22 1021 78 1000 6.2 330 18:58 14.10.2019
197 Clouds 22 1021 68 10000 5.1 300 18:39 14.10.2019
198 Clouds 22 1021 68 10000 5.1 300 18:39 14.10.2019
199 Clouds 22 1021 68 10000 5.1 300 18:19 14.10.2019
200 Clouds 22 1021 60 10000 4.6 300 17:57 14.10.2019
201 Clouds 22 1021 60 10000 4.6 300 17:57 14.10.2019
202 Clouds 22 1020 73 10000 4.1 280 17:38 14.10.2019
203 Clouds 22 1020 73 10000 4.1 280 17:38 14.10.2019
204 Clouds 22 1020 73 10000 4.1 280 17:19 14.10.2019
205 Clouds 22 1020 64 10000 5.1 270 16:44 14.10.2019
206 Clouds 22 1020 73 10000 6.2 280 16:21 14.10.2019
207 Clouds 21 1020 78 10000 5.1 280 15:43 14.10.2019
208 Clouds 21 1020 78 10000 5.1 280 15:24 14.10.2019
209 Clouds 20 1021 94 10000 6.7 300 14:58 14.10.2019
210 Clouds 20 1021 88 8000 3.1 200 14:39 14.10.2019
211 Clouds 20 1021 88 8000 3.1 200 14:20 14.10.2019
212 Rain 20 1021 78 10000 4.1 220 13:44 14.10.2019
213 Rain 20 1021 82 6000 4.1 300 13:21 14.10.2019
214 Clouds 21 1021 88 10000 6.7 210 12:56 14.10.2019
215 Drizzle 21 1021 73 10000 5.7 220 12:37 14.10.2019
216 Drizzle 21 1021 73 10000 5.7 220 12:18 14.10.2019
217 Drizzle 19 1021 93 4000 6.2 240 11:45 14.10.2019
218 Drizzle 19 1020 88 10000 5.1 200 11:26 14.10.2019
219 Rain 19 1021 93 10000 6.2 230 10:57 14.10.2019
220 Rain 19 1020 82 6000 3.6 240 10:38 14.10.2019
221 Rain 19 1020 82 6000 3.6 240 10:20 14.10.2019
222 Clouds 19 1020 93 10000 5.7 200 09:54 14.10.2019
223 Clouds 19 1019 100 10000 5.73 216.476 09:36 14.10.2019
224 Clouds 19 1019 100 10000 5.98 208.129 09:18 14.10.2019
225 Clear 18 1018 82 10000 4.1 200 08:42 14.10.2019
226 Clear 18 1018 82 10000 4.1 200 08:20 14.10.2019
227 Clouds 18 1019 93 0 5.1 200 07:41 14.10.2019
228 Clouds 18 1019 93 0 5.1 200 07:41 14.10.2019
229 Clouds 18 1019 93 0 5.1 200 07:18 14.10.2019
230 Clouds 19 1018 100 10000 4.6 200 06:38 14.10.2019
231 Clouds 19 1018 100 10000 4.6 200 06:20 14.10.2019
232 Clouds 20 1018 93 10000 4.1 200 05:46 14.10.2019
233 Clouds 20 1018 93 10000 4.6 220 04:43 14.10.2019
234 Clouds 20 1018 93 10000 3.6 190 03:27 14.10.2019
235 Clouds 20 1018 93 10000 3.6 200 02:42 14.10.2019
236 Clouds 20 1018 88 10000 4.6 230 01:23 14.10.2019
237 Clouds 20 1017 88 10000 4.1 240 00:56 14.10.2019
238 Clouds 21 1017 88 10000 3.6 210 00:19 14.10.2019
239 Clouds 21 1017 94 10000 3.1 220 23:45 13.10.2019
240 Clouds 21 1017 100 10000 3.1 250 23:20 13.10.2019
241 Clouds 21 1017 100 10000 2.6 250 22:58 13.10.2019
242 Clouds 21 1014 88 5000 4.1 280 22:40 13.10.2019
243 Clouds 21 1014 88 5000 4.1 280 22:21 13.10.2019
244 Clouds 21 1016 100 10000 5.7 300 21:58 13.10.2019
245 Clouds 21 1014 88 5000 5.1 280 21:37 13.10.2019
246 Clouds 21 1014 88 5000 5.1 280 21:19 13.10.2019
247 Clouds 21 1014 88 5000 5.1 280 21:19 13.10.2019
248 Clear 21 1015 100 10000 7.2 310 20:57 13.10.2019
249 Clear 21 1015 100 10000 7.2 310 20:57 13.10.2019
250 Clouds 21 1014 88 5000 5.7 300 20:38 13.10.2019
251 Clouds 21 1014 88 5000 5.7 300 20:20 13.10.2019
252 Clear 22 1014 73 10000 6.7 310 19:58 13.10.2019
253 Clear 22 1014 73 10000 6.7 310 19:58 13.10.2019
254 Clear 22 1014 73 10000 6.7 310 19:57 13.10.2019
255 Clouds 22 1013 83 8000 5.7 320 19:39 13.10.2019
256 Clouds 22 1013 83 8000 5.7 320 19:39 13.10.2019
257 Clouds 22 1013 83 8000 5.7 320 19:20 13.10.2019
258 Clear 23 1013 65 10000 6.7 320 18:55 13.10.2019
259 Clouds 23 1013 73 8000 5.7 340 18:36 13.10.2019
260 Clouds 23 1013 73 8000 5.7 340 18:18 13.10.2019
261 Clear 24 1013 51 10000 5.1 300 17:44 13.10.2019
262 Clear 24 1013 51 10000 5.1 300 17:44 13.10.2019
263 Clouds 24 1012 69 8000 4.1 320 17:26 13.10.2019
264 -273 0 0 0 0 0 17:25 13.10.2019
265 Clouds 24 1012 69 8000 4.1 320 17:25 13.10.2019
266 Clear 23 1012 57 10000 4.6 320 16:55 13.10.2019
267 Clouds 23 1013 78 5000 4.1 20 16:36 13.10.2019
268 Clouds 23 1013 78 5000 4.1 20 16:18 13.10.2019
269 Clouds 23 1013 78 5000 4.1 20 16:18 13.10.2019
270 Clear 23 1013 51 10000 4.1 310 15:54 13.10.2019
271 Clouds 23 1013 78 5000 4.6 20 15:36 13.10.2019
272 Clouds 23 1013 78 5000 4.6 20 15:18 13.10.2019
273 Clouds 22 1014 83 8000 4.1 40 14:40 13.10.2019
274 Clouds 22 1014 83 8000 4.1 40 14:22 13.10.2019
275 Clear 21 1014 57 10000 3.1 310 13:59 13.10.2019
276 Clouds 21 1014 93 5000 5.7 20 13:38 13.10.2019
277 Clouds 21 1014 93 5000 5.7 20 13:38 13.10.2019
278 Clouds 21 1014 93 5000 5.7 20 13:38 13.10.2019
279 Clouds 22 1014 93 5000 5.7 20 13:20 13.10.2019
280 Fog 22 1014 60 10000 3.1 320 12:56 13.10.2019
281 Fog 22 1014 93 20 4.1 340 12:38 13.10.2019
282 Fog 21 1014 93 20 4.1 340 12:19 13.10.2019
283 Fog 21 1017 41 10000 3.1 360 11:58 13.10.2019
284 Fog 21 1017 41 10000 3.1 360 11:38 13.10.2019
285 Fog 20 1013 93 20 4.1 60 11:19 13.10.2019
286 Fog 18 1013 93 200 3.1 40 10:42 13.10.2019
287 Fog 18 1013 93 200 3.1 40 10:23 13.10.2019
288 Fog 18 1013 93 200 3.1 40 10:23 13.10.2019
289 Fog 18 1014 72 10000 1.5 0 09:57 13.10.2019
290 Mist 14 1013 148 4000 2.1 340 09:38 13.10.2019
291 Mist 15 1013 148 4000 2.1 340 09:19 13.10.2019
292 Clouds 16 1013 100 8000 3.6 70 08:43 13.10.2019
293 Clouds 15 1014 100 8000 2.1 120 08:22 13.10.2019
294 Clouds 16 1014 100 6000 2.1 120 07:46 13.10.2019
295 Mist 16 1014 100 4000 2.1 90 07:23 13.10.2019
296 Fog 16 1014 100 800 1.5 100 06:46 13.10.2019
297 Fog 18 1014 100 400 1.5 110 05:50 13.10.2019
298 Fog 19 1015 100 500 1.5 30 04:52 13.10.2019
299 Fog 19 1015 100 200 1 330 04:32 13.10.2019
300 Fog 19 1016 100 600 2.1 30 02:42 13.10.2019
301 Fog 19 1016 100 600 2.1 30 02:42 13.10.2019
302 Fog 18 1016 100 800 2.1 50 01:59 13.10.2019
303 Mist 19 1017 100 4000 2.1 30 01:31 13.10.2019
304 Mist 19 1017 100 4000 2.1 40 00:50 13.10.2019
305 Clouds 19 1017 93 5000 2.1 30 00:22 13.10.2019
306 Clouds 19 1017 100 6000 2.1 20 23:57 12.10.2019
307 Clear 19 1017 88 8000 2.6 350 23:39 12.10.2019
308 Clear 20 1017 88 8000 2.6 350 23:20 12.10.2019
309 Clear 20 1017 88 10000 2.6 350 22:57 12.10.2019
310 Clear 20 1016 88 10000 2.1 20 22:38 12.10.2019
311 Clear 19 1016 88 10000 2.1 20 22:20 12.10.2019
312 Clear 20 1017 83 10000 3.1 350 21:55 12.10.2019
313 Clear 20 1016 83 10000 2.1 20 21:37 12.10.2019
314 Clear 20 1016 83 10000 2.1 20 21:19 12.10.2019
315 Clear 20 1015 83 10000 3.1 340 20:41 12.10.2019
316 Clear 20 1015 83 10000 3.1 340 20:41 12.10.2019
317 Clear 21 1015 83 10000 3.1 340 20:23 12.10.2019
318 Clear 22 1015 73 10000 4.1 360 19:40 12.10.2019
319 Clear 22 1015 73 10000 4.1 360 19:40 12.10.2019
320 Clear 22 1015 73 10000 4.1 360 19:22 12.10.2019
321 Clear 23 1016 61 10000 4.1 320 18:59 12.10.2019
322 Clear 23 1016 69 10000 4.1 320 18:40 12.10.2019
323 Clear 23 1016 69 10000 4.1 320 18:22 12.10.2019
324 Clear 24 1016 57 10000 4.6 310 17:44 12.10.2019
325 Clear 24 1015 69 10000 5.1 340 17:19 12.10.2019
326 Clear 24 1015 54 10000 4.6 300 16:55 12.10.2019
327 Clear 25 1015 65 10000 3.6 320 16:36 12.10.2019
328 Clear 25 1015 65 10000 3.6 320 16:18 12.10.2019
329 Clear 25 1016 51 10000 2.6 270 15:44 12.10.2019
330 Clear 25 1016 61 10000 5.7 320 15:25 12.10.2019
331 Clear 24 1017 61 10000 4.51 290.909 14:55 12.10.2019
332 Clear 24 1017 61 10000 4.51 290.909 14:55 12.10.2019
333 Clear 24 1017 69 8000 4.1 320 14:37 12.10.2019
334 Clear 24 1017 69 8000 4.1 320 14:18 12.10.2019
335 Clear 24 1017 73 10000 2.6 280 13:43 12.10.2019
336 Clouds 24 1017 65 8000 5.1 280 13:25 12.10.2019
337 Clouds 22 1017 73 6000 5.1 280 12:40 12.10.2019
338 Clouds 22 1017 73 6000 5.1 280 12:22 12.10.2019
339 Clouds 22 1018 94 8000 4.1 220 11:59 12.10.2019
340 Mist 22 1017 78 6000 4.1 260 11:39 12.10.2019
341 Mist 21 1017 78 6000 4.1 260 11:20 12.10.2019
342 Mist 21 1017 94 4000 2.6 190 10:45 12.10.2019
343 Mist 20 1016 78 5000 2.1 200 10:25 12.10.2019
344 Mist 20 1016 93 3000 3.1 260 09:58 12.10.2019
345 Mist 20 1016 83 5000 2.1 180 09:40 12.10.2019
346 Mist 20 1016 83 5000 2.1 180 09:22 12.10.2019
347 -273 0 0 0 0 0 08:58 12.10.2019
348 Mist 19 1015 88 5000 2.1 200 08:38 12.10.2019
349 Mist 19 1015 88 5000 2.1 200 08:20 12.10.2019
350 -273 0 0 0 0 0 08:20 12.10.2019
351 Fog 17 1016 100 400 2.1 220 07:35 12.10.2019
352 Fog 17 1016 100 900 3.1 220 06:57 12.10.2019
353 Clouds 21 1015 93 10000 3.1 180 05:48 12.10.2019
354 Clouds 20 1015 88 10000 3.1 190 05:23 12.10.2019
355 Clouds 20 1016 82 10000 1.5 240 04:24 12.10.2019
356 Clouds 20 1016 82 10000 2.1 180 03:33 12.10.2019
357 Clouds 21 1017 77 10000 2.1 220 01:56 12.10.2019
358 Clouds 21 1017 77 10000 2.1 310 01:24 12.10.2019
359 Clouds 21 1017 83 10000 1.5 300 00:43 12.10.2019
360 Clouds 21 1017 83 10000 1.5 300 00:19 12.10.2019
361 Clear 21 1017 68 10000 2.6 300 23:40 11.10.2019
362 Clear 22 1017 68 10000 2.6 300 23:20 11.10.2019
363 Clouds 22 1015 56 5000 1 280 22:41 11.10.2019
364 Clouds 22 1015 56 5000 1 280 22:22 11.10.2019
365 Clear 23 1016 53 10000 2.6 280 21:59 11.10.2019
366 Clear 23 1015 53 10000 2.6 350 21:40 11.10.2019
367 Clear 23 1015 53 10000 2.6 350 21:21 11.10.2019
368 Clear 23 1015 50 10000 2.6 360 20:45 11.10.2019
369 Clouds 23 1014 60 5000 4.1 60 20:27 11.10.2019
370 Clouds 24 1015 51 5000 3.1 20 19:59 11.10.2019
371 Clouds 24 1015 53 5000 3.1 60 19:39 11.10.2019
372 Clouds 25 1015 53 5000 3.1 60 19:18 11.10.2019
373 Clouds 25 1015 53 5000 3.1 60 19:18 11.10.2019
374 Clouds 25 1015 53 5000 3.1 60 19:18 11.10.2019
375 Clouds 26 1015 45 5000 3.6 30 18:59 11.10.2019
376 Clouds 26 1014 47 5000 4.1 20 18:38 11.10.2019
377 Clouds 26 1014 47 5000 4.1 20 18:19 11.10.2019
378 Clear 26 1015 33 10000 2.6 30 17:59 11.10.2019
379 Clouds 26 1015 54 5000 3.1 360 17:38 11.10.2019
380 Clouds 26 1015 54 5000 3.1 360 17:19 11.10.2019
381 Clear 27 1016 35 10000 1.5 10 16:59 11.10.2019
382 Clouds 27 1015 51 5000 2.1 40 16:39 11.10.2019
383 Clouds 27 1015 51 5000 2.1 40 16:19 11.10.2019
384 Clouds 25 1016 61 5000 2.1 360 15:42 11.10.2019
385 Clouds 25 1016 61 5000 2.1 360 15:22 11.10.2019
386 Clear 24 1017 48 10000 2.52 352.895 14:59 11.10.2019
387 Clouds 24 1017 64 5000 2.1 360 14:40 11.10.2019
388 Clouds 24 1017 64 5000 2.1 360 14:21 11.10.2019
389 Clouds 24 1018 57 10000 1.5 120 13:45 11.10.2019
390 Clouds 24 1017 60 5000 2.1 40 13:26 11.10.2019
391 Clouds 22 1018 69 10000 1.5 10 12:58 11.10.2019
392 Clouds 22 1017 73 5000 3.1 140 12:39 11.10.2019
393 Clouds 22 1017 73 5000 3.1 140 12:20 11.10.2019
394 Clear 21 1018 73 10000 3.1 330 11:58 11.10.2019
395 Clear 22 1017 73 5000 1.5 360 11:39 11.10.2019
396 Clear 22 1017 73 5000 1.5 360 11:39 11.10.2019
397 Clear 21 1017 73 5000 1.5 360 11:20 11.10.2019
398 Clouds 21 1017 64 10000 1.5 120 10:56 11.10.2019
399 Clouds 21 1017 64 10000 1.5 120 10:56 11.10.2019
400 Clouds 20 1017 73 5000 2.1 140 10:36 11.10.2019
401 Clouds 20 1017 73 5000 2.1 140 10:18 11.10.2019
402 Clouds 19 1016 77 10000 2.6 80 09:42 11.10.2019
403 Clouds 19 1016 77 10000 2.6 80 09:21 11.10.2019
404 Clouds 18 1016 82 10000 2.6 80 08:59 11.10.2019
405 Clear 18 1016 82 5000 2.1 120 08:38 11.10.2019
406 Clear 18 1016 82 5000 2.1 120 08:20 11.10.2019
407 Clouds 18 1017 77 10000 0.5 0 07:53 11.10.2019
408 Clouds 17 1016 82 10000 0.5 0 07:34 11.10.2019
409 Clouds 18 1016 82 10000 1 0 06:50 11.10.2019
410 Clear 19 1016 82 10000 0.5 0 06:25 11.10.2019
411 Clear 19 1016 82 10000 2.1 200 05:47 11.10.2019
412 Clear 19 1016 82 10000 2.1 200 05:47 11.10.2019
413 Clouds 19 1016 93 8000 2.1 210 05:29 11.10.2019
414 Clouds 19 1016 100 10000 2.78 225.146 04:58 11.10.2019
415 Clouds 19 1016 88 10000 1 0 03:27 11.10.2019
416 Clouds 19 1017 93 10000 1.5 80 01:26 11.10.2019
417 Clear 19 1017 93 10000 0.5 0 00:31 11.10.2019
418 Clear 20 1017 93 10000 2.1 240 23:58 10.10.2019
419 Clear 19 1017 88 10000 2.1 220 23:40 10.10.2019
420 Clear 20 1017 88 10000 2.1 220 23:19 10.10.2019
421 Clear 20 1017 100 10000 0.93 61.36 22:56 10.10.2019
422 Clouds 20 1015 88 5000 1.5 260 22:36 10.10.2019
423 Clouds 20 1015 88 5000 1.5 260 22:18 10.10.2019
424 Clouds 20 1015 88 5000 2.1 260 21:42 10.10.2019
425 Clouds 20 1015 88 5000 2.1 260 21:42 10.10.2019
426 Clouds 20 1015 88 5000 2.1 260 21:22 10.10.2019
427 Clear 21 1015 88 10000 3.6 340 20:58 10.10.2019
428 Clouds 21 1015 83 5000 2.6 300 20:39 10.10.2019
429 Clouds 22 1015 83 5000 2.6 300 20:20 10.10.2019
430 Clear 22 1015 78 10000 3.6 340 19:57 10.10.2019
431 Clouds 22 1014 83 6000 3.1 320 19:39 10.10.2019
432 Clouds 22 1014 83 6000 3.1 320 19:19 10.10.2019
433 Clouds 23 1014 78 6000 3.1 360 18:42 10.10.2019
434 Clouds 23 1014 78 6000 3.1 360 18:21 10.10.2019
435 Clear 23 1014 61 10000 3.1 30 17:59 10.10.2019
436 Clouds 23 1014 78 8000 4.1 340 17:40 10.10.2019
437 Clouds 23 1014 78 8000 4.1 340 17:19 10.10.2019
438 Clear 23 1014 61 10000 4.1 10 16:56 10.10.2019
439 Clouds 24 1014 64 8000 5.1 360 16:37 10.10.2019
440 Clouds 23 1014 64 8000 5.1 360 16:19 10.10.2019
441 Clouds 24 1015 64 8000 6.2 360 15:42 10.10.2019
442 Clouds 23 1015 64 8000 6.2 360 15:23 10.10.2019
443 Clear 24 1015 57 10000 2.6 330 14:58 10.10.2019
444 Clear 23 1015 57 10000 3.1 350 14:37 10.10.2019
445 Clear 23 1015 57 10000 3.1 350 14:19 10.10.2019
446 Clear 23 1016 57 10000 2.1 340 13:58 10.10.2019
447 Clear 22 1016 73 10000 4.1 340 13:39 10.10.2019
448 Clear 22 1016 73 10000 4.1 340 13:18 10.10.2019
449 Clear 22 1016 69 8000 3.1 20 12:42 10.10.2019
450 Clear 22 1016 69 8000 3.1 20 12:21 10.10.2019
451 Clear 21 1016 77 10000 2.1 350 11:58 10.10.2019
452 Clouds 20 1016 78 8000 2.1 60 11:40 10.10.2019
453 Clouds 20 1016 78 8000 2.1 60 11:19 10.10.2019
454 Clouds 20 1016 88 10000 1.5 40 10:47 10.10.2019
455 Clouds 19 1015 82 10000 1.5 140 10:28 10.10.2019
456 Clouds 19 1015 82 10000 1.5 140 10:28 10.10.2019
457 Clouds 19 1015 93 10000 2.1 60 09:59 10.10.2019
458 Mist 19 1015 88 8000 0.5 140 09:41 10.10.2019
459 Mist 19 1015 88 8000 0.5 140 09:23 10.10.2019
460 Mist 18 1015 93 4000 2.1 50 08:59 10.10.2019
461 Mist 18 1015 93 4000 2.1 50 08:40 10.10.2019
462 Mist 18 1015 93 4000 2.1 50 08:21 10.10.2019
463 Mist 18 1015 88 4000 2.1 70 07:48 10.10.2019
464 Mist 19 1015 93 4000 2.6 40 07:26 10.10.2019
465 Mist 18 1015 93 4000 2.1 20 06:56 10.10.2019
466 Mist 18 1015 88 4000 2.1 30 06:38 10.10.2019
467 Mist 19 1015 88 4000 2.1 30 05:50 10.10.2019
468 Mist 19 1015 88 4000 2.1 30 05:19 10.10.2019
469 Clouds 19 1016 88 6000 1.5 30 04:35 10.10.2019
470 Mist 19 1016 93 4000 1.5 290 02:29 10.10.2019
471 Mist 19 1016 93 3000 2.1 10 01:37 10.10.2019
472 Mist 19 1016 93 3000 2.1 10 01:18 10.10.2019
473 Mist 19 1016 88 4000 2.1 0 00:38 10.10.2019
474 Mist 19 1016 93 4000 2.6 340 23:55 09.10.2019
475 Clouds 20 1016 88 6000 3.1 360 23:36 09.10.2019
476 Clouds 19 1016 88 6000 3.1 360 23:18 09.10.2019
477 Clouds 19 1016 88 6000 3.1 360 23:18 09.10.2019
478 Clouds 20 1015 94 8000 3.6 340 22:41 09.10.2019
479 Clouds 20 1015 94 8000 3.6 340 22:22 09.10.2019
480 Clouds 20 1015 94 8000 3.1 340 21:58 09.10.2019
481 Clouds 20 1015 94 10000 3.6 320 21:39 09.10.2019
482 Clouds 20 1015 94 10000 3.6 320 21:19 09.10.2019
483 Clouds 20 1015 94 10000 4.6 320 20:55 09.10.2019
484 Clouds 21 1015 88 10000 3.1 330 20:37 09.10.2019
485 Clouds 21 1015 88 10000 3.1 330 20:18 09.10.2019
486 Clouds 21 1015 88 10000 3.1 330 20:18 09.10.2019
487 Clouds 21 1015 88 10000 3.1 330 20:18 09.10.2019
488 Clear 21 1015 78 10000 5.1 320 19:44 09.10.2019
489 Clear 22 1014 65 10000 4.6 310 19:23 09.10.2019
490 Clear 24 1014 54 10000 4.6 320 18:40 09.10.2019
491 Clear 24 1014 54 10000 4.6 320 18:21 09.10.2019
492 Clear 25 1014 45 10000 5.1 340 17:59 09.10.2019
493 Clear 24 1014 45 10000 5.1 340 17:40 09.10.2019
494 Clear 24 1014 45 10000 5.1 340 17:40 09.10.2019
495 Clear 24 1014 45 10000 5.1 340 17:22 09.10.2019
496 Clear 24 1014 51 10000 3.6 300 16:58 09.10.2019
497 Clear 24 1014 48 10000 5.1 300 16:40 09.10.2019
498 Clear 24 1014 48 10000 5.1 300 16:21 09.10.2019
499 Clear 25 1014 42 10000 2.6 310 15:57 09.10.2019
500 Clear 24 1014 42 10000 3.1 300 15:38 09.10.2019
501 Clear 24 1014 42 10000 3.1 300 15:38 09.10.2019
502 Clear 24 1014 42 10000 3.1 300 15:19 09.10.2019
503 Clear 24 1015 48 10000 2.1 300 14:55 09.10.2019
504 Clear 23 1015 51 10000 2.1 270 14:37 09.10.2019
505 Clear 23 1015 51 10000 2.1 270 14:18 09.10.2019
506 Clear 22 1016 64 10000 2.1 260 13:38 09.10.2019
507 Clear 22 1016 64 10000 2.1 260 13:20 09.10.2019
508 Clouds 21 1016 83 6000 2.1 240 12:56 09.10.2019
509 Clouds 20 1017 94 6000 1.5 200 12:37 09.10.2019
510 Clouds 21 1017 94 6000 1.5 200 12:19 09.10.2019
511 Mist 19 1017 100 1500 1 0 11:40 09.10.2019
512 Mist 19 1017 100 1500 1 0 11:40 09.10.2019
513 Mist 19 1017 100 1500 1 0 11:21 09.10.2019
514 Mist 18 1016 100 1200 1 0 10:59 09.10.2019
515 Fog 17 1016 100 500 2.1 270 10:40 09.10.2019
516 Fog 17 1016 100 500 2.1 270 10:19 09.10.2019
517 Fog 17 1016 100 300 2.1 240 09:56 09.10.2019
518 Fog 16 1015 100 500 2.1 240 09:38 09.10.2019
519 Fog 16 1015 100 500 2.1 240 09:18 09.10.2019
520 Fog 16 1015 100 400 1 0 08:39 09.10.2019
521 Fog 17 1015 100 400 1 0 08:20 09.10.2019
522 Fog 17 1015 100 400 1 0 08:20 09.10.2019
523 Fog 17 1015 100 400 1 0 07:47 09.10.2019
524 Fog 17 1015 100 400 1 0 07:47 09.10.2019
525 Fog 16 1015 100 400 0.98 258.644 07:25 09.10.2019
526 Clouds 16 1014 100 300 0.98 258.644 06:58 09.10.2019
527 Fog 15 1014 100 400 1 200 06:40 09.10.2019
528 Clouds 12 1014 100 750 0.48 243.219 05:53 09.10.2019
529 Fog 13 1014 100 400 0.48 243.219 04:56 09.10.2019
530 Fog 16 1015 93 500 1 120 03:48 09.10.2019
531 Fog 16 1015 93 500 1 120 03:48 09.10.2019
532 Clouds 16 1015 93 10000 1 200 02:34 09.10.2019
533 Clouds 17 1015 100 10000 0.13 5.315 01:39 09.10.2019
534 Clouds 17 1015 100 10000 0.31 25.897 01:18 09.10.2019
535 Clouds 18 1016 93 10000 2.1 160 00:42 09.10.2019
536 Clouds 18 1016 93 10000 2.1 160 00:23 09.10.2019
537 Clouds 18 1016 88 10000 1 0 23:58 08.10.2019
538 Clouds 19 1015 82 8000 1 0 23:38 08.10.2019
539 Clouds 19 1015 82 8000 1 0 23:18 08.10.2019
540 Clouds 19 1015 82 8000 1 0 23:18 08.10.2019
541 Clear 19 1015 94 10000 0.8 33.271 22:55 08.10.2019
542 Clear 20 1015 88 10000 0.8 33.271 22:36 08.10.2019
543 Clear 20 1015 88 10000 0.8 33.271 22:18 08.10.2019
544 Clear 20 1015 88 10000 2.1 360 21:55 08.10.2019
545 Clear 19 1015 72 10000 3.1 320 21:36 08.10.2019
546 Clear 19 1015 72 10000 3.1 320 21:36 08.10.2019
547 Clear 20 1015 72 10000 3.1 320 21:18 08.10.2019
548 Clear 20 1015 64 10000 3.1 310 20:54 08.10.2019
549 Clear 21 1015 53 10000 3.6 320 20:36 08.10.2019
550 Clear 21 1015 53 10000 3.6 320 20:18 08.10.2019
551 Clear 23 1014 39 10000 5.1 320 19:41 08.10.2019
552 Clear 22 1014 39 10000 5.1 320 19:23 08.10.2019
553 Clear 23 1014 36 10000 5.1 320 18:57 08.10.2019
554 Clear 22 1014 39 10000 5.7 320 18:39 08.10.2019
555 Clear 22 1014 39 10000 5.7 320 18:19 08.10.2019
556 Clear 23 1014 30 10000 5.7 340 17:56 08.10.2019
557 Clear 23 1014 28 10000 6.2 330 17:38 08.10.2019
558 Clear 23 1014 28 10000 6.2 330 17:18 08.10.2019
559 Clear 31 1014 23 10000 4.6 350 16:41 08.10.2019
560 Clear 31 1014 23 10000 4.6 350 16:22 08.10.2019
561 Clear 30 1015 23 10000 4.6 340 15:57 08.10.2019
562 Clear 24 1013 57 0 3.73 3.247 15:38 08.10.2019
563 Clear 18 1014 88 0 1.34 342 15:19 08.10.2019
564 -273 0 0 0 0 0 14:42 08.10.2019
565 Clear 24 1016 26 10000 5.1 360 14:42 08.10.2019
566 Clear 22 1016 26 10000 5.1 360 14:21 08.10.2019
567 Clear 22 1016 26 10000 5.1 360 13:59 08.10.2019
568 Clear 27 1016 34 10000 2.6 350 13:39 08.10.2019
569 Clear 27 1016 34 10000 2.6 350 13:21 08.10.2019
570 Clouds 26 1017 39 10000 1 0 12:59 08.10.2019
571 Clouds 23 1017 49 10000 1 0 12:40 08.10.2019
572 Clouds 19 1017 49 10000 1 0 12:20 08.10.2019
573 Clouds 17 1017 93 8000 1 0 11:57 08.10.2019
574 Clouds 17 1017 100 5000 2.24 42.904 11:38 08.10.2019
575 Clouds 17 1017 100 5000 2.24 42.904 11:20 08.10.2019
576 Fog 14 1017 100 200 1.5 120 10:42 08.10.2019
577 Fog 14 1017 100 200 1.5 120 10:22 08.10.2019
578 Fog 15 1017 100 200 1.5 120 09:58 08.10.2019
579 Fog 15 1016 100 200 1 40 09:40 08.10.2019
580 Fog 15 1016 100 200 1 40 09:40 08.10.2019
581 Fog 15 1016 100 200 1 40 09:21 08.10.2019
582 Fog 15 1016 100 300 1 0 08:45 08.10.2019
583 Fog 14 1016 100 300 1 20 08:25 08.10.2019
584 Fog 14 1016 100 300 1 0 07:47 08.10.2019
585 Fog 14 1016 100 300 1 0 07:23 08.10.2019
586 Fog 12 1015 100 200 2.1 20 06:57 08.10.2019
587 Clear 13 1015 100 10000 2.13 37.656 06:36 08.10.2019
588 Clear 13 1015 100 10000 2.97 46.815 05:59 08.10.2019
589 Clear 13 1015 100 10000 2.97 46.815 05:40 08.10.2019
590 Clear 14 1016 93 10000 2.97 46.815 04:55 08.10.2019
591 Clear 14 1016 100 10000 2.97 46.815 03:30 08.10.2019
592 Clear 14 1016 100 10000 2.97 46.815 03:30 08.10.2019
593 Clear 18 1016 93 10000 1 20 02:40 08.10.2019
594 Clear 18 1017 100 10000 1.5 40 01:51 08.10.2019
595 Clear 18 1017 100 10000 1 40 01:32 08.10.2019
596 Clear 19 1017 100 10000 2.79 63.811 00:55 08.10.2019
597 Clear 18 1017 100 10000 3.66 51.979 00:22 08.10.2019
598 Clear 19 1017 88 10000 3.66 51.979 23:43 07.10.2019
599 Clear 19 1017 88 10000 3.66 51.979 23:21 07.10.2019
600 Clear 20 1017 88 10000 3.66 51.979 22:58 07.10.2019
601 Clear 20 1017 88 10000 3.66 51.979 22:58 07.10.2019
602 Clear 21 1017 83 0 3.66 51.979 22:40 07.10.2019
603 Clear 21 1017 83 0 3.66 51.979 22:21 07.10.2019
604 Clear 21 1017 83 0 3.66 51.979 22:21 07.10.2019
605 Clear 21 1016 83 10000 3.66 51.979 21:58 07.10.2019
606 Clear 22 1016 73 10000 3.66 51.979 21:40 07.10.2019
607 Clear 22 1016 73 10000 4.37 33.65 21:20 07.10.2019
608 Clear 23 1016 60 10000 4.28 33.092 20:58 07.10.2019
609 Clear 24 1016 57 10000 4.28 33.092 20:39 07.10.2019
610 Clear 24 1016 57 10000 4.28 33.092 20:21 07.10.2019
611 Clear 25 1016 53 10000 6.2 10 19:58 07.10.2019
612 Clear 22 1016 50 10000 6.7 10 19:40 07.10.2019
613 Clear 23 1016 50 10000 4.28 33.092 19:20 07.10.2019
614 Clear 23 1016 50 10000 4.28 33.092 19:20 07.10.2019
615 Clear 22 1016 50 10000 4.28 33.092 18:58 07.10.2019
616 Clear 23 1016 37 10000 7.2 10 18:38 07.10.2019
617 Clear 23 1016 37 10000 7.2 10 18:18 07.10.2019
618 Clear 22 1016 37 10000 7.2 10 17:43 07.10.2019
619 Clear 22 1016 37 10000 7.2 10 17:43 07.10.2019
620 Clear 23 1016 42 10000 7.2 360 17:22 07.10.2019
621 Clear 23 1016 37 10000 7.7 10 16:58 07.10.2019
622 Clear 23 1016 37 10000 7.7 10 16:58 07.10.2019
623 Clear 24 1016 33 10000 3.1 10 16:39 07.10.2019
624 Clear 24 1016 33 10000 3.1 10 16:39 07.10.2019
625 Clear 30 1016 33 10000 3.1 10 16:20 07.10.2019
626 Clear 30 1016 35 10000 5.78 23.257 15:45 07.10.2019
627 Clear 22 1017 32 10000 5.1 350 15:26 07.10.2019
628 Clear 23 1017 32 10000 4.1 360 14:56 07.10.2019
629 Clear 23 1017 25 10000 5.1 360 14:38 07.10.2019
630 Clear 23 1017 25 10000 5.1 360 14:20 07.10.2019
631 Clear 22 1018 32 10000 4.6 360 13:43 07.10.2019
632 Clear 27 1018 32 10000 4.6 360 13:20 07.10.2019
633 Clear 26 1018 39 10000 3.6 10 12:56 07.10.2019
634 Clear 25 1018 41 10000 4.6 360 12:38 07.10.2019
635 Clear 20 1018 41 10000 4.6 360 12:19 07.10.2019
636 Clear 20 1018 44 10000 3.1 30 11:57 07.10.2019
637 Clear 19 1018 56 10000 2.1 10 11:37 07.10.2019
638 Clear 19 1018 56 10000 2.1 10 11:18 07.10.2019
639 Clear 17 1018 88 0 2.24 44 10:41 07.10.2019
640 Clear 17 1018 88 0 2.24 44 10:41 07.10.2019
641 Clear 17 1018 88 0 0.89 15 10:20 07.10.2019
642 Clear 14 1017 100 8000 1.5 70 09:42 07.10.2019
643 Clear 11 1017 100 8000 1.5 70 09:23 07.10.2019
644 Clear 11 1017 100 8000 1.5 70 08:57 07.10.2019
645 Clear 12 1017 100 8000 1 0 08:38 07.10.2019
646 Clear 12 1017 100 8000 1 0 08:19 07.10.2019
647 Clear 13 1017 100 6000 1 0 07:41 07.10.2019
648 Clear 13 1017 100 6000 1 0 07:22 07.10.2019
649 Clear 14 1017 100 5000 1 0 06:54 07.10.2019
650 Clear 14 1017 100 6000 2.1 60 06:34 07.10.2019
651 Clear 17 1018 88 8000 2.6 30 05:47 07.10.2019
652 Clear 17 1018 93 8000 2.6 20 05:22 07.10.2019
653 Clear 20 1016 85 0 4.49 40.618 04:25 07.10.2019
654 Clear 20 1016 85 0 4.49 40.618 03:45 07.10.2019
655 Clear 18 1019 93 10000 4.6 360 03:21 07.10.2019
656 Clear 18 1019 93 10000 4.6 360 03:21 07.10.2019
657 Clear 18 1019 93 10000 4.6 360 02:22 07.10.2019
658 Clear 19 1019 88 10000 4.1 360 01:52 07.10.2019
659 Clear 18 1019 93 10000 3.6 10 01:21 07.10.2019
660 Clear 18 1019 88 10000 3.1 10 00:39 07.10.2019
661 Clear 18 1019 88 10000 3.1 10 00:20 07.10.2019
662 Clear 19 1019 88 10000 3.1 10 23:42 06.10.2019
663 Clear 19 1019 88 10000 3.1 10 23:42 06.10.2019
664 Clear 19 1019 88 10000 3.1 10 23:42 06.10.2019
665 Clear 19 1019 88 10000 3.1 10 23:42 06.10.2019
666 Clear 19 1019 88 10000 3.1 10 23:22 06.10.2019
667 Clear 19 1019 88 10000 3.6 20 22:59 06.10.2019
668 Clear 20 1019 82 10000 3.6 10 22:41 06.10.2019
669 Clear 20 1019 82 10000 3.6 10 22:22 06.10.2019
670 Clear 20 1019 88 10000 1 20 21:58 06.10.2019
671 Clear 20 1018 73 10000 3.1 350 21:38 06.10.2019
672 Clear 20 1018 73 10000 3.1 350 21:19 06.10.2019
673 Clear 20 1018 73 10000 3.1 350 20:58 06.10.2019
674 Clear 21 1018 64 10000 3.6 350 20:40 06.10.2019
675 Clear 21 1018 64 10000 3.6 350 20:40 06.10.2019
676 Clear 21 1018 64 10000 3.6 350 20:21 06.10.2019
677 Clear 22 1018 64 10000 4.6 350 19:57 06.10.2019
678 Clear 22 1018 60 10000 5.7 350 19:37 06.10.2019
679 Clear 23 1018 60 10000 5.7 350 19:19 06.10.2019
680 Clear 23 1018 60 10000 5.7 350 18:57 06.10.2019
681 Clear 23 1018 57 10000 6.2 340 18:38 06.10.2019
682 Clear 23 1018 57 10000 6.2 340 18:19 06.10.2019
683 Clear 23 1018 57 10000 6.2 340 18:19 06.10.2019
684 Clear 23 1018 57 10000 5.7 350 17:57 06.10.2019
685 Clear 23 1018 57 10000 6.2 340 17:38 06.10.2019
686 Clear 23 1018 57 10000 6.2 340 17:19 06.10.2019
687 Clear 24 1018 50 10000 5.7 340 16:42 06.10.2019
688 Clear 24 1018 50 10000 5.7 340 16:23 06.10.2019
689 Clear 24 1018 45 10000 5.1 340 15:54 06.10.2019
690 Clear 24 1018 51 10000 4.6 350 15:36 06.10.2019
691 Clear 24 1019 54 10000 4.6 20 15:18 06.10.2019
692 Clear 24 1019 57 10000 3.6 20 14:42 06.10.2019
693 Clear 24 1019 57 10000 3.6 20 14:42 06.10.2019
694 Clear 24 1019 57 10000 3.6 20 14:42 06.10.2019
695 Clear 23 1019 57 10000 3.6 20 14:24 06.10.2019
696 Clear 23 1019 61 10000 2.6 360 13:56 06.10.2019
697 Clear 23 1019 65 10000 2.1 20 13:38 06.10.2019
698 Clear 23 1019 65 10000 2.1 20 13:19 06.10.2019
699 Clear 22 1020 64 10000 3.1 20 12:56 06.10.2019
700 Clear 22 1019 78 10000 3.1 50 12:37 06.10.2019
701 Clear 21 1019 78 10000 3.1 50 12:19 06.10.2019
702 Clear 21 1020 83 10000 4.6 10 11:55 06.10.2019
703 Clouds 21 1019 88 10000 3.6 20 11:36 06.10.2019
704 Clouds 21 1019 88 10000 3.6 20 11:36 06.10.2019
705 Clouds 21 1019 88 10000 3.6 20 11:18 06.10.2019
706 Clouds 20 1019 94 10000 4.07 49.722 10:42 06.10.2019
707 Clouds 21 1019 94 10000 4.07 49.722 10:24 06.10.2019
708 Clouds 20 1018 94 10000 5.7 80 09:42 06.10.2019
709 Clouds 20 1018 94 10000 5.7 80 09:21 06.10.2019
710 Clouds 20 1018 94 10000 5.7 80 09:21 06.10.2019
711 Clouds 20 1018 88 10000 5.1 70 08:59 06.10.2019
712 Clouds 20 1018 88 10000 5.1 70 08:40 06.10.2019
713 Clouds 20 1018 88 10000 5.1 70 08:20 06.10.2019
714 Clouds 20 1018 94 10000 3.6 60 07:42 06.10.2019
715 Clouds 20 1018 94 10000 3.6 60 07:18 06.10.2019
716 Clouds 20 1019 94 10000 3.6 30 06:19 06.10.2019
717 Clouds 20 1019 100 10000 3.6 20 05:27 06.10.2019
718 Clouds 20 1019 100 10000 3.6 30 03:23 06.10.2019
719 Clouds 20 1019 88 10000 2.6 30 02:40 06.10.2019
720 Clouds 20 1019 88 10000 2.6 30 02:40 06.10.2019
721 Clouds 20 1019 94 10000 2.6 40 01:57 06.10.2019
722 Clouds 20 1019 94 10000 1 20 01:37 06.10.2019
723 Clouds 20 1019 94 10000 1 20 01:18 06.10.2019
724 Clouds 20 1019 100 10000 3.1 50 00:45 06.10.2019
725 Clouds 20 1020 100 10000 2.1 20 00:21 06.10.2019
726 Clouds 20 1019 100 10000 5.12 24.318 23:43 05.10.2019
727 Clouds 20 1019 100 10000 5.12 24.318 23:21 05.10.2019
728 Clouds 20 1019 100 10000 5.12 24.318 22:57 05.10.2019
729 Clear 20 1018 84 0 0.45 20 22:38 05.10.2019
730 Clear 20 1018 83 0 5.12 24.318 22:19 05.10.2019
731 Clouds 21 1018 94 10000 3.6 10 21:43 05.10.2019
732 Clouds 21 1018 77 10000 5.7 340 21:24 05.10.2019
733 Clouds 21 1017 68 10000 4.6 350 20:59 05.10.2019
734 Clouds 21 1017 68 10000 4.6 350 20:40 05.10.2019
735 Clouds 21 1017 68 10000 4.6 350 20:20 05.10.2019
736 Clouds 22 1017 73 10000 4.6 20 19:58 05.10.2019
737 Clouds 23 1017 60 10000 4.6 340 19:37 05.10.2019
738 Clouds 23 1017 60 10000 4.6 340 19:18 05.10.2019
739 Clouds 23 1017 57 10000 4.6 340 18:55 05.10.2019
740 Clouds 23 1017 57 10000 4.6 330 18:36 05.10.2019
741 Clouds 23 1017 57 10000 4.6 330 18:18 05.10.2019
742 Clouds 23 1017 57 10000 5.1 330 17:42 05.10.2019
743 Clouds 23 1017 57 10000 5.1 330 17:22 05.10.2019
744 Clouds 24 1017 54 10000 4.1 340 16:57 05.10.2019
745 Clouds 23 1017 54 10000 5.1 350 16:39 05.10.2019
746 Clouds 23 1017 54 10000 5.1 350 16:20 05.10.2019
747 Clouds 23 1017 54 10000 5.1 350 16:20 05.10.2019
748 Clouds 23 1017 65 10000 5.7 360 15:56 05.10.2019
749 Clouds 23 1017 65 10000 5.1 20 15:38 05.10.2019
750 Clouds 23 1017 65 10000 5.1 20 15:19 05.10.2019
751 Clouds 23 1017 65 10000 5.1 20 14:43 05.10.2019
752 Clouds 22 1018 65 10000 4.6 20 14:24 05.10.2019
753 Clouds 22 1018 69 10000 5.7 360 13:58 05.10.2019
754 Clouds 22 1018 73 10000 4.6 10 13:39 05.10.2019
755 Clouds 22 1018 73 10000 4.6 10 13:18 05.10.2019
756 Clouds 21 1018 83 10000 4.6 20 12:42 05.10.2019
757 Clouds 21 1018 83 10000 4.6 20 12:19 05.10.2019
758 Clouds 20 1018 94 10000 3.6 40 11:41 05.10.2019
759 Clouds 20 1018 94 10000 3.6 40 11:20 05.10.2019
760 Clouds 20 1017 100 10000 2.6 60 10:57 05.10.2019
761 Clouds 20 1017 100 10000 2.6 60 10:57 05.10.2019
762 Clouds 20 1017 100 10000 3.1 50 10:39 05.10.2019
763 Clouds 19 1017 100 10000 3.1 50 10:20 05.10.2019
764 Clouds 17 1017 100 10000 2.1 20 09:42 05.10.2019
765 Clouds 17 1017 100 10000 2.1 20 09:23 05.10.2019
766 Clouds 16 1017 100 10000 2.6 40 08:43 05.10.2019
767 Clear 17 1017 100 10000 2.1 40 08:24 05.10.2019
768 Clear 17 1016 100 10000 2.1 60 07:59 05.10.2019
769 Clear 17 1016 93 10000 2.1 50 07:40 05.10.2019
770 Clear 17 1016 93 10000 2.1 50 07:21 05.10.2019
771 Clear 17 1017 100 10000 3.1 70 06:52 05.10.2019
772 Clear 18 1017 93 10000 3.1 70 06:22 05.10.2019
773 Clouds 18 1017 88 10000 4.6 60 05:20 05.10.2019
774 Clear 19 1017 93 10000 3.6 30 03:32 05.10.2019
775 Clear 19 1018 93 10000 3.6 30 02:29 05.10.2019
776 Clouds 19 1018 88 10000 3.1 40 01:27 05.10.2019
777 Clouds 19 1018 88 10000 2.6 50 00:48 05.10.2019
778 Clouds 19 1018 82 10000 3.1 30 00:27 05.10.2019
779 Clouds 20 1018 88 10000 4.1 40 23:57 04.10.2019
780 Clouds 20 1018 82 10000 4.1 10 23:39 04.10.2019
781 Clouds 20 1018 82 10000 4.1 10 23:21 04.10.2019
782 Clouds 21 1018 100 10000 4.6 40 22:42 04.10.2019
783 Clouds 21 1018 100 10000 4.6 40 22:24 04.10.2019
784 Clouds 20 1018 88 10000 5.1 360 21:59 04.10.2019
785 Clear 21 1017 100 10000 5.7 10 21:40 04.10.2019
786 Clear 21 1017 100 10000 5.7 10 21:22 04.10.2019
787 Clear 21 1017 94 10000 6.2 20 20:58 04.10.2019
788 Clear 21 1017 88 10000 6.2 10 20:40 04.10.2019
789 Clear 21 1017 88 10000 6.2 10 20:21 04.10.2019
790 Clear 22 1017 69 10000 7.7 10 19:55 04.10.2019
791 Clear 22 1016 64 10000 8.2 10 19:37 04.10.2019
792 Clear 22 1016 64 10000 8.2 10 19:19 04.10.2019
793 Clear 23 1017 50 10000 7.2 10 18:40 04.10.2019
794 Clear 23 1017 50 10000 7.2 10 18:20 04.10.2019
795 Clear 23 1017 41 10000 7.2 20 17:59 04.10.2019
796 Clear 24 1017 34 10000 7.7 10 17:39 04.10.2019
797 Clear 24 1017 34 10000 7.7 10 17:21 04.10.2019
798 Clear 24 1017 36 10000 6.7 10 16:57 04.10.2019
799 Clear 24 1017 32 10000 7.2 360 16:39 04.10.2019
800 Clear 24 1017 32 10000 7.2 360 16:39 04.10.2019
801 Clear 24 1017 32 10000 7.2 360 16:18 04.10.2019
802 Clear 24 1017 39 10000 4.1 10 15:55 04.10.2019
803 Clear 24 1017 39 10000 5.78 17.746 15:37 04.10.2019
804 Clear 24 1017 39 10000 4.54 35.825 15:19 04.10.2019
805 Clear 24 1018 34 10000 1.5 40 14:54 04.10.2019
806 Clear 23 1018 42 10000 2.1 40 14:36 04.10.2019
807 Clear 23 1018 42 10000 2.1 40 14:18 04.10.2019
808 Clear 22 1019 47 10000 4.6 360 13:43 04.10.2019
809 Clear 21 1019 47 10000 4.6 360 13:19 04.10.2019
810 Clear 21 1019 53 10000 4.1 30 12:46 04.10.2019
811 Clear 21 1019 53 10000 4.1 30 12:46 04.10.2019
812 Clear 20 1019 56 10000 3.6 10 12:28 04.10.2019
813 Clouds 19 1020 72 10000 3.6 10 11:59 04.10.2019
814 Clouds 19 1020 72 10000 3.6 10 11:40 04.10.2019
815 Clouds 19 1020 72 10000 3.6 10 11:40 04.10.2019
816 Clouds 19 1020 72 10000 3.6 10 11:20 04.10.2019
817 Clouds 18 1019 100 6000 4.49 50.248 10:40 04.10.2019
818 Clouds 18 1019 100 6000 4.49 50.248 10:20 04.10.2019
819 Mist 17 1019 100 4000 4.49 50.248 09:47 04.10.2019
820 Fog 16 1019 100 500 2.1 100 09:27 04.10.2019
821 Fog 16 1019 100 800 2.6 50 08:56 04.10.2019
822 Clouds 17 1018 93 7000 3.6 20 08:38 04.10.2019
823 Clouds 17 1018 93 7000 3.6 20 08:19 04.10.2019
824 Clouds 17 1019 93 5000 3.6 360 07:44 04.10.2019
825 Clouds 17 1018 93 5000 2.6 10 07:22 04.10.2019
826 Clouds 16 1019 93 6000 2.6 360 06:44 04.10.2019
827 Clouds 16 1019 93 6000 2.6 360 06:44 04.10.2019
828 Clouds 16 1018 93 6000 2.1 360 06:25 04.10.2019
829 Clouds 17 1019 88 6000 2.1 360 05:38 04.10.2019
830 Clouds 17 1019 88 6000 2.1 360 05:18 04.10.2019
831 Clouds 17 1019 100 10000 3.94 40.124 03:48 04.10.2019
832 Clouds 17 1019 88 10000 2.1 30 02:53 04.10.2019
833 Clouds 18 1020 82 10000 2.1 40 01:55 04.10.2019
834 Clouds 18 1020 82 10000 2.1 40 01:55 04.10.2019
835 Clouds 18 1020 82 10000 2.6 30 01:30 04.10.2019
836 Clouds 18 1020 77 10000 2.6 30 00:57 04.10.2019
837 Clouds 19 1020 77 10000 3.6 10 23:56 03.10.2019
838 Clouds 19 1020 77 10000 4.1 360 23:37 03.10.2019
839 Clouds 19 1020 77 10000 4.1 360 23:18 03.10.2019
840 Clouds 19 1020 77 10000 4.1 360 23:18 03.10.2019
841 Clouds 19 1020 77 10000 4.1 360 23:18 03.10.2019
842 Clouds 19 1020 77 10000 4.1 360 23:18 03.10.2019
843 Clouds 19 1020 77 10000 3.1 360 22:55 03.10.2019
844 Clouds 19 1020 82 10000 4.1 340 22:37 03.10.2019
845 Clouds 19 1020 82 10000 4.1 340 22:18 03.10.2019
846 Clouds 19 1020 82 10000 3.6 350 21:55 03.10.2019
847 Clouds 20 1020 72 10000 4.1 340 21:36 03.10.2019
848 Clouds 20 1020 72 10000 4.1 340 21:18 03.10.2019
849 Clouds 20 1020 72 10000 4.1 340 21:18 03.10.2019
850 Clear 20 1019 77 10000 6.7 360 20:41 03.10.2019
851 Clear 21 1019 77 10000 6.7 360 20:23 03.10.2019
852 Clear 22 1019 69 10000 6.7 360 19:59 03.10.2019
853 Clear 23 1019 60 10000 5.7 350 19:41 03.10.2019
854 Clear 23 1019 60 10000 5.7 350 19:22 03.10.2019
855 Clear 23 1019 60 10000 0.5 340 18:58 03.10.2019
856 Clear 24 1019 54 10000 4.1 10 18:39 03.10.2019
857 Clear 23 1019 54 10000 4.1 10 18:19 03.10.2019
858 Clear 23 1019 54 10000 4.1 10 17:56 03.10.2019
859 Clouds 23 1020 54 0 5.1 350 17:37 03.10.2019
860 Clouds 23 1020 54 0 5.1 350 17:19 03.10.2019
861 Clear 24 1020 51 10000 2.6 10 16:41 03.10.2019
862 Clear 24 1020 51 10000 2.6 10 16:23 03.10.2019
863 Clear 23 1020 50 10000 5.84 3.488 15:55 03.10.2019
864 Clear 23 1020 50 10000 5.84 3.488 15:55 03.10.2019
865 Clear 26 1020 50 10000 3.6 10 15:37 03.10.2019
866 Clear 24 1020 50 10000 3.6 10 15:19 03.10.2019
867 Clouds 23 1021 57 10000 4.18 16.689 14:43 03.10.2019
868 Clouds 23 1021 57 10000 4.18 16.689 14:24 03.10.2019
869 Clouds 23 1021 64 10000 4.18 16.689 13:57 03.10.2019
870 Clouds 22 1022 64 10000 4.18 16.689 13:39 03.10.2019
871 Clouds 22 1022 64 10000 4.1 16.812 13:19 03.10.2019
872 Clouds 23 1022 64 10000 1.5 20 12:55 03.10.2019
873 Clouds 23 1022 64 10000 1.5 20 12:55 03.10.2019
874 Clouds 23 1022 64 10000 1.5 20 12:55 03.10.2019
875 Clouds 22 1022 68 10000 4.1 16.812 12:36 03.10.2019
876 Clouds 22 1022 68 10000 3.89 25.202 12:18 03.10.2019
877 Clouds 21 1022 73 10000 3.89 25.202 11:40 03.10.2019
878 Clouds 21 1022 73 10000 3.89 25.202 11:22 03.10.2019
879 Clouds 21 1022 77 10000 3.89 25.202 10:58 03.10.2019
880 Clouds 20 1022 77 10000 3.89 25.202 10:39 03.10.2019
881 Clouds 20 1022 77 10000 3.89 25.202 10:18 03.10.2019
882 Clouds 20 1021 82 10000 3.89 25.202 09:57 03.10.2019
883 Clouds 19 1021 82 10000 3.89 25.202 09:38 03.10.2019
884 Clouds 19 1021 82 10000 3.04 17.166 09:19 03.10.2019
885 Clouds 19 1021 82 10000 3.58 19.808 08:43 03.10.2019
886 Clouds 19 1021 88 10000 3.58 19.808 08:25 03.10.2019
887 Clouds 18 1020 88 10000 3.58 19.808 07:56 03.10.2019
888 Clouds 19 1020 88 10000 3.58 19.808 07:37 03.10.2019
889 Clouds 19 1020 88 10000 3.58 19.808 07:19 03.10.2019
890 Clouds 19 1020 88 10000 3.58 19.808 06:27 03.10.2019
891 Clouds 19 1020 93 10000 3.43 29.451 05:50 03.10.2019
892 Clouds 19 1020 88 10000 3.43 29.451 05:31 03.10.2019
893 Clouds 19 1020 88 10000 3.43 29.451 04:47 03.10.2019
894 Clouds 19 1020 88 10000 3.43 29.451 04:18 03.10.2019
895 Clouds 19 1021 93 10000 4.21 36.26 03:19 03.10.2019
896 Clouds 19 1021 93 10000 4.21 36.26 03:19 03.10.2019
897 Clouds 19 1021 100 10000 1.5 10 02:27 03.10.2019
898 Clouds 19 1021 100 10000 4.21 36.26 01:41 03.10.2019
899 Clouds 19 1021 100 10000 4.23 39.394 00:53 03.10.2019
900 Clouds 19 1022 100 10000 4.23 39.394 00:32 03.10.2019
901 Clouds 19 1022 94 10000 4.68 32.048 23:58 02.10.2019
902 Clouds 19 1021 100 10000 4.68 32.048 23:38 02.10.2019
903 Clouds 19 1021 100 10000 4.68 32.048 23:38 02.10.2019
904 Clouds 19 1021 100 10000 4.68 32.048 23:19 02.10.2019
905 Clouds 20 1021 100 10000 4.68 32.048 22:42 02.10.2019
906 Clouds 20 1021 100 10000 4.68 32.048 22:20 02.10.2019
907 Clouds 20 1021 94 10000 2.1 20 21:55 02.10.2019
908 Clouds 20 1021 88 10000 5.1 10 21:37 02.10.2019
909 Clouds 20 1021 88 10000 5.1 10 21:18 02.10.2019
910 Clouds 21 1020 73 10000 5.1 350 20:55 02.10.2019
911 Clouds 21 1020 73 10000 5.1 350 20:55 02.10.2019
912 Clouds 21 1020 73 10000 5.1 350 20:55 02.10.2019
913 Clouds 21 1020 73 10000 5.1 350 20:55 02.10.2019
914 Clouds 21 1020 73 10000 5.7 350 20:37 02.10.2019
915 Clouds 21 1020 73 10000 5.7 350 20:19 02.10.2019
916 Clouds 22 1020 78 10000 7.2 20 19:44 02.10.2019
917 Clouds 23 1020 78 10000 6.7 10 19:23 02.10.2019
918 Clouds 23 1020 73 10000 8.2 360 18:58 02.10.2019
919 Clouds 23 1020 69 10000 8.7 360 18:40 02.10.2019
920 Clouds 23 1020 69 10000 8.7 360 18:40 02.10.2019
921 Clouds 23 1020 69 10000 8.7 360 18:21 02.10.2019
922 Clear 24 1019 54 10000 7.2 330 17:58 02.10.2019
923 Clear 23 1019 54 10000 7.2 330 17:38 02.10.2019
924 Clear 24 1019 54 10000 7.2 330 17:20 02.10.2019
925 Clear 24 1019 47 10000 7.7 330 16:56 02.10.2019
926 Clear 24 1019 47 10000 7.2 330 16:36 02.10.2019
927 Clear 24 1019 47 10000 7.2 330 16:18 02.10.2019
928 Clear 24 1019 54 10000 5.76 4.768 15:41 02.10.2019
929 Clear 24 1020 57 10000 4.9 24.666 15:23 02.10.2019
930 Clear 23 1020 61 10000 1.5 40 14:58 02.10.2019
931 Clear 23 1020 61 10000 1.5 40 14:40 02.10.2019
932 Clear 23 1020 65 10000 6.2 20 14:21 02.10.2019
933 Clouds 23 1021 69 10000 4.9 24.666 13:48 02.10.2019
934 Clouds 23 1021 73 10000 4.1 50 13:29 02.10.2019
935 Clouds 22 1022 78 10000 3.6 50 12:59 02.10.2019
936 Clouds 22 1022 78 10000 3.6 50 12:39 02.10.2019
937 Clouds 22 1022 83 10000 3.6 50 12:20 02.10.2019
938 Clouds 21 1022 83 10000 4.1 40 11:45 02.10.2019
939 Clouds 22 1022 88 10000 4.19 51.436 11:23 02.10.2019
940 Clouds 21 1022 93 10000 4.19 51.436 10:42 02.10.2019
941 Clouds 19 1021 100 10000 4.19 51.436 10:20 02.10.2019
942 Clouds 18 1021 100 10000 4.19 51.436 09:59 02.10.2019
943 Clouds 18 1021 100 10000 4.19 51.436 09:38 02.10.2019
944 Clear 16 1020 100 10000 2.97 41.081 09:20 02.10.2019
945 Clear 15 1020 100 10000 3.85 40.58 08:45 02.10.2019
946 Clear 16 1020 100 10000 3.85 40.58 08:25 02.10.2019
947 Clear 16 1020 100 10000 3.85 40.58 08:25 02.10.2019
948 Clouds 17 1020 100 10000 3.85 40.58 07:59 02.10.2019
949 Clouds 17 1020 100 10000 3.85 40.58 07:39 02.10.2019
950 Clouds 17 1020 100 10000 3.85 40.58 07:20 02.10.2019
951 Clouds 18 1020 100 10000 3.85 40.58 06:36 02.10.2019
952 Clouds 18 1020 100 10000 2.72 48.901 05:55 02.10.2019
953 Clouds 18 1020 100 10000 2.72 48.901 05:55 02.10.2019
954 Clouds 19 1020 100 10000 2.72 48.901 05:24 02.10.2019
955 Clouds 18 1021 100 10000 2.72 48.901 04:53 02.10.2019
956 Clouds 19 1021 100 10000 2.72 48.901 03:52 02.10.2019
957 Clear 19 1021 100 10000 2.85 35.643 02:41 02.10.2019
958 Clear 19 1022 100 10000 2.85 35.643 02:23 02.10.2019
959 Clear 20 1021 100 10000 3.1 20 01:24 02.10.2019
960 Clear 20 1021 100 10000 2.1 10 00:49 02.10.2019
961 Clear 20 1021 100 10000 3.23 41.091 00:25 02.10.2019
962 Clear 20 1021 100 10000 3.81 28.9 23:43 01.10.2019
963 Clear 20 1020 100 10000 3.6 20 23:25 01.10.2019
964 Clear 20 1020 100 10000 5.1 10 22:59 01.10.2019
965 Clear 20 1020 100 10000 5.1 10 22:39 01.10.2019
966 Clear 20 1020 94 10000 4.6 10 22:19 01.10.2019
967 Clear 20 1019 94 10000 4.1 10 21:56 01.10.2019
968 Clear 20 1019 94 10000 4.1 10 21:37 01.10.2019
969 Clear 21 1019 88 10000 5.1 10 21:19 01.10.2019
970 Clear 22 1019 73 10000 5.1 360 20:55 01.10.2019
971 Clear 22 1019 73 10000 5.1 360 20:36 01.10.2019
972 Clear 22 1019 73 10000 5.1 360 20:18 01.10.2019
973 Clear 23 1019 69 10000 6.2 350 19:45 01.10.2019
974 Clear 23 1019 65 10000 5.7 360 19:27 01.10.2019
975 Clear 23 1018 61 10000 6.2 350 18:59 01.10.2019
976 Clear 23 1018 61 10000 6.2 350 18:39 01.10.2019
977 Clear 24 1018 54 10000 5.1 10 18:21 01.10.2019
978 Clear 25 1018 45 10000 5.1 10 17:57 01.10.2019
979 Clear 28 1018 45 10000 5.1 10 17:38 01.10.2019
980 Clear 25 1018 45 10000 4.1 10 17:19 01.10.2019
981 Clear 24 1018 47 10000 5.1 10 16:57 01.10.2019
982 Clear 24 1018 47 10000 5.1 10 16:57 01.10.2019
983 Clear 24 1018 47 10000 5.1 10 16:39 01.10.2019
984 Clear 24 1019 57 10000 6.2 350 16:20 01.10.2019
985 Clear 24 1019 54 10000 6.2 350 15:42 01.10.2019
986 Clear 24 1019 51 10000 6.2 350 15:21 01.10.2019
987 Clear 23 1019 61 10000 5.1 350 14:41 01.10.2019
988 Clear 23 1019 57 10000 5.1 10 14:20 01.10.2019
989 Clear 22 1019 65 10000 4.6 10 13:57 01.10.2019
990 Clear 22 1019 65 10000 4.6 10 13:39 01.10.2019
991 Clouds 22 1019 69 10000 5.1 360 13:20 01.10.2019
992 Clouds 22 1019 69 10000 5.1 360 13:20 01.10.2019
993 Clouds 22 1019 69 10000 5.1 360 13:20 01.10.2019
994 Clouds 22 1019 73 10000 4.1 360 12:57 01.10.2019
995 Clouds 22 1019 73 10000 4.1 360 12:39 01.10.2019
996 Clouds 22 1019 73 10000 4.1 360 12:39 01.10.2019
997 Clouds 21 1019 78 10000 4.1 20 12:18 01.10.2019
998 Clouds 21 1019 94 7000 3.6 30 11:57 01.10.2019
999 Clouds 21 1019 100 7000 3.1 20 11:37 01.10.2019
1000 Clouds 20 1019 100 7000 3.1 20 11:18 01.10.2019
1001 Mist 20 1019 100 3900 2.1 20 10:48 01.10.2019
1002 Fog 21 1018 100 200 2.6 20 10:28 01.10.2019
1003 Fog 20 1018 100 200 2.1 40 09:47 01.10.2019
1004 Fog 19 1017 100 200 1 0 09:27 01.10.2019
1005 Fog 18 1017 87 500 1.5 70 08:46 01.10.2019
1006 Fog 18 1017 87 5000 1.5 80 08:28 01.10.2019
1007 Clouds 17 1017 87 7000 1.5 140 07:59 01.10.2019
1008 Clouds 17 1017 87 7000 1.5 140 07:41 01.10.2019
1009 Clear 18 1017 93 10000 1 0 07:20 01.10.2019
1010 Clear 18 1017 88 10000 0.5 0 06:43 01.10.2019
1011 Clear 18 1017 88 10000 2.1 350 06:18 01.10.2019
1012 Clear 19 1016 100 10000 3.1 360 05:45 01.10.2019
1013 Clouds 18 1016 100 10000 3.1 350 04:46 01.10.2019
1014 Clouds 19 1017 88 10000 3.98 353.677 03:49 01.10.2019
1015 Clouds 19 1017 77 10000 1 320 02:20 01.10.2019
1016 Clear 20 1018 88 0 1.5 180 01:57 01.10.2019
1017 Clear 21 1017 73 10000 2.6 20 00:53 01.10.2019
1018 Clear 21 1017 73 10000 3.1 350 00:26 01.10.2019
1019 Clear 21 1017 73 10000 2.6 350 23:42 30.09.2019
1020 Clear 21 1017 69 10000 2.6 350 23:24 30.09.2019
1021 Clear 22 1017 69 10000 2.6 340 22:59 30.09.2019
1022 Clear 21 1016 69 10000 4.1 320 22:40 30.09.2019
1023 Clear 21 1016 69 10000 4.1 320 22:40 30.09.2019
1024 Clear 21 1016 69 10000 4.1 320 22:22 30.09.2019
1025 Clear 22 1016 64 10000 4.6 330 21:56 30.09.2019
1026 Clear 22 1016 64 10000 4.6 330 21:56 30.09.2019
1027 Clear 22 1016 64 10000 4.6 330 21:37 30.09.2019
1028 Clear 23 1015 61 10000 3.6 350 21:19 30.09.2019
1029 -273 0 0 0 0 0 20:55 30.09.2019
1030 Clear 24 1015 40 10000 2.6 10 20:55 30.09.2019
1031 Clear 24 1015 40 10000 2.6 10 20:37 30.09.2019
1032 Clear 26 1014 26 10000 6.7 10 20:19 30.09.2019
1033 Clear 27 1014 26 10000 6.7 10 19:56 30.09.2019
1034 Clear 27 1014 26 10000 6.7 10 19:56 30.09.2019
1035 Clear 27 1014 26 10000 6.7 10 19:56 30.09.2019
1036 Clear 26 1014 26 10000 6.7 10 19:37 30.09.2019
1037 Clear 27 1014 21 10000 7.2 360 19:18 30.09.2019
1038 Clear 27 1014 20 10000 7.2 10 18:42 30.09.2019
1039 Clear 28 1014 22 10000 7.7 10 18:22 30.09.2019
1040 Clear 29 1013 19 10000 8.2 10 17:59 30.09.2019
1041 Clear 28 1013 19 10000 8.2 10 17:39 30.09.2019
1042 Clear 29 1013 17 10000 8.7 350 17:21 30.09.2019
1043 Clear 31 1013 14 10000 2.6 0 16:56 30.09.2019
1044 Clear 30 1014 16 10000 2.6 50 16:37 30.09.2019
1045 Clear 29 1014 16 10000 2.6 50 16:18 30.09.2019
1046 Clouds 30 1014 17 0 2.6 30 15:55 30.09.2019
1047 Clouds 30 1014 17 0 2.6 30 15:55 30.09.2019
1048 Clear 30 1014 17 10000 3.1 60 15:36 30.09.2019
1049 Clear 30 1014 17 10000 3.1 60 15:18 30.09.2019
1050 Clear 29 1015 19 10000 3.6 50 14:55 30.09.2019
1051 Clear 29 1015 17 10000 3.6 30 14:36 30.09.2019
1052 Clear 29 1015 17 10000 3.6 30 14:18 30.09.2019
1053 Clear 28 1016 19 10000 3.6 20 13:44 30.09.2019
1054 Clear 35 1016 19 10000 3.1 360 13:22 30.09.2019
1055 Clear 33 1016 24 10000 2.1 50 12:58 30.09.2019
1056 Clear 33 1016 24 10000 2.1 50 12:58 30.09.2019
1057 Clear 33 1016 24 10000 2.1 50 12:40 30.09.2019
1058 Clear 25 1016 24 10000 2.1 50 12:20 30.09.2019
1059 Clear 24 1016 27 10000 2.6 90 11:43 30.09.2019
1060 Clear 23 1016 34 10000 2.6 90 11:22 30.09.2019
1061 Clear 21 1016 49 10000 1 70 10:59 30.09.2019
1062 Clear 20 1016 49 10000 1 70 10:39 30.09.2019
1063 Clear 19 1016 68 10000 1.5 90 10:19 30.09.2019
1064 Clear 18 1016 77 10000 1.5 130 09:58 30.09.2019
1065 Clear 17 1016 77 10000 1.5 130 09:39 30.09.2019
1066 Clear 17 1016 77 10000 1.5 130 09:39 30.09.2019
1067 Clear 16 1016 87 10000 1.5 120 09:19 30.09.2019
1068 Clear 16 1016 93 10000 2.1 160 08:46 30.09.2019
1069 Clear 16 1016 93 10000 2.6 70 08:28 30.09.2019
1070 Clear 16 1016 100 10000 2.6 110 07:44 30.09.2019
1071 Clear 17 1016 100 10000 3.1 100 07:26 30.09.2019
1072 Clear 17 1016 100 10000 3.1 110 06:50 30.09.2019
1073 Clear 17 1016 100 10000 3.1 110 06:50 30.09.2019
1074 Clear 18 1016 100 10000 2.1 80 06:32 30.09.2019
1075 Clear 19 1017 93 10000 2.1 60 05:46 30.09.2019
1076 Clear 19 1018 94 10000 2.6 30 03:33 30.09.2019
1077 Clear 21 1018 88 10000 2.1 30 02:46 30.09.2019
1078 Clear 20 1019 94 10000 3.1 50 01:34 30.09.2019
1079 Clear 20 1019 100 10000 3.1 60 00:42 30.09.2019
1080 Clear 20 1019 94 10000 3.1 20 00:21 30.09.2019
1081 Clear 21 1019 94 10000 3.1 20 23:45 29.09.2019
1082 Clear 21 1019 94 10000 2.1 20 23:23 29.09.2019
1083 Clear 20 1019 83 10000 3.1 360 22:55 29.09.2019
1084 Clear 20 1019 83 10000 3.1 360 22:37 29.09.2019
1085 Clear 20 1019 83 10000 3.1 360 22:37 29.09.2019
1086 Clear 21 1018 88 10000 3.6 10 22:19 29.09.2019
1087 Clear 21 1018 78 10000 3.1 350 21:56 29.09.2019
1088 Clear 21 1018 78 10000 3.1 350 21:37 29.09.2019
1089 Clear 22 1018 83 10000 3.1 20 21:19 29.09.2019
1090 Clear 22 1018 69 10000 4.1 360 20:44 29.09.2019
1091 Clear 23 1017 61 10000 4.1 20 20:20 29.09.2019
1092 Clear 24 1017 44 10000 4.6 10 19:59 29.09.2019
1093 Clear 24 1017 44 10000 4.6 10 19:37 29.09.2019
1094 Clear 24 1017 44 10000 4.6 10 19:37 29.09.2019
1095 Clear 24 1017 37 10000 5.1 360 19:19 29.09.2019
1096 Clear 25 1017 37 10000 4.1 350 18:56 29.09.2019
1097 Clear 25 1017 37 10000 4.1 350 18:56 29.09.2019
1098 Clear 26 1017 35 10000 4.6 360 18:38 29.09.2019
1099 Clear 25 1017 35 10000 4.6 360 18:19 29.09.2019
1100 Clear 25 1017 35 10000 4.6 350 17:58 29.09.2019
1101 Clear 25 1017 35 10000 4.6 350 17:38 29.09.2019
1102 Clear 25 1017 37 10000 4.6 340 17:19 29.09.2019
1103 Clear 25 1018 42 10000 4.1 330 16:58 29.09.2019
1104 Clear 25 1018 42 10000 4.1 330 16:40 29.09.2019
1105 Clear 25 1018 38 10000 4.1 350 16:19 29.09.2019
1106 Clear 25 1018 38 10000 4.1 350 16:19 29.09.2019
1107 Clear 25 1018 40 10000 3.1 360 15:56 29.09.2019
1108 Clear 25 1018 45 10000 3.6 20 15:36 29.09.2019
1109 Clear 25 1018 45 10000 3.6 20 15:18 29.09.2019
1110 Clear 25 1019 43 10000 3.1 40 14:55 29.09.2019
1111 Clear 24 1019 51 10000 2.1 60 14:36 29.09.2019
1112 Clear 24 1019 51 10000 2.1 60 14:18 29.09.2019
1113 Clear 24 1020 51 10000 1.5 10 13:41 29.09.2019
1114 Clear 23 1020 61 10000 1.5 40 13:19 29.09.2019
1115 Clear 23 1020 65 10000 1.5 30 12:58 29.09.2019
1116 Clear 23 1020 65 10000 1.5 30 12:40 29.09.2019
1117 Clear 23 1020 65 10000 1.5 30 12:40 29.09.2019
1118 Clear 23 1020 78 10000 2.39 37.661 12:21 29.09.2019
1119 Clouds 22 1020 88 8000 2.39 37.661 11:57 29.09.2019
1120 Clouds 22 1020 88 8000 2.39 37.661 11:39 29.09.2019
1121 Clouds 21 1020 94 8000 1 0 11:19 29.09.2019
1122 Clouds 21 1020 100 6000 2.39 37.661 10:57 29.09.2019
1123 Clouds 21 1020 100 6000 2.39 37.661 10:57 29.09.2019
1124 Clouds 21 1020 100 6000 2.39 37.661 10:37 29.09.2019
1125 Clouds 21 1020 100 5000 1 0 10:18 29.09.2019
1126 Clouds 21 1020 100 5000 1 0 10:18 29.09.2019
1127 Mist 20 1019 100 4400 2.39 37.661 09:45 29.09.2019
1128 Mist 19 1019 100 4400 2.47 20.746 09:21 29.09.2019
1129 Clouds 19 1019 100 10000 2.47 20.746 08:58 29.09.2019
1130 Clouds 19 1019 100 10000 2.47 20.746 08:39 29.09.2019
1131 Clouds 19 1019 100 10000 2.39 21.205 08:20 29.09.2019
1132 Clouds 19 1018 100 10000 2.39 21.205 07:43 29.09.2019
1133 -273 0 0 0 0 0 07:24 29.09.2019
1134 Clouds 19 1018 100 9000 2.39 21.205 07:24 29.09.2019
1135 Clouds 19 1018 100 7000 2.39 21.205 06:43 29.09.2019
1136 Fog 19 1018 100 500 2.02 356.312 05:23 29.09.2019
1137 Fog 19 1018 100 500 2.02 356.312 04:38 29.09.2019
1138 Fog 19 1018 100 500 2.02 356.312 04:18 29.09.2019
1139 Clouds 19 1019 100 7000 1.92 357.106 02:47 29.09.2019
1140 Clear 19 1019 100 0 1.92 357.106 02:18 29.09.2019
1141 Clouds 20 1019 100 10000 1.95 2.028 01:32 29.09.2019
1142 Clouds 20 1019 100 10000 1.95 2.028 00:48 29.09.2019
1143 Clear 20 1019 100 10000 2.05 39.942 00:20 29.09.2019
1144 Clear 20 1019 100 10000 2.6 60 23:43 28.09.2019
1145 Clear 22 1019 94 10000 2.1 20 23:22 28.09.2019
1146 Clear 20 1018 88 10000 2.6 20 22:57 28.09.2019
1147 Clear 20 1018 88 10000 2.6 20 22:38 28.09.2019
1148 Clear 21 1018 83 10000 2.6 20 22:20 28.09.2019
1149 Clear 21 1018 78 10000 3.1 10 21:56 28.09.2019
1150 Clear 21 1018 78 10000 3.1 10 21:38 28.09.2019
1151 Clear 21 1017 73 10000 3.1 10 21:19 28.09.2019
1152 Clear 21 1017 73 10000 3.1 10 21:19 28.09.2019
1153 Clear 22 1017 69 10000 2.1 10 20:57 28.09.2019
1154 Clear 22 1017 69 10000 2.1 10 20:57 28.09.2019
1155 Clear 22 1017 69 10000 2.1 10 20:38 28.09.2019
1156 Clear 23 1017 61 10000 4.1 20 20:18 28.09.2019
1157 Clear 22 1017 54 10000 4.6 10 19:55 28.09.2019
1158 Clear 22 1016 51 10000 6.7 10 19:36 28.09.2019
1159 Clear 22 1016 51 10000 6.7 10 19:18 28.09.2019
1160 Clear 23 1016 45 10000 7.2 10 18:42 28.09.2019
1161 Clear 25 1016 39 10000 7.7 350 18:22 28.09.2019
1162 Clear 25 1016 35 10000 7.2 340 17:59 28.09.2019
1163 Clear 24 1016 35 10000 7.2 340 17:40 28.09.2019
1164 Clear 25 1016 33 10000 6.2 340 17:21 28.09.2019
1165 Clear 25 1016 29 10000 5.7 360 16:55 28.09.2019
1166 Clear 26 1016 29 10000 5.7 360 16:37 28.09.2019
1167 Clear 25 1016 29 10000 5.7 360 16:18 28.09.2019
1168 Clear 34 1017 32 10000 6.2 340 15:40 28.09.2019
1169 Clear 25 1017 28 10000 3.1 10 15:21 28.09.2019
1170 Clear 25 1017 27 10000 2.1 30 14:55 28.09.2019
1171 Clear 25 1017 27 10000 2.1 30 14:55 28.09.2019
1172 Clear 24 1017 27 10000 2.1 30 14:37 28.09.2019
1173 Clear 24 1017 27 10000 2.1 30 14:37 28.09.2019
1174 Clear 24 1018 29 10000 4.07 21.349 14:18 28.09.2019
1175 Clear 24 1018 31 10000 1.5 40 13:43 28.09.2019
1176 Clear 23 1018 33 10000 3.6 60 13:20 28.09.2019
1177 Clear 23 1018 33 10000 3.6 60 13:20 28.09.2019
1178 Clear 23 1019 35 10000 4.1 50 12:57 28.09.2019
1179 Clear 22 1019 35 10000 4.1 50 12:39 28.09.2019
1180 Clear 22 1019 39 10000 5.1 50 12:18 28.09.2019
1181 Clear 21 1019 47 10000 4.1 50 11:41 28.09.2019
1182 Clear 20 1019 60 10000 3.6 60 11:20 28.09.2019
1183 Clear 20 1018 68 10000 3.1 60 10:56 28.09.2019
1184 Clear 19 1018 68 10000 3.1 60 10:38 28.09.2019
1185 Clear 19 1018 77 10000 3.96 48.986 10:18 28.09.2019
1186 Mist 18 1018 88 10000 3.96 48.986 09:41 28.09.2019
1187 Mist 18 1018 82 10000 1 0 09:20 28.09.2019
1188 Mist 18 1018 82 10000 2.1 90 08:48 28.09.2019
1189 Mist 18 1017 93 300 3.1 40 08:29 28.09.2019
1190 Clear 17 1017 82 6000 1 0 07:59 28.09.2019
1191 Clear 17 1017 82 6000 1 0 07:41 28.09.2019
1192 Clear 16 1017 87 7000 1.5 20 07:19 28.09.2019
1193 Clear 15 1017 87 6000 1 0 06:41 28.09.2019
1194 Clear 18 1017 100 10000 4.11 34.789 06:21 28.09.2019
1195 Clear 19 1017 93 10000 4.11 34.789 05:37 28.09.2019
1196 Clear 19 1017 93 10000 4.11 34.789 05:18 28.09.2019
1197 Clear 20 1018 82 10000 4.11 34.789 04:31 28.09.2019
1198 Clear 20 1018 77 10000 4.11 34.789 03:42 28.09.2019
1199 Clear 20 1018 77 10000 3.52 40.234 03:18 28.09.2019
1200 Clear 20 1018 77 10000 3.52 40.234 02:41 28.09.2019
1201 Clear 20 1019 72 10000 2.6 10 02:23 28.09.2019
1202 Clear 20 1019 68 10000 2.6 20 01:43 28.09.2019
1203 Clear 20 1019 68 10000 2.6 20 01:23 28.09.2019
1204 Clear 19 1019 72 10000 2.1 20 00:48 28.09.2019
1205 Clear 20 1019 64 10000 3.1 20 00:29 28.09.2019
1206 Clear 20 1019 68 10000 2.6 10 23:39 27.09.2019
1207 Clear 20 1019 68 10000 2.6 10 23:21 27.09.2019
1208 Clear 20 1019 73 10000 2.6 10 22:57 27.09.2019
1209 Clear 20 1019 73 10000 2.6 10 22:38 27.09.2019
1210 Clear 20 1019 73 10000 3.1 360 22:18 27.09.2019
1211 Clear 21 1019 68 10000 3.1 360 21:54 27.09.2019
1212 Clear 21 1019 68 10000 3.6 350 21:36 27.09.2019
1213 Clear 21 1019 68 10000 3.6 350 21:18 27.09.2019
1214 Clear 21 1019 68 10000 3.6 350 21:18 27.09.2019
1215 Clear 22 1018 69 10000 4.1 20 20:41 27.09.2019
1216 Clear 23 1018 61 10000 4.6 20 20:20 27.09.2019
1217 Clear 23 1018 57 10000 5.1 10 19:58 27.09.2019
1218 Clear 23 1018 57 10000 5.1 10 19:39 27.09.2019
1219 Clear 24 1018 54 10000 5.7 10 19:21 27.09.2019
1220 Clear 25 1018 48 10000 5.7 360 18:43 27.09.2019
1221 Clear 25 1017 42 10000 5.7 20 18:25 27.09.2019
1222 Clear 26 1017 45 10000 6.2 350 17:58 27.09.2019
1223 Clear 25 1017 45 10000 6.2 350 17:40 27.09.2019
1224 Clear 25 1017 45 10000 6.2 350 17:40 27.09.2019
1225 Clear 25 1017 45 10000 6.2 350 17:20 27.09.2019
1226 Clear 25 1017 37 10000 5.7 10 16:58 27.09.2019
1227 Clear 24 1017 37 10000 5.7 10 16:40 27.09.2019
1228 Clear 25 1018 40 10000 5.7 10 16:19 27.09.2019
1229 Clear 25 1018 35 10000 5.1 10 15:55 27.09.2019
1230 Clear 25 1018 35 10000 5.1 10 15:37 27.09.2019
1231 Clear 25 1018 38 10000 5.1 350 15:19 27.09.2019
1232 Clear 24 1019 40 10000 4.1 350 14:42 27.09.2019
1233 Clear 24 1019 39 10000 3.6 20 14:23 27.09.2019
1234 Clear 24 1019 48 10000 3.1 30 13:59 27.09.2019
1235 Clear 24 1019 48 10000 3.1 30 13:59 27.09.2019
1236 Clear 24 1019 48 10000 3.1 30 13:40 27.09.2019
1237 Clear 23 1020 61 10000 3.1 30 13:21 27.09.2019
1238 Clear 23 1020 65 10000 2.1 10 12:57 27.09.2019
1239 Clear 22 1020 65 10000 2.1 10 12:38 27.09.2019
1240 Clouds 21 1020 78 10000 1.5 30 12:19 27.09.2019
1241 Clouds 21 1020 94 6000 2.1 20 11:39 27.09.2019
1242 Clouds 21 1020 94 6000 2.1 20 11:39 27.09.2019
1243 Clouds 20 1020 88 6000 3.13 33.97 11:20 27.09.2019
1244 Clouds 20 1020 88 6000 3.13 33.97 11:20 27.09.2019
1245 Clouds 20 1020 100 6000 2.6 20 10:55 27.09.2019
1246 Clouds 20 1020 93 6000 3.1 40 10:37 27.09.2019
1247 Clouds 20 1020 93 6000 3.1 40 10:37 27.09.2019
1248 Clouds 20 1020 93 6000 3.1 40 10:37 27.09.2019
1249 Clouds 20 1020 93 6000 3.1 40 10:18 27.09.2019
1250 Clouds 19 1020 93 6000 3.1 40 09:41 27.09.2019
1251 Clouds 19 1019 93 6000 2.6 50 09:20 27.09.2019
1252 Clouds 19 1019 93 6000 3.1 10 08:55 27.09.2019
1253 Clouds 19 1019 93 6000 3.1 10 08:37 27.09.2019
1254 Clouds 19 1019 93 6000 2.1 40 08:19 27.09.2019
1255 Clouds 18 1019 93 6000 2.6 50 07:45 27.09.2019
1256 Mist 18 1019 100 4000 2.6 50 07:21 27.09.2019
1257 Mist 19 1019 100 4000 2.6 30 06:41 27.09.2019
1258 Mist 19 1019 100 4000 2.1 40 06:22 27.09.2019
1259 Mist 19 1019 100 4000 1.5 30 05:49 27.09.2019
1260 Mist 19 1019 100 4000 1.5 50 05:30 27.09.2019
1261 Mist 20 1019 100 4000 3.1 340 03:53 27.09.2019
1262 Clouds 20 1020 94 8000 3.41 18.972 01:58 27.09.2019
1263 Clouds 21 1020 94 8000 1.5 50 01:35 27.09.2019
1264 Clouds 20 1020 100 10000 2.6 20 00:55 27.09.2019
1265 Clouds 20 1020 100 10000 2.6 20 00:55 27.09.2019
1266 Clouds 20 1020 94 10000 2.6 30 00:19 27.09.2019
1267 Clouds 20 1020 88 10000 3.1 20 23:55 26.09.2019
1268 Clouds 20 1020 88 10000 3.1 20 23:55 26.09.2019
1269 Clouds 20 1020 88 10000 2.6 30 23:37 26.09.2019
1270 Clouds 20 1020 88 10000 2.6 30 23:18 26.09.2019
1271 Clouds 20 1020 88 10000 2.6 30 23:18 26.09.2019
1272 Clear 20 1019 83 10000 3.6 20 22:55 26.09.2019
1273 Clear 21 1019 78 10000 3.6 20 22:36 26.09.2019
1274 Clear 21 1019 78 10000 3.6 20 22:18 26.09.2019
1275 Clear 21 1019 78 10000 2.6 20 21:54 26.09.2019
1276 Clear 21 1019 78 10000 2.6 20 21:54 26.09.2019
1277 Clear 22 1018 69 10000 5.1 30 21:36 26.09.2019
1278 Clear 22 1018 69 10000 5.1 30 21:36 26.09.2019
1279 Clear 21 1018 69 10000 5.1 30 21:18 26.09.2019
1280 Clear 22 1018 73 10000 5.7 20 20:55 26.09.2019
1281 Clear 22 1018 73 10000 5.7 20 20:37 26.09.2019
1282 Clear 23 1018 69 10000 5.1 10 20:19 26.09.2019
1283 Clear 23 1018 69 10000 5.1 10 20:19 26.09.2019
1284 Clear 23 1017 57 10000 7.2 10 19:40 26.09.2019
1285 Clear 24 1017 54 10000 5.96 26.178 19:18 26.09.2019
1286 Clear 24 1017 51 10000 7.7 20 18:58 26.09.2019
1287 Clear 24 1017 51 10000 7.7 20 18:38 26.09.2019
1288 Clear 24 1017 51 10000 7.7 20 18:38 26.09.2019
1289 Clear 24 1017 42 10000 7.7 10 18:20 26.09.2019
1290 Clear 25 1017 42 10000 8.2 10 17:39 26.09.2019
1291 Clear 25 1017 39 10000 7.2 20 17:19 26.09.2019
1292 Clear 25 1017 39 10000 7.7 10 16:59 26.09.2019
1293 Clear 24 1017 39 10000 7.7 10 16:39 26.09.2019
1294 Clear 25 1017 39 10000 7.2 10 16:20 26.09.2019
1295 Clear 25 1017 39 10000 7.2 10 16:20 26.09.2019
1296 Clear 25 1017 42 10000 7.2 10 15:57 26.09.2019
1297 Clear 24 1017 42 10000 7.2 10 15:37 26.09.2019
1298 Clear 24 1017 39 10000 6.2 10 15:18 26.09.2019
1299 Clear 24 1018 39 10000 5.7 30 14:55 26.09.2019
1300 Clear 24 1018 39 10000 5.7 30 14:55 26.09.2019
1301 Clear 24 1018 39 10000 5.7 30 14:55 26.09.2019
1302 Clear 24 1018 39 10000 5.7 30 14:55 26.09.2019
1303 Clear 24 1018 45 10000 6.2 10 14:37 26.09.2019
1304 Clear 24 1018 45 10000 6.2 10 14:37 26.09.2019
1305 Clear 24 1018 45 10000 6.2 10 14:18 26.09.2019
1306 Clear 23 1018 42 10000 5.7 20 13:41 26.09.2019
1307 Clear 23 1019 44 10000 5.1 20 13:20 26.09.2019
1308 Clear 23 1019 44 10000 5.1 20 12:57 26.09.2019
1309 Clear 22 1019 44 10000 5.1 20 12:39 26.09.2019
1310 Clear 22 1019 50 10000 4.6 20 12:20 26.09.2019
1311 Clear 22 1019 57 10000 3.6 20 11:42 26.09.2019
1312 Clear 21 1019 68 10000 4.1 30 11:21 26.09.2019
1313 Clear 20 1018 77 10000 4.6 30 10:56 26.09.2019
1314 Clear 20 1018 77 10000 4.6 30 10:56 26.09.2019
1315 Clear 20 1018 77 10000 4.6 30 10:38 26.09.2019
1316 Clear 19 1018 93 10000 4.1 40 10:19 26.09.2019
1317 Clear 19 1018 93 10000 4.1 40 09:43 26.09.2019
1318 Clear 18 1018 93 10000 3.6 30 09:25 26.09.2019
1319 Clear 18 1018 93 10000 3.6 30 09:25 26.09.2019
1320 Clear 18 1017 93 10000 3.6 40 08:57 26.09.2019
1321 Clear 18 1017 93 10000 3.6 40 08:39 26.09.2019
1322 Clear 18 1017 93 10000 3.6 40 08:21 26.09.2019
1323 Clear 18 1017 93 10000 3.1 40 07:42 26.09.2019
1324 Clear 18 1017 93 10000 3.1 40 07:21 26.09.2019
1325 Clear 18 1017 93 10000 3.1 40 06:43 26.09.2019
1326 Clear 18 1017 93 10000 2.6 30 06:25 26.09.2019
1327 Clear 19 1017 93 10000 3.1 30 05:44 26.09.2019
1328 Clear 19 1017 93 10000 2.6 40 05:24 26.09.2019
1329 Clear 19 1018 100 10000 2.6 30 02:51 26.09.2019
1330 Clear 20 1018 94 10000 3.1 30 01:53 26.09.2019
1331 Clear 20 1018 94 10000 3.1 30 01:53 26.09.2019
1332 Clear 20 1018 94 10000 3.1 30 01:53 26.09.2019
1333 Clear 20 1019 94 10000 2.6 40 01:28 26.09.2019
1334 Clear 19 1019 94 10000 3.6 40 00:55 26.09.2019
1335 Clear 19 1019 94 10000 4.1 30 00:37 26.09.2019
1336 Clear 20 1019 94 10000 4.6 40 23:57 25.09.2019
1337 Clear 20 1019 94 10000 4.6 40 23:38 25.09.2019
1338 Clear 20 1019 94 10000 3.6 40 23:18 25.09.2019
1339 Clear 20 1018 88 10000 4.1 40 22:41 25.09.2019
1340 Clear 20 1018 94 10000 5.1 30 22:20 25.09.2019
1341 Clear 20 1018 94 10000 6.7 30 21:57 25.09.2019
1342 Clear 20 1018 94 10000 6.7 30 21:39 25.09.2019
1343 Clear 21 1017 88 10000 7.2 30 21:19 25.09.2019
1344 Clear 22 1017 78 10000 8.2 360 20:58 25.09.2019
1345 Clear 22 1017 78 10000 8.2 360 20:39 25.09.2019
1346 Clear 21 1017 78 10000 8.2 360 20:21 25.09.2019
1347 Clear 22 1017 78 10000 7.7 10 19:54 25.09.2019
1348 Clear 23 1016 73 10000 8.7 10 19:36 25.09.2019
1349 Clear 23 1016 73 10000 8.7 10 19:18 25.09.2019
1350 Clear 23 1016 73 10000 9.3 10 18:54 25.09.2019
1351 Clear 23 1017 74 10000 9.3 10 18:36 25.09.2019
1352 Clear 23 1017 74 10000 9.3 10 18:18 25.09.2019
1353 Clear 23 1017 74 10000 9.3 10 18:18 25.09.2019
1354 Clear 23 1017 74 10000 9.3 10 17:38 25.09.2019
1355 Clear 24 1017 65 10000 8.7 10 17:19 25.09.2019
1356 Clear 24 1017 65 10000 8.7 10 16:46 25.09.2019
1357 Clear 25 1017 61 10000 8.7 20 16:28 25.09.2019
1358 Clear 24 1017 61 10000 8.7 20 15:59 25.09.2019
1359 Clear 24 1017 61 10000 8.7 20 15:41 25.09.2019
1360 Clear 24 1018 58 10000 7.7 20 15:23 25.09.2019
1361 Clear 25 1018 45 10000 6.2 350 14:57 25.09.2019
1362 Clear 25 1018 45 10000 6.2 350 14:39 25.09.2019
1363 Clear 24 1018 45 10000 6.2 350 14:21 25.09.2019
1364 Clear 23 1019 48 10000 6.2 40 13:41 25.09.2019
1365 Clear 23 1019 47 10000 6.2 40 13:23 25.09.2019
1366 Clear 23 1019 54 10000 6.2 30 12:59 25.09.2019
1367 Clear 23 1019 54 10000 6.2 30 12:39 25.09.2019
1368 Clouds 23 1019 64 10000 5.7 40 12:21 25.09.2019
1369 Clouds 21 1019 73 10000 5.1 40 11:55 25.09.2019
1370 Clouds 21 1019 88 10000 5.1 40 11:36 25.09.2019
1371 Clouds 21 1019 88 10000 5.1 40 11:18 25.09.2019
1372 Clouds 20 1019 94 10000 4.1 40 10:43 25.09.2019
1373 Clouds 20 1019 93 8000 3.6 40 10:24 25.09.2019
1374 Clouds 19 1019 93 6000 4.6 30 09:56 25.09.2019
1375 Clouds 19 1019 93 6000 4.6 30 09:37 25.09.2019
1376 Clouds 18 1019 93 8000 2.6 10 09:19 25.09.2019
1377 Clouds 19 1019 100 10000 3.6 50 08:42 25.09.2019
1378 Clouds 19 1019 100 10000 3.6 50 08:21 25.09.2019
1379 Clouds 19 1019 100 10000 3.6 50 08:21 25.09.2019
1380 Clouds 19 1019 100 10000 3.6 50 07:57 25.09.2019
1381 Clouds 18 1019 100 10000 3.6 50 07:38 25.09.2019
1382 Clouds 18 1019 100 10000 3.1 60 07:20 25.09.2019
1383 Clouds 18 1019 100 10000 4.1 50 06:43 25.09.2019
1384 Mist 19 1019 100 2000 3.1 50 06:22 25.09.2019
1385 Mist 19 1019 100 2000 3.6 60 05:28 25.09.2019
1386 Clouds 19 1019 100 10000 3.6 60 04:50 25.09.2019
1387 Clouds 19 1020 100 10000 3.1 40 02:19 25.09.2019
1388 Clouds 20 1021 100 10000 3.6 40 00:45 25.09.2019
1389 Clouds 20 1021 100 10000 3.1 40 00:25 25.09.2019
1390 Clouds 20 1021 100 10000 2.6 30 23:57 24.09.2019
1391 Clear 20 1020 100 10000 4.1 20 23:38 24.09.2019
1392 Clear 20 1020 100 10000 4.1 20 23:19 24.09.2019
1393 Clouds 20 1020 94 10000 2.6 30 22:39 24.09.2019
1394 Clouds 20 1020 94 10000 2.6 30 22:39 24.09.2019
1395 Clouds 21 1020 94 10000 2.6 20 22:20 24.09.2019
1396 Clouds 21 1019 88 10000 4.6 20 21:56 24.09.2019
1397 Clouds 21 1019 88 10000 4.6 20 21:37 24.09.2019
1398 Clouds 21 1019 88 10000 4.6 20 21:19 24.09.2019
1399 Clouds 22 1019 69 10000 6.2 340 20:57 24.09.2019
1400 Clouds 22 1019 69 10000 6.2 340 20:39 24.09.2019
1401 Clear 23 1019 65 10000 6.7 10 20:20 24.09.2019
1402 Clear 23 1018 50 10000 7.2 350 19:44 24.09.2019
1403 Clear 24 1018 51 10000 7.2 20 19:23 24.09.2019
1404 Clear 24 1018 51 10000 7.2 20 18:59 24.09.2019
1405 Clear 24 1018 51 10000 7.2 20 18:41 24.09.2019
1406 Clear 24 1018 51 10000 7.2 20 18:41 24.09.2019
1407 Clear 25 1018 48 10000 6.7 20 18:22 24.09.2019
1408 Clear 25 1018 45 10000 7.7 20 17:58 24.09.2019
1409 Clear 25 1018 45 10000 7.7 20 17:39 24.09.2019
1410 Clear 25 1018 45 10000 7.7 20 17:20 24.09.2019
1411 Clear 25 1019 48 10000 6.7 20 16:58 24.09.2019
1412 Clear 25 1019 48 10000 6.7 20 16:40 24.09.2019
1413 Clear 25 1019 45 10000 7.2 10 16:19 24.09.2019
1414 Clear 25 1019 42 10000 6.2 20 15:42 24.09.2019
1415 Clear 24 1019 48 10000 5.7 30 15:23 24.09.2019
1416 Clear 24 1020 42 10000 6.2 30 14:45 24.09.2019
1417 Clear 24 1020 51 10000 5.38 29.893 14:21 24.09.2019
1418 Clear 24 1021 44 10000 5.1 360 13:59 24.09.2019
1419 Clear 23 1021 44 10000 5.1 360 13:40 24.09.2019
1420 Clear 23 1021 57 10000 5.1 20 13:21 24.09.2019
1421 Clouds 22 1021 50 10000 4.6 350 12:40 24.09.2019
1422 Clear 22 1021 69 10000 4.1 30 12:21 24.09.2019
1423 Clear 21 1021 69 10000 4.6 30 11:57 24.09.2019
1424 Clear 21 1021 69 10000 4.6 30 11:39 24.09.2019
1425 Clear 20 1021 83 10000 4.6 50 11:18 24.09.2019
1426 Clear 19 1021 94 10000 4.1 40 10:39 24.09.2019
1427 Clear 19 1020 94 10000 3.6 50 10:21 24.09.2019
1428 Clouds 19 1020 100 10000 5.16 42.274 09:56 24.09.2019
1429 Clouds 19 1020 100 10000 5.16 42.274 09:37 24.09.2019
1430 Clouds 18 1020 100 10000 5.27 42.869 09:18 24.09.2019
1431 Clouds 17 1020 88 10000 2.1 20 08:41 24.09.2019
1432 Clouds 17 1020 88 10000 2.1 20 08:41 24.09.2019
1433 Clouds 17 1020 88 10000 2.1 20 08:41 24.09.2019
1434 Clouds 17 1020 88 10000 2.1 20 08:23 24.09.2019
1435 Clouds 17 1020 88 10000 2.1 20 07:59 24.09.2019
1436 Clouds 17 1020 88 10000 2.1 20 07:41 24.09.2019
1437 Clouds 17 1019 88 10000 2.1 30 07:22 24.09.2019
1438 Clouds 17 1019 88 10000 2.6 50 06:46 24.09.2019
1439 Clouds 18 1019 100 10000 2.6 50 06:26 24.09.2019
1440 Clouds 18 1019 100 10000 2.1 50 05:23 24.09.2019
1441 Clouds 19 1020 100 10000 3.1 30 03:47 24.09.2019
1442 Clouds 18 1020 88 10000 3.1 30 03:26 24.09.2019
1443 Clouds 19 1020 100 10000 3.1 30 02:45 24.09.2019
1444 Clouds 19 1021 82 10000 2.6 10 01:42 24.09.2019
1445 Clear 19 1021 82 10000 2.6 10 00:42 24.09.2019
1446 Clear 19 1021 82 10000 3.6 360 00:23 24.09.2019
1447 Clear 20 1021 77 10000 3.6 10 23:43 23.09.2019
1448 Clear 20 1021 77 10000 3.6 10 23:43 23.09.2019
1449 Clear 20 1021 77 10000 3.1 10 23:23 23.09.2019
1450 Clear 20 1021 77 10000 3.1 10 23:23 23.09.2019
1451 Clear 20 1020 83 10000 3.1 40 22:56 23.09.2019
1452 Clear 20 1020 83 10000 3.1 40 22:37 23.09.2019
1453 Clear 20 1020 83 10000 3.1 40 22:37 23.09.2019
1454 Clear 20 1020 83 10000 4.1 40 22:18 23.09.2019
1455 Clear 20 1020 77 10000 5.1 30 21:54 23.09.2019
1456 Clear 21 1019 73 10000 4.6 30 21:36 23.09.2019
1457 Clear 21 1019 73 10000 4.6 30 21:18 23.09.2019
1458 Clear 21 1019 73 10000 6.7 20 20:40 23.09.2019
1459 Clear 22 1019 64 10000 6.7 20 20:19 23.09.2019
1460 Clear 22 1019 64 10000 6.7 20 20:19 23.09.2019
1461 Clear 23 1019 64 10000 7.2 10 19:55 23.09.2019
1462 Clear 23 1019 65 10000 7.2 10 19:37 23.09.2019
1463 Clear 23 1019 65 10000 7.2 10 19:19 23.09.2019
1464 Clear 24 1019 61 10000 6.7 20 18:42 23.09.2019
1465 Clear 24 1018 57 10000 7.7 10 18:20 23.09.2019
1466 Clear 24 1018 61 10000 8.7 360 17:58 23.09.2019
1467 Clear 23 1018 61 10000 8.7 360 17:39 23.09.2019
1468 Clear 23 1018 57 10000 8.2 10 17:20 23.09.2019
1469 Clear 23 1019 64 10000 8.2 10 16:57 23.09.2019
1470 Clear 23 1019 57 10000 8.7 10 16:37 23.09.2019
1471 Clear 23 1019 57 10000 8.7 10 16:18 23.09.2019
1472 Clear 23 1019 64 10000 7.7 10 15:56 23.09.2019
1473 Clear 23 1019 64 10000 7.7 10 15:38 23.09.2019
1474 Clear 24 1019 54 10000 6.2 360 15:18 23.09.2019
1475 Clear 23 1019 61 10000 5.1 10 14:40 23.09.2019
1476 Clear 23 1019 61 10000 4.6 30 14:20 23.09.2019
1477 Clear 23 1020 61 10000 4.1 30 13:59 23.09.2019
1478 Clear 23 1020 61 10000 4.1 30 13:59 23.09.2019
1479 Clear 22 1020 61 10000 4.1 30 13:38 23.09.2019
1480 Clear 23 1020 65 10000 5.1 40 13:18 23.09.2019
1481 Clouds 23 1020 69 10000 5.7 40 12:54 23.09.2019
1482 Clouds 22 1020 73 10000 6.2 40 12:36 23.09.2019
1483 Clouds 22 1020 73 10000 6.2 40 12:18 23.09.2019
1484 Clouds 22 1021 78 10000 5.7 30 11:43 23.09.2019
1485 Clouds 21 1021 83 10000 7.2 50 11:24 23.09.2019
1486 Clouds 20 1020 93 10000 5.1 60 10:49 23.09.2019
1487 Clouds 20 1020 93 10000 5.1 60 10:22 23.09.2019
1488 Clouds 20 1020 93 10000 5.1 60 10:22 23.09.2019
1489 Clouds 20 1020 93 10000 5.1 50 09:59 23.09.2019
1490 Clouds 19 1020 93 10000 5.1 50 09:38 23.09.2019
1491 Clouds 19 1020 100 10000 4.6 50 09:20 23.09.2019
1492 Clouds 18 1019 100 10000 4.1 50 08:48 23.09.2019
1493 Clouds 18 1019 93 10000 3.1 40 08:29 23.09.2019
1494 Clouds 18 1019 93 10000 3.1 40 07:57 23.09.2019
1495 Clouds 18 1019 93 10000 2.6 30 07:28 23.09.2019
1496 Clouds 18 1018 93 10000 3.6 60 06:37 23.09.2019
1497 Clouds 18 1018 100 10000 4.1 50 05:54 23.09.2019
1498 Clouds 18 1018 100 10000 4.1 50 05:21 23.09.2019
1499 Clouds 18 1018 93 10000 3.6 40 04:54 23.09.2019
1500 Clouds 20 1019 100 10000 5.7 30 02:42 23.09.2019
1501 Clouds 20 1019 94 10000 3.6 30 01:18 23.09.2019
1502 Clouds 20 1020 94 10000 3.6 30 00:23 23.09.2019
1503 Clouds 20 1020 94 10000 4.1 50 23:52 22.09.2019
1504 Clouds 21 1020 88 10000 4.6 40 23:32 22.09.2019
1505 Clouds 21 1020 88 10000 4.6 40 22:58 22.09.2019
1506 Clouds 21 1020 88 10000 4.6 40 22:40 22.09.2019
1507 Clouds 21 1019 83 10000 4.6 20 22:22 22.09.2019
1508 Clouds 21 1019 83 10000 4.1 30 21:43 22.09.2019
1509 Clouds 21 1019 78 10000 5.1 30 21:22 22.09.2019
1510 Clouds 22 1019 73 10000 6.84 29.558 20:58 22.09.2019
1511 Clouds 22 1019 73 10000 6.84 29.558 20:40 22.09.2019
1512 Clouds 22 1018 73 10000 6.2 20 20:22 22.09.2019
1513 Clouds 22 1018 78 10000 6.7 20 19:42 22.09.2019
1514 Clouds 22 1018 78 10000 6.7 20 19:42 22.09.2019
1515 Clouds 23 1018 83 10000 7.2 10 19:23 22.09.2019
1516 Clouds 23 1018 78 10000 6.97 27.944 18:59 22.09.2019
1517 Clouds 23 1018 78 10000 6.97 27.944 18:40 22.09.2019
1518 Clouds 23 1017 73 10000 7.7 360 18:20 22.09.2019
1519 Clouds 23 1017 73 10000 7.7 360 17:58 22.09.2019
1520 Clouds 23 1017 73 10000 7.7 360 17:58 22.09.2019
1521 Clouds 23 1017 73 10000 7.7 360 17:40 22.09.2019
1522 Clouds 23 1017 69 10000 6.7 350 17:19 22.09.2019
1523 Clouds 24 1018 69 10000 6.7 340 16:45 22.09.2019
1524 Clouds 24 1017 69 10000 7.2 330 16:26 22.09.2019
1525 Clouds 24 1017 65 10000 6.7 340 15:56 22.09.2019
1526 Clouds 24 1017 65 10000 6.7 340 15:38 22.09.2019
1527 Clouds 24 1018 58 10000 5.1 330 15:19 22.09.2019
1528 Clouds 24 1018 51 10000 2.6 330 14:43 22.09.2019
1529 Clouds 24 1018 51 10000 2.6 330 14:43 22.09.2019
1530 Clouds 24 1018 51 10000 4.33 305.105 14:25 22.09.2019
1531 Clouds 24 1018 54 10000 4.33 305.105 13:57 22.09.2019
1532 Clouds 24 1018 54 10000 4.33 305.105 13:57 22.09.2019
1533 Clouds 24 1018 54 10000 4.33 305.105 13:39 22.09.2019
1534 Clouds 24 1018 54 10000 4.33 305.105 13:39 22.09.2019
1535 Clouds 24 1018 57 10000 4.22 315.096 13:21 22.09.2019
1536 Clouds 23 1019 65 10000 1 320 12:44 22.09.2019
1537 Clouds 23 1019 69 10000 2.44 219.276 12:24 22.09.2019
1538 Clouds 23 1019 78 10000 1.5 220 11:57 22.09.2019
1539 Clouds 22 1019 78 10000 1.5 220 11:38 22.09.2019
1540 Clouds 22 1019 78 10000 1.5 220 11:38 22.09.2019
1541 Clouds 22 1019 88 10000 0.5 0 11:20 22.09.2019
1542 Clouds 22 1019 94 10000 2.44 219.276 10:44 22.09.2019
1543 Clouds 21 1018 100 10000 2.44 219.276 10:20 22.09.2019
1544 Clouds 20 1018 88 6000 1.5 210 09:58 22.09.2019
1545 Clouds 20 1018 88 6000 1.5 210 09:38 22.09.2019
1546 Mist 19 1018 106 3000 2.1 190 09:19 22.09.2019
1547 Clouds 19 1017 100 9000 1 0 08:45 22.09.2019
1548 Clouds 19 1017 93 10000 2.69 205.309 08:24 22.09.2019
1549 Clouds 19 1017 93 10000 2.69 205.309 08:24 22.09.2019
1550 Clouds 18 1017 100 8000 2.69 205.309 07:55 22.09.2019
1551 Clouds 18 1017 100 9000 2.69 205.309 07:36 22.09.2019
1552 Clouds 18 1017 100 9000 2.69 205.309 07:18 22.09.2019
1553 Clouds 19 1017 100 10000 2.69 205.309 06:53 22.09.2019
1554 Clouds 19 1016 93 10000 2.67 191.314 05:26 22.09.2019
1555 Clouds 20 1017 94 10000 2.67 191.314 03:31 22.09.2019
1556 Clouds 20 1017 93 10000 2 245.732 02:37 22.09.2019
1557 Clouds 20 1017 93 10000 2 245.732 02:18 22.09.2019
1558 Clouds 20 1017 88 10000 2.21 240.679 00:59 22.09.2019
1559 Clouds 21 1017 88 10000 2.21 240.679 00:33 22.09.2019
1560 Clouds 21 1017 88 10000 1.53 215.333 23:59 21.09.2019
1561 Clouds 21 1017 88 10000 1.53 215.333 23:40 21.09.2019
1562 Clouds 21 1017 88 10000 1.53 215.333 23:19 21.09.2019
1563 Clouds 21 1017 88 10000 1 320 22:39 21.09.2019
1564 Clouds 21 1017 88 10000 2.6 320 22:21 21.09.2019
1565 Clouds 21 1016 100 10000 4.1 320 21:43 21.09.2019
1566 Clear 21 1016 88 10000 4.1 320 21:20 21.09.2019
1567 Clear 22 1016 78 10000 4.6 340 20:59 21.09.2019
1568 Clear 22 1016 78 10000 4.6 340 20:38 21.09.2019
1569 Clear 23 1015 69 10000 5.7 340 20:19 21.09.2019
1570 Clear 23 1015 69 10000 5.7 340 20:19 21.09.2019
1571 Clear 23 1015 69 10000 5.7 340 20:19 21.09.2019
1572 Clear 24 1015 50 10000 4.6 330 19:47 21.09.2019
1573 Clear 24 1015 54 10000 5.1 340 19:23 21.09.2019
1574 Clear 24 1015 51 10000 5.1 340 18:55 21.09.2019
1575 Clear 24 1015 51 10000 5.1 340 18:37 21.09.2019
1576 Clear 24 1015 51 10000 5.1 340 18:18 21.09.2019
1577 Clear 24 1015 54 10000 4.6 330 17:40 21.09.2019
1578 Clear 24 1015 54 10000 4.6 330 17:20 21.09.2019
1579 Clear 24 1014 51 10000 5.1 330 16:43 21.09.2019
1580 Clear 24 1015 51 10000 3.6 340 16:24 21.09.2019
1581 Clear 24 1015 54 10000 3.6 330 15:48 21.09.2019
1582 Clear 24 1015 61 10000 5.7 330 15:25 21.09.2019
1583 Clear 25 1015 34 10000 2.6 310 14:55 21.09.2019
1584 Clear 24 1015 34 10000 2.6 310 14:37 21.09.2019
1585 Clear 24 1015 34 10000 1 0 14:19 21.09.2019
1586 Clear 24 1015 47 10000 1 0 13:41 21.09.2019
1587 Clear 23 1016 47 10000 1 0 13:23 21.09.2019
1588 Clear 23 1016 73 10000 3.12 334.018 12:57 21.09.2019
1589 Clear 22 1016 68 10000 1 0 12:38 21.09.2019
1590 Clear 22 1016 68 10000 1 0 12:20 21.09.2019
1591 Clear 22 1016 64 10000 1 0 11:47 21.09.2019
1592 Clear 21 1016 68 10000 2.1 350 11:24 21.09.2019
1593 Clouds 20 1015 82 10000 2.6 340 10:55 21.09.2019
1594 Clouds 20 1015 82 10000 1.5 300 10:37 21.09.2019
1595 Clouds 20 1015 82 10000 1.5 300 10:18 21.09.2019
1596 Mist 19 1015 93 4000 1.5 260 09:40 21.09.2019
1597 Mist 18 1015 100 4000 1 0 09:21 21.09.2019
1598 Clouds 17 1014 100 10000 1.11 97.561 08:59 21.09.2019
1599 Clouds 17 1014 100 10000 0.88 96.319 08:40 21.09.2019
1600 Clouds 17 1014 100 9000 0.88 96.319 07:43 21.09.2019
1601 Clouds 18 1014 100 10000 0.88 96.319 07:25 21.09.2019
1602 Clouds 19 1014 100 10000 0.88 96.319 06:59 21.09.2019
1603 Clouds 19 1014 100 10000 0.88 96.319 06:59 21.09.2019
1604 Clouds 19 1014 100 10000 0.88 96.319 06:34 21.09.2019
1605 Clouds 19 1014 100 10000 0.93 66.874 05:51 21.09.2019
1606 Clouds 19 1014 100 10000 0.93 66.874 04:37 21.09.2019
1607 Clouds 20 1015 100 10000 0.93 66.874 03:25 21.09.2019
1608 Clouds 19 1015 100 10000 1.6 67.507 02:22 21.09.2019
1609 Clouds 20 1015 100 10000 1.6 67.507 01:46 21.09.2019
1610 Clear 20 1016 100 10000 1.6 67.507 00:58 21.09.2019
1611 Clear 21 1016 94 10000 1.99 12.235 00:22 21.09.2019
1612 Clear 21 1016 94 10000 1.99 12.235 23:48 20.09.2019
1613 Clear 21 1016 94 10000 1.99 12.235 23:29 20.09.2019
1614 Clear 21 1016 94 10000 1.99 12.235 22:44 20.09.2019
1615 Clear 21 1016 94 10000 2.1 20 22:25 20.09.2019
1616 Clear 21 1016 88 10000 3.1 20 21:57 20.09.2019
1617 Clear 21 1016 88 10000 3.1 20 21:39 20.09.2019
1618 Clouds 21 1016 83 10000 1.5 20 21:20 20.09.2019
1619 Clouds 21 1016 83 10000 2.6 20 20:58 20.09.2019
1620 Clouds 21 1016 83 10000 2.6 20 20:38 20.09.2019
1621 Clouds 22 1016 78 10000 1 20 20:19 20.09.2019
1622 Clouds 22 1015 73 10000 3.6 360 19:45 20.09.2019
1623 Clouds 22 1015 73 10000 3.6 360 19:27 20.09.2019
1624 Clouds 23 1015 69 10000 4.1 10 18:58 20.09.2019
1625 Clouds 23 1015 69 10000 4.6 350 18:38 20.09.2019
1626 Clouds 23 1015 69 10000 4.6 350 18:18 20.09.2019
1627 Clouds 23 1015 69 10000 4.6 360 17:46 20.09.2019
1628 Clouds 23 1015 69 10000 5.1 350 17:27 20.09.2019
1629 -273 0 0 0 0 0 16:54 20.09.2019
1630 -273 0 0 0 0 0 16:54 20.09.2019
1631 Clouds 23 1015 65 10000 5.1 350 16:36 20.09.2019
1632 Clouds 23 1015 65 10000 5.1 350 16:18 20.09.2019
1633 Clouds 23 1015 65 10000 6.2 350 15:41 20.09.2019
1634 Clouds 23 1015 61 10000 5.7 350 15:22 20.09.2019
1635 Clouds 24 1015 47 10000 3.1 340 14:44 20.09.2019
1636 Clouds 23 1015 50 10000 2.6 360 14:20 20.09.2019
1637 Clouds 23 1015 50 10000 2.6 360 13:59 20.09.2019
1638 Clouds 23 1016 53 10000 3.1 360 13:40 20.09.2019
1639 Clouds 23 1016 53 10000 3.1 360 13:21 20.09.2019
1640 Clouds 22 1016 73 10000 3.1 20 12:40 20.09.2019
1641 Clouds 21 1016 78 10000 3.1 40 12:22 20.09.2019
1642 Clouds 20 1016 100 10000 2.6 30 11:51 20.09.2019
1643 Clouds 20 1016 100 10000 2.6 30 11:25 20.09.2019
1644 Mist 19 1016 100 4000 1.5 80 10:58 20.09.2019
1645 Mist 20 1016 100 4000 1.5 80 10:40 20.09.2019
1646 Mist 19 1016 100 1100 2.1 110 10:22 20.09.2019
1647 Clouds 19 1015 93 4000 2.1 30 09:38 20.09.2019
1648 Mist 18 1015 93 3000 2.68 29.422 09:19 20.09.2019
1649 Mist 18 1015 93 2000 2.68 29.422 08:47 20.09.2019
1650 Mist 18 1015 93 4000 2.68 29.422 08:28 20.09.2019
1651 Clouds 18 1015 93 6000 2.68 29.422 07:51 20.09.2019
1652 Clouds 18 1015 93 6000 3.12 27.747 07:29 20.09.2019
1653 Clouds 19 1015 93 8000 3.12 27.747 06:59 20.09.2019
1654 Clouds 19 1015 93 8000 3.12 27.747 06:40 20.09.2019
1655 Clouds 19 1015 93 10000 3.29 31.764 05:59 20.09.2019
1656 Clouds 18 1016 93 10000 1 40 04:29 20.09.2019
1657 Clouds 19 1016 94 10000 2.6 60 03:26 20.09.2019
1658 Clouds 20 1017 94 10000 2.6 10 01:58 20.09.2019
1659 Clouds 20 1017 100 10000 2.6 30 01:37 20.09.2019
1660 Clouds 20 1017 94 10000 2.1 40 00:36 20.09.2019
1661 Clouds 20 1017 94 10000 2.6 40 23:48 19.09.2019
1662 Clouds 21 1017 94 10000 3.1 30 23:28 19.09.2019
1663 Clouds 21 1017 94 10000 3.1 20 22:59 19.09.2019
1664 Clouds 21 1017 94 10000 3.1 20 22:40 19.09.2019
1665 Clouds 21 1017 94 10000 4.1 30 22:21 19.09.2019
1666 Clouds 21 1016 94 10000 4.1 20 21:57 19.09.2019
1667 Clouds 21 1016 94 10000 4.1 20 21:38 19.09.2019
1668 Clouds 21 1016 88 10000 3.6 30 21:19 19.09.2019
1669 Clear 21 1016 88 10000 5.1 360 20:44 19.09.2019
1670 Clear 23 1015 73 10000 5.7 20 20:23 19.09.2019
1671 Clear 23 1015 73 10000 5.7 20 19:58 19.09.2019
1672 Clear 23 1015 73 10000 5.7 20 19:39 19.09.2019
1673 Clear 23 1015 73 10000 5.7 10 19:21 19.09.2019
1674 Clear 23 1015 69 10000 6.2 10 18:58 19.09.2019
1675 Clear 24 1015 69 10000 6.2 10 18:40 19.09.2019
1676 Clear 24 1015 65 10000 6.7 10 18:21 19.09.2019
1677 Clear 24 1015 65 10000 6.7 10 17:42 19.09.2019
1678 Clear 24 1015 61 10000 7.2 20 17:23 19.09.2019
1679 Clear 24 1015 57 10000 8.2 360 16:59 19.09.2019
1680 Clear 24 1015 57 10000 8.2 360 16:39 19.09.2019
1681 Clear 24 1015 54 10000 6.7 20 16:19 19.09.2019
1682 Clear 24 1015 57 10000 6.7 20 15:39 19.09.2019
1683 Clear 24 1016 57 10000 6.2 10 15:21 19.09.2019
1684 Clear 24 1016 57 10000 6.2 10 15:21 19.09.2019
1685 Clear 24 1016 57 10000 6.2 360 14:57 19.09.2019
1686 Clear 24 1016 57 10000 6.2 360 14:38 19.09.2019
1687 Clear 24 1016 61 10000 5.1 20 14:18 19.09.2019
1688 Clear 24 1016 61 10000 5.1 20 14:18 19.09.2019
1689 Clear 23 1017 65 10000 5.1 20 13:40 19.09.2019
1690 Clear 23 1017 65 10000 5.1 20 13:20 19.09.2019
1691 Clear 23 1017 64 10000 4.6 30 12:40 19.09.2019
1692 Clear 23 1017 64 10000 4.6 30 12:40 19.09.2019
1693 Clear 23 1017 69 10000 5.1 40 12:20 19.09.2019
1694 Clouds 22 1017 78 9000 5.7 50 11:59 19.09.2019
1695 Clouds 21 1017 78 9000 5.7 50 11:40 19.09.2019
1696 Clear 21 1017 83 10000 5.1 50 11:21 19.09.2019
1697 Clear 21 1017 94 10000 4.6 50 10:57 19.09.2019
1698 Clear 21 1017 100 10000 5.1 50 10:37 19.09.2019
1699 Clear 20 1017 100 10000 5.1 50 10:18 19.09.2019
1700 Clear 20 1017 100 10000 3.6 50 09:42 19.09.2019
1701 Clear 19 1017 100 10000 3.1 50 09:22 19.09.2019
1702 Clear 18 1017 100 10000 3.1 50 08:56 19.09.2019
1703 Clear 18 1017 100 10000 3.6 60 08:36 19.09.2019
1704 Clear 18 1017 100 10000 3.6 60 08:18 19.09.2019
1705 Clear 18 1017 100 10000 3.6 60 07:42 19.09.2019
1706 Clear 18 1017 100 10000 3.1 30 07:21 19.09.2019
1707 Clear 18 1017 100 10000 3.1 30 07:21 19.09.2019
1708 Clear 18 1016 100 10000 3.6 50 06:47 19.09.2019
1709 Clear 18 1016 100 10000 3.1 50 06:27 19.09.2019
1710 Clear 19 1017 100 10000 2.1 30 05:52 19.09.2019
1711 Clear 19 1017 100 10000 3.1 30 04:44 19.09.2019
1712 Clear 19 1017 100 10000 3.1 40 03:51 19.09.2019
1713 Clear 20 1017 100 10000 3.1 40 02:30 19.09.2019
1714 Clouds 20 1018 100 10000 2.1 50 01:23 19.09.2019
1715 Clouds 20 1018 100 10000 3.1 40 00:50 19.09.2019
1716 Clouds 20 1018 100 10000 3.6 50 00:25 19.09.2019
1717 Clouds 20 1018 100 10000 3.6 50 00:25 19.09.2019
1718 Clear 21 1018 94 10000 3.1 40 23:42 18.09.2019
1719 Clear 21 1018 88 10000 4.1 40 23:21 18.09.2019
1720 Clear 21 1018 88 10000 4.1 10 22:47 18.09.2019
1721 Clear 21 1018 88 10000 4.6 20 22:23 18.09.2019
1722 Clear 21 1017 88 10000 4.6 10 21:59 18.09.2019
1723 Clear 21 1017 88 10000 4.6 10 21:59 18.09.2019
1724 Clear 21 1017 88 10000 4.6 10 21:41 18.09.2019
1725 Clear 22 1017 83 10000 4.6 20 21:19 18.09.2019
1726 Clear 22 1017 83 10000 4.6 20 21:19 18.09.2019
1727 Clear 22 1017 78 10000 5.7 20 20:59 18.09.2019
1728 Clear 22 1017 78 10000 5.7 20 20:40 18.09.2019
1729 Clear 23 1017 64 10000 5.7 350 20:22 18.09.2019
1730 Clear 23 1017 69 10000 5.7 10 19:59 18.09.2019
1731 Clear 23 1017 69 10000 5.7 10 19:41 18.09.2019
1732 Clear 23 1017 69 10000 5.27 19.935 19:20 18.09.2019
1733 Clear 24 1016 65 10000 7.7 350 18:56 18.09.2019
1734 Clear 24 1016 61 10000 6.2 360 18:38 18.09.2019
1735 Clear 24 1016 61 10000 6.2 360 18:19 18.09.2019
1736 Clear 24 1016 61 10000 6.7 360 17:58 18.09.2019
1737 Clear 24 1016 61 10000 6.7 360 17:39 18.09.2019
1738 Clear 24 1016 54 10000 5.7 340 17:19 18.09.2019
1739 Clear 25 1016 47 10000 5.1 350 16:56 18.09.2019
1740 Clear 25 1016 47 10000 5.1 350 16:38 18.09.2019
1741 Clear 24 1016 47 10000 5.1 350 16:19 18.09.2019
1742 Clear 24 1017 51 10000 4.1 330 15:55 18.09.2019
1743 Clear 25 1017 51 10000 4.1 330 15:37 18.09.2019
1744 Clear 25 1017 51 10000 4.1 330 15:19 18.09.2019
1745 Clear 24 1017 61 10000 3.1 30 14:57 18.09.2019
1746 Clear 24 1017 61 10000 3.1 30 14:39 18.09.2019
1747 Clear 24 1017 69 10000 3.6 20 14:21 18.09.2019
1748 Clear 24 1017 69 10000 3.6 20 14:21 18.09.2019
1749 Clouds 24 1017 69 10000 2.1 20 13:44 18.09.2019
1750 Clouds 23 1018 73 10000 2.6 360 13:19 18.09.2019
1751 Clouds 23 1018 73 10000 2.1 350 12:56 18.09.2019
1752 Clouds 23 1018 78 10000 2.6 20 12:37 18.09.2019
1753 Clouds 23 1018 78 10000 2.6 20 12:18 18.09.2019
1754 Clouds 22 1018 83 10000 2.6 20 11:40 18.09.2019
1755 Clouds 22 1018 83 10000 3.1 30 11:20 18.09.2019
1756 Clouds 21 1017 88 10000 1 0 10:41 18.09.2019
1757 Clouds 21 1017 94 10000 2.6 50 10:23 18.09.2019
1758 Clouds 21 1017 94 10000 2.6 50 10:23 18.09.2019
1759 Clouds 21 1017 88 10000 2.6 60 09:59 18.09.2019
1760 Clouds 21 1017 88 10000 2.6 60 09:41 18.09.2019
1761 Clouds 20 1017 94 10000 2.74 33.117 09:22 18.09.2019
1762 Clouds 20 1017 100 10000 2.1 360 08:56 18.09.2019
1763 Clouds 20 1017 100 10000 2.1 360 08:38 18.09.2019
1764 Clouds 20 1016 100 10000 3.1 20 08:18 18.09.2019
1765 Clouds 20 1016 100 10000 2.1 20 07:43 18.09.2019
1766 Clouds 20 1016 100 10000 2.1 20 07:23 18.09.2019
1767 Clouds 20 1016 100 10000 2.69 30.126 06:45 18.09.2019
1768 Clouds 20 1016 100 10000 2.66 21.242 06:21 18.09.2019
1769 Clouds 20 1016 100 10000 2.66 21.242 05:26 18.09.2019
1770 Clouds 20 1017 100 10000 2.66 21.242 03:40 18.09.2019
1771 Clouds 20 1017 100 10000 3.17 13.449 02:40 18.09.2019
1772 Clear 20 1017 100 10000 3.45 13.125 01:41 18.09.2019
1773 Clear 21 1017 94 10000 4.1 10 00:55 18.09.2019
1774 Clear 21 1017 94 10000 3.45 13.125 00:31 18.09.2019
1775 Clear 21 1017 94 10000 2.95 8.718 23:47 17.09.2019
1776 Clear 21 1017 94 10000 2.95 8.718 23:47 17.09.2019
1777 Clear 21 1017 100 10000 2.95 8.718 23:24 17.09.2019
1778 Clear 21 1017 100 10000 3.1 20 22:56 17.09.2019
1779 Clear 21 1017 100 10000 3.1 20 22:37 17.09.2019
1780 Clear 21 1016 94 10000 3.1 10 22:19 17.09.2019
1781 Clear 21 1016 94 10000 3.1 10 21:54 17.09.2019
1782 Clear 22 1016 88 10000 3.6 10 21:36 17.09.2019
1783 Clear 22 1016 88 10000 3.6 10 21:18 17.09.2019
1784 -273 0 0 0 0 0 20:55 17.09.2019
1785 Clear 23 1015 78 10000 5.1 10 20:36 17.09.2019
1786 Clear 23 1015 78 10000 5.1 10 20:18 17.09.2019
1787 Clear 24 1015 78 10000 5.1 10 19:40 17.09.2019
1788 Clear 23 1015 78 10000 6.2 10 19:20 17.09.2019
1789 Clear 24 1015 73 10000 5.7 10 18:59 17.09.2019
1790 Clear 24 1015 73 10000 5.7 10 18:59 17.09.2019
1791 Clear 24 1015 73 10000 5.7 10 18:41 17.09.2019
1792 Clear 24 1015 73 10000 5.7 10 18:22 17.09.2019
1793 Clear 24 1015 69 10000 6.7 350 17:49 17.09.2019
1794 Clear 24 1015 69 10000 6.7 350 17:21 17.09.2019
1795 Clear 24 1015 65 10000 7.2 340 16:59 17.09.2019
1796 Clear 24 1015 65 10000 7.2 340 16:41 17.09.2019
1797 Clear 24 1015 61 10000 5.7 350 16:22 17.09.2019
1798 Clear 24 1015 65 10000 6.2 360 15:55 17.09.2019
1799 Clear 24 1015 65 10000 6.2 360 15:55 17.09.2019
1800 Clear 24 1016 61 10000 5.1 350 15:37 17.09.2019
1801 Clear 24 1016 61 10000 5.1 350 15:18 17.09.2019
1802 Clouds 24 1016 47 10000 4.6 330 14:55 17.09.2019
1803 Clouds 24 1016 47 10000 4.6 330 14:36 17.09.2019
1804 Clouds 24 1016 47 10000 4.6 330 14:18 17.09.2019
1805 Clouds 24 1016 51 10000 4.6 330 13:41 17.09.2019
1806 Clouds 24 1016 61 10000 4.1 10 13:22 17.09.2019
1807 Clouds 24 1016 65 10000 4.1 30 12:54 17.09.2019
1808 Clouds 23 1016 73 10000 4.1 20 12:36 17.09.2019
1809 Clouds 23 1016 73 10000 4.1 20 12:18 17.09.2019
1810 Clouds 22 1017 83 10000 3.1 30 11:41 17.09.2019
1811 Clouds 21 1016 94 7000 3.6 10 11:19 17.09.2019
1812 Clouds 21 1016 100 10000 2.45 340.434 10:42 17.09.2019
1813 Clouds 20 1016 100 6000 2.45 340.434 10:22 17.09.2019
1814 Mist 20 1016 100 4000 2.45 340.434 09:58 17.09.2019
1815 Mist 20 1016 100 4000 2.45 340.434 09:40 17.09.2019
1816 Clouds 20 1016 100 6000 2.1 50 09:20 17.09.2019
1817 Clouds 20 1016 100 6000 1.5 30 08:44 17.09.2019
1818 Clouds 20 1016 100 6000 2.6 30 08:25 17.09.2019
1819 Mist 20 1015 100 4600 2.1 20 07:55 17.09.2019
1820 Mist 20 1015 100 4600 2.1 20 07:36 17.09.2019
1821 Mist 20 1015 100 4600 2.1 20 07:18 17.09.2019
1822 Mist 20 1015 100 4600 2.6 30 06:44 17.09.2019
1823 Mist 21 1015 100 0 3.1 10 06:19 17.09.2019
1824 Clouds 21 1014 86 0 3.71 5.835 05:33 17.09.2019
1825 Clouds 21 1015 85 0 3.71 5.835 04:21 17.09.2019
1826 Clouds 21 1016 100 10000 3.6 10 02:41 17.09.2019
1827 Clouds 21 1017 100 10000 2.6 40 01:55 17.09.2019
1828 Clouds 22 1017 100 10000 4.1 60 00:59 17.09.2019
1829 Clouds 22 1017 94 10000 4.6 20 23:57 16.09.2019
1830 Clouds 22 1017 94 10000 5.1 20 23:36 16.09.2019
1831 Clouds 22 1017 94 10000 5.1 20 23:36 16.09.2019
1832 Clouds 22 1017 94 10000 5.1 20 23:36 16.09.2019
1833 Clouds 22 1017 94 10000 5.1 20 23:18 16.09.2019
1834 Clouds 22 1018 88 10000 2.6 60 22:42 16.09.2019
1835 Clouds 22 1018 88 10000 2.6 60 22:42 16.09.2019
1836 Clouds 22 1018 83 10000 3.1 10 22:24 16.09.2019
1837 Clouds 22 1018 83 10000 4.1 360 21:59 16.09.2019
1838 Clouds 22 1018 83 10000 4.1 360 21:59 16.09.2019
1839 Clouds 22 1018 83 10000 4.1 360 21:38 16.09.2019
1840 Clouds 22 1017 78 10000 3.6 10 21:20 16.09.2019
1841 Clouds 23 1017 73 10000 3.6 20 20:55 16.09.2019
1842 Clouds 23 1017 69 10000 4.6 20 20:37 16.09.2019
1843 Clouds 23 1017 69 10000 4.6 20 20:18 16.09.2019
1844 Clouds 23 1017 65 10000 6.2 360 19:54 16.09.2019
1845 Clouds 23 1017 65 10000 6.2 360 19:54 16.09.2019
1846 Clouds 23 1016 65 10000 5.7 10 19:36 16.09.2019
1847 Clouds 23 1016 65 10000 5.7 10 19:36 16.09.2019
1848 Clouds 23 1016 65 10000 5.7 10 19:18 16.09.2019
1849 Clouds 23 1017 61 10000 6.7 10 18:42 16.09.2019
1850 Clouds 24 1017 57 10000 6.7 10 18:24 16.09.2019
1851 Clouds 25 1017 51 10000 6.7 20 17:43 16.09.2019
1852 Clouds 24 1017 51 10000 6.7 10 17:24 16.09.2019
1853 Clouds 25 1017 48 10000 6.2 10 16:59 16.09.2019
1854 Clouds 25 1017 48 10000 6.2 10 16:40 16.09.2019
1855 Clouds 25 1017 45 10000 5.7 20 16:21 16.09.2019
1856 Clouds 25 1017 48 10000 5.7 10 15:57 16.09.2019
1857 Clouds 24 1017 48 10000 5.7 10 15:38 16.09.2019
1858 Clouds 25 1018 51 10000 5.1 20 15:20 16.09.2019
1859 Clouds 25 1018 51 10000 6.2 340 14:57 16.09.2019
1860 Clouds 24 1018 51 10000 6.2 340 14:38 16.09.2019
1861 Clouds 24 1018 51 10000 6.2 340 14:38 16.09.2019
1862 Clouds 25 1018 51 10000 5.7 340 14:19 16.09.2019
1863 Clouds 24 1019 54 10000 4.6 30 13:40 16.09.2019
1864 Clouds 24 1019 54 10000 4.6 30 13:22 16.09.2019
1865 Clouds 24 1019 54 10000 4.6 20 12:54 16.09.2019
1866 Clouds 24 1019 54 10000 4.6 20 12:54 16.09.2019
1867 Clouds 24 1019 54 10000 4.6 20 12:54 16.09.2019
1868 Clouds 23 1019 65 10000 4.1 40 12:36 16.09.2019
1869 Clouds 23 1019 65 10000 4.1 40 12:18 16.09.2019
1870 Clouds 23 1019 73 10000 3.6 320 11:44 16.09.2019
1871 Clouds 21 1019 83 8000 3.1 60 11:21 16.09.2019
1872 Clouds 21 1019 88 8000 3.1 60 10:40 16.09.2019
1873 Clouds 20 1019 88 6000 2.6 60 10:21 16.09.2019
1874 Clouds 19 1019 93 6000 4.56 53.251 09:58 16.09.2019
1875 Clouds 19 1019 93 6000 4.56 53.251 09:40 16.09.2019
1876 Clouds 19 1018 100 6000 4.42 59.73 09:20 16.09.2019
1877 Clouds 19 1018 100 6000 1 0 08:48 16.09.2019
1878 Clouds 19 1018 100 6000 1 40 08:29 16.09.2019
1879 Clouds 19 1018 100 6000 1.5 40 07:57 16.09.2019
1880 Clouds 19 1018 100 6000 1.5 40 07:39 16.09.2019
1881 Clouds 19 1018 100 6000 1.5 40 07:39 16.09.2019
1882 Clouds 19 1018 100 6000 1.5 40 07:20 16.09.2019
1883 Clear 19 1018 100 0 2.6 30 06:48 16.09.2019
1884 Clouds 19 1018 100 6000 2.6 50 06:30 16.09.2019
1885 Clouds 19 1018 100 7000 2.6 50 05:54 16.09.2019
1886 Clear 18 1017 85 0 4.03 56.487 05:35 16.09.2019
1887 Clouds 20 1019 100 10000 2.1 40 04:55 16.09.2019
1888 Clouds 21 1019 100 10000 2.6 30 03:31 16.09.2019
1889 Clouds 22 1020 100 10000 3.6 50 00:44 16.09.2019
1890 Clouds 22 1020 100 10000 3.6 40 00:26 16.09.2019
1891 Clouds 22 1020 100 10000 3.6 40 23:45 15.09.2019
1892 Clouds 22 1020 100 10000 4.1 20 23:22 15.09.2019
1893 Clouds 23 1020 94 10000 3.6 30 22:59 15.09.2019
1894 Clouds 22 1020 94 10000 3.6 30 22:38 15.09.2019
1895 Clouds 22 1019 100 10000 5.1 20 22:18 15.09.2019
1896 Clouds 23 1019 94 10000 5.1 20 21:56 15.09.2019
1897 Clouds 23 1019 94 10000 4.6 20 21:37 15.09.2019
1898 Clouds 23 1019 94 10000 4.6 20 21:37 15.09.2019
1899 Clouds 23 1019 94 10000 4.6 20 21:19 15.09.2019
1900 Clouds 23 1019 83 10000 5.7 10 20:44 15.09.2019
1901 Clouds 23 1018 78 10000 6.7 360 20:26 15.09.2019
1902 Clear 24 1018 69 10000 6.7 10 19:47 15.09.2019
1903 Clear 24 1018 69 10000 7.2 350 19:27 15.09.2019
1904 Clear 24 1018 61 10000 7.2 360 18:56 15.09.2019
1905 Clear 25 1018 54 10000 6.7 360 18:38 15.09.2019
1906 Clear 25 1018 54 10000 6.7 360 18:20 15.09.2019
1907 Clear 25 1018 54 10000 6.7 350 17:43 15.09.2019
1908 Clear 25 1018 48 10000 6.2 360 17:22 15.09.2019
1909 Clear 26 1018 45 10000 6.2 350 16:58 15.09.2019
1910 Clear 25 1018 45 10000 6.2 350 16:40 15.09.2019
1911 Clear 25 1018 45 10000 6.2 350 16:21 15.09.2019
1912 Clear 25 1018 45 10000 4.01 354.743 15:56 15.09.2019
1913 Clear 25 1018 45 10000 4.01 354.743 15:56 15.09.2019
1914 Clear 25 1019 42 10000 3.6 360 15:36 15.09.2019
1915 Clear 25 1019 42 10000 3.6 360 15:18 15.09.2019
1916 Clear 25 1019 45 10000 2.1 330 14:42 15.09.2019
1917 Clear 25 1019 51 10000 3.1 340 14:23 15.09.2019
1918 Clear 24 1019 51 10000 0.5 0 13:55 15.09.2019
1919 Clear 24 1020 61 10000 1.5 10 13:37 15.09.2019
1920 Clear 24 1020 61 10000 1.5 10 13:18 15.09.2019
1921 Clouds 23 1020 69 10000 1.5 40 12:40 15.09.2019
1922 Clouds 23 1020 69 10000 1.5 40 12:40 15.09.2019
1923 Clouds 23 1020 73 10000 1.5 340 12:22 15.09.2019
1924 Clouds 23 1020 83 10000 0.92 323.581 11:43 15.09.2019
1925 Clouds 22 1020 94 10000 0.92 323.581 11:24 15.09.2019
1926 Clouds 22 1019 100 6000 0.92 323.581 10:59 15.09.2019
1927 Clouds 21 1019 100 6000 0.92 323.581 10:40 15.09.2019
1928 Clouds 21 1019 100 6000 0.92 323.581 10:21 15.09.2019
1929 Mist 20 1019 100 4000 0.92 323.581 09:44 15.09.2019
1930 Mist 19 1019 93 4000 1.5 170 09:21 15.09.2019
1931 Mist 18 1019 93 4000 1 0 08:59 15.09.2019
1932 Mist 18 1019 93 4000 1 0 08:40 15.09.2019
1933 Clouds 18 1019 93 6000 1 0 08:19 15.09.2019
1934 Clouds 18 1018 93 8000 2.1 140 07:47 15.09.2019
1935 Clouds 18 1018 100 10000 0.15 309.455 06:59 15.09.2019
1936 Clouds 19 1018 93 10000 1 0 06:31 15.09.2019
1937 Clouds 20 1018 93 8000 1 0 03:24 15.09.2019
1938 Clouds 20 1019 93 10000 1 260 02:23 15.09.2019
1939 Clouds 21 1019 88 10000 1 280 01:37 15.09.2019
1940 Clouds 21 1019 88 10000 1 280 01:37 15.09.2019
1941 Clouds 21 1019 88 10000 2.1 290 00:57 15.09.2019
1942 Clouds 21 1019 88 10000 2.1 290 00:37 15.09.2019
1943 Clouds 21 1019 88 10000 2.1 290 00:19 15.09.2019
1944 Clouds 21 1019 88 10000 1.5 300 23:56 14.09.2019
1945 Clouds 22 1019 78 10000 2.1 290 23:38 14.09.2019
1946 Clouds 22 1019 78 10000 2.1 290 23:19 14.09.2019
1947 Clear 21 1019 83 10000 1.5 310 22:57 14.09.2019
1948 Clear 21 1019 83 10000 1.5 310 22:57 14.09.2019
1949 Clear 21 1019 83 10000 1.5 310 22:38 14.09.2019
1950 Clouds 21 1019 83 10000 1.5 310 22:18 14.09.2019
1951 Clouds 22 1018 78 10000 3.1 310 21:40 14.09.2019
1952 Clouds 22 1018 78 10000 3.1 310 21:21 14.09.2019
1953 Clouds 23 1017 88 10000 6.2 330 20:59 14.09.2019
1954 Clouds 23 1017 88 10000 6.2 330 20:39 14.09.2019
1955 Clouds 23 1017 78 10000 6.2 340 20:21 14.09.2019
1956 Clouds 23 1017 78 10000 6.7 340 19:49 14.09.2019
1957 Clouds 24 1017 69 10000 6.7 330 19:23 14.09.2019
1958 Clouds 24 1016 69 10000 7.2 340 18:58 14.09.2019
1959 Clouds 24 1016 65 10000 7.7 340 18:38 14.09.2019
1960 Clouds 24 1016 65 10000 7.7 340 18:20 14.09.2019
1961 Clouds 25 1016 61 10000 6.7 330 17:45 14.09.2019
1962 Clouds 25 1016 61 10000 6.7 330 17:45 14.09.2019
1963 Clouds 25 1016 61 10000 7.2 330 17:24 14.09.2019
1964 Clouds 25 1016 54 10000 6.2 330 16:56 14.09.2019
1965 Clouds 24 1016 54 10000 6.2 330 16:38 14.09.2019
1966 Clouds 25 1016 51 10000 4.6 320 16:18 14.09.2019
1967 Clear 25 1016 51 10000 5.7 320 15:42 14.09.2019
1968 Clear 24 1016 48 10000 4.1 330 15:23 14.09.2019
1969 Clear 25 1016 51 10000 1 0 14:57 14.09.2019
1970 Clear 24 1016 51 10000 1 0 14:39 14.09.2019
1971 Clear 24 1017 54 10000 1 20 14:18 14.09.2019
1972 Clear 24 1017 54 10000 1 20 14:18 14.09.2019
1973 Clouds 24 1017 57 10000 2.1 350 13:44 14.09.2019
1974 Clouds 23 1017 69 10000 3.58 346.057 13:20 14.09.2019
1975 Clouds 23 1018 73 10000 1 0 12:45 14.09.2019
1976 Clouds 22 1018 78 10000 1.8 12.157 12:23 14.09.2019
1977 Clouds 22 1018 83 10000 1.8 12.157 11:41 14.09.2019
1978 Clouds 21 1018 93 8000 1.8 12.157 11:20 14.09.2019
1979 Mist 21 1018 100 1200 2.1 150 10:40 14.09.2019
1980 Mist 21 1018 100 1200 2.1 150 10:22 14.09.2019
1981 Fog 21 1017 100 400 1.8 12.157 09:58 14.09.2019
1982 Fog 20 1017 100 400 1.8 12.157 09:40 14.09.2019
1983 Fog 19 1017 100 400 2.8 15.487 09:20 14.09.2019
1984 Fog 19 1017 100 400 2.8 15.487 08:56 14.09.2019
1985 Fog 19 1017 100 400 3.06 18.927 08:37 14.09.2019
1986 Fog 19 1017 100 400 3.06 18.927 08:18 14.09.2019
1987 Clouds 19 1016 100 600 3.06 18.927 07:42 14.09.2019
1988 Fog 17 1016 100 600 3.06 18.927 07:20 14.09.2019
1989 Fog 17 1016 100 600 3.06 18.927 06:32 14.09.2019
1990 Mist 16 1016 100 2000 2.37 331.953 05:27 14.09.2019
1991 Clear 17 1017 100 10000 2.37 331.953 03:59 14.09.2019
1992 Clear 22 1017 88 10000 1.88 14.236 02:57 14.09.2019
1993 Clear 21 1017 93 10000 1.88 14.236 02:30 14.09.2019
1994 Clear 21 1018 93 10000 1.88 14.236 01:44 14.09.2019
1995 Clear 21 1018 88 10000 2.3 19.396 01:19 14.09.2019
1996 Clear 21 1018 77 10000 2.3 19.396 00:40 14.09.2019
1997 Clear 21 1018 77 10000 2.51 35.129 00:21 14.09.2019
1998 Clear 22 1018 77 10000 2.51 35.129 23:54 13.09.2019
1999 Clear 22 1016 57 0 5.36 360 23:36 13.09.2019
2000 Clear 22 1016 57 0 5.36 360 23:36 13.09.2019
2001 Clear 22 1016 57 0 5.36 360 23:18 13.09.2019
2002 Clear 22 1017 68 10000 4.6 340 22:39 13.09.2019
2003 Clear 22 1017 68 10000 4.6 340 22:21 13.09.2019
2004 Clear 22 1017 68 10000 4.6 340 21:56 13.09.2019
2005 Clear 22 1017 68 10000 4.6 340 21:38 13.09.2019
2006 Clear 23 1016 56 10000 5.1 340 21:19 13.09.2019
2007 Clear 23 1016 56 10000 5.1 340 20:57 13.09.2019
2008 Clear 23 1016 53 10000 5.1 340 20:36 13.09.2019
2009 Clear 24 1016 53 10000 5.1 340 20:18 13.09.2019
2010 Clear 24 1016 47 10000 5.7 340 19:44 13.09.2019
2011 Clear 24 1016 44 10000 6.2 330 19:22 13.09.2019
2012 Clear 24 1016 47 10000 6.2 330 18:58 13.09.2019
2013 Clear 25 1015 44 10000 6.2 360 18:37 13.09.2019
2014 Clear 24 1015 44 10000 6.2 360 18:19 13.09.2019
2015 Clear 24 1015 51 10000 6.7 350 17:44 13.09.2019
2016 Clear 25 1015 45 10000 7.2 340 17:21 13.09.2019
2017 Clear 25 1015 45 10000 7.2 340 16:56 13.09.2019
2018 Clear 25 1015 35 0 2.1 330 16:37 13.09.2019
2019 Clear 25 1015 35 0 2.1 330 16:18 13.09.2019
2020 Clear 25 1016 35 10000 2.6 360 15:41 13.09.2019
2021 Clear 25 1016 37 10000 4.1 0 15:23 13.09.2019
2022 Clear 25 1016 37 10000 1 0 14:55 13.09.2019
2023 -273 0 0 0 0 0 14:55 13.09.2019
2024 Clear 25 1016 37 10000 1 0 14:55 13.09.2019
2025 Clear 24 1016 36 10000 3.1 20 14:36 13.09.2019
2026 Clear 24 1016 36 10000 3.1 20 14:18 13.09.2019
2027 Clear 24 1016 47 10000 4.1 20 13:40 13.09.2019
2028 Clear 24 1016 47 10000 4.1 20 13:40 13.09.2019
2029 Clear 24 1016 41 10000 2.6 350 13:21 13.09.2019
2030 Clear 24 1016 41 10000 2.6 350 12:45 13.09.2019
2031 Clear 24 1016 57 10000 5.7 360 12:24 13.09.2019
2032 Clear 23 1016 53 10000 3.1 350 11:57 13.09.2019
2033 Clear 23 1016 53 10000 5.1 20 11:20 13.09.2019
2034 Clear 21 1016 68 10000 4.21 37.673 10:41 13.09.2019
2035 Clear 21 1016 60 10000 4.6 40 10:21 13.09.2019
2036 Clear 18 1016 87 10000 2.6 330 09:56 13.09.2019
2037 Clear 17 1015 87 10000 4.21 37.673 09:37 13.09.2019
2038 Clear 16 1015 87 10000 5.15 46.464 09:19 13.09.2019
2039 Clouds 15 1015 87 10000 2.1 220 08:41 13.09.2019
2040 Clear 15 1015 87 10000 3.6 190 08:21 13.09.2019
2041 Clear 15 1015 82 10000 2.6 170 07:59 13.09.2019
2042 Clear 15 1015 82 10000 2.6 170 07:40 13.09.2019
2043 Clear 16 1015 88 10000 2.1 30 06:54 13.09.2019
2044 Clear 16 1015 88 10000 5.65 46.427 06:34 13.09.2019
2045 Clouds 17 1015 88 10000 6.12 52.007 05:30 13.09.2019
2046 Clouds 19 1015 93 10000 6.12 52.007 03:44 13.09.2019
2047 Clouds 20 1016 82 10000 3.85 40.29 02:54 13.09.2019
2048 Clouds 20 1016 77 10000 1.5 130 02:19 13.09.2019
2049 Clear 20 1017 73 10000 3.6 40 01:35 13.09.2019
2050 Clear 20 1017 73 10000 2.1 60 00:59 13.09.2019
2051 Clear 20 1017 73 10000 1 0 00:33 13.09.2019
2052 Clear 21 1017 68 10000 3.1 40 23:46 12.09.2019
2053 Clear 21 1017 68 10000 4.1 30 23:22 12.09.2019
2054 Clear 22 1017 68 10000 4.6 30 22:56 12.09.2019
2055 Clear 22 1017 68 10000 4.6 30 22:37 12.09.2019
2056 Clear 22 1016 73 10000 6.2 40 22:18 12.09.2019
2057 Clear 22 1016 64 10000 6.7 20 21:54 12.09.2019
2058 Clear 22 1016 64 10000 6.2 40 21:36 12.09.2019
2059 Clear 23 1016 64 10000 6.2 40 21:18 12.09.2019
2060 Clear 23 1016 60 10000 7.2 20 20:41 12.09.2019
2061 Clear 23 1016 60 10000 7.2 20 20:21 12.09.2019
2062 Clear 24 1016 47 10000 10.3 20 19:57 12.09.2019
2063 Clear 24 1016 57 10000 6.68 32.041 19:37 12.09.2019
2064 Clear 24 1016 57 10000 6.68 32.041 19:19 12.09.2019
2065 Clear 24 1016 57 10000 6.68 32.041 19:19 12.09.2019
2066 Clear 24 1016 57 10000 6.68 32.041 19:19 12.09.2019
2067 Clear 24 1016 57 10000 6.68 32.041 19:19 12.09.2019
2068 Clear 25 1016 36 10000 10.3 10 18:39 12.09.2019
2069 Clear 25 1016 47 10000 5.69 10.176 18:21 12.09.2019
2070 Clear 26 1015 34 10000 9.8 10 17:59 12.09.2019
2071 Clear 26 1016 41 10000 5.69 10.176 17:39 12.09.2019
2072 Clear 26 1016 41 10000 5.69 10.176 17:20 12.09.2019
2073 Clear 26 1016 41 10000 5.69 10.176 17:20 12.09.2019
2074 Clear 26 1015 32 10000 8.7 10 16:43 12.09.2019
2075 Clear 26 1016 41 10000 5.69 10.176 16:23 12.09.2019
2076 Clear 26 1016 34 10000 9.3 10 15:59 12.09.2019
2077 Clear 26 1016 34 10000 9.3 10 15:39 12.09.2019
2078 Clear 26 1016 50 10000 8.7 20 15:21 12.09.2019
2079 Clear 26 1016 32 10000 7.2 20 14:45 12.09.2019
2080 Clear 26 1017 50 10000 6.2 360 14:21 12.09.2019
2081 Clear 26 1017 30 10000 6.2 40 13:54 12.09.2019
2082 Clear 26 1017 30 10000 6.7 30 13:36 12.09.2019
2083 Clear 26 1017 30 10000 6.7 30 13:18 12.09.2019
2084 Clear 26 1017 30 10000 6.7 30 13:18 12.09.2019
2085 Clear 26 1017 36 10000 5.7 30 12:41 12.09.2019
2086 Clear 25 1017 44 10000 5.1 20 12:18 12.09.2019
2087 Clear 23 1018 50 10000 5.7 40 11:54 12.09.2019
2088 Clear 23 1017 56 10000 4.1 60 11:36 12.09.2019
2089 Clear 23 1017 56 10000 4.1 60 11:18 12.09.2019
2090 Clear 21 1017 77 10000 3.6 60 10:42 12.09.2019
2091 Clear 21 1017 77 10000 3.6 60 10:42 12.09.2019
2092 Clear 21 1017 77 10000 3.6 60 10:42 12.09.2019
2093 Clear 21 1017 64 10000 3.1 60 10:23 12.09.2019
2094 Clear 18 1016 77 10000 1 100 09:44 12.09.2019
2095 Clear 18 1016 77 10000 1 100 09:20 12.09.2019
2096 Clouds 17 1017 100 10000 2.6 40 08:57 12.09.2019
2097 Clouds 17 1017 100 10000 2.6 40 08:38 12.09.2019
2098 Clouds 17 1017 93 10000 3.1 30 08:20 12.09.2019
2099 Clouds 17 1017 88 10000 2.6 50 07:38 12.09.2019
2100 Clouds 17 1017 77 10000 3.1 50 07:18 12.09.2019
2101 Clear 18 1017 72 10000 3.1 50 06:49 12.09.2019
2102 Clear 18 1017 72 10000 3.1 50 06:49 12.09.2019
2103 Clear 20 1017 72 10000 3.1 60 06:19 12.09.2019
2104 Clear 19 1017 72 10000 2.6 60 05:48 12.09.2019
2105 Clear 19 1017 72 10000 3.1 60 05:27 12.09.2019
2106 Clear 19 1017 77 10000 3.1 50 04:31 12.09.2019
2107 Clear 20 1018 82 10000 3.1 60 01:48 12.09.2019
2108 Clear 20 1018 77 10000 3.6 30 01:30 12.09.2019
2109 Clear 20 1019 72 10000 3.1 40 00:51 12.09.2019
2110 Clear 20 1019 77 10000 4.1 30 00:31 12.09.2019
2111 Clear 20 1019 77 10000 4.6 30 23:57 11.09.2019
2112 Clear 21 1019 77 10000 5.7 30 23:37 11.09.2019
2113 Clear 21 1019 77 10000 5.7 30 23:19 11.09.2019
2114 Clear 21 1018 83 10000 6.2 40 22:55 11.09.2019
2115 Clear 21 1017 68 10000 5.1 20 22:37 11.09.2019
2116 Clear 21 1017 68 10000 5.1 20 22:18 11.09.2019
2117 Clear 22 1018 73 10000 7.2 20 21:41 11.09.2019
2118 Clear 22 1017 64 10000 6.2 20 21:23 11.09.2019
2119 Clear 23 1017 64 10000 6.2 20 20:56 11.09.2019
2120 Clear 23 1017 64 10000 6.2 20 20:38 11.09.2019
2121 Clear 23 1017 64 10000 6.2 20 20:19 11.09.2019
2122 Clear 23 1017 64 10000 6.2 20 20:19 11.09.2019
2123 Clear 24 1017 57 10000 8.2 360 19:56 11.09.2019
2124 Clear 24 1017 60 10000 8.7 20 19:38 11.09.2019
2125 Clear 24 1017 60 10000 8.7 20 19:19 11.09.2019
2126 Clear 25 1017 47 10000 8.2 360 18:55 11.09.2019
2127 Clear 25 1017 60 10000 9.8 360 18:37 11.09.2019
2128 Clear 25 1017 60 10000 9.8 360 18:18 11.09.2019
2129 Clear 25 1017 28 10000 8.7 10 17:41 11.09.2019
2130 Clear 25 1017 57 10000 8.7 360 17:22 11.09.2019
2131 Clear 25 1017 36 10000 6.7 360 16:57 11.09.2019
2132 Clear 25 1017 36 10000 6.7 360 16:39 11.09.2019
2133 Clear 25 1018 57 10000 7.2 340 16:20 11.09.2019
2134 Clear 25 1018 39 10000 7.2 360 15:47 11.09.2019
2135 Clear 25 1018 57 10000 7.2 340 15:24 11.09.2019
2136 Clear 25 1018 34 10000 2.6 30 14:59 11.09.2019
2137 Clear 25 1018 34 10000 2.6 30 14:40 11.09.2019
2138 Clear 25 1018 57 10000 6.2 20 14:20 11.09.2019
2139 Clear 25 1018 57 10000 6.2 20 14:20 11.09.2019
2140 Clear 24 1019 41 10000 2.1 30 13:58 11.09.2019
2141 Clear 24 1019 50 10000 5.1 20 13:37 11.09.2019
2142 Clear 24 1019 50 10000 5.1 20 13:18 11.09.2019
2143 Clear 24 1020 44 10000 4.1 40 12:42 11.09.2019
2144 Clear 24 1019 53 10000 4.1 20 12:21 11.09.2019
2145 -273 0 0 0 0 0 11:58 11.09.2019
2146 Clear 22 1019 56 10000 2.1 240 11:37 11.09.2019
2147 Clear 22 1019 56 10000 2.1 240 11:18 11.09.2019
2148 Clear 21 1020 68 10000 0.95 91.334 10:41 11.09.2019
2149 Clear 20 1019 60 10000 3.1 180 10:22 11.09.2019
2150 Clouds 18 1019 77 10000 0.95 91.334 09:57 11.09.2019
2151 Clear 17 1018 68 10000 3.1 200 09:37 11.09.2019
2152 Clear 17 1018 68 10000 3.1 200 09:18 11.09.2019
2153 Clouds 16 1019 77 10000 0.88 31.547 08:40 11.09.2019
2154 Clouds 15 1018 77 10000 0.88 31.547 08:21 11.09.2019
2155 Clouds 17 1018 82 10000 0.88 31.547 07:49 11.09.2019
2156 Clouds 17 1018 77 10000 0.88 31.547 07:24 11.09.2019
2157 Clear 16 1018 72 10000 0.5 0 06:59 11.09.2019
2158 Clouds 17 1018 77 10000 0.88 31.547 06:36 11.09.2019
2159 Clear 18 1018 68 10000 1.5 210 05:53 11.09.2019
2160 Clouds 18 1018 82 10000 3.26 0.985 05:33 11.09.2019
2161 Clouds 19 1019 82 10000 3.26 0.985 04:52 11.09.2019
2162 Clouds 19 1019 82 10000 2.6 350 03:40 11.09.2019
2163 Clouds 19 1019 82 10000 3.6 340 03:20 11.09.2019
2164 Clouds 20 1020 82 10000 5.1 340 02:28 11.09.2019
2165 Clouds 20 1020 82 10000 5.7 340 01:28 11.09.2019
2166 Clouds 20 1020 88 10000 4.6 340 00:32 11.09.2019
2167 Clouds 21 1020 88 10000 4.6 360 23:58 10.09.2019
2168 Clouds 21 1020 88 10000 4.6 360 23:39 10.09.2019
2169 Clouds 21 1020 88 10000 4.6 350 23:21 10.09.2019
2170 Clouds 21 1020 88 10000 5.1 350 22:42 10.09.2019
2171 Clouds 21 1020 83 10000 6.2 360 22:21 10.09.2019
2172 Clouds 21 1020 83 10000 4.6 340 21:57 10.09.2019
2173 Clouds 21 1020 83 10000 4.6 340 21:38 10.09.2019
2174 Clouds 21 1020 83 10000 4.6 340 21:38 10.09.2019
2175 Clouds 21 1019 68 10000 7.2 360 21:20 10.09.2019
2176 Clouds 21 1019 68 10000 7.2 360 21:20 10.09.2019
2177 Clouds 22 1020 73 10000 7.7 350 20:59 10.09.2019
2178 Clouds 22 1020 73 10000 7.7 350 20:40 10.09.2019
2179 Clouds 22 1019 64 10000 8.2 360 20:22 10.09.2019
2180 Clouds 23 1019 69 10000 8.2 350 19:58 10.09.2019
2181 Clouds 23 1019 69 10000 8.2 350 19:39 10.09.2019
2182 Clouds 23 1019 64 10000 8.2 360 19:20 10.09.2019
2183 Clouds 24 1019 64 10000 7.2 340 18:58 10.09.2019
2184 Clouds 24 1019 64 10000 7.2 340 18:40 10.09.2019
2185 Clouds 24 1019 60 10000 7.2 360 18:21 10.09.2019
2186 Clouds 25 1019 65 10000 7.2 350 17:55 10.09.2019
2187 Clouds 25 1019 57 10000 6.2 360 17:37 10.09.2019
2188 Clouds 25 1019 57 10000 6.2 360 17:18 10.09.2019
2189 Clouds 25 1020 61 10000 6.2 340 16:55 10.09.2019
2190 Clouds 25 1020 61 10000 6.2 340 16:55 10.09.2019
2191 Clouds 25 1020 61 10000 6.2 340 16:55 10.09.2019
2192 Clouds 25 1020 61 10000 6.2 340 16:55 10.09.2019
2193 Clouds 25 1020 61 10000 7.2 360 16:37 10.09.2019
2194 Clouds 25 1020 61 10000 7.2 360 16:18 10.09.2019
2195 Clouds 25 1020 69 10000 5.7 320 15:43 10.09.2019
2196 Clouds 25 1020 61 10000 5.1 360 15:21 10.09.2019
2197 -273 0 0 0 0 0 14:55 10.09.2019
2198 Clouds 25 1021 65 10000 5.7 340 14:55 10.09.2019
2199 Clouds 25 1021 61 10000 5.1 340 14:36 10.09.2019
2200 Clouds 25 1021 61 10000 5.1 340 14:18 10.09.2019
2201 Clouds 24 1021 73 10000 5.1 330 13:43 10.09.2019
2202 Clouds 24 1022 61 6000 5.1 300 13:22 10.09.2019
2203 Clouds 24 1021 78 10000 5.1 330 12:51 10.09.2019
2204 Clouds 24 1021 69 8000 7.2 360 12:28 10.09.2019
2205 Mist 22 1021 100 10000 3.1 310 11:58 10.09.2019
2206 Mist 22 1020 83 6000 4.1 320 11:40 10.09.2019
2207 Mist 22 1020 83 6000 4.1 320 11:21 10.09.2019
2208 Fog 22 1020 94 5000 2.1 340 10:42 10.09.2019
2209 Fog 21 1020 94 5000 2.1 340 10:20 10.09.2019
2210 Fog 21 1021 100 300 3.06 1.256 09:58 10.09.2019
2211 Fog 20 1020 88 5000 2.1 340 09:40 10.09.2019
2212 Fog 20 1020 88 5000 2.1 340 09:19 10.09.2019
2213 Fog 20 1020 100 300 1 0 08:47 10.09.2019
2214 Fog 20 1019 88 5000 2.1 240 08:28 10.09.2019
2215 Fog 19 1020 100 350 1.5 180 07:55 10.09.2019
2216 Fog 19 1020 100 350 1.5 180 07:55 10.09.2019
2217 Fog 20 1020 100 300 2.38 20.593 07:37 10.09.2019
2218 Fog 20 1020 100 300 2.38 20.593 07:18 10.09.2019
2219 Fog 20 1020 100 400 1.5 210 06:39 10.09.2019
2220 Fog 21 1020 100 400 1.5 210 06:18 10.09.2019
2221 Clouds 21 1020 100 7000 1 330 03:58 10.09.2019
2222 Clouds 21 1020 94 8000 1.9 1.989 02:38 10.09.2019
2223 Clouds 21 1020 94 8000 1.9 1.989 02:38 10.09.2019
2224 Clouds 21 1020 94 8000 1.9 1.989 02:38 10.09.2019
2225 Clouds 21 1020 94 8000 1.9 1.989 02:19 10.09.2019
2226 Clouds 22 1020 100 10000 1.9 1.989 01:45 10.09.2019
2227 Clear 22 1021 100 0 1 140 01:22 10.09.2019
2228 Clear 22 1021 100 0 1.5 150 00:34 10.09.2019
2229 Clouds 23 1020 100 10000 0.5 30 23:48 09.09.2019
2230 Clouds 22 1020 88 10000 1.5 10 23:20 09.09.2019
2231 Clouds 23 1020 100 10000 3.1 340 22:58 09.09.2019
2232 Clouds 23 1020 94 6000 2.1 350 22:39 09.09.2019
2233 Clouds 23 1020 94 6000 2.1 350 22:21 09.09.2019
2234 Clouds 23 1019 94 10000 5.1 350 21:59 09.09.2019
2235 Clouds 24 1018 78 10000 4.1 360 21:40 09.09.2019
2236 Clouds 24 1018 78 10000 4.1 360 21:21 09.09.2019
2237 Clouds 25 1018 78 10000 5.1 330 20:57 09.09.2019
2238 Clouds 25 1018 78 10000 4.1 340 20:38 09.09.2019
2239 Clouds 25 1018 78 10000 4.1 340 20:19 09.09.2019
2240 Clouds 26 1018 61 10000 5.7 330 19:59 09.09.2019
2241 Clouds 26 1017 69 10000 5.1 340 19:39 09.09.2019
2242 Clouds 26 1017 69 10000 5.1 340 19:20 09.09.2019
2243 Clear 27 1017 61 10000 6.7 340 18:58 09.09.2019
2244 Clouds 26 1017 69 10000 7.2 340 18:40 09.09.2019
2245 Clouds 26 1017 69 10000 7.2 340 18:21 09.09.2019
2246 Clear 27 1017 58 10000 6.2 340 17:59 09.09.2019
2247 Clear 27 1017 58 10000 6.2 340 17:59 09.09.2019
2248 Clouds 27 1017 65 10000 7.2 340 17:40 09.09.2019
2249 Clouds 27 1017 65 10000 7.2 340 17:21 09.09.2019
2250 Clouds 27 1017 65 10000 7.2 340 17:21 09.09.2019
2251 Clear 28 1017 62 10000 5.1 320 16:57 09.09.2019
2252 Clouds 28 1017 65 10000 6.2 360 16:38 09.09.2019
2253 Clouds 28 1017 65 10000 6.2 360 16:20 09.09.2019
2254 Clouds 28 1017 65 10000 6.2 320 15:56 09.09.2019
2255 Clouds 27 1017 65 10000 6.2 320 15:37 09.09.2019
2256 Clouds 27 1017 65 10000 6.2 320 15:37 09.09.2019
2257 Clouds 27 1017 65 10000 6.2 320 15:18 09.09.2019
2258 Clear 27 1018 42 10000 2.6 360 14:55 09.09.2019
2259 Clouds 27 1010 69 10000 5.1 320 14:37 09.09.2019
2260 Clouds 27 1010 69 10000 5.1 320 14:19 09.09.2019
2261 Clear 27 1018 48 10000 2.1 20 13:44 09.09.2019
2262 Clouds 27 1018 65 8000 4.1 20 13:20 09.09.2019
2263 Clear 26 1019 61 10000 2.1 10 12:58 09.09.2019
2264 Clouds 26 1018 69 8000 4.1 360 12:38 09.09.2019
2265 Clouds 26 1018 69 8000 4.1 360 12:19 09.09.2019
2266 Clouds 26 1018 69 8000 4.1 360 12:19 09.09.2019
2267 Clear 25 1018 73 10000 1 0 11:46 09.09.2019
2268 Clouds 25 1018 69 8000 3.1 30 11:22 09.09.2019
2269 Clear 23 1018 83 10000 2.6 340 10:58 09.09.2019
2270 Clouds 23 1017 88 8000 2.1 20 10:40 09.09.2019
2271 Clouds 23 1017 88 8000 2.1 20 10:20 09.09.2019
2272 Mist 21 1017 100 2000 3.1 320 09:56 09.09.2019
2273 Fog 21 1016 94 8000 2.1 20 09:37 09.09.2019
2274 Fog 21 1016 94 8000 2.1 20 09:18 09.09.2019
2275 Fog 19 1016 94 8000 2.1 20 08:38 09.09.2019
2276 Fog 19 1016 94 8000 2.1 20 08:19 09.09.2019
2277 Fog 19 1016 100 200 1.8 334.134 07:45 09.09.2019
2278 Fog 19 1017 82 0 2.6 120 07:22 09.09.2019
2279 Fog 19 1016 100 600 2.6 170 06:56 09.09.2019
2280 Clear 20 1016 88 0 3.6 140 06:31 09.09.2019
2281 Clouds 21 1016 100 7000 3.1 20 04:54 09.09.2019
2282 Clear 22 1017 100 9000 1.17 29.278 02:43 09.09.2019
2283 Clear 22 1017 100 7000 2.6 20 01:50 09.09.2019
2284 Clear 23 1017 100 9000 3.6 10 00:39 09.09.2019
2285 Clear 23 1017 100 9000 3.6 10 00:21 09.09.2019
2286 Clear 24 1018 100 0 2.1 40 23:44 08.09.2019
2287 Clear 24 1018 100 0 2.1 40 23:23 08.09.2019
2288 Clear 24 1017 83 10000 3.1 350 22:55 08.09.2019
2289 Clouds 24 1015 78 10000 6.2 20 22:36 08.09.2019
2290 Clouds 24 1015 78 10000 6.2 20 22:18 08.09.2019
2291 Clouds 25 1015 78 10000 6.2 20 21:41 08.09.2019
2292 Clouds 25 1015 78 10000 6.2 20 21:22 08.09.2019
2293 Clear 26 1015 57 10000 5.1 320 20:57 08.09.2019
2294 Clouds 26 1015 69 10000 6.2 20 20:38 08.09.2019
2295 Clouds 26 1015 69 10000 6.2 20 20:20 08.09.2019
2296 Clouds 27 1015 54 10000 5.7 320 19:56 08.09.2019
2297 Clouds 27 1015 65 10000 6.2 360 19:37 08.09.2019
2298 Clouds 27 1015 65 10000 6.2 360 19:18 08.09.2019
2299 Clouds 27 1015 65 10000 6.2 360 19:18 08.09.2019
2300 Clouds 28 1015 62 10000 6.2 330 18:55 08.09.2019
2301 Clouds 28 1015 62 10000 6.2 330 18:55 08.09.2019
2302 Clouds 28 1015 61 10000 7.2 360 18:37 08.09.2019
2303 Clouds 28 1015 61 10000 7.2 360 18:18 08.09.2019
2304 Clouds 28 1014 61 10000 6.2 340 17:38 08.09.2019
2305 Clouds 28 1014 61 10000 6.2 340 17:19 08.09.2019
2306 Clouds 29 1014 52 10000 5.1 360 16:59 08.09.2019
2307 Clouds 29 1014 58 10000 6.2 340 16:40 08.09.2019
2308 Clouds 28 1014 58 10000 6.2 340 16:21 08.09.2019
2309 Clouds 29 1015 48 10000 1.5 280 15:57 08.09.2019
2310 Clouds 28 1015 58 10000 5.1 340 15:39 08.09.2019
2311 Clouds 28 1015 58 10000 5.1 340 15:20 08.09.2019
2312 Clouds 28 1015 58 10000 6.2 360 14:41 08.09.2019
2313 Clouds 28 1015 58 10000 6.2 360 14:23 08.09.2019
2314 Mist 27 1016 65 10000 1.5 10 13:59 08.09.2019
2315 Mist 27 1015 58 10000 2.1 200 13:40 08.09.2019
2316 Mist 27 1015 58 10000 2.1 200 13:22 08.09.2019
2317 Mist 26 1016 78 10000 4.2 312.278 12:59 08.09.2019
2318 Mist 26 1015 61 10000 2.1 140 12:41 08.09.2019
2319 Mist 26 1015 61 10000 2.1 140 12:22 08.09.2019
2320 Mist 25 1016 88 10000 0.93 229.265 11:57 08.09.2019
2321 Mist 25 1015 69 10000 3.1 360 11:38 08.09.2019
2322 Mist 25 1015 69 10000 3.1 360 11:19 08.09.2019
2323 Mist 23 1015 94 10000 0.93 229.265 10:43 08.09.2019
2324 Mist 24 1014 78 10000 2.1 320 10:23 08.09.2019
2325 Mist 22 1015 100 10000 0.93 229.265 09:58 08.09.2019
2326 Mist 22 1014 88 10000 1 300 09:38 08.09.2019
2327 Mist 22 1014 88 10000 1 300 09:19 08.09.2019
2328 Clear 22 1013 88 10000 2.1 320 08:40 08.09.2019
2329 Clear 22 1013 88 10000 2.1 320 08:19 08.09.2019
2330 Clouds 22 1014 100 10000 1.76 246.536 07:59 08.09.2019
2331 Clouds 22 1013 100 10000 1.76 246.536 07:38 08.09.2019
2332 Clouds 22 1013 100 10000 1.76 246.536 07:19 08.09.2019
2333 Clouds 22 1013 94 10000 2.6 240 06:44 08.09.2019
2334 Clouds 23 1014 83 0 1 290 05:48 08.09.2019
2335 Clouds 23 1014 83 0 1 290 05:29 08.09.2019
2336 Clouds 23 1014 94 10000 3.95 251.987 03:39 08.09.2019
2337 Clouds 23 1014 94 10000 1.8 102.892 02:53 08.09.2019
2338 Clouds 23 1015 94 10000 0.5 110 01:57 08.09.2019
2339 Clouds 23 1015 100 10000 1.8 102.892 01:34 08.09.2019
2340 Clouds 23 1015 100 10000 1.8 102.892 01:34 08.09.2019
2341 Clouds 23 1015 100 10000 2.1 100 00:53 08.09.2019
2342 Clouds 23 1015 100 10000 1.39 176.651 00:34 08.09.2019
2343 Clouds 23 1015 100 10000 0.98 80.836 23:59 07.09.2019
2344 Clouds 23 1013 100 10000 0.98 80.836 23:37 07.09.2019
2345 Clouds 23 1013 100 10000 0.98 80.836 23:19 07.09.2019
2346 Clouds 23 1014 88 10000 0.98 80.836 22:56 07.09.2019
2347 Clouds 23 1012 83 10000 2.1 20 22:37 07.09.2019
2348 Clouds 23 1012 83 10000 2.1 20 22:18 07.09.2019
2349 Clouds 24 1012 78 10000 2.1 20 21:40 07.09.2019
2350 Clouds 24 1012 78 10000 2.1 20 21:40 07.09.2019
2351 Clouds 24 1012 78 10000 2.1 20 21:22 07.09.2019
2352 Clouds 24 1012 78 10000 2.1 20 21:22 07.09.2019
2353 Clouds 25 1012 78 10000 6.2 320 20:41 07.09.2019
2354 Clouds 25 1012 78 10000 6.2 320 20:22 07.09.2019
2355 Clouds 26 1012 73 10000 6.2 340 19:57 07.09.2019
2356 Clouds 26 1012 73 10000 6.2 340 19:39 07.09.2019
2357 Clouds 26 1012 73 10000 6.2 340 19:21 07.09.2019
2358 Clouds 26 1012 65 10000 6.7 330 18:59 07.09.2019
2359 Clouds 26 1012 69 10000 7.2 320 18:40 07.09.2019
2360 Clouds 26 1012 69 10000 7.2 320 18:21 07.09.2019
2361 Clouds 27 1012 54 10000 6.2 300 17:59 07.09.2019
2362 Clouds 28 1012 65 10000 6.2 320 17:39 07.09.2019
2363 Clouds 28 1012 65 10000 6.2 320 17:39 07.09.2019
2364 Clouds 28 1012 65 10000 6.2 320 17:19 07.09.2019
2365 Clouds 28 1012 65 10000 6.2 320 16:58 07.09.2019
2366 Clouds 28 1012 65 10000 6.2 320 16:58 07.09.2019
2367 Clouds 28 1012 65 10000 6.2 320 16:58 07.09.2019
2368 Clouds 28 1012 65 10000 6.2 320 16:40 07.09.2019
2369 Clouds 28 1012 65 10000 6.2 320 16:19 07.09.2019
2370 Clouds 28 1012 43 10000 3.1 260 15:46 07.09.2019
2371 Clouds 28 1012 65 10000 8.2 320 15:26 07.09.2019
2372 Clouds 28 1013 62 10000 2.6 240 14:57 07.09.2019
2373 Clouds 28 1013 54 10000 4.1 280 14:37 07.09.2019
2374 Clouds 28 1013 54 10000 4.1 280 14:18 07.09.2019
2375 Clouds 27 1014 65 10000 2.6 240 13:56 07.09.2019
2376 Clouds 27 1014 65 10000 2.6 240 13:56 07.09.2019
2377 Clouds 27 1013 58 10000 5.1 260 13:38 07.09.2019
2378 Clouds 27 1013 58 10000 5.1 260 13:20 07.09.2019
2379 Clouds 25 1014 74 10000 3.6 220 12:44 07.09.2019
2380 Clouds 25 1013 69 10000 4.1 240 12:25 07.09.2019
2381 Clouds 24 1013 73 10000 5.1 200 11:42 07.09.2019
2382 Clouds 24 1013 73 10000 5.1 200 11:23 07.09.2019
2383 Clouds 24 1014 88 10000 3.1 160 10:59 07.09.2019
2384 Clouds 23 1013 78 10000 3.1 200 10:38 07.09.2019
2385 Clouds 23 1013 78 10000 3.1 200 10:38 07.09.2019
2386 Clouds 23 1013 78 10000 3.1 200 10:19 07.09.2019
2387 Clouds 22 1013 94 10000 2.1 170 09:43 07.09.2019
2388 Clouds 21 1012 83 10000 4.1 180 09:25 07.09.2019
2389 Clouds 21 1013 100 10000 4.1 180 08:57 07.09.2019
2390 Clouds 21 1012 88 10000 1 100 08:37 07.09.2019
2391 Clouds 21 1012 88 10000 1 100 08:19 07.09.2019
2392 Clouds 21 1012 100 10000 1 260 07:45 07.09.2019
2393 Clouds 21 1012 100 10000 1 260 07:24 07.09.2019
2394 Clear 21 1013 100 10000 2.6 270 06:45 07.09.2019
2395 Clear 22 1012 100 10000 3.1 290 06:19 07.09.2019
2396 Clear 22 1013 100 10000 3.1 260 04:45 07.09.2019
2397 Clear 22 1013 100 10000 2.6 230 04:19 07.09.2019
2398 Clouds 22 1014 100 10000 1.5 230 02:44 07.09.2019
2399 Clouds 23 1014 100 10000 2.6 220 01:44 07.09.2019
2400 Clouds 23 1014 100 10000 3.6 250 00:57 07.09.2019
2401 Clouds 23 1014 100 10000 3.6 220 00:38 07.09.2019
2402 Clouds 23 1014 100 10000 3.6 220 00:19 07.09.2019
2403 Clouds 23 1014 94 10000 4.6 280 23:39 06.09.2019
2404 Clouds 23 1014 94 10000 4.6 280 23:21 06.09.2019
2405 Clouds 23 1013 94 10000 4.6 280 22:57 06.09.2019
2406 Clouds 23 1011 83 10000 3.1 340 22:37 06.09.2019
2407 Clouds 23 1011 83 10000 3.1 340 22:19 06.09.2019
2408 Clouds 24 1013 94 10000 4.1 310 21:56 06.09.2019
2409 Clouds 24 1011 78 10000 3.1 340 21:38 06.09.2019
2410 Clouds 24 1011 78 10000 3.1 340 21:20 06.09.2019
2411 Clouds 24 1012 94 10000 5.7 340 20:56 06.09.2019
2412 Clouds 24 1011 78 10000 7.2 320 20:37 06.09.2019
2413 Clouds 24 1011 78 10000 7.2 320 20:18 06.09.2019
2414 Clouds 24 1011 78 10000 7.2 320 20:18 06.09.2019
2415 Clouds 26 1011 69 10000 7.2 300 19:42 06.09.2019
2416 Clouds 26 1011 69 10000 7.2 300 19:24 06.09.2019
2417 Clear 26 1011 69 10000 6.7 330 18:58 06.09.2019
2418 Clear 26 1011 65 10000 5.1 300 18:40 06.09.2019
2419 Clear 26 1011 65 10000 5.1 300 18:22 06.09.2019
2420 Clear 27 1011 62 10000 5.1 320 17:56 06.09.2019
2421 Clear 27 1011 62 10000 5.1 320 17:56 06.09.2019
2422 Clear 27 1011 61 10000 6.2 300 17:37 06.09.2019
2423 Clear 27 1011 61 10000 6.2 300 17:18 06.09.2019
2424 Clouds 27 1012 61 10000 6.2 360 16:38 06.09.2019
2425 Clouds 27 1012 61 10000 6.2 360 16:18 06.09.2019
2426 Clouds 27 1012 65 10000 4.1 340 15:41 06.09.2019
2427 Clouds 27 1012 65 10000 4.1 340 15:22 06.09.2019
2428 Clouds 27 1013 62 10000 1.5 0 14:48 06.09.2019
2429 Clouds 26 1013 65 10000 5.1 340 14:20 06.09.2019
2430 Clouds 25 1014 65 8000 2.1 240 13:45 06.09.2019
2431 Clouds 25 1013 69 8000 4.1 360 13:25 06.09.2019
2432 Clouds 24 1014 78 6000 0.5 0 12:59 06.09.2019
2433 Clouds 24 1014 73 6000 3.1 320 12:37 06.09.2019
2434 Clouds 24 1014 73 6000 3.1 320 12:18 06.09.2019
2435 Clouds 23 1013 78 6000 2.1 270 11:42 06.09.2019
2436 Clouds 23 1013 78 6000 2.1 270 11:24 06.09.2019
2437 Mist 22 1014 100 3000 1.5 180 10:58 06.09.2019
2438 Mist 22 1013 83 5000 3.1 280 10:39 06.09.2019
2439 Mist 22 1013 83 5000 3.1 280 10:21 06.09.2019
2440 Mist 22 1013 78 5000 1 100 09:40 06.09.2019
2441 Mist 22 1013 78 5000 1 100 09:21 06.09.2019
2442 Mist 22 1013 78 5000 1 100 09:21 06.09.2019
2443 Mist 22 1013 100 3000 1.5 200 08:57 06.09.2019
2444 Mist 22 1013 100 4000 1 0 08:38 06.09.2019
2445 Mist 22 1013 100 4000 1 0 08:20 06.09.2019
2446 Mist 21 1013 100 4000 2.73 225.342 07:45 06.09.2019
2447 Mist 21 1013 100 4000 2.73 225.342 07:27 06.09.2019
2448 Clouds 21 1013 100 6000 2.73 225.342 06:56 06.09.2019
2449 Clouds 22 1013 100 10000 1.97 275.147 05:58 06.09.2019
2450 Clouds 22 1013 100 10000 1.97 275.147 05:29 06.09.2019
2451 Clouds 21 1013 100 10000 1.97 275.147 04:42 06.09.2019
2452 Clouds 21 1014 100 10000 1.97 275.147 03:45 06.09.2019
2453 Clouds 21 1014 100 10000 1.97 275.147 03:45 06.09.2019
2454 Clouds 21 1015 100 10000 1.5 330 01:53 06.09.2019
2455 Clouds 22 1015 94 10000 0.5 300 00:40 06.09.2019
2456 Clouds 22 1015 100 10000 2.1 20 23:44 05.09.2019
2457 Clouds 22 1015 100 10000 3.1 20 23:25 05.09.2019
2458 Clouds 22 1015 100 10000 3.1 20 23:25 05.09.2019
2459 Clouds 23 1015 94 10000 3.1 30 22:56 05.09.2019
2460 Clouds 23 1015 94 10000 3.1 30 22:56 05.09.2019
2461 Clouds 23 1015 94 10000 4.1 10 22:37 05.09.2019
2462 Clouds 23 1015 94 10000 4.1 10 22:19 05.09.2019
2463 Clouds 23 1014 94 10000 4.6 10 21:56 05.09.2019
2464 Clouds 23 1013 78 8000 5.1 360 21:37 05.09.2019
2465 Clouds 24 1013 78 8000 5.1 360 21:19 05.09.2019
2466 Clouds 24 1014 88 10000 4.6 340 20:55 05.09.2019
2467 Clouds 24 1013 73 10000 5.1 360 20:37 05.09.2019
2468 Clouds 24 1013 73 10000 5.1 360 20:18 05.09.2019
2469 Clouds 25 1013 69 10000 5.1 360 19:42 05.09.2019
2470 Clouds 25 1013 69 10000 5.1 360 19:23 05.09.2019
2471 Clear 25 1013 74 10000 6.2 330 18:57 05.09.2019
2472 Clouds 26 1013 69 10000 7.2 340 18:39 05.09.2019
2473 Clouds 26 1013 69 10000 7.2 340 18:19 05.09.2019
2474 Clouds 26 1014 65 10000 7.2 320 17:43 05.09.2019
2475 Clouds 26 1014 65 10000 7.2 320 17:24 05.09.2019
2476 Clouds 27 1014 62 10000 6.2 340 16:58 05.09.2019
2477 Clouds 27 1014 62 10000 6.2 340 16:58 05.09.2019
2478 Clouds 27 1014 61 10000 7.2 340 16:40 05.09.2019
2479 Clouds 27 1014 61 10000 7.2 340 16:20 05.09.2019
2480 Clouds 27 1015 66 10000 5.7 320 15:57 05.09.2019
2481 Clouds 26 1015 65 8000 6.2 340 15:38 05.09.2019
2482 Clouds 26 1015 65 8000 6.2 340 15:18 05.09.2019
2483 Clouds 26 1015 62 10000 1 0 14:43 05.09.2019
2484 Clouds 26 1015 65 8000 6.2 340 14:22 05.09.2019
2485 Clouds 26 1016 74 10000 4.38 301.816 13:44 05.09.2019
2486 Clouds 25 1016 69 6000 5.1 360 13:23 05.09.2019
2487 Clouds 24 1017 88 10000 4.89 293.396 12:59 05.09.2019
2488 Clouds 24 1016 69 6000 4.1 340 12:41 05.09.2019
2489 Clouds 24 1016 69 6000 4.1 340 12:41 05.09.2019
2490 Clouds 24 1016 69 6000 4.1 340 12:22 05.09.2019
2491 Clouds 23 1017 94 10000 2.65 272.664 11:44 05.09.2019
2492 Clouds 23 1016 78 6000 3.1 280 11:20 05.09.2019
2493 Clouds 23 1017 100 10000 2.1 200 10:57 05.09.2019
2494 Clouds 23 1016 78 6000 1.5 260 10:36 05.09.2019
2495 Clouds 23 1016 78 6000 1.5 260 10:18 05.09.2019
2496 Clouds 22 1016 94 10000 2.65 272.664 09:40 05.09.2019
2497 Clouds 22 1016 94 10000 2.32 274.846 09:20 05.09.2019
2498 Clouds 22 1016 94 10000 2.32 274.846 08:55 05.09.2019
2499 Clouds 22 1016 94 10000 2.32 274.846 08:55 05.09.2019
2500 Clouds 22 1016 94 10000 2.32 274.846 08:37 05.09.2019
2501 Clouds 22 1016 94 10000 2.32 274.846 08:19 05.09.2019
2502 Clouds 22 1016 94 10000 2.32 274.846 07:42 05.09.2019
2503 Clouds 21 1016 94 10000 2.32 274.846 07:23 05.09.2019
2504 Clouds 21 1016 94 10000 2.32 274.846 06:44 05.09.2019
2505 Clouds 22 1016 94 10000 3.83 265.686 06:22 05.09.2019
2506 Clouds 21 1016 94 10000 1.5 310 05:42 05.09.2019
2507 Clouds 21 1016 94 10000 1.5 310 05:23 05.09.2019
2508 Clouds 22 1016 94 10000 3.83 265.686 04:30 05.09.2019
2509 Clouds 22 1016 94 10000 2.1 290 03:47 05.09.2019
2510 Clouds 22 1017 94 10000 2.26 271.092 02:57 05.09.2019
2511 Clouds 22 1017 94 10000 2.1 310 02:28 05.09.2019
2512 Clouds 22 1017 94 10000 2.6 300 01:54 05.09.2019
2513 Clouds 22 1018 94 8000 2.6 290 00:52 05.09.2019
2514 Clouds 22 1018 94 8000 3.1 310 00:27 05.09.2019
2515 Clouds 23 1018 94 8000 2.6 310 23:59 04.09.2019
2516 Clouds 23 1018 94 8000 3.1 310 23:39 04.09.2019
2517 Clouds 23 1018 94 8000 3.1 310 23:21 04.09.2019
2518 Clouds 23 1018 94 8000 3.6 320 22:47 04.09.2019
2519 Clouds 23 1017 94 8000 3.6 320 22:20 04.09.2019
2520 Clouds 23 1017 94 8000 2.6 330 21:55 04.09.2019
2521 Clouds 23 1017 94 8000 2.6 330 21:55 04.09.2019
2522 Clouds 23 1017 94 8000 2.6 330 21:55 04.09.2019
2523 Clouds 23 1017 94 8000 2.6 330 21:55 04.09.2019
2524 Clouds 23 1016 78 10000 6.2 360 21:37 04.09.2019
2525 Clouds 23 1016 78 10000 6.2 360 21:18 04.09.2019
2526 Clouds 24 1017 100 10000 3.6 310 20:54 04.09.2019
2527 Clouds 24 1016 73 10000 6.2 360 20:36 04.09.2019
2528 Clouds 24 1016 73 10000 6.2 360 20:18 04.09.2019
2529 Thunderstorm 24 1016 73 10000 4.1 320 19:39 04.09.2019
2530 Thunderstorm 24 1016 73 10000 4.1 320 19:21 04.09.2019
2531 Clouds 25 1016 69 10000 5.1 340 18:41 04.09.2019
2532 Clouds 26 1016 69 10000 5.1 340 18:23 04.09.2019
2533 Clouds 26 1016 74 10000 2.6 340 17:58 04.09.2019
2534 Clouds 26 1017 65 6000 4.1 300 17:40 04.09.2019
2535 Clouds 26 1017 65 6000 4.1 300 17:21 04.09.2019
2536 Clouds 26 1017 74 10000 4.1 290 16:48 04.09.2019
2537 Clouds 26 1017 69 10000 5.7 340 16:28 04.09.2019
2538 Clouds 26 1018 78 10000 5.1 300 15:59 04.09.2019
2539 Clouds 26 1018 65 10000 4.1 300 15:39 04.09.2019
2540 Clouds 26 1018 65 10000 4.1 300 15:21 04.09.2019
2541 Clouds 26 1018 78 10000 5.1 310 14:58 04.09.2019
2542 Clouds 26 1018 69 10000 3.1 300 14:37 04.09.2019
2543 Clouds 26 1018 69 10000 3.1 300 14:19 04.09.2019
2544 Clouds 25 1018 69 10000 0.5 0 13:57 04.09.2019
2545 Clouds 25 1018 78 10000 4.1 300 13:37 04.09.2019
2546 Clouds 25 1018 78 10000 4.1 300 13:19 04.09.2019
2547 Clouds 24 1018 73 10000 4.1 340 12:41 04.09.2019
2548 Clouds 24 1018 73 10000 4.1 340 12:23 04.09.2019
2549 Clouds 23 1019 94 10000 2.07 246.263 11:56 04.09.2019
2550 Clouds 23 1018 78 10000 2.1 340 11:37 04.09.2019
2551 Clouds 23 1018 78 10000 2.1 340 11:37 04.09.2019
2552 Clouds 23 1018 78 10000 2.1 340 11:19 04.09.2019
2553 Clouds 23 1019 100 10000 3.6 0 10:44 04.09.2019
2554 Clouds 22 1018 78 10000 1 220 10:25 04.09.2019
2555 Clouds 22 1019 100 10000 3.6 310 09:57 04.09.2019
2556 Clouds 21 1018 83 10000 3.1 360 09:39 04.09.2019
2557 Clouds 22 1018 83 10000 3.1 360 09:18 04.09.2019
2558 Clouds 21 1017 83 10000 2.1 260 08:41 04.09.2019
2559 Clouds 21 1017 83 10000 2.1 260 08:23 04.09.2019
2560 Clouds 21 1017 100 10000 2.45 267.406 07:56 04.09.2019
2561 Clouds 21 1017 100 10000 1 30 07:34 04.09.2019
2562 Clouds 21 1017 100 10000 2.45 267.406 06:49 04.09.2019
2563 Clear 22 1017 100 10000 4.57 260.983 06:21 04.09.2019
2564 Clouds 21 1017 100 6000 2.1 290 04:53 04.09.2019
2565 Clouds 21 1018 100 5000 2.1 320 04:21 04.09.2019
2566 Clouds 21 1018 100 10000 2.43 259.499 02:21 04.09.2019
2567 Clouds 22 1019 100 10000 2.46 256.195 00:56 04.09.2019
2568 -273 0 0 0 0 0 00:36 04.09.2019
2569 Clouds 22 1018 100 10000 1.5 40 00:00 04.09.2019
2570 Clouds 22 1018 94 10000 2.1 20 23:38 03.09.2019
2571 Clouds 23 1018 94 10000 2.1 20 23:20 03.09.2019
2572 Clouds 23 1017 83 10000 3.1 360 22:40 03.09.2019
2573 Clouds 23 1017 83 10000 3.1 360 22:22 03.09.2019
2574 Clouds 23 1018 83 10000 1.18 52.384 21:56 03.09.2019
2575 Clouds 23 1017 83 10000 4.1 360 21:38 03.09.2019
2576 Clouds 23 1017 83 10000 4.1 360 21:20 03.09.2019
2577 Clouds 25 1017 73 10000 5.1 340 20:44 03.09.2019
2578 Clouds 25 1017 78 10000 3.6 300 20:24 03.09.2019
2579 Clear 26 1017 58 10000 6.7 340 19:57 03.09.2019
2580 Clouds 26 1016 73 10000 7.2 360 19:39 03.09.2019
2581 Clouds 26 1016 73 10000 7.2 360 19:19 03.09.2019
2582 Clouds 27 1016 48 10000 6.2 350 18:56 03.09.2019
2583 Clouds 27 1017 69 10000 7.2 340 18:38 03.09.2019
2584 Clouds 27 1017 69 10000 7.2 340 18:18 03.09.2019
2585 Clear 27 1017 65 10000 6.7 320 17:42 03.09.2019
2586 Clear 27 1017 65 10000 6.7 320 17:21 03.09.2019
2587 Clear 27 1017 48 10000 5.7 330 16:59 03.09.2019
2588 Clear 27 1017 69 10000 6.2 300 16:39 03.09.2019
2589 Clear 27 1017 69 10000 6.2 300 16:21 03.09.2019
2590 Clear 27 1017 69 10000 5.7 300 15:41 03.09.2019
2591 Clear 27 1017 69 10000 5.7 300 15:22 03.09.2019
2592 Clear 28 1017 46 10000 2.6 0 14:58 03.09.2019
2593 Clear 28 1017 65 10000 6.2 320 14:40 03.09.2019
2594 Clear 28 1017 65 10000 6.2 320 14:20 03.09.2019
2595 Clear 28 1018 48 10000 3.6 280 13:57 03.09.2019
2596 Clear 28 1018 48 10000 3.6 280 13:57 03.09.2019
2597 Clear 28 1018 69 10000 5.7 320 13:37 03.09.2019
2598 Clear 27 1018 69 10000 5.7 320 13:19 03.09.2019
2599 Clear 27 1018 69 10000 5.7 320 13:19 03.09.2019
2600 Clear 27 1018 48 10000 1.5 310 12:56 03.09.2019
2601 Clear 27 1018 48 10000 1.5 310 12:56 03.09.2019
2602 Clear 27 1017 69 10000 3.1 300 12:38 03.09.2019
2603 Clear 27 1017 69 10000 3.1 300 12:19 03.09.2019
2604 Clear 27 1017 69 10000 3.1 300 12:19 03.09.2019
2605 Clear 26 1017 73 8000 2.1 360 11:41 03.09.2019
2606 Clear 26 1017 73 8000 2.1 360 11:22 03.09.2019
2607 Clear 24 1017 73 10000 2.18 256.907 10:56 03.09.2019
2608 Clear 23 1017 78 6000 1.5 20 10:38 03.09.2019
2609 Clear 23 1017 78 6000 1.5 20 10:19 03.09.2019
2610 Clear 21 1017 100 10000 1 0 09:44 03.09.2019
2611 Clear 21 1016 88 6000 1.5 120 09:25 03.09.2019
2612 Mist 20 1017 100 4000 1.76 230.878 08:54 03.09.2019
2613 Mist 20 1016 88 6000 1.76 230.878 08:36 03.09.2019
2614 Mist 20 1016 88 6000 1.76 230.878 08:18 03.09.2019
2615 Clouds 19 1016 100 5000 1.5 50 07:40 03.09.2019
2616 Clouds 19 1016 100 5000 1.5 50 07:21 03.09.2019
2617 Clouds 19 1016 100 10000 1.76 230.878 06:44 03.09.2019
2618 Clouds 21 1016 100 10000 1.45 266.058 05:52 03.09.2019
2619 Clouds 21 1016 94 10000 1.45 266.058 03:35 03.09.2019
2620 Clouds 22 1016 94 10000 1.5 300 02:43 03.09.2019
2621 Clear 22 1017 73 0 0.5 0 02:23 03.09.2019
2622 Clouds 22 1017 88 10000 1 280 01:48 03.09.2019
2623 Clouds 22 1017 88 10000 3.45 274.062 01:29 03.09.2019
2624 Clouds 22 1017 83 10000 3.1 290 00:40 03.09.2019
2625 Clouds 22 1017 83 10000 3.1 290 00:20 03.09.2019
2626 Clouds 23 1017 73 10000 2.16 91.937 23:40 02.09.2019
2627 Clouds 23 1017 73 10000 2.16 91.937 23:20 02.09.2019
2628 Clouds 23 1017 73 10000 2.16 91.937 22:56 02.09.2019
2629 Clouds 23 1015 73 10000 7.2 360 22:37 02.09.2019
2630 Clouds 23 1015 73 10000 7.2 360 22:19 02.09.2019
2631 Clear 23 1016 73 10000 2.1 30 21:56 02.09.2019
2632 Clouds 24 1014 78 10000 5.1 360 21:38 02.09.2019
2633 Clouds 24 1014 78 10000 5.1 360 21:20 02.09.2019
2634 Clear 24 1015 69 10000 4.6 350 20:55 02.09.2019
2635 Clouds 25 1014 73 10000 5.1 360 20:37 02.09.2019
2636 Clouds 25 1014 73 10000 5.1 360 20:18 02.09.2019
2637 Clear 26 1014 69 10000 6.7 330 19:55 02.09.2019
2638 Clouds 26 1014 69 10000 7.2 340 19:37 02.09.2019
2639 Clouds 26 1014 69 10000 7.2 340 19:18 02.09.2019
2640 Clouds 26 1014 73 10000 6.2 320 18:38 02.09.2019
2641 Clouds 26 1014 73 10000 6.2 320 18:20 02.09.2019
2642 Clear 27 1014 48 10000 5.1 310 17:56 02.09.2019
2643 Clouds 26 1014 73 10000 5.1 300 17:38 02.09.2019
2644 Clouds 26 1014 73 10000 5.1 300 17:19 02.09.2019
2645 Clouds 27 1014 69 10000 5.1 300 16:41 02.09.2019
2646 Clouds 27 1014 69 10000 5.1 300 16:21 02.09.2019
2647 Clouds 28 1015 45 10000 3.1 310 15:55 02.09.2019
2648 Clouds 28 1014 65 10000 5.1 340 15:37 02.09.2019
2649 Clouds 28 1014 65 10000 5.1 340 15:18 02.09.2019
2650 Clouds 27 1015 48 10000 3.6 310 14:56 02.09.2019
2651 Clouds 27 1015 69 10000 4.1 340 14:36 02.09.2019
2652 Clouds 27 1015 69 10000 4.1 340 14:18 02.09.2019
2653 Clouds 27 1015 69 10000 4.1 340 13:43 02.09.2019
2654 Clouds 27 1015 69 10000 4.1 340 13:24 02.09.2019
2655 Clouds 26 1016 74 10000 3.63 335.334 12:47 02.09.2019
2656 Clouds 26 1015 69 10000 4.1 340 12:27 02.09.2019
2657 Clouds 25 1015 94 10000 1.18 29.45 11:59 02.09.2019
2658 Clouds 25 1014 73 10000 2.1 340 11:40 02.09.2019
2659 Clouds 25 1014 73 10000 2.1 340 11:40 02.09.2019
2660 Clouds 25 1014 73 10000 2.1 340 11:22 02.09.2019
2661 Clouds 23 1015 88 5000 1.5 270 10:58 02.09.2019
2662 Mist 23 1014 83 8000 3.1 300 10:39 02.09.2019
2663 Mist 23 1014 83 8000 3.1 300 10:21 02.09.2019
2664 Mist 22 1015 100 3000 3.1 320 09:58 02.09.2019
2665 Mist 22 1014 88 10000 2.1 340 09:37 02.09.2019
2666 Mist 21 1014 88 10000 2.1 340 09:18 02.09.2019
2667 Clear 20 1013 94 10000 2.1 340 08:39 02.09.2019
2668 Clear 20 1013 94 10000 2.1 340 08:18 02.09.2019
2669 Clear 20 1013 94 10000 2.1 340 08:18 02.09.2019
2670 Clouds 21 1014 100 10000 2.15 350.687 07:41 02.09.2019
2671 Clouds 21 1014 100 10000 2.15 350.687 07:21 02.09.2019
2672 Clouds 21 1014 100 10000 2.15 350.687 06:48 02.09.2019
2673 Clouds 21 1014 100 10000 2.15 350.687 06:30 02.09.2019
2674 Clouds 22 1014 100 10000 2.6 240 05:49 02.09.2019
2675 Clouds 22 1012 100 10000 5.1 50 05:19 02.09.2019
2676 Clouds 22 1015 100 10000 3.1 300 04:34 02.09.2019
2677 Clouds 22 1015 100 10000 4.1 320 01:50 02.09.2019
2678 Clouds 22 1016 100 10000 2.96 333.972 00:55 02.09.2019
2679 Clouds 22 1017 100 10000 3.6 170 00:32 02.09.2019
2680 Clouds 22 1016 100 10000 1.5 290 23:48 01.09.2019
2681 Clouds 23 1015 100 10000 3.1 300 23:23 01.09.2019
2682 Clouds 23 1015 100 10000 3.1 310 22:59 01.09.2019
2683 Clouds 23 1013 83 10000 2.1 340 22:40 01.09.2019
2684 Clouds 23 1013 83 10000 2.1 340 22:20 01.09.2019
2685 Clouds 23 1014 78 10000 4.6 350 21:59 01.09.2019
2686 Clouds 23 1013 83 10000 3.1 340 21:40 01.09.2019
2687 Clouds 23 1013 83 10000 3.1 340 21:22 01.09.2019
2688 Clouds 24 1014 78 10000 5.1 340 20:57 01.09.2019
2689 Clouds 24 1013 73 10000 6.2 360 20:38 01.09.2019
2690 Clouds 25 1013 73 10000 6.2 360 20:19 01.09.2019
2691 Clouds 25 1013 69 10000 6.7 340 19:58 01.09.2019
2692 Clouds 25 1013 73 10000 5.1 320 19:39 01.09.2019
2693 Clouds 25 1013 73 10000 5.1 320 19:20 01.09.2019
2694 Clouds 26 1012 73 10000 5.7 320 18:43 01.09.2019
2695 Clouds 26 1012 73 10000 5.7 320 18:25 01.09.2019
2696 Clear 27 1013 54 10000 6.2 350 17:57 01.09.2019
2697 Clouds 27 1013 69 10000 6.7 20 17:38 01.09.2019
2698 Clouds 27 1013 69 10000 6.7 20 17:19 01.09.2019
2699 Clouds 26 1014 69 10000 7.2 360 16:41 01.09.2019
2700 Clouds 26 1014 69 10000 7.2 360 16:20 01.09.2019
2701 Clear 26 1014 61 10000 6.2 350 15:56 01.09.2019
2702 Clear 26 1014 61 10000 6.2 350 15:55 01.09.2019
2703 Clouds 26 1014 69 10000 6.7 360 15:37 01.09.2019
2704 Clouds 26 1014 69 10000 6.7 360 15:19 01.09.2019
2705 Clouds 26 1014 69 10000 5.7 340 14:40 01.09.2019
2706 Clouds 26 1014 69 10000 5.7 340 14:21 01.09.2019
2707 Clear 26 1015 65 10000 4.6 360 13:56 01.09.2019
2708 Clouds 26 1015 73 10000 5.1 320 13:37 01.09.2019
2709 Clouds 26 1015 73 10000 5.1 320 13:19 01.09.2019
2710 Clouds 25 1015 73 10000 5.1 20 12:42 01.09.2019
2711 Clouds 25 1015 73 10000 5.1 20 12:24 01.09.2019
2712 Clouds 24 1015 73 10000 4.1 320 11:42 01.09.2019
2713 Clouds 24 1015 73 10000 4.1 320 11:21 01.09.2019
2714 Clouds 23 1015 88 10000 2.6 360 10:59 01.09.2019
2715 Clouds 22 1015 94 10000 2.6 10 10:41 01.09.2019
2716 Clouds 22 1015 94 10000 2.6 10 10:23 01.09.2019
2717 Mist 21 1014 88 5000 3.6 360 09:43 01.09.2019
2718 Mist 21 1014 88 5000 3.6 360 09:25 01.09.2019
2719 Clouds 21 1014 88 5000 3.6 340 08:45 01.09.2019
2720 Clouds 21 1014 88 5000 3.6 340 08:24 01.09.2019
2721 Clouds 21 1015 100 0 3.6 340 07:56 01.09.2019
2722 Clouds 21 1015 100 0 3.6 340 07:38 01.09.2019
2723 Clouds 21 1015 100 0 3.6 340 07:38 01.09.2019
2724 Clouds 21 1015 100 0 1 0 06:51 01.09.2019
2725 Clouds 21 1015 100 0 1 0 06:28 01.09.2019
2726 Clear 22 1015 100 0 1 0 05:56 01.09.2019
2727 Clouds 22 1015 100 10000 2.1 360 04:32 01.09.2019
2728 Clear 21 1017 100 0 1 330 03:42 01.09.2019
2729 Clear 21 1017 100 0 1 330 03:42 01.09.2019
2730 Clouds 22 1016 100 10000 2.6 340 02:58 01.09.2019
2731 Clouds 22 1016 100 10000 2.6 340 02:28 01.09.2019
2732 Clouds 22 1016 100 10000 3.6 340 01:51 01.09.2019
2733 Clouds 22 1016 100 10000 3.6 360 01:23 01.09.2019
2734 Clouds 22 1016 100 10000 3.6 320 00:46 01.09.2019
2735 Clouds 22 1016 100 10000 2.1 360 00:22 01.09.2019
2736 Clear 22 1016 100 10000 2.1 10 23:54 31.08.2019
2737 Clear 22 1016 100 10000 3.1 340 23:36 31.08.2019
2738 Clear 22 1016 100 10000 3.1 340 23:18 31.08.2019
2739 Clear 22 1016 100 10000 3.1 340 23:18 31.08.2019
2740 Clear 22 1016 100 10000 3.1 340 23:18 31.08.2019
2741 Clouds 23 1015 83 10000 3.6 20 22:42 31.08.2019
2742 Clouds 23 1015 83 10000 3.6 20 22:24 31.08.2019
2743 Clouds 23 1016 94 10000 2.72 348.463 21:56 31.08.2019
2744 Clouds 23 1015 83 10000 4.6 20 21:37 31.08.2019
2745 Clouds 23 1015 83 10000 4.6 20 21:37 31.08.2019
2746 Clouds 23 1015 83 10000 4.6 20 21:19 31.08.2019
2747 Clear 24 1015 83 10000 5.1 350 20:47 31.08.2019
2748 Clouds 24 1015 78 10000 7.2 20 20:28 31.08.2019
2749 Clear 25 1015 65 10000 6.7 350 19:56 31.08.2019
2750 Clouds 26 1015 78 10000 4.6 320 19:37 31.08.2019
2751 Clouds 26 1015 78 10000 4.6 320 19:19 31.08.2019
2752 Clouds 27 1017 69 10000 7.2 340 18:40 31.08.2019
2753 Clouds 27 1017 69 10000 7.2 340 18:20 31.08.2019
2754 Clear 27 1014 51 10000 6.7 330 17:56 31.08.2019
2755 Clear 27 1015 69 10000 6.2 340 17:37 31.08.2019
2756 Clear 27 1015 69 10000 6.2 340 17:18 31.08.2019
2757 Clear 27 1015 45 10000 5.7 350 16:57 31.08.2019
2758 Clouds 27 1016 65 10000 6.2 340 16:39 31.08.2019
2759 Clouds 27 1016 65 10000 6.2 340 16:20 31.08.2019
2760 Clouds 27 1016 65 10000 7.2 340 15:42 31.08.2019
2761 Clouds 27 1016 65 10000 7.2 340 15:19 31.08.2019
2762 Clear 27 1016 55 10000 4.6 330 14:57 31.08.2019
2763 Clouds 27 1017 65 10000 5.7 320 14:39 31.08.2019
2764 Clouds 27 1017 65 10000 5.7 320 14:19 31.08.2019
2765 Clear 27 1017 69 10000 4.6 300 13:41 31.08.2019
2766 Clear 27 1017 69 10000 4.6 300 13:23 31.08.2019
2767 Clouds 26 1017 78 10000 1.5 290 12:58 31.08.2019
2768 Clouds 25 1017 73 10000 2.1 180 12:38 31.08.2019
2769 Clouds 25 1017 73 10000 2.1 180 12:19 31.08.2019
2770 Clouds 24 1017 88 8000 1 0 11:48 31.08.2019
2771 Clouds 24 1017 78 10000 2.6 280 11:29 31.08.2019
2772 Clouds 23 1017 100 6000 1.47 341.466 10:59 31.08.2019
2773 Clouds 23 1016 83 5000 2.1 160 10:41 31.08.2019
2774 Clouds 23 1016 83 5000 2.1 160 10:19 31.08.2019
2775 Mist 22 1017 100 4000 3.1 310 09:56 31.08.2019
2776 Mist 22 1016 88 5000 1 160 09:37 31.08.2019
2777 Mist 22 1016 88 5000 1 160 09:19 31.08.2019
2778 Mist 22 1015 88 5000 2.1 280 08:42 31.08.2019
2779 Mist 22 1015 88 5000 2.1 280 08:22 31.08.2019
2780 Mist 22 1016 94 4000 3.6 330 07:40 31.08.2019
2781 Mist 22 1016 94 4000 3.6 330 07:21 31.08.2019
2782 Clouds 22 1015 94 8000 4.6 340 06:28 31.08.2019
2783 Clouds 22 1016 94 8000 3.55 304.622 05:58 31.08.2019
2784 Clouds 23 1016 94 8000 3.55 304.622 05:31 31.08.2019
2785 Clouds 23 1016 94 8000 3.1 330 04:32 31.08.2019
2786 Clear 23 1017 94 10000 2.6 300 03:44 31.08.2019
2787 Clear 23 1017 78 10000 0.7 335.501 02:30 31.08.2019
2788 Clear 24 1017 73 10000 1 50 01:53 31.08.2019
2789 Clear 23 1017 78 10000 2.1 60 01:33 31.08.2019
2790 Clear 23 1017 78 10000 2.1 70 00:49 31.08.2019
2791 Clear 23 1017 78 10000 2.1 70 00:49 31.08.2019
2792 Clear 24 1017 73 10000 2.1 60 00:28 31.08.2019
2793 Clear 24 1017 78 10000 2.2 4.063 23:57 30.08.2019
2794 Clear 24 1017 78 10000 2.2 4.063 23:38 30.08.2019
2795 Clear 24 1017 78 10000 2.2 4.063 23:18 30.08.2019
2796 Clear 24 1015 83 10000 4.1 20 22:40 30.08.2019
2797 Clear 24 1015 83 10000 4.1 20 22:22 30.08.2019
2798 Clear 24 1015 83 10000 4.1 20 21:58 30.08.2019
2799 Clear 24 1015 83 10000 4.1 20 21:37 30.08.2019
2800 Clear 25 1015 83 10000 4.1 20 21:19 30.08.2019
2801 Clear 26 1015 61 10000 5.7 340 20:58 30.08.2019
2802 Clear 26 1014 78 10000 4.1 20 20:39 30.08.2019
2803 Clear 26 1014 78 10000 4.1 20 20:20 30.08.2019
2804 Clear 27 1015 58 10000 6.2 350 19:56 30.08.2019
2805 Clear 27 1015 58 10000 6.2 350 19:56 30.08.2019
2806 Clear 27 1014 74 10000 7.2 20 19:38 30.08.2019
2807 Clear 27 1014 74 10000 7.2 20 19:19 30.08.2019
2808 Clear 28 1015 49 10000 8.7 350 18:46 30.08.2019
2809 Clear 29 1015 69 10000 7.2 360 18:25 30.08.2019
2810 Clear 30 1015 38 10000 7.7 360 17:58 30.08.2019
2811 Clear 30 1015 65 10000 5.1 360 17:40 30.08.2019
2812 Clear 30 1015 65 10000 5.1 360 17:19 30.08.2019
2813 Clear 31 1015 34 10000 8.2 20 16:57 30.08.2019
2814 Clear 31 1015 54 10000 6.2 360 16:39 30.08.2019
2815 Clear 31 1015 54 10000 6.2 360 16:20 30.08.2019
2816 Clear 31 1016 51 10000 6.2 20 15:42 30.08.2019
2817 Clear 31 1016 51 10000 6.2 20 15:21 30.08.2019
2818 Clear 31 1016 34 10000 6.7 20 14:45 30.08.2019
2819 Clear 31 1016 48 10000 3.1 300 14:26 30.08.2019
2820 Clear 31 1017 36 10000 4.6 30 13:57 30.08.2019
2821 Clear 30 1016 54 8000 3.1 360 13:39 30.08.2019
2822 Clear 30 1016 54 8000 3.1 360 13:39 30.08.2019
2823 Clear 30 1016 54 8000 3.1 360 13:21 30.08.2019
2824 Clear 29 1017 43 10000 5.1 50 12:45 30.08.2019
2825 Clouds 28 1017 69 6000 3.1 360 12:26 30.08.2019
2826 Mist 27 1017 54 10000 2.6 40 11:57 30.08.2019
2827 Mist 27 1017 74 4000 3.1 40 11:39 30.08.2019
2828 Mist 27 1017 74 4000 3.1 40 11:39 30.08.2019
2829 Mist 27 1017 74 4000 3.1 40 11:21 30.08.2019
2830 Mist 24 1016 88 4000 2.1 80 10:37 30.08.2019
2831 Mist 24 1016 88 4000 2.1 80 10:19 30.08.2019
2832 Fog 23 1017 69 10000 1.5 360 09:55 30.08.2019
2833 Fog 22 1017 94 800 4.1 40 09:36 30.08.2019
2834 Fog 22 1017 94 800 4.1 40 09:18 30.08.2019
2835 Mist 22 1017 83 10000 2.1 60 08:43 30.08.2019
2836 Mist 21 1016 88 4000 3.1 20 08:23 30.08.2019
2837 Clouds 22 1017 73 8000 2.1 10 07:46 30.08.2019
2838 Clouds 22 1017 69 10000 2.6 20 07:26 30.08.2019
2839 Clouds 22 1017 64 10000 2.1 30 06:58 30.08.2019
2840 Clouds 22 1017 64 10000 2.1 30 06:39 30.08.2019
2841 Clouds 22 1017 64 10000 2.1 30 06:20 30.08.2019
2842 Clouds 23 1017 64 10000 2.6 40 05:28 30.08.2019
2843 Clouds 23 1017 65 10000 3.6 10 03:56 30.08.2019
2844 Clouds 24 1017 65 10000 4.1 350 03:37 30.08.2019
2845 Clouds 24 1017 61 10000 2.1 50 02:41 30.08.2019
2846 Clouds 24 1018 61 10000 2.1 40 01:40 30.08.2019
2847 Clouds 24 1018 61 10000 3.28 9.677 00:53 30.08.2019
2848 Clouds 24 1018 61 10000 1 0 00:19 30.08.2019
2849 Clouds 24 1019 65 10000 3.1 120 23:47 29.08.2019
2850 Clouds 25 1019 69 10000 2.6 120 23:22 29.08.2019
2851 Clouds 25 1019 69 10000 2.6 120 23:22 29.08.2019
2852 Clouds 25 1019 61 10000 1.5 90 22:45 29.08.2019
2853 Clouds 25 1018 61 8000 2.1 100 22:27 29.08.2019
2854 Clouds 25 1018 61 8000 2.1 100 22:27 29.08.2019
2855 Clear 25 1019 57 10000 1.5 70 21:59 29.08.2019
2856 Clouds 25 1017 61 8000 3.1 100 21:41 29.08.2019
2857 Clouds 25 1017 61 8000 3.1 100 21:21 29.08.2019
2858 Clear 25 1018 57 10000 2.6 360 20:58 29.08.2019
2859 Clouds 26 1017 69 8000 3.1 20 20:39 29.08.2019
2860 Clouds 26 1017 69 8000 3.1 20 20:19 29.08.2019
2861 Clouds 26 1017 69 8000 5.1 360 19:47 29.08.2019
2862 Clouds 26 1017 69 8000 5.1 360 19:26 29.08.2019
2863 Clear 27 1017 54 10000 6.2 340 18:59 29.08.2019
2864 Clouds 27 1017 69 8000 6.7 340 18:41 29.08.2019
2865 Clouds 27 1017 69 8000 6.7 340 18:19 29.08.2019
2866 Clear 28 1017 48 10000 6.2 340 17:56 29.08.2019
2867 Clouds 28 1017 69 8000 6.2 340 17:36 29.08.2019
2868 Clouds 28 1017 36 10000 5.1 330 17:18 29.08.2019
2869 Clouds 28 1017 69 8000 5.1 320 16:42 29.08.2019
2870 Clouds 28 1017 69 8000 5.1 320 16:23 29.08.2019
2871 Clouds 29 1017 30 10000 3.6 0 15:54 29.08.2019
2872 Clouds 29 1017 69 8000 4.6 320 15:36 29.08.2019
2873 Clouds 29 1017 69 8000 4.6 320 15:18 29.08.2019
2874 Clouds 29 1017 61 8000 4.6 300 14:42 29.08.2019
2875 Clouds 29 1017 61 8000 4.6 300 14:21 29.08.2019
2876 Clouds 27 1018 45 10000 2.1 360 13:57 29.08.2019
2877 Clouds 26 1017 69 8000 2.6 320 13:39 29.08.2019
2878 Clouds 26 1017 69 8000 2.6 320 13:19 29.08.2019
2879 Clouds 25 1018 83 10000 0.5 0 12:57 29.08.2019
2880 Clouds 24 1017 73 8000 2.6 340 12:38 29.08.2019
2881 Clouds 24 1017 73 8000 2.6 340 12:20 29.08.2019
2882 Clouds 24 1018 83 10000 0.5 0 11:56 29.08.2019
2883 Clouds 24 1017 78 8000 3.1 240 11:36 29.08.2019
2884 Clouds 24 1017 78 8000 3.1 240 11:18 29.08.2019
2885 Mist 23 1016 88 8000 2.6 280 10:41 29.08.2019
2886 Mist 23 1016 88 8000 2.6 280 10:23 29.08.2019
2887 Mist 22 1016 88 6000 1 20 09:42 29.08.2019
2888 Mist 22 1016 88 6000 1 20 09:20 29.08.2019
2889 Clouds 22 1016 94 6000 2.1 20 08:56 29.08.2019
2890 Clouds 22 1015 88 6000 6.05 53.1 08:37 29.08.2019
2891 Clouds 22 1015 88 6000 6.05 53.1 08:19 29.08.2019
2892 Clouds 22 1015 94 6000 3.6 50 07:43 29.08.2019
2893 Clouds 22 1015 94 6000 3.6 50 07:23 29.08.2019
2894 Clouds 22 1015 94 7000 2.6 20 06:42 29.08.2019
2895 Clouds 22 1015 94 7000 2.6 20 06:18 29.08.2019
2896 Clouds 22 1015 94 7000 2.1 30 05:34 29.08.2019
2897 Clouds 22 1015 100 8000 2.6 30 04:50 29.08.2019
2898 Clouds 22 1015 100 6000 3.6 20 04:28 29.08.2019
2899 Clouds 22 1015 100 10000 4.6 10 02:44 29.08.2019
2900 Clouds 22 1015 100 10000 4.6 10 01:42 29.08.2019
2901 Clouds 22 1016 100 10000 5.7 330 00:56 29.08.2019
2902 Clouds 23 1016 88 10000 4.1 330 00:37 29.08.2019
2903 Clouds 23 1016 88 10000 4.1 330 00:18 29.08.2019
2904 Clouds 23 1015 73 10000 3.6 360 23:41 28.08.2019
2905 Clouds 23 1015 73 10000 3.6 360 23:22 28.08.2019
2906 Clouds 24 1015 69 10000 3.6 360 22:57 28.08.2019
2907 Clouds 24 1013 78 10000 5.1 40 22:38 28.08.2019
2908 Clouds 24 1013 78 10000 5.1 40 22:18 28.08.2019
2909 Clouds 24 1014 69 10000 3.1 30 21:57 28.08.2019
2910 Clouds 24 1013 73 10000 5.1 40 21:38 28.08.2019
2911 Clouds 24 1013 73 10000 5.1 40 21:19 28.08.2019
2912 Clouds 25 1013 73 10000 5.1 40 20:41 28.08.2019
2913 Clouds 25 1013 73 10000 5.1 40 20:22 28.08.2019
2914 Clouds 25 1014 69 10000 6.7 20 19:55 28.08.2019
2915 Clouds 25 1014 78 10000 6.2 40 19:37 28.08.2019
2916 Clouds 25 1014 78 10000 6.2 40 19:18 28.08.2019
2917 Clouds 24 1014 78 10000 5.1 20 18:41 28.08.2019
2918 Clouds 25 1014 78 10000 5.1 20 18:21 28.08.2019
2919 Clouds 25 1014 78 10000 6.2 20 17:40 28.08.2019
2920 Clouds 25 1014 78 10000 6.2 20 17:20 28.08.2019
2921 Clouds 26 1014 51 10000 6.7 20 16:59 28.08.2019
2922 Clear 26 1014 69 10000 6.2 20 16:41 28.08.2019
2923 Clear 26 1014 69 10000 6.2 20 16:18 28.08.2019
2924 Clear 26 1015 61 10000 7.2 20 15:39 28.08.2019
2925 Clear 26 1015 61 10000 7.2 20 15:20 28.08.2019
2926 Clear 26 1015 45 10000 5.1 10 14:59 28.08.2019
2927 Clear 26 1015 69 10000 7.2 360 14:40 28.08.2019
2928 Clear 26 1015 69 10000 7.2 360 14:21 28.08.2019
2929 Clear 26 1016 45 10000 4.1 360 13:59 28.08.2019
2930 Clear 25 1016 69 10000 6.2 360 13:39 28.08.2019
2931 Clear 25 1016 69 10000 6.2 360 13:20 28.08.2019
2932 Clear 25 1015 64 10000 5.1 60 12:56 28.08.2019
2933 Clear 24 1015 64 10000 5.1 60 12:38 28.08.2019
2934 Clear 24 1015 64 10000 5.1 60 12:20 28.08.2019
2935 Clear 23 1015 73 10000 5.1 40 11:40 28.08.2019
2936 Clear 23 1015 73 10000 5.1 40 11:22 28.08.2019
2937 Clouds 21 1015 83 10000 3.6 50 10:57 28.08.2019
2938 Clear 21 1015 73 10000 5.1 40 10:38 28.08.2019
2939 Clear 21 1015 73 10000 5.1 40 10:20 28.08.2019
2940 Clear 21 1015 73 10000 5.1 40 10:20 28.08.2019
2941 Mist 19 1015 82 10000 4.1 100 09:42 28.08.2019
2942 Mist 19 1015 82 10000 4.1 100 09:21 28.08.2019
2943 Clear 18 1015 88 10000 3.1 80 08:57 28.08.2019
2944 Clear 18 1015 88 10000 3.1 80 08:38 28.08.2019
2945 Clear 18 1015 88 10000 3.1 80 08:19 28.08.2019
2946 Clouds 18 1015 100 6000 3.6 30 07:38 28.08.2019
2947 Clouds 18 1015 100 6000 3.6 30 07:20 28.08.2019
2948 Clouds 19 1015 100 6000 4.6 30 06:49 28.08.2019
2949 Clear 19 1015 100 10000 3.1 40 05:59 28.08.2019
2950 Clouds 19 1015 100 10000 4.1 30 05:24 28.08.2019
2951 Clouds 20 1017 88 10000 3.6 40 02:18 28.08.2019
2952 Clouds 20 1017 100 10000 4.1 40 01:30 28.08.2019
2953 Clouds 20 1017 94 10000 3.6 40 00:52 28.08.2019
2954 Clouds 20 1017 94 10000 4.1 40 00:33 28.08.2019
2955 Clouds 21 1017 94 10000 4.1 40 23:58 27.08.2019
2956 Clouds 21 1017 94 10000 4.1 40 23:38 27.08.2019
2957 Clouds 21 1017 94 10000 4.1 40 23:19 27.08.2019
2958 Clear 21 1015 73 10000 6.2 20 22:41 27.08.2019
2959 Clear 21 1015 73 10000 6.2 20 22:23 27.08.2019
2960 Clear 22 1016 78 10000 4.1 20 21:57 27.08.2019
2961 Clear 22 1015 73 10000 7.2 20 21:38 27.08.2019
2962 Clear 22 1015 73 10000 7.2 20 21:38 27.08.2019
2963 Clear 22 1015 73 10000 7.2 20 21:19 27.08.2019
2964 Clear 23 1015 69 10000 6.7 10 20:58 27.08.2019
2965 Clear 23 1015 69 10000 7.2 20 20:39 27.08.2019
2966 Clear 23 1015 69 10000 7.2 20 20:19 27.08.2019
2967 Clear 24 1015 57 10000 6.7 20 19:44 27.08.2019
2968 Clear 24 1015 64 10000 6.2 40 19:26 27.08.2019
2969 Clear 25 1015 47 10000 5.7 10 18:57 27.08.2019
2970 Clear 25 1014 60 10000 6.2 20 18:39 27.08.2019
2971 Clear 25 1014 60 10000 6.2 20 18:18 27.08.2019
2972 Clear 26 1015 57 10000 7.2 20 17:43 27.08.2019
2973 Clear 26 1015 57 10000 7.2 20 17:25 27.08.2019
2974 Clear 26 1015 45 10000 5.7 20 16:58 27.08.2019
2975 Clear 26 1016 57 10000 7.2 20 16:40 27.08.2019
2976 Clear 26 1016 57 10000 7.2 20 16:21 27.08.2019
2977 Clear 26 1015 45 10000 5.1 20 15:54 27.08.2019
2978 Clear 26 1016 57 10000 8.2 20 15:36 27.08.2019
2979 Clear 26 1016 57 10000 8.2 20 15:18 27.08.2019
2980 Clear 26 1016 57 10000 8.2 20 15:18 27.08.2019
2981 Clear 26 1016 53 10000 7.2 360 14:42 27.08.2019
2982 Clear 26 1016 53 10000 7.2 360 14:23 27.08.2019
2983 Clear 26 1017 47 10000 4.1 20 13:43 27.08.2019
2984 Clear 25 1017 53 10000 7.2 20 13:24 27.08.2019
2985 Clear 24 1018 60 10000 3.6 50 12:58 27.08.2019
2986 Clear 24 1018 57 10000 7.2 80 12:39 27.08.2019
2987 Clear 24 1018 57 10000 7.2 80 12:19 27.08.2019
2988 Clear 23 1018 69 10000 3.6 60 11:46 27.08.2019
2989 Clouds 23 1017 60 10000 5.1 80 11:26 27.08.2019
2990 Clouds 22 1018 77 10000 4.1 60 10:55 27.08.2019
2991 Clouds 22 1017 64 10000 3.1 140 10:37 27.08.2019
2992 Clouds 22 1017 64 10000 3.1 140 10:18 27.08.2019
2993 Clouds 19 1017 77 10000 1 120 09:39 27.08.2019
2994 Clouds 19 1017 77 10000 1 120 09:21 27.08.2019
2995 Clouds 18 1016 82 10000 2.1 180 08:56 27.08.2019
2996 Clouds 18 1016 82 10000 2.1 180 08:38 27.08.2019
2997 Clouds 18 1016 82 10000 2.1 180 08:18 27.08.2019
2998 Clouds 17 1016 93 10000 2.1 90 07:41 27.08.2019
2999 Clouds 17 1016 93 10000 2.1 90 07:20 27.08.2019
3000 Clouds 17 1016 93 10000 2.1 90 07:20 27.08.2019
3001 Clouds 17 1016 93 10000 2.1 100 06:54 27.08.2019
3002 Clouds 18 1016 93 10000 3.1 110 06:27 27.08.2019
3003 Clouds 19 1016 100 10000 2.1 100 05:47 27.08.2019
3004 Clouds 18 1016 93 10000 2.1 90 04:54 27.08.2019
3005 Clouds 19 1017 88 10000 1.5 70 03:39 27.08.2019
3006 Clouds 20 1018 88 10000 2.1 40 02:23 27.08.2019
3007 Clouds 20 1018 88 10000 1.5 60 01:44 27.08.2019
3008 Clouds 20 1018 77 10000 1.5 60 01:22 27.08.2019
3009 Clouds 21 1018 77 10000 2.1 30 00:44 27.08.2019
3010 Clouds 21 1018 68 10000 3.1 330 00:24 27.08.2019
3011 Clouds 21 1018 77 10000 3.1 360 23:39 26.08.2019
3012 Clouds 21 1018 77 10000 3.1 360 23:21 26.08.2019
3013 Clouds 21 1016 68 10000 4.1 20 22:41 26.08.2019
3014 Clouds 21 1016 68 10000 4.1 20 22:20 26.08.2019
3015 Clouds 21 1017 77 10000 4.6 360 21:59 26.08.2019
3016 Clouds 22 1016 68 10000 4.6 20 21:38 26.08.2019
3017 Clouds 22 1016 68 10000 4.6 20 21:20 26.08.2019
3018 Clouds 22 1016 78 10000 6.7 340 20:57 26.08.2019
3019 Clouds 22 1016 68 10000 6.2 360 20:38 26.08.2019
3020 Clouds 22 1016 68 10000 6.2 360 20:19 26.08.2019
3021 Clouds 24 1015 69 10000 6.7 340 19:43 26.08.2019
3022 Clouds 23 1015 69 10000 6.7 340 19:20 26.08.2019
3023 Clouds 24 1015 65 10000 6.7 340 18:59 26.08.2019
3024 Clouds 24 1015 64 10000 8.7 360 18:38 26.08.2019
3025 Clouds 24 1015 64 10000 8.7 360 18:38 26.08.2019
3026 -273 0 0 0 0 0 18:19 26.08.2019
3027 -273 0 0 0 0 0 18:19 26.08.2019
3028 Clouds 25 1015 64 10000 4.6 360 17:44 26.08.2019
3029 Clouds 25 1015 64 10000 4.6 360 17:20 26.08.2019
3030 Clear 24 1015 61 10000 6.7 330 16:58 26.08.2019
3031 Clouds 24 1015 60 10000 5.1 20 16:40 26.08.2019
3032 Clouds 24 1015 60 10000 5.1 20 16:40 26.08.2019
3033 Clouds 24 1015 60 10000 5.1 20 16:19 26.08.2019
3034 Clouds 25 1015 57 10000 7.7 330 15:59 26.08.2019
3035 Clouds 25 1015 60 10000 5.7 20 15:41 26.08.2019
3036 Clouds 25 1015 60 10000 5.7 20 15:21 26.08.2019
3037 Clouds 24 1015 60 10000 5.7 20 14:44 26.08.2019
3038 Clouds 24 1015 60 10000 5.7 20 14:23 26.08.2019
3039 Clouds 24 1016 69 10000 4.6 350 13:57 26.08.2019
3040 Clouds 24 1016 69 10000 4.6 340 13:38 26.08.2019
3041 Clouds 24 1016 69 10000 4.6 340 13:19 26.08.2019
3042 Clouds 23 1015 64 10000 4.6 20 12:43 26.08.2019
3043 Clouds 23 1015 64 10000 4.6 20 12:23 26.08.2019
3044 Clouds 23 1015 64 10000 4.6 20 12:23 26.08.2019
3045 Clouds 22 1015 68 10000 2.1 300 11:46 26.08.2019
3046 Clouds 22 1015 68 10000 2.1 300 11:27 26.08.2019
3047 Clouds 22 1015 88 10000 2.85 1.124 10:59 26.08.2019
3048 Clouds 21 1014 73 6000 1.5 40 10:41 26.08.2019
3049 Clouds 21 1014 73 6000 1.5 40 10:20 26.08.2019
3050 Clouds 21 1014 73 6000 1.5 40 09:47 26.08.2019
3051 Clouds 21 1014 73 6000 1.5 40 09:26 26.08.2019
3052 Clouds 21 1014 73 6000 1.5 40 09:26 26.08.2019
3053 Clouds 21 1015 94 10000 3.15 9.034 08:59 26.08.2019
3054 Clouds 21 1014 77 6000 2.1 340 08:41 26.08.2019
3055 Clouds 21 1014 77 6000 2.1 340 08:22 26.08.2019
3056 Clouds 22 1014 94 10000 3.1 350 07:59 26.08.2019
3057 Clouds 22 1014 94 10000 3.1 330 07:38 26.08.2019
3058 Clouds 22 1014 94 10000 3.1 330 07:20 26.08.2019
3059 Clouds 22 1014 94 10000 1 330 06:40 26.08.2019
3060 Clouds 22 1014 94 10000 1 330 06:21 26.08.2019
3061 Clouds 22 1014 94 10000 1.5 50 05:48 26.08.2019
3062 Clouds 22 1015 94 10000 3.1 330 04:24 26.08.2019
3063 Clouds 22 1015 100 10000 2.6 20 02:51 26.08.2019
3064 Clear 22 1015 100 10000 4.1 350 01:27 26.08.2019
3065 Clear 22 1015 100 10000 4.1 340 00:48 26.08.2019
3066 Clear 22 1015 100 10000 4.1 340 00:28 26.08.2019
3067 Clear 23 1015 100 10000 2.6 340 23:58 25.08.2019
3068 Clear 23 1015 100 10000 4.6 340 23:39 25.08.2019
3069 Clear 23 1015 100 10000 4.1 350 23:18 25.08.2019
3070 Clear 23 1015 100 10000 4.1 350 22:55 25.08.2019
3071 Clouds 23 1014 78 10000 3.1 320 22:36 25.08.2019
3072 Clear 23 1015 94 10000 3.1 320 22:18 25.08.2019
3073 Clear 23 1015 94 10000 3.1 320 21:54 25.08.2019
3074 Clouds 23 1014 78 10000 4.1 320 21:36 25.08.2019
3075 Clouds 24 1013 83 10000 4.6 320 21:18 25.08.2019
3076 Clouds 24 1013 83 10000 4.6 320 20:39 25.08.2019
3077 Clouds 24 1013 83 10000 4.6 320 20:19 25.08.2019
3078 Clouds 25 1013 73 10000 3.1 320 19:56 25.08.2019
3079 Clouds 25 1013 73 10000 3.1 320 19:37 25.08.2019
3080 Clear 25 1014 65 10000 5.7 340 19:18 25.08.2019
3081 Clear 25 1014 65 10000 5.7 340 18:55 25.08.2019
3082 Clear 25 1014 65 10000 5.7 340 18:37 25.08.2019
3083 Clear 26 1014 61 10000 7.2 330 18:18 25.08.2019
3084 Clouds 27 1013 69 10000 7.7 300 17:41 25.08.2019
3085 Clouds 27 1013 69 10000 7.7 300 17:22 25.08.2019
3086 Clouds 27 1014 69 10000 6.2 340 16:45 25.08.2019
3087 Clouds 27 1014 69 10000 6.2 340 16:24 25.08.2019
3088 Clear 27 1014 45 10000 6.2 360 15:59 25.08.2019
3089 Clouds 27 1014 69 10000 5.7 340 15:40 25.08.2019
3090 Clouds 27 1014 69 10000 5.7 340 15:21 25.08.2019
3091 Clouds 27 1014 69 10000 6.7 320 14:41 25.08.2019
3092 Clouds 27 1014 69 10000 6.7 320 14:23 25.08.2019
3093 Clear 27 1014 69 10000 7.2 360 13:47 25.08.2019
3094 Clear 27 1014 69 10000 7.2 360 13:22 25.08.2019
3095 Clear 26 1015 61 10000 4.1 10 12:59 25.08.2019
3096 Clear 26 1014 69 10000 4.6 360 12:40 25.08.2019
3097 Clear 26 1014 69 10000 4.6 360 12:22 25.08.2019
3098 Clear 25 1015 78 10000 2.1 10 11:57 25.08.2019
3099 Clouds 25 1014 73 8000 4.6 360 11:37 25.08.2019
3100 Clouds 24 1015 88 10000 2.1 40 11:18 25.08.2019
3101 Clouds 24 1015 88 10000 2.1 40 10:55 25.08.2019
3102 Clouds 24 1014 78 6000 3.1 40 10:36 25.08.2019
3103 Clouds 23 1015 100 10000 2.92 24.084 10:18 25.08.2019
3104 Clouds 23 1014 83 6000 3.1 20 09:42 25.08.2019
3105 Clouds 23 1014 83 6000 3.1 20 09:23 25.08.2019
3106 Clouds 23 1014 83 5000 4.1 160 08:44 25.08.2019
3107 Clouds 23 1014 83 5000 4.1 160 08:25 25.08.2019
3108 Clouds 22 1015 100 10000 1 0 07:47 25.08.2019
3109 Clouds 22 1015 100 10000 1 0 07:27 25.08.2019
3110 Clouds 22 1014 100 9000 2.6 10 06:37 25.08.2019
3111 Clouds 23 1015 100 10000 2.6 10 05:27 25.08.2019
3112 Clouds 22 1015 100 7000 3.6 340 03:43 25.08.2019
3113 Clouds 22 1015 94 7000 4.6 340 02:42 25.08.2019
3114 Clouds 23 1015 100 8000 4.1 340 01:49 25.08.2019
3115 Clear 23 1016 100 10000 2.6 320 00:44 25.08.2019
3116 Clear 23 1016 100 10000 2.6 320 00:22 25.08.2019
3117 Clear 23 1016 100 10000 1.5 280 23:54 24.08.2019
3118 Clear 23 1016 100 10000 2.1 280 23:24 24.08.2019
3119 Mist 23 1015 100 10000 4.1 340 22:59 24.08.2019
3120 Mist 23 1015 83 6000 3.1 20 22:40 24.08.2019
3121 Mist 23 1015 83 6000 3.1 20 22:19 24.08.2019
3122 Mist 23 1015 83 6000 3.1 20 22:19 24.08.2019
3123 Clear 24 1015 88 10000 5.1 340 21:57 24.08.2019
3124 Clear 24 1015 88 10000 5.1 340 21:57 24.08.2019
3125 Clouds 24 1014 83 6000 3.1 20 21:39 24.08.2019
3126 Clouds 24 1014 83 6000 3.1 20 21:21 24.08.2019
3127 Clear 25 1015 74 10000 5.1 340 20:57 24.08.2019
3128 Clouds 25 1014 83 6000 2.6 20 20:38 24.08.2019
3129 Clouds 26 1014 83 6000 2.6 20 20:18 24.08.2019
3130 Clear 26 1014 66 10000 5.1 340 19:57 24.08.2019
3131 Clouds 27 1014 78 6000 6.2 340 19:38 24.08.2019
3132 Clouds 27 1014 78 6000 6.2 340 19:19 24.08.2019
3133 Clouds 28 1014 74 6000 7.7 360 18:45 24.08.2019
3134 Clouds 28 1014 74 6000 7.7 360 18:23 24.08.2019
3135 Clear 29 1014 69 6000 5.7 340 17:46 24.08.2019
3136 Clear 29 1014 69 6000 5.7 340 17:27 24.08.2019
3137 Clear 30 1014 22 10000 6.7 350 16:56 24.08.2019
3138 Clear 30 1014 65 6000 4.1 340 16:36 24.08.2019
3139 Clear 31 1014 17 10000 4.79 349.612 16:18 24.08.2019
3140 Clear 30 1014 65 6000 4.6 340 15:43 24.08.2019
3141 Clear 30 1014 65 6000 4.6 340 15:25 24.08.2019
3142 Clear 29 1014 16 10000 5.1 350 14:56 24.08.2019
3143 Clear 29 1014 65 6000 4.1 320 14:37 24.08.2019
3144 Clear 29 1015 39 10000 3.6 360 14:18 24.08.2019
3145 Clear 28 1015 74 6000 3.1 300 13:42 24.08.2019
3146 Clear 28 1015 74 6000 3.1 300 13:22 24.08.2019
3147 Clear 27 1015 33 10000 1.5 30 12:58 24.08.2019
3148 Clear 26 1015 78 6000 4.6 340 12:39 24.08.2019
3149 Clear 26 1015 78 6000 4.6 340 12:21 24.08.2019
3150 Clouds 24 1015 83 5000 2.6 320 11:46 24.08.2019
3151 Clouds 24 1015 83 5000 2.6 320 11:24 24.08.2019
3152 Mist 22 1015 100 5000 2.1 330 10:57 24.08.2019
3153 Mist 22 1015 83 3000 2.1 20 10:38 24.08.2019
3154 Mist 22 1015 83 3000 2.1 20 10:19 24.08.2019
3155 Mist 21 1014 88 3000 2.1 120 09:40 24.08.2019
3156 Mist 21 1014 100 300 3.43 30.551 09:18 24.08.2019
3157 Mist 21 1014 94 3000 1 300 08:42 24.08.2019
3158 Mist 21 1014 94 3000 1 300 08:23 24.08.2019
3159 Fog 21 1014 100 600 3.43 30.551 07:50 24.08.2019
3160 Mist 21 1014 94 1200 1.5 260 07:29 24.08.2019
3161 Mist 21 1014 100 4000 1 60 06:31 24.08.2019
3162 Mist 22 1014 100 4000 1 340 05:57 24.08.2019
3163 Mist 23 1014 100 4000 3.1 340 05:35 24.08.2019
3164 Clear 23 1015 94 10000 2.1 330 03:40 24.08.2019
3165 Clear 24 1015 94 10000 1.85 311.163 02:41 24.08.2019
3166 Clear 24 1015 94 10000 1.5 310 01:53 24.08.2019
3167 Clear 24 1015 88 10000 2.1 310 01:22 24.08.2019
3168 Clear 25 1015 78 10000 3.1 340 00:45 24.08.2019
3169 Clear 25 1015 78 10000 3.1 340 00:21 24.08.2019
3170 Clear 25 1015 58 10000 2.6 350 23:44 23.08.2019
3171 Clear 26 1015 58 10000 2.6 350 23:20 23.08.2019
3172 Clear 26 1013 74 10000 1 20 22:44 23.08.2019
3173 Clear 26 1013 74 10000 1 20 22:24 23.08.2019
3174 Clear 27 1014 51 10000 2.1 160 21:55 23.08.2019
3175 Clear 27 1013 74 10000 1 40 21:37 23.08.2019
3176 Clear 28 1013 74 10000 1 40 21:18 23.08.2019
3177 Clear 29 1013 41 10000 2.6 20 20:50 23.08.2019
3178 Clouds 29 1012 69 10000 3.6 20 20:32 23.08.2019
3179 Clouds 30 1012 65 10000 4.1 340 19:46 23.08.2019
3180 Clouds 30 1012 65 10000 4.1 340 19:19 23.08.2019
3181 Clear 30 1013 30 10000 5.7 360 18:55 23.08.2019
3182 Clear 30 1012 58 10000 3.1 320 18:37 23.08.2019
3183 Clear 31 1013 30 10000 7.2 350 18:18 23.08.2019
3184 Clear 31 1012 51 10000 2.6 20 17:41 23.08.2019
3185 Clear 31 1012 51 10000 2.6 20 17:23 23.08.2019
3186 Clear 31 1012 27 10000 6.2 360 16:49 23.08.2019
3187 Clear 31 1012 55 10000 6.2 360 16:30 23.08.2019
3188 Clear 31 1013 32 10000 6.7 330 15:59 23.08.2019
3189 Clear 31 1013 55 10000 5.1 360 15:40 23.08.2019
3190 Clear 31 1013 55 10000 5.1 360 15:21 23.08.2019
3191 Clear 31 1013 35 10000 5.1 330 14:56 23.08.2019
3192 Clear 31 1013 51 8000 4.1 360 14:38 23.08.2019
3193 Clear 31 1013 51 8000 4.1 360 14:19 23.08.2019
3194 Clear 30 1013 65 8000 3.6 360 13:42 23.08.2019
3195 Clear 30 1013 65 8000 3.6 360 13:23 23.08.2019
3196 Clear 30 1014 44 10000 1 0 12:59 23.08.2019
3197 Clear 29 1013 61 5000 4.6 360 12:41 23.08.2019
3198 Clear 29 1013 61 5000 4.6 360 12:21 23.08.2019
3199 Mist 28 1013 52 10000 1 0 11:57 23.08.2019
3200 Mist 27 1013 74 4000 2.6 360 11:39 23.08.2019
3201 Mist 27 1013 74 4000 2.6 360 11:19 23.08.2019
3202 Mist 24 1013 69 10000 3.69 47.229 10:55 23.08.2019
3203 Mist 24 1013 69 10000 3.69 47.229 10:55 23.08.2019
3204 Mist 24 1013 94 4000 0.5 0 10:37 23.08.2019
3205 Fog 22 1013 78 10000 3.48 48.557 10:18 23.08.2019
3206 Fog 22 1012 100 50 1.5 120 09:43 23.08.2019
3207 Fog 22 1012 100 50 1.5 120 09:20 23.08.2019
3208 Fog 21 1012 94 50 1 40 08:45 23.08.2019
3209 Fog 21 1012 94 50 1 40 08:22 23.08.2019
3210 Clear 21 1012 77 10000 2.1 340 07:57 23.08.2019
3211 Clear 21 1012 82 10000 2.75 49.458 07:38 23.08.2019
3212 Clear 20 1012 82 10000 2.75 49.458 07:20 23.08.2019
3213 Clear 21 1012 83 10000 2.75 49.458 06:41 23.08.2019
3214 Clear 22 1012 83 10000 1.55 30.286 06:22 23.08.2019
3215 Clear 22 1012 83 10000 1.55 30.286 05:44 23.08.2019
3216 Clear 22 1012 83 10000 1.55 30.286 05:24 23.08.2019
3217 Clear 22 1013 78 10000 1.55 30.286 03:42 23.08.2019
3218 Clear 22 1013 78 10000 1.74 42.183 02:38 23.08.2019
3219 Clear 23 1013 78 10000 1.74 42.183 02:20 23.08.2019
3220 Clear 23 1014 78 10000 1.76 35.568 00:57 23.08.2019
3221 Clear 23 1014 78 10000 1.76 35.568 00:37 23.08.2019
3222 Clear 24 1014 73 10000 1.99 56.414 00:18 23.08.2019
3223 Clear 24 1014 69 10000 0.5 10 23:40 22.08.2019
3224 Clear 24 1014 69 10000 0.5 10 23:21 22.08.2019
3225 Clear 25 1012 83 10000 2.1 20 22:42 22.08.2019
3226 Clear 25 1012 83 10000 2.1 20 22:23 22.08.2019
3227 Clear 26 1013 65 10000 3.1 20 21:58 22.08.2019
3228 Clear 26 1012 78 10000 4.1 20 21:40 22.08.2019
3229 Clear 26 1012 78 10000 4.1 20 21:21 22.08.2019
3230 Clear 27 1011 61 10000 4.1 40 20:58 22.08.2019
3231 Clear 27 1011 61 10000 4.1 40 20:39 22.08.2019
3232 Clear 27 1011 61 10000 4.1 40 20:20 22.08.2019
3233 Clear 27 1011 61 10000 4.1 40 20:20 22.08.2019
3234 Clear 28 1011 61 10000 5.1 40 19:56 22.08.2019
3235 Clear 28 1011 61 10000 5.1 40 19:38 22.08.2019
3236 Clear 28 1011 61 10000 5.1 40 19:38 22.08.2019
3237 Clear 28 1011 61 10000 5.1 40 19:20 22.08.2019
3238 Clear 28 1012 46 10000 5.7 10 18:57 22.08.2019
3239 Clear 28 1012 57 10000 5.1 40 18:39 22.08.2019
3240 Clear 28 1012 46 10000 6.2 360 18:18 22.08.2019
3241 Clear 28 1012 61 10000 6.2 20 17:43 22.08.2019
3242 Clear 28 1012 61 10000 6.2 20 17:24 22.08.2019
3243 Clear 28 1012 41 10000 5.7 10 16:59 22.08.2019
3244 Clear 28 1012 51 10000 6.2 20 16:40 22.08.2019
3245 Clear 28 1012 51 10000 6.2 20 16:21 22.08.2019
3246 Clear 28 1012 51 10000 6.2 20 16:21 22.08.2019
3247 Clear 28 1012 51 10000 6.2 20 16:21 22.08.2019
3248 Clear 28 1012 38 10000 5.7 350 15:59 22.08.2019
3249 Clear 28 1012 38 10000 5.7 350 15:59 22.08.2019
3250 Clear 28 1012 51 10000 5.1 20 15:40 22.08.2019
3251 Clear 28 1012 51 10000 5.1 20 15:21 22.08.2019
3252 Clear 28 1012 41 10000 5.1 350 14:57 22.08.2019
3253 Clear 28 1012 44 10000 5.1 20 14:38 22.08.2019
3254 Clear 27 1013 40 10000 3.6 20 14:18 22.08.2019
3255 Clear 27 1013 40 10000 3.6 20 13:56 22.08.2019
3256 Clear 27 1013 65 10000 6.2 20 13:37 22.08.2019
3257 Clear 26 1013 42 10000 3.6 20 13:18 22.08.2019
3258 Clear 26 1013 57 10000 5.1 20 12:40 22.08.2019
3259 Clear 26 1013 57 10000 5.1 20 12:21 22.08.2019
3260 Clear 24 1013 57 10000 2.6 40 11:55 22.08.2019
3261 Clear 24 1013 78 8000 3.1 40 11:36 22.08.2019
3262 Clear 22 1013 83 10000 1 0 11:18 22.08.2019
3263 Clear 22 1013 83 10000 1 0 10:57 22.08.2019
3264 Clear 21 1013 83 8000 3.1 20 10:36 22.08.2019
3265 Clear 20 1013 100 10000 1 0 10:18 22.08.2019
3266 Clear 19 1013 88 8000 2.1 80 09:40 22.08.2019
3267 Clear 19 1013 88 8000 2.1 80 09:21 22.08.2019
3268 Mist 18 1013 100 3000 1.38 81.045 08:59 22.08.2019
3269 Mist 18 1013 100 4000 1.38 81.045 08:40 22.08.2019
3270 Mist 18 1013 100 4000 1.38 81.045 08:21 22.08.2019
3271 Mist 18 1013 100 4000 1.38 81.045 07:43 22.08.2019
3272 Mist 18 1013 100 4000 1.38 81.045 07:24 22.08.2019
3273 Mist 18 1013 100 3000 1.5 30 06:58 22.08.2019
3274 Mist 19 1013 100 3000 1.5 30 06:40 22.08.2019
3275 Mist 19 1013 100 3000 3.1 40 06:19 22.08.2019
3276 Clouds 20 1014 100 6000 1.78 15.503 04:42 22.08.2019
3277 Clouds 19 1015 94 9000 2.6 360 02:56 22.08.2019
3278 Clear 19 1015 100 10000 2.1 350 02:34 22.08.2019
3279 Clear 20 1016 100 10000 1.75 15.522 01:27 22.08.2019
3280 Clear 21 1016 94 9000 1.5 20 00:49 22.08.2019
3281 Clear 21 1016 88 10000 2.6 10 00:30 22.08.2019
3282 Clear 21 1016 88 10000 2.6 10 23:58 21.08.2019
3283 Clear 21 1016 78 10000 2.1 20 23:39 21.08.2019
3284 Clear 21 1016 78 10000 2.1 20 23:20 21.08.2019
3285 Clear 21 1015 73 10000 2.6 20 22:56 21.08.2019
3286 Clouds 22 1015 88 10000 2.1 20 22:38 21.08.2019
3287 Clouds 22 1015 88 10000 2.1 20 22:19 21.08.2019
3288 Clear 23 1015 64 10000 3.1 10 21:55 21.08.2019
3289 Clouds 23 1014 83 10000 4.1 20 21:37 21.08.2019
3290 Clear 24 1014 44 10000 5.7 360 21:18 21.08.2019
3291 Clouds 25 1014 78 10000 6.2 20 20:43 21.08.2019
3292 Clouds 25 1014 78 10000 6.2 20 20:43 21.08.2019
3293 Clouds 25 1014 78 10000 6.2 20 20:24 21.08.2019
3294 Clear 25 1014 42 10000 5.1 350 19:58 21.08.2019
3295 Clouds 25 1014 69 10000 6.2 20 19:39 21.08.2019
3296 Clouds 25 1014 69 10000 6.2 20 19:21 21.08.2019
3297 Clear 25 1014 54 10000 6.2 350 18:56 21.08.2019
3298 Clouds 25 1014 69 10000 5.1 340 18:38 21.08.2019
3299 Clear 25 1015 57 10000 6.7 340 18:19 21.08.2019
3300 Clouds 25 1014 69 10000 7.2 340 17:43 21.08.2019
3301 Clouds 25 1014 69 10000 7.2 340 17:43 21.08.2019
3302 Clouds 25 1014 69 10000 7.2 340 17:21 21.08.2019
3303 Clear 26 1015 57 10000 6.7 330 16:56 21.08.2019
3304 Clear 26 1015 65 10000 7.2 320 16:37 21.08.2019
3305 Clear 26 1015 54 10000 6.2 330 16:18 21.08.2019
3306 Clear 26 1015 54 10000 6.2 330 15:56 21.08.2019
3307 Clear 26 1015 65 10000 6.2 320 15:38 21.08.2019
3308 Clear 26 1015 51 10000 3.1 10 15:18 21.08.2019
3309 Clear 26 1015 51 10000 3.1 10 14:54 21.08.2019
3310 Clear 26 1016 64 10000 6.2 340 14:36 21.08.2019
3311 Clear 25 1016 54 10000 3.1 360 14:18 21.08.2019
3312 Clear 25 1016 69 10000 5.1 320 13:42 21.08.2019
3313 Clear 24 1016 69 10000 5.1 320 13:19 21.08.2019
3314 Clear 24 1016 69 10000 3.1 20 12:57 21.08.2019
3315 Clear 24 1016 69 10000 3.1 20 12:38 21.08.2019
3316 Clear 24 1016 69 10000 3.1 20 12:19 21.08.2019
3317 Clear 23 1016 69 10000 3.1 20 11:44 21.08.2019
3318 Clear 23 1016 69 10000 3.1 20 11:24 21.08.2019
3319 Clouds 22 1017 94 10000 2.28 358.468 10:58 21.08.2019
3320 Clear 21 1016 73 10000 1 20 10:40 21.08.2019
3321 Clear 21 1016 73 10000 1 20 10:21 21.08.2019
3322 Mist 19 1017 100 10000 2.28 358.468 09:58 21.08.2019
3323 Mist 19 1016 88 10000 2.28 358.468 09:40 21.08.2019
3324 Mist 19 1016 88 10000 2.06 19.905 09:21 21.08.2019
3325 Clouds 18 1017 93 10000 2.06 19.905 08:49 21.08.2019
3326 Clouds 18 1016 93 10000 2.06 19.905 08:25 21.08.2019
3327 Clouds 17 1016 100 10000 0.5 320 07:45 21.08.2019
3328 Clouds 17 1016 100 10000 0.5 320 07:26 21.08.2019
3329 Clouds 17 1016 100 10000 3.1 340 06:51 21.08.2019
3330 Clouds 17 1016 100 6000 2.6 350 06:33 21.08.2019
3331 Clouds 19 1016 100 10000 2.1 20 05:57 21.08.2019
3332 Clouds 19 1016 100 10000 0.5 10 05:28 21.08.2019
3333 Clouds 20 1016 100 10000 2.6 30 04:42 21.08.2019
3334 Clouds 21 1017 94 10000 3.1 20 02:40 21.08.2019
3335 Clouds 21 1017 94 10000 3.1 20 01:30 21.08.2019
3336 Clouds 21 1017 94 10000 4.1 20 00:41 21.08.2019
3337 Clouds 21 1017 94 10000 4.1 20 00:20 21.08.2019
3338 Clear 21 1018 83 0 3.1 10 23:45 20.08.2019
3339 Clear 21 1018 83 0 3.1 10 23:20 20.08.2019
3340 Clouds 21 1017 94 10000 4.6 20 22:59 20.08.2019
3341 Clouds 22 1017 88 10000 4.6 10 22:40 20.08.2019
3342 Clouds 22 1017 88 10000 4.6 10 22:40 20.08.2019
3343 Clouds 22 1017 88 10000 4.6 10 22:21 20.08.2019
3344 Clouds 22 1016 83 10000 4.6 360 21:58 20.08.2019
3345 Clouds 22 1016 78 10000 5.1 20 21:39 20.08.2019
3346 Clouds 23 1016 78 10000 5.1 20 21:19 20.08.2019
3347 Clouds 23 1016 73 10000 5.1 340 20:58 20.08.2019
3348 Clouds 23 1016 73 10000 5.1 340 20:58 20.08.2019
3349 Clouds 24 1016 69 10000 7.2 350 20:40 20.08.2019
3350 Clouds 24 1016 69 10000 7.2 350 20:21 20.08.2019
3351 Clouds 24 1016 78 10000 5.7 360 19:39 20.08.2019
3352 Clouds 24 1016 78 10000 5.7 360 19:21 20.08.2019
3353 Clear 25 1015 61 10000 7.2 350 18:57 20.08.2019
3354 Clouds 25 1016 69 10000 8.2 20 18:39 20.08.2019
3355 Clouds 25 1016 69 10000 8.2 20 18:39 20.08.2019
3356 Clouds 25 1016 69 10000 8.2 20 18:39 20.08.2019
3357 Clear 26 1016 51 10000 7.7 350 18:19 20.08.2019
3358 Clear 26 1016 51 10000 7.7 350 17:57 20.08.2019
3359 Clouds 26 1016 65 10000 8.2 340 17:38 20.08.2019
3360 Clouds 26 1016 65 10000 8.2 340 17:19 20.08.2019
3361 Clear 26 1016 45 10000 6.2 330 16:44 20.08.2019
3362 Clouds 26 1016 61 10000 6.2 340 16:26 20.08.2019
3363 Clear 26 1016 48 10000 5.1 330 15:56 20.08.2019
3364 Clouds 26 1017 61 10000 5.7 340 15:37 20.08.2019
3365 Clouds 26 1017 61 10000 5.7 340 15:18 20.08.2019
3366 Clouds 25 1017 69 10000 7.2 360 14:42 20.08.2019
3367 Clouds 25 1017 69 10000 7.2 360 14:22 20.08.2019
3368 Clear 25 1017 57 10000 4.6 360 13:57 20.08.2019
3369 Clouds 25 1017 69 10000 5.7 340 13:38 20.08.2019
3370 Clouds 25 1017 69 10000 5.7 340 13:20 20.08.2019
3371 Clear 25 1018 57 10000 3.1 350 12:51 20.08.2019
3372 Clouds 24 1017 69 10000 4.1 340 12:29 20.08.2019
3373 Clear 23 1017 73 10000 1 0 11:58 20.08.2019
3374 Clouds 23 1017 69 10000 4.1 340 11:38 20.08.2019
3375 Clouds 23 1017 69 10000 4.1 340 11:19 20.08.2019
3376 Clouds 23 1017 69 10000 4.1 340 11:19 20.08.2019
3377 Clear 22 1017 88 10000 1 0 10:57 20.08.2019
3378 Clouds 22 1017 69 10000 3.1 40 10:38 20.08.2019
3379 Clouds 22 1017 69 10000 3.1 40 10:20 20.08.2019
3380 Clouds 20 1017 100 10000 2.1 20 09:44 20.08.2019
3381 Clouds 20 1017 77 8000 3.6 360 09:25 20.08.2019
3382 Clouds 19 1017 100 10000 4.04 4.837 08:58 20.08.2019
3383 Clouds 18 1016 82 8000 2.1 20 08:40 20.08.2019
3384 Clouds 18 1016 82 8000 2.1 20 08:21 20.08.2019
3385 Clouds 19 1017 100 10000 1.5 20 07:56 20.08.2019
3386 Clouds 19 1017 100 10000 1.5 20 07:37 20.08.2019
3387 Clouds 19 1017 100 10000 1.5 20 07:18 20.08.2019
3388 Clouds 19 1017 100 10000 1.5 20 07:18 20.08.2019
3389 Clouds 21 1017 100 10000 2.6 10 06:28 20.08.2019
3390 Clouds 21 1017 100 10000 3.1 20 05:58 20.08.2019
3391 Clouds 21 1017 100 10000 3.1 20 05:38 20.08.2019
3392 Clouds 21 1017 94 10000 4.1 10 04:21 20.08.2019
3393 Clouds 22 1018 94 10000 4.6 30 02:46 20.08.2019
3394 Clouds 22 1018 78 10000 4.6 10 01:43 20.08.2019
3395 Clouds 22 1019 78 10000 4.6 10 01:19 20.08.2019
3396 Clouds 22 1018 88 10000 4.1 20 00:43 20.08.2019
3397 Clouds 22 1018 88 10000 4.1 20 00:21 20.08.2019
3398 Clouds 23 1018 88 10000 4.1 20 23:40 19.08.2019
3399 Clouds 23 1018 88 10000 4.1 20 23:18 19.08.2019
3400 Clouds 23 1018 88 10000 5.1 10 22:57 19.08.2019
3401 Clouds 23 1016 78 10000 6.2 20 22:39 19.08.2019
3402 Clouds 23 1016 78 10000 6.2 20 22:18 19.08.2019
3403 Clouds 23 1017 88 10000 5.1 10 21:56 19.08.2019
3404 Clouds 23 1016 78 10000 5.1 20 21:37 19.08.2019
3405 Clouds 23 1016 78 10000 5.1 20 21:37 19.08.2019
3406 Clouds 23 1016 78 10000 5.1 20 21:18 19.08.2019
3407 Clouds 24 1016 78 10000 6.2 360 20:40 19.08.2019
3408 Clouds 24 1016 78 10000 6.2 360 20:40 19.08.2019
3409 Clouds 24 1016 78 10000 6.2 360 20:40 19.08.2019
3410 Clouds 24 1016 78 10000 6.2 360 20:20 19.08.2019
3411 Clouds 24 1016 73 10000 7.7 350 19:59 19.08.2019
3412 Clouds 25 1016 73 10000 7.7 360 19:40 19.08.2019
3413 Clouds 25 1016 73 10000 7.7 360 19:19 19.08.2019
3414 Clouds 26 1016 65 10000 7.7 350 18:47 19.08.2019
3415 Clouds 26 1016 69 10000 7.2 20 18:29 19.08.2019
3416 Clouds 26 1016 58 10000 7.7 350 17:59 19.08.2019
3417 Clear 26 1016 69 10000 6.2 340 17:41 19.08.2019
3418 Clear 26 1016 69 10000 6.2 340 17:22 19.08.2019
3419 Clear 27 1016 48 10000 5.7 360 16:58 19.08.2019
3420 Clear 27 1016 65 10000 6.2 340 16:37 19.08.2019
3421 Clear 27 1016 65 10000 6.2 340 16:19 19.08.2019
3422 Clear 26 1016 48 10000 4.6 350 15:56 19.08.2019
3423 Clear 26 1016 65 10000 6.2 20 15:37 19.08.2019
3424 Clear 26 1016 65 10000 6.2 20 15:18 19.08.2019
3425 Clear 26 1017 65 10000 4.6 360 14:43 19.08.2019
3426 Clear 26 1017 65 10000 4.6 360 14:23 19.08.2019
3427 Clear 26 1017 58 10000 2.6 340 13:57 19.08.2019
3428 Clouds 26 1017 61 10000 4.6 340 13:38 19.08.2019
3429 Clouds 26 1017 61 10000 4.6 340 13:19 19.08.2019
3430 Clear 25 1017 65 10000 3.1 10 12:56 19.08.2019
3431 Clouds 25 1017 64 10000 4.1 340 12:36 19.08.2019
3432 Clouds 26 1017 78 10000 3.67 1.233 12:18 19.08.2019
3433 Clouds 26 1017 40 10000 2.6 360 11:39 19.08.2019
3434 Clouds 26 1017 40 10000 2.6 360 11:21 19.08.2019
3435 Clouds 23 1017 83 10000 2.6 30 10:56 19.08.2019
3436 Clouds 23 1017 69 10000 4.1 40 10:37 19.08.2019
3437 Clouds 23 1017 69 10000 4.1 40 10:37 19.08.2019
3438 Clouds 22 1017 94 10000 1 0 10:18 19.08.2019
3439 Clouds 22 1016 73 10000 3.1 360 09:44 19.08.2019
3440 Clouds 22 1016 73 10000 3.1 360 09:23 19.08.2019
3441 Clouds 21 1017 88 10000 3.1 10 08:56 19.08.2019
3442 Clouds 21 1016 77 10000 2.6 360 08:38 19.08.2019
3443 Clouds 21 1016 77 10000 2.6 360 08:19 19.08.2019
3444 Clouds 21 1017 94 10000 2.6 30 07:45 19.08.2019
3445 Clouds 21 1017 94 10000 2.6 30 07:27 19.08.2019
3446 Clouds 21 1017 94 10000 2.1 10 06:48 19.08.2019
3447 Clouds 21 1017 94 10000 2.1 10 06:26 19.08.2019
3448 Clouds 21 1017 94 10000 2.1 10 06:26 19.08.2019
3449 Clouds 21 1017 100 10000 3.1 10 04:56 19.08.2019
3450 Clouds 21 1017 100 10000 3.1 30 04:26 19.08.2019
3451 Clouds 20 1017 100 10000 0.5 0 03:22 19.08.2019
3452 Clouds 20 1017 100 10000 2.1 30 02:23 19.08.2019
3453 Clouds 21 1017 100 10000 1.5 20 01:31 19.08.2019
3454 Clouds 21 1018 100 10000 1 0 00:43 19.08.2019
3455 Clouds 21 1018 100 10000 1 0 00:23 19.08.2019
3456 Clouds 21 1017 100 10000 2.1 20 23:42 18.08.2019
3457 Clouds 21 1017 100 10000 2.1 20 23:21 18.08.2019
3458 Clouds 22 1017 94 10000 1.5 10 22:55 18.08.2019
3459 Clouds 22 1015 83 10000 6.2 320 22:37 18.08.2019
3460 Clear 22 1016 83 10000 5.1 350 22:19 18.08.2019
3461 Clear 22 1016 83 10000 5.1 350 21:55 18.08.2019
3462 Clouds 23 1015 83 10000 6.2 320 21:37 18.08.2019
3463 Clear 24 1015 73 10000 6.7 350 21:18 18.08.2019
3464 Clear 24 1015 73 10000 6.7 350 21:18 18.08.2019
3465 Clear 24 1015 78 10000 6.2 320 20:42 18.08.2019
3466 Clear 24 1015 78 10000 6.2 320 20:24 18.08.2019
3467 Clear 25 1015 65 10000 7.7 340 19:54 18.08.2019
3468 Clear 26 1015 73 10000 8.2 320 19:36 18.08.2019
3469 Clear 27 1015 48 10000 6.7 340 19:18 18.08.2019
3470 Clear 27 1015 65 10000 7.2 320 18:41 18.08.2019
3471 Clear 27 1015 65 10000 7.2 320 18:23 18.08.2019
3472 Clear 27 1016 51 10000 7.2 340 17:57 18.08.2019
3473 Clear 26 1016 54 10000 6.7 340 17:39 18.08.2019
3474 Clear 26 1016 54 10000 6.7 340 17:19 18.08.2019
3475 Clear 26 1016 51 10000 6.7 330 16:56 18.08.2019
3476 Clear 26 1016 65 10000 7.2 340 16:38 18.08.2019
3477 Clear 26 1016 65 10000 7.2 340 16:19 18.08.2019
3478 Clear 26 1016 45 10000 3.6 320 15:55 18.08.2019
3479 Clear 26 1016 65 10000 4.1 340 15:36 18.08.2019
3480 Clear 26 1016 45 10000 4.6 320 15:18 18.08.2019
3481 Clear 26 1017 61 10000 4.1 340 14:40 18.08.2019
3482 Clear 26 1017 61 10000 4.1 340 14:40 18.08.2019
3483 Clear 26 1017 61 10000 4.1 340 14:20 18.08.2019
3484 Clear 26 1017 51 10000 2.1 340 13:59 18.08.2019
3485 Clear 27 1017 65 10000 4.1 340 13:40 18.08.2019
3486 Clear 27 1017 65 10000 4.1 340 13:21 18.08.2019
3487 Clear 26 1017 65 10000 1 0 12:55 18.08.2019
3488 Clear 26 1017 64 10000 4.1 280 12:37 18.08.2019
3489 Clear 24 1017 73 10000 3.14 355.669 12:18 18.08.2019
3490 Clear 24 1016 69 10000 3.1 320 11:42 18.08.2019
3491 Clear 24 1016 69 10000 3.1 320 11:23 18.08.2019
3492 Clear 22 1017 88 10000 1 0 10:56 18.08.2019
3493 Clouds 22 1016 73 10000 3.1 240 10:38 18.08.2019
3494 Mist 21 1016 100 10000 2.1 300 10:18 18.08.2019
3495 Mist 21 1016 100 10000 2.1 300 10:18 18.08.2019
3496 Mist 20 1016 77 10000 3.1 240 09:42 18.08.2019
3497 Mist 20 1016 77 10000 3.1 240 09:19 18.08.2019
3498 Clouds 20 1015 83 10000 2.1 280 08:43 18.08.2019
3499 Clouds 20 1015 83 10000 2.1 280 08:25 18.08.2019
3500 Clouds 20 1015 100 10000 2.97 346.628 07:54 18.08.2019
3501 Clouds 20 1015 100 10000 2.97 346.628 07:29 18.08.2019
3502 Clouds 21 1015 100 10000 2.97 346.628 06:32 18.08.2019
3503 Clouds 19 1015 100 10000 2.1 300 05:41 18.08.2019
3504 Clouds 20 1016 100 10000 2.06 344.398 03:51 18.08.2019
3505 Clouds 21 1016 94 10000 2.25 10.109 02:52 18.08.2019
3506 Clouds 21 1016 94 10000 2.25 10.109 02:34 18.08.2019
3507 Clouds 22 1016 100 10000 2.25 10.109 01:57 18.08.2019
3508 Clouds 22 1016 100 10000 3.06 359.794 01:26 18.08.2019
3509 Clouds 22 1016 100 10000 3.06 359.794 01:26 18.08.2019
3510 Clouds 22 1016 100 10000 3.06 359.794 00:41 18.08.2019
3511 Clouds 22 1016 100 10000 2.94 25.215 00:20 18.08.2019
3512 Clouds 23 1016 100 10000 2.94 25.215 23:58 17.08.2019
3513 Clouds 23 1016 100 10000 2.94 25.215 23:38 17.08.2019
3514 Clouds 23 1016 100 10000 2.94 25.215 23:19 17.08.2019
3515 Clouds 23 1015 100 10000 3.6 340 22:57 17.08.2019
3516 Clouds 23 1014 83 10000 5.1 20 22:38 17.08.2019
3517 Clouds 23 1014 83 10000 5.1 20 22:20 17.08.2019
3518 Clouds 24 1014 83 0 5.7 20 21:44 17.08.2019
3519 Clouds 24 1014 83 0 5.7 20 21:26 17.08.2019
3520 Clear 25 1014 69 10000 5.1 340 20:59 17.08.2019
3521 Clouds 26 1013 78 10000 4.1 340 20:37 17.08.2019
3522 Clouds 25 1013 78 10000 4.1 340 20:19 17.08.2019
3523 Clear 26 1013 69 10000 6.2 340 19:43 17.08.2019
3524 Clear 26 1013 69 10000 6.2 340 19:24 17.08.2019
3525 Clear 27 1013 48 10000 5.7 320 18:58 17.08.2019
3526 Clear 26 1013 74 10000 7.2 340 18:38 17.08.2019
3527 Clear 28 1013 74 10000 7.2 320 18:18 17.08.2019
3528 Clear 28 1013 74 10000 7.2 320 17:43 17.08.2019
3529 Clear 28 1013 74 10000 7.2 320 17:22 17.08.2019
3530 Clear 28 1013 38 10000 7.2 340 16:57 17.08.2019
3531 Clear 28 1014 69 10000 6.2 340 16:38 17.08.2019
3532 Clear 28 1014 69 10000 6.2 340 16:20 17.08.2019
3533 Clear 28 1014 31 10000 6.7 350 15:54 17.08.2019
3534 Clear 28 1014 31 10000 6.7 350 15:54 17.08.2019
3535 Clear 28 1014 65 10000 7.2 320 15:36 17.08.2019
3536 Clear 29 1014 30 10000 6.2 20 15:18 17.08.2019
3537 Clear 29 1014 65 10000 5.1 300 14:40 17.08.2019
3538 Clear 29 1014 65 10000 5.1 300 14:21 17.08.2019
3539 Clear 28 1015 65 10000 4.1 360 13:45 17.08.2019
3540 Clear 27 1015 42 10000 4.1 20 13:21 17.08.2019
3541 Clear 27 1015 78 10000 4.1 360 12:45 17.08.2019
3542 Clear 27 1015 78 10000 4.1 360 12:45 17.08.2019
3543 Clear 27 1015 78 10000 4.1 360 12:21 17.08.2019
3544 Clouds 25 1015 69 10000 2.6 70 11:59 17.08.2019
3545 Clear 24 1015 73 10000 3.1 320 11:39 17.08.2019
3546 Clear 24 1015 73 10000 3.1 320 11:20 17.08.2019
3547 Mist 22 1015 83 8000 2.1 340 10:42 17.08.2019
3548 Mist 22 1015 83 8000 2.1 340 10:42 17.08.2019
3549 Mist 22 1015 83 8000 2.1 340 10:22 17.08.2019
3550 Mist 21 1015 100 1400 2.81 20.78 09:59 17.08.2019
3551 Fog 21 1015 94 8000 2.1 340 09:40 17.08.2019
3552 Fog 21 1015 94 8000 2.1 340 09:21 17.08.2019
3553 Fog 21 1015 100 800 1 60 08:51 17.08.2019
3554 Fog 21 1014 88 8000 2.1 20 08:22 17.08.2019
3555 Mist 20 1015 100 0 1 200 07:44 17.08.2019
3556 Mist 21 1015 100 0 1 200 07:20 17.08.2019
3557 Mist 20 1015 100 4700 2.8 35.8 06:34 17.08.2019
3558 Clouds 22 1015 100 5000 3.15 32.574 04:48 17.08.2019
3559 Clouds 22 1015 100 5000 3.15 32.574 04:21 17.08.2019
3560 Clouds 22 1016 100 5000 3.1 350 02:43 17.08.2019
3561 Clouds 22 1016 94 6000 2.6 10 01:40 17.08.2019
3562 Clouds 22 1016 94 6000 2.6 10 01:20 17.08.2019
3563 Clouds 22 1016 94 7000 3.19 34.93 00:47 17.08.2019
3564 Clouds 22 1016 94 7000 3.94 11.974 00:24 17.08.2019
3565 Clouds 22 1016 100 10000 3.1 20 23:46 16.08.2019
3566 Clouds 23 1016 100 10000 3.1 20 23:25 16.08.2019
3567 Clouds 23 1015 83 10000 3.6 20 22:43 16.08.2019
3568 Clouds 23 1015 83 10000 3.6 20 22:20 16.08.2019
3569 Clouds 24 1015 83 10000 4.1 360 21:59 16.08.2019
3570 Clouds 24 1015 83 10000 4.1 360 21:39 16.08.2019
3571 Clear 25 1015 69 10000 5.1 350 21:19 16.08.2019
3572 Clouds 26 1014 83 10000 6.7 340 20:43 16.08.2019
3573 Clouds 26 1014 83 10000 6.7 340 20:21 16.08.2019
3574 Clear 27 1014 62 10000 5.7 350 19:59 16.08.2019
3575 Clouds 27 1014 74 10000 7.2 360 19:39 16.08.2019
3576 Clouds 27 1014 74 10000 7.2 360 19:19 16.08.2019
3577 Clouds 27 1014 74 10000 7.2 360 19:19 16.08.2019
3578 Clear 28 1014 69 10000 5.1 360 18:42 16.08.2019
3579 Clear 28 1014 69 10000 5.1 360 18:23 16.08.2019
3580 Clear 28 1014 65 10000 6.2 360 17:48 16.08.2019
3581 Clear 28 1014 65 10000 6.2 360 17:30 16.08.2019
3582 Clear 28 1014 65 10000 6.2 360 17:30 16.08.2019
3583 Clear 28 1015 38 10000 6.2 350 16:59 16.08.2019
3584 Clear 28 1015 65 10000 6.2 340 16:40 16.08.2019
3585 Clear 28 1015 65 10000 6.2 340 16:19 16.08.2019
3586 Clear 28 1015 41 10000 7.2 360 15:56 16.08.2019
3587 Clear 28 1016 65 10000 5.1 320 15:38 16.08.2019
3588 Clear 28 1016 65 10000 5.1 320 15:19 16.08.2019
3589 Clear 28 1016 41 10000 6.2 350 14:56 16.08.2019
3590 Clear 28 1016 65 10000 5.7 320 14:38 16.08.2019
3591 Clear 28 1016 36 10000 5.1 360 14:18 16.08.2019
3592 Clear 27 1016 69 10000 4.1 320 13:40 16.08.2019
3593 Clear 27 1016 69 10000 4.1 320 13:22 16.08.2019
3594 Clear 27 1016 65 10000 3.1 300 12:42 16.08.2019
3595 Clear 26 1016 65 10000 3.1 300 12:23 16.08.2019
3596 Clear 26 1017 58 10000 2.6 40 11:59 16.08.2019
3597 Clear 26 1016 73 5000 2.12 26.239 11:40 16.08.2019
3598 Clear 25 1016 73 5000 2.12 26.239 11:22 16.08.2019
3599 Clear 23 1016 78 5000 2.12 26.239 10:43 16.08.2019
3600 Clear 23 1016 78 5000 2.12 26.239 10:22 16.08.2019
3601 Mist 21 1017 100 5000 2.12 26.239 09:55 16.08.2019
3602 Mist 20 1016 88 5000 2.12 26.239 09:36 16.08.2019
3603 Mist 20 1016 100 2000 2.29 68.31 09:18 16.08.2019
3604 Mist 19 1016 94 5000 2.1 160 08:39 16.08.2019
3605 Mist 19 1016 94 5000 2.1 160 08:20 16.08.2019
3606 Mist 19 1016 100 4400 2.29 68.31 07:52 16.08.2019
3607 Mist 19 1016 100 3600 2.29 68.31 07:29 16.08.2019
3608 Mist 20 1016 100 3000 1 30 06:55 16.08.2019
3609 Mist 21 1016 100 4400 2.66 22.482 06:19 16.08.2019
3610 Mist 21 1016 100 2200 2.66 22.482 05:34 16.08.2019
3611 Clouds 22 1017 100 6000 2.59 34.052 03:21 16.08.2019
3612 Clouds 22 1017 100 7000 2.59 34.052 01:54 16.08.2019
3613 Clouds 22 1017 100 8000 2.1 20 01:28 16.08.2019
3614 Clear 22 1018 100 9000 2.1 20 00:55 16.08.2019
3615 Clear 22 1018 100 9000 2.1 20 00:55 16.08.2019
3616 Clouds 22 1018 100 10000 2.1 330 00:36 16.08.2019
3617 Clouds 22 1017 100 10000 3.41 32.574 00:18 16.08.2019
3618 Clouds 22 1017 100 10000 3.41 32.574 23:42 15.08.2019
3619 Clouds 23 1017 100 10000 3.41 32.574 23:19 15.08.2019
3620 Clouds 23 1016 83 10000 5.1 20 22:55 15.08.2019
3621 Clouds 23 1016 83 10000 5.1 20 22:36 15.08.2019
3622 Clouds 23 1016 94 10000 4.1 350 22:18 15.08.2019
3623 Clouds 24 1016 83 10000 6.2 20 21:40 15.08.2019
3624 Clouds 24 1016 83 10000 6.2 20 21:20 15.08.2019
3625 Clouds 25 1016 69 10000 6.2 340 20:59 15.08.2019
3626 Clouds 25 1016 83 10000 6.2 20 20:40 15.08.2019
3627 Clouds 25 1016 83 10000 6.2 20 20:21 15.08.2019
3628 Clouds 26 1016 58 10000 8.2 340 19:54 15.08.2019
3629 Clear 26 1016 78 10000 5.1 20 19:36 15.08.2019
3630 Clouds 27 1016 45 10000 7.7 360 19:18 15.08.2019
3631 Clear 28 1016 65 10000 5.1 20 18:41 15.08.2019
3632 Clear 28 1016 65 10000 5.1 20 18:21 15.08.2019
3633 Clear 28 1016 40 10000 6.7 350 17:56 15.08.2019
3634 Clear 28 1016 58 10000 6.2 360 17:37 15.08.2019
3635 Clear 28 1016 58 10000 6.2 360 17:19 15.08.2019
3636 Clear 29 1016 58 10000 5.1 360 16:48 15.08.2019
3637 Clear 29 1016 58 10000 5.1 360 16:27 15.08.2019
3638 Clear 28 1016 41 10000 6.2 360 15:56 15.08.2019
3639 Clear 28 1016 43 10000 5.7 360 15:38 15.08.2019
3640 Clear 28 1016 43 10000 5.7 360 15:19 15.08.2019
3641 Clear 28 1016 65 10000 7.7 320 14:42 15.08.2019
3642 Clear 28 1016 65 10000 7.7 320 14:23 15.08.2019
3643 Clear 27 1017 43 10000 5.7 30 13:57 15.08.2019
3644 Clear 27 1017 69 10000 4.1 340 13:39 15.08.2019
3645 Clear 27 1017 69 10000 4.1 340 13:20 15.08.2019
3646 Clear 27 1017 55 10000 4.1 360 12:57 15.08.2019
3647 Clear 26 1017 73 10000 2.1 340 12:38 15.08.2019
3648 Clear 25 1017 65 10000 1 0 12:18 15.08.2019
3649 Clear 25 1017 65 10000 1 0 11:57 15.08.2019
3650 Clear 25 1016 83 10000 2.1 320 11:36 15.08.2019
3651 Clear 24 1017 83 10000 2.1 90 11:18 15.08.2019
3652 Clear 24 1016 83 10000 2.1 320 10:39 15.08.2019
3653 Clear 24 1016 83 10000 2.1 320 10:20 15.08.2019
3654 Clear 22 1017 100 10000 2.6 90 09:58 15.08.2019
3655 Clear 22 1016 94 6000 1.65 341.213 09:39 15.08.2019
3656 Clear 22 1016 94 6000 1.39 42.667 09:21 15.08.2019
3657 Clouds 21 1017 100 10000 2.6 60 08:38 15.08.2019
3658 Clouds 21 1017 100 10000 2.6 60 08:19 15.08.2019
3659 Clouds 21 1017 100 10000 4.1 40 07:46 15.08.2019
3660 Clouds 21 1017 100 10000 4.1 40 07:28 15.08.2019
3661 Clouds 22 1017 100 10000 3.6 50 06:56 15.08.2019
3662 Clouds 22 1017 100 10000 3.6 40 06:34 15.08.2019
3663 Clouds 22 1017 100 10000 3.6 10 05:54 15.08.2019
3664 Clouds 22 1017 100 10000 3.6 30 05:29 15.08.2019
3665 Clouds 23 1017 100 6000 4.1 40 04:39 15.08.2019
3666 Clouds 22 1017 100 7000 3.1 20 03:48 15.08.2019
3667 Clouds 22 1017 100 7000 3.1 10 02:47 15.08.2019
3668 Clouds 22 1017 100 6000 2.1 30 01:58 15.08.2019
3669 Clouds 22 1018 100 7000 3.1 10 01:38 15.08.2019
3670 Clear 22 1017 100 8000 4.1 320 00:42 15.08.2019
3671 Clear 22 1017 100 8000 4.1 320 00:22 15.08.2019
3672 Clear 22 1017 100 10000 4.1 340 23:59 14.08.2019
3673 Clear 22 1017 94 10000 2.1 350 23:40 14.08.2019
3674 Clear 22 1017 94 10000 2.1 350 23:20 14.08.2019
3675 Clear 23 1017 88 10000 4.6 340 22:59 14.08.2019
3676 Clear 23 1015 78 10000 3.1 360 22:40 14.08.2019
3677 Clear 23 1015 78 10000 3.1 360 22:21 14.08.2019
3678 Clear 24 1016 69 10000 4.6 340 21:57 14.08.2019
3679 Clear 24 1015 78 10000 3.1 340 21:38 14.08.2019
3680 Clear 24 1015 78 10000 3.1 340 21:19 14.08.2019
3681 Clear 26 1015 73 10000 3.1 340 20:42 14.08.2019
3682 Clear 26 1015 73 10000 3.1 340 20:23 14.08.2019
3683 Clear 26 1015 54 10000 4.1 340 19:59 14.08.2019
3684 Clear 27 1015 73 10000 3.6 360 19:39 14.08.2019
3685 Clear 28 1015 54 10000 5.1 340 19:21 14.08.2019
3686 Clear 28 1015 54 10000 5.1 340 18:57 14.08.2019
3687 Clear 28 1015 69 10000 5.1 340 18:38 14.08.2019
3688 Clear 28 1015 69 10000 5.1 340 18:20 14.08.2019
3689 Clear 28 1015 51 10000 5.1 330 17:56 14.08.2019
3690 Clouds 28 1015 69 10000 6.2 360 17:37 14.08.2019
3691 Clouds 28 1015 69 10000 6.2 360 17:19 14.08.2019
3692 Clouds 29 1015 69 10000 7.2 340 16:43 14.08.2019
3693 Clouds 29 1015 69 10000 7.2 340 16:21 14.08.2019
3694 Clouds 29 1015 69 10000 7.2 340 16:21 14.08.2019
3695 Clear 29 1016 55 10000 5.7 340 15:59 14.08.2019
3696 Clouds 29 1016 69 10000 5.1 300 15:40 14.08.2019
3697 Clear 29 1016 55 10000 5.1 320 15:18 14.08.2019
3698 Clouds 29 1016 69 10000 6.2 320 14:41 14.08.2019
3699 Clouds 29 1016 69 10000 6.2 320 14:19 14.08.2019
3700 Clear 29 1016 58 10000 4.1 320 13:59 14.08.2019
3701 Clouds 28 1016 69 10000 4.1 300 13:41 14.08.2019
3702 Clouds 28 1016 69 10000 4.1 300 13:22 14.08.2019
3703 Clouds 28 1016 69 10000 4.1 300 13:22 14.08.2019
3704 Clouds 28 1016 69 10000 4.1 300 13:22 14.08.2019
3705 Clear 27 1017 65 10000 3.1 350 12:56 14.08.2019
3706 Clouds 27 1016 73 8000 5.1 50 12:38 14.08.2019
3707 Clouds 27 1016 73 8000 5.1 50 12:20 14.08.2019
3708 Clouds 25 1016 78 10000 4.1 320 11:47 14.08.2019
3709 Clouds 25 1016 78 10000 4.1 320 11:23 14.08.2019
3710 Clear 23 1017 73 10000 1.5 60 10:59 14.08.2019
3711 Clear 23 1016 83 8000 1 300 10:39 14.08.2019
3712 Clear 23 1016 83 8000 1 300 10:39 14.08.2019
3713 Clear 23 1016 83 8000 1 300 10:21 14.08.2019
3714 Mist 19 1016 94 6000 1 300 09:45 14.08.2019
3715 Mist 19 1016 94 6000 1 300 09:22 14.08.2019
3716 Clouds 18 1016 100 8000 2.1 120 08:49 14.08.2019
3717 Clear 18 1015 88 6000 1 300 08:30 14.08.2019
3718 Mist 17 1016 100 4000 2.16 9.047 07:57 14.08.2019
3719 Clear 17 1016 100 8000 2.16 9.047 07:39 14.08.2019
3720 Clear 17 1016 100 8000 2.16 9.047 07:20 14.08.2019
3721 Clear 18 1016 100 10000 2.16 9.047 06:43 14.08.2019
3722 Clear 17 1016 100 10000 4.33 29.687 05:47 14.08.2019
3723 Clear 18 1016 100 7000 4.33 29.687 04:45 14.08.2019
3724 Clear 19 1017 100 10000 1.5 50 02:47 14.08.2019
3725 Clear 19 1017 100 10000 1.5 50 02:25 14.08.2019
3726 Clear 19 1017 100 10000 2.1 50 01:34 14.08.2019
3727 Clear 20 1017 100 10000 4.1 20 00:48 14.08.2019
3728 Clear 22 1017 100 10000 4.1 20 23:47 13.08.2019
3729 Clear 22 1017 100 10000 4.1 20 23:21 13.08.2019
3730 Clear 22 1016 88 10000 5.1 10 22:57 13.08.2019
3731 Clouds 22 1015 83 10000 6.2 60 22:39 13.08.2019
3732 Clouds 22 1015 83 10000 6.2 60 22:20 13.08.2019
3733 Clouds 23 1015 83 10000 6.2 60 21:56 13.08.2019
3734 Clouds 23 1015 83 10000 6.2 60 21:37 13.08.2019
3735 Clear 24 1015 65 10000 6.7 360 21:18 13.08.2019
3736 Clouds 25 1015 78 10000 7.2 20 20:44 13.08.2019
3737 Clouds 25 1015 78 10000 7.2 20 20:20 13.08.2019
3738 Clear 25 1015 57 10000 7.2 360 19:58 13.08.2019
3739 Clear 26 1015 78 10000 7.2 20 19:40 13.08.2019
3740 Clear 26 1015 78 10000 7.2 20 19:21 13.08.2019
3741 Clear 26 1015 69 10000 7.2 20 18:42 13.08.2019
3742 Clear 26 1015 69 10000 7.2 20 18:22 13.08.2019
3743 Clear 26 1015 48 10000 7.7 350 17:58 13.08.2019
3744 Clear 26 1015 69 10000 7.2 360 17:39 13.08.2019
3745 Clear 26 1015 69 10000 7.2 360 17:19 13.08.2019
3746 Clear 26 1015 51 10000 8.2 350 16:56 13.08.2019
3747 Clear 26 1016 61 10000 7.2 20 16:37 13.08.2019
3748 Clear 27 1016 61 10000 7.2 20 16:19 13.08.2019
3749 Clear 26 1016 65 10000 4.1 340 15:39 13.08.2019
3750 Clear 26 1016 65 10000 4.1 340 15:20 13.08.2019
3751 Clear 26 1016 65 10000 4.1 340 15:20 13.08.2019
3752 Clear 26 1016 48 10000 7.2 350 14:55 13.08.2019
3753 Clear 26 1016 65 10000 4.1 20 14:37 13.08.2019
3754 Clear 26 1016 45 10000 5.7 350 14:18 13.08.2019
3755 Clear 26 1016 65 10000 4.1 360 13:41 13.08.2019
3756 Clear 26 1016 65 10000 4.1 360 13:21 13.08.2019
3757 Clear 25 1017 37 10000 2.6 0 12:58 13.08.2019
3758 Clear 25 1016 65 10000 4.1 360 12:39 13.08.2019
3759 Clear 25 1016 65 10000 4.1 360 12:21 13.08.2019
3760 Clear 24 1017 47 10000 3.1 0 11:56 13.08.2019
3761 Clear 23 1016 73 10000 5.1 360 11:37 13.08.2019
3762 Clear 22 1017 73 8000 1.5 50 11:18 13.08.2019
3763 Clear 22 1017 73 8000 1.5 50 10:55 13.08.2019
3764 Clear 22 1016 78 10000 2.1 360 10:36 13.08.2019
3765 Clouds 20 1017 100 10000 2.1 20 10:18 13.08.2019
3766 Clear 19 1016 82 10000 1 140 09:41 13.08.2019
3767 Clear 19 1016 82 10000 1 140 09:22 13.08.2019
3768 Clear 17 1016 88 10000 1 180 08:42 13.08.2019
3769 Clear 17 1016 88 10000 1 180 08:22 13.08.2019
3770 Clouds 17 1016 93 6000 1.5 340 07:56 13.08.2019
3771 Clouds 16 1016 93 8000 1.5 10 07:32 13.08.2019
3772 Clouds 16 1016 93 10000 2.6 20 06:46 13.08.2019
3773 Clouds 19 1016 93 10000 2.6 20 06:23 13.08.2019
3774 Clouds 19 1018 100 10000 2.6 30 05:33 13.08.2019
3775 Clouds 20 1017 94 10000 3.1 30 02:38 13.08.2019
3776 Clouds 20 1017 94 10000 3.6 30 01:58 13.08.2019
3777 Clouds 20 1018 94 10000 4.6 30 00:55 13.08.2019
3778 Clouds 20 1018 94 10000 4.6 20 00:36 13.08.2019
3779 Clouds 20 1018 94 10000 5.1 20 23:49 12.08.2019
3780 Clouds 21 1018 94 10000 5.1 20 23:24 12.08.2019
3781 Clouds 21 1017 94 10000 5.1 10 22:57 12.08.2019
3782 Clouds 21 1016 73 10000 6.2 20 22:38 12.08.2019
3783 Clouds 21 1016 73 10000 6.2 20 22:19 12.08.2019
3784 Clouds 22 1017 83 10000 5.1 10 21:55 12.08.2019
3785 Clouds 22 1016 73 10000 7.2 20 21:36 12.08.2019
3786 Clear 22 1016 69 10000 6.7 10 21:18 12.08.2019
3787 Clear 23 1016 69 10000 6.7 10 20:55 12.08.2019
3788 Clouds 23 1016 73 10000 8.2 20 20:36 12.08.2019
3789 Clear 23 1015 57 10000 8.2 10 20:18 12.08.2019
3790 Clear 24 1015 57 10000 8.2 10 19:54 12.08.2019
3791 Clear 24 1015 57 10000 8.2 10 19:54 12.08.2019
3792 Clouds 24 1015 69 10000 8.2 20 19:36 12.08.2019
3793 Clear 24 1015 50 10000 8.2 10 19:18 12.08.2019
3794 Clouds 25 1015 64 10000 9.8 20 18:41 12.08.2019
3795 Clouds 25 1015 64 10000 9.8 20 18:21 12.08.2019
3796 Clear 25 1015 54 10000 8.2 10 17:56 12.08.2019
3797 Clear 25 1015 54 10000 8.2 10 17:56 12.08.2019
3798 Clear 25 1016 64 10000 9.3 360 17:38 12.08.2019
3799 Clear 25 1016 64 10000 9.3 360 17:20 12.08.2019
3800 Clear 25 1016 51 10000 8.7 360 16:55 12.08.2019
3801 Clear 25 1016 69 10000 9.8 20 16:37 12.08.2019
3802 Clear 25 1016 47 10000 8.2 10 16:18 12.08.2019
3803 Clear 26 1017 61 10000 7.7 40 15:42 12.08.2019
3804 Clear 26 1017 61 10000 7.7 40 15:41 12.08.2019
3805 Clear 26 1017 61 10000 7.7 40 15:41 12.08.2019
3806 Clear 26 1017 61 10000 7.7 40 15:21 12.08.2019
3807 Clear 25 1017 45 10000 8.2 20 14:57 12.08.2019
3808 Clear 25 1017 64 10000 9.8 20 14:39 12.08.2019
3809 Clear 25 1017 64 10000 9.8 20 14:20 12.08.2019
3810 Clear 25 1017 64 10000 9.8 20 14:20 12.08.2019
3811 Clear 25 1018 61 10000 7.2 40 13:47 12.08.2019
3812 Clear 25 1018 61 10000 7.2 40 13:47 12.08.2019
3813 Clear 25 1018 61 10000 7.2 40 13:24 12.08.2019
3814 Clear 24 1018 44 10000 6.2 30 12:59 12.08.2019
3815 Clear 24 1018 60 10000 7.2 40 12:41 12.08.2019
3816 Clear 24 1018 53 10000 6.2 40 12:19 12.08.2019
3817 -273 0 0 0 0 0 11:43 12.08.2019
3818 Clouds 23 1018 64 10000 5.7 40 11:43 12.08.2019
3819 Clouds 23 1018 64 10000 5.7 40 11:25 12.08.2019
3820 Clouds 22 1017 83 8000 4.1 40 10:43 12.08.2019
3821 Clouds 21 1017 83 8000 4.1 40 10:24 12.08.2019
3822 Clouds 20 1017 100 10000 3.6 60 09:57 12.08.2019
3823 Clear 20 1017 88 5000 1.5 40 09:38 12.08.2019
3824 Clear 20 1017 88 5000 1.5 40 09:20 12.08.2019
3825 Clouds 20 1017 100 10000 2.1 30 08:58 12.08.2019
3826 Clear 20 1017 83 5000 3.1 60 08:39 12.08.2019
3827 Clear 20 1017 83 5000 3.1 60 08:21 12.08.2019
3828 Clouds 19 1017 100 10000 3.1 30 07:53 12.08.2019
3829 Clouds 19 1017 100 10000 3.6 40 07:33 12.08.2019
3830 Clouds 18 1017 100 10000 3.1 40 06:52 12.08.2019
3831 Clouds 20 1017 100 10000 3.6 30 05:41 12.08.2019
3832 Clouds 20 1019 88 10000 5.1 30 02:45 12.08.2019
3833 Clouds 20 1019 88 10000 5.1 30 01:55 12.08.2019
3834 Clear 20 1019 88 10000 5.1 20 01:22 12.08.2019
3835 Clear 20 1019 88 10000 5.1 20 00:58 12.08.2019
3836 Clear 20 1019 83 10000 5.7 20 00:39 12.08.2019
3837 Clear 20 1019 83 10000 5.7 20 00:20 12.08.2019
3838 Clear 21 1019 83 10000 5.7 20 23:56 11.08.2019
3839 Clear 21 1019 88 10000 5.7 20 23:37 11.08.2019
3840 Clear 21 1019 88 10000 5.7 20 23:18 11.08.2019
3841 Clouds 21 1019 73 10000 6.2 20 22:40 11.08.2019
3842 Clouds 21 1019 73 10000 6.2 20 22:20 11.08.2019
3843 Clear 22 1019 78 10000 6.7 10 21:59 11.08.2019
3844 Clouds 22 1018 73 10000 7.2 20 21:41 11.08.2019
3845 Clouds 22 1018 73 10000 7.2 20 21:22 11.08.2019
3846 Clear 23 1018 64 10000 7.7 20 20:58 11.08.2019
3847 Clear 23 1018 64 10000 6.2 20 20:40 11.08.2019
3848 Clear 23 1018 64 10000 6.2 20 20:22 11.08.2019
3849 Clear 24 1018 64 10000 10.8 20 19:45 11.08.2019
3850 Clear 24 1018 64 10000 10.8 20 19:20 11.08.2019
3851 Clear 24 1018 57 10000 8.7 30 18:54 11.08.2019
3852 Clear 25 1018 60 10000 9.8 20 18:36 11.08.2019
3853 Clear 25 1017 47 10000 9.3 20 18:18 11.08.2019
3854 Clear 25 1018 61 10000 9.8 20 17:41 11.08.2019
3855 Clear 25 1018 61 10000 9.8 20 17:20 11.08.2019
3856 Clear 25 1018 57 10000 9.8 10 16:57 11.08.2019
3857 Clouds 25 1020 73 10000 6.2 20 16:38 11.08.2019
3858 Clouds 25 1020 73 10000 6.2 20 16:20 11.08.2019
3859 Clouds 25 1018 69 10000 6.2 20 15:44 11.08.2019
3860 Clouds 25 1018 69 10000 6.2 20 15:44 11.08.2019
3861 Clouds 25 1018 69 10000 6.2 20 15:25 11.08.2019
3862 Clear 25 1018 65 10000 8.7 10 14:59 11.08.2019
3863 Clouds 25 1019 73 10000 9.8 20 14:39 11.08.2019
3864 Clouds 25 1019 73 10000 9.8 20 14:21 11.08.2019
3865 Clear 25 1019 74 10000 6.7 20 13:45 11.08.2019
3866 -273 0 0 0 0 0 13:26 11.08.2019
3867 Clouds 25 1020 69 10000 4.6 20 12:57 11.08.2019
3868 Clouds 24 1020 73 10000 6.7 20 12:37 11.08.2019
3869 Clouds 24 1020 78 10000 5.1 20 12:19 11.08.2019
3870 Clouds 23 1019 73 10000 7.7 20 11:40 11.08.2019
3871 Clouds 23 1019 73 10000 7.7 20 11:22 11.08.2019
3872 Clouds 23 1019 83 10000 5.7 30 10:55 11.08.2019
3873 Clouds 22 1019 78 6000 5.7 20 10:37 11.08.2019
3874 Clouds 22 1019 78 6000 5.7 20 10:19 11.08.2019
3875 Clouds 21 1019 83 6000 4.6 360 09:43 11.08.2019
3876 Clouds 20 1019 83 6000 4.6 360 09:24 11.08.2019
3877 Clouds 20 1019 100 10000 2.6 10 08:49 11.08.2019
3878 Clouds 20 1018 83 6000 3.1 360 08:30 11.08.2019
3879 Clouds 20 1019 100 10000 3.1 10 07:59 11.08.2019
3880 Clouds 20 1018 100 10000 2.6 10 07:31 11.08.2019
3881 Clear 20 1019 100 0 1 70 06:46 11.08.2019
3882 Clear 20 1019 100 0 1 70 06:28 11.08.2019
3883 Clouds 21 1018 100 10000 4.1 20 04:40 11.08.2019
3884 Clouds 21 1019 94 10000 5.47 26.537 02:50 11.08.2019
3885 Clouds 21 1020 100 10000 4.6 20 01:57 11.08.2019
3886 Clouds 22 1020 100 10000 4.6 10 01:31 11.08.2019
3887 Clouds 22 1020 94 10000 5.1 20 00:56 11.08.2019
3888 Clouds 22 1020 94 10000 5.7 20 00:35 11.08.2019
3889 Clouds 22 1020 94 10000 5.7 20 23:50 10.08.2019
3890 Clouds 22 1020 94 10000 5.7 20 23:50 10.08.2019
3891 Clouds 22 1020 100 10000 6.2 10 23:30 10.08.2019
3892 Clouds 22 1019 94 10000 6.7 10 22:56 10.08.2019
3893 Clouds 22 1018 78 10000 5.1 20 22:36 10.08.2019
3894 Clouds 23 1018 94 10000 8.7 350 22:18 10.08.2019
3895 Clouds 23 1019 78 10000 5.1 20 21:40 10.08.2019
3896 -273 0 0 0 0 0 21:21 10.08.2019
3897 -273 0 0 0 0 0 21:21 10.08.2019
3898 Clouds 25 1018 78 10000 6.7 360 20:57 10.08.2019
3899 Clouds 25 1018 78 10000 5.1 20 20:39 10.08.2019
3900 Clouds 25 1018 78 10000 5.1 20 20:19 10.08.2019
3901 Clouds 26 1017 73 10000 7.2 40 19:44 10.08.2019
3902 Clouds 26 1017 73 10000 7.2 40 19:25 10.08.2019
3903 Clouds 26 1017 73 10000 8.2 20 18:43 10.08.2019
3904 Clouds 26 1017 73 10000 8.2 20 18:25 10.08.2019
3905 Clouds 26 1017 61 10000 8.2 10 17:57 10.08.2019
3906 Clouds 26 1017 73 10000 8.2 20 17:38 10.08.2019
3907 Clouds 26 1017 73 10000 8.2 20 17:19 10.08.2019
3908 Clouds 26 1018 73 10000 7.2 20 16:43 10.08.2019
3909 Clouds 26 1018 73 10000 7.2 20 16:24 10.08.2019
3910 Clouds 26 1019 65 10000 7.2 20 15:48 10.08.2019
3911 Clouds 26 1019 65 10000 7.2 20 15:22 10.08.2019
3912 Clouds 26 1019 69 10000 6.2 360 14:44 10.08.2019
3913 Clouds 26 1019 69 10000 6.2 360 14:44 10.08.2019
3914 Clouds 26 1019 69 10000 6.2 360 14:21 10.08.2019
3915 Clouds 26 1019 69 10000 7.2 20 13:41 10.08.2019
3916 Clouds 26 1019 69 10000 7.2 20 13:20 10.08.2019
3917 Clouds 24 1019 69 10000 6.13 20.793 12:55 10.08.2019
3918 Clouds 24 1019 83 10000 7.2 20 12:37 10.08.2019
3919 Clouds 24 1019 78 10000 5.7 30 12:18 10.08.2019
3920 Clouds 24 1019 73 10000 6.2 20 11:42 10.08.2019
3921 Clouds 24 1019 73 10000 6.2 20 11:22 10.08.2019
3922 Clouds 24 1019 83 10000 6.7 20 10:56 10.08.2019
3923 Clouds 24 1019 73 10000 3.1 40 10:37 10.08.2019
3924 Clouds 24 1019 73 10000 3.1 40 10:19 10.08.2019
3925 Clouds 23 1019 78 10000 3.1 40 09:42 10.08.2019
3926 Clouds 23 1019 78 10000 3.1 40 09:23 10.08.2019
3927 Clouds 22 1018 78 10000 3.1 80 08:42 10.08.2019
3928 Clouds 22 1018 78 10000 3.1 80 08:22 10.08.2019
3929 Clouds 22 1019 94 10000 5.1 40 07:54 10.08.2019
3930 Clouds 22 1018 100 10000 5.7 40 07:29 10.08.2019
3931 Clouds 21 1018 100 10000 5.7 30 06:49 10.08.2019
3932 Clouds 21 1018 100 10000 5.7 30 06:49 10.08.2019
3933 Clouds 21 1018 100 10000 5.7 30 06:29 10.08.2019
3934 Clouds 22 1018 100 10000 5.7 30 05:28 10.08.2019
3935 Clouds 21 1018 100 10000 4.1 20 04:53 10.08.2019
3936 Clouds 22 1019 88 10000 5.1 30 03:26 10.08.2019
3937 Clouds 22 1020 88 10000 2.6 30 02:28 10.08.2019
3938 Clouds 22 1020 88 10000 4.1 10 01:43 10.08.2019
3939 Clouds 22 1020 88 10000 4.1 10 01:23 10.08.2019
3940 Clouds 22 1020 83 10000 4.1 20 00:53 10.08.2019
3941 Clouds 22 1020 83 10000 4.1 30 00:27 10.08.2019
3942 Clouds 22 1020 94 10000 3.6 30 23:59 09.08.2019
3943 Clouds 22 1020 94 10000 3.1 30 23:38 09.08.2019
3944 Clouds 23 1020 94 10000 3.1 30 23:19 09.08.2019
3945 Clouds 23 1019 78 10000 4.6 20 22:40 09.08.2019
3946 Clouds 23 1019 78 10000 4.6 20 22:40 09.08.2019
3947 Clouds 23 1019 78 10000 4.6 20 22:22 09.08.2019
3948 Clouds 23 1019 83 10000 4.1 10 21:57 09.08.2019
3949 Clouds 23 1019 78 10000 5.1 20 21:39 09.08.2019
3950 Clouds 23 1019 78 10000 5.1 20 21:21 09.08.2019
3951 Clouds 23 1019 78 10000 5.1 20 21:21 09.08.2019
3952 Clouds 24 1018 73 10000 6.2 20 20:56 09.08.2019
3953 Clouds 24 1018 73 10000 6.2 20 20:38 09.08.2019
3954 Clouds 25 1017 69 10000 7.2 20 20:18 09.08.2019
3955 Clouds 25 1017 73 10000 7.2 20 19:41 09.08.2019
3956 Clouds 25 1017 73 10000 7.2 20 19:22 09.08.2019
3957 Clouds 25 1017 73 10000 8.7 20 18:42 09.08.2019
3958 Clouds 25 1017 73 10000 8.7 20 18:23 09.08.2019
3959 Clouds 26 1017 61 10000 8.2 10 17:59 09.08.2019
3960 Clouds 26 1018 69 10000 8.7 20 17:41 09.08.2019
3961 Clouds 26 1018 69 10000 8.7 20 17:23 09.08.2019
3962 -273 0 0 0 0 0 16:54 09.08.2019
3963 Clouds 26 1018 65 10000 8.2 20 16:36 09.08.2019
3964 Clear 27 1018 54 10000 6.7 10 16:18 09.08.2019
3965 Clouds 26 1019 69 10000 8.7 90 15:41 09.08.2019
3966 Clouds 26 1019 69 10000 8.7 90 15:21 09.08.2019
3967 Clear 26 1018 54 10000 6.2 20 14:57 09.08.2019
3968 Clear 26 1018 54 10000 6.2 20 14:56 09.08.2019
3969 Clear 26 1018 54 10000 6.2 20 14:56 09.08.2019
3970 Clouds 26 1019 69 10000 8.2 360 14:37 09.08.2019
3971 Clouds 26 1019 69 10000 8.2 360 14:19 09.08.2019
3972 Clear 27 1019 69 10000 6.7 360 13:43 09.08.2019
3973 Clear 26 1019 69 10000 6.7 360 13:20 09.08.2019
3974 Clouds 25 1019 69 10000 4.1 360 12:47 09.08.2019
3975 Clouds 25 1019 69 10000 4.1 360 12:24 09.08.2019
3976 Clouds 25 1019 78 10000 4.1 10 11:59 09.08.2019
3977 Clouds 25 1018 69 10000 3.6 20 11:37 09.08.2019
3978 Clouds 24 1018 69 10000 3.6 20 11:19 09.08.2019
3979 Clouds 23 1018 78 10000 2.6 60 10:41 09.08.2019
3980 Clouds 22 1018 78 10000 2.6 60 10:22 09.08.2019
3981 -273 0 0 0 0 0 09:46 09.08.2019
3982 Clouds 21 1018 83 10000 3.1 60 09:20 09.08.2019
3983 Clouds 21 1018 100 10000 3.6 60 08:59 09.08.2019
3984 Clouds 21 1017 83 10000 3.1 40 08:40 09.08.2019
3985 Clouds 21 1017 83 10000 3.1 40 08:21 09.08.2019
3986 Clear 21 1018 100 0 3.1 20 07:53 09.08.2019
3987 Clear 21 1018 100 0 3.1 20 07:24 09.08.2019
3988 Clouds 21 1018 100 9000 3.25 40.798 06:56 09.08.2019
3989 Clouds 21 1018 100 9000 3.25 40.798 06:33 09.08.2019
3990 Clouds 21 1018 100 8000 3.6 40 05:58 09.08.2019
3991 Clear 21 1018 100 7000 2.1 10 04:25 09.08.2019
3992 Clear 21 1018 100 10000 3.1 350 02:18 09.08.2019
3993 Clear 21 1018 100 10000 3.6 340 00:56 09.08.2019
3994 Clear 21 1018 100 10000 3.1 340 00:38 09.08.2019
3995 Clear 22 1018 100 10000 4.1 340 00:20 09.08.2019
3996 Clear 22 1018 100 10000 3.1 10 23:38 08.08.2019
3997 Clear 22 1018 100 10000 3.1 10 23:20 08.08.2019
3998 Clear 22 1017 100 10000 4.1 340 22:59 08.08.2019
3999 Clear 22 1017 100 10000 4.1 340 22:59 08.08.2019
4000 Clouds 22 1016 83 10000 4.1 20 22:37 08.08.2019
4001 Clouds 22 1016 83 10000 4.1 20 22:37 08.08.2019
4002 Clear 23 1016 83 10000 4.1 10 22:19 08.08.2019
4003 Clear 23 1016 83 10000 4.1 10 21:58 08.08.2019
4004 Clear 23 1016 83 10000 4.1 10 21:58 08.08.2019
4005 Clouds 23 1016 78 10000 4.6 20 21:40 08.08.2019
4006 Clouds 23 1016 78 10000 4.6 20 21:21 08.08.2019
4007 Clear 24 1015 78 10000 4.6 20 20:55 08.08.2019
4008 Clouds 24 1015 83 10000 7.7 20 20:36 08.08.2019
4009 Clear 25 1015 74 10000 4.96 15.495 20:18 08.08.2019
4010 Clouds 25 1015 78 10000 7.2 20 19:42 08.08.2019
4011 Clouds 25 1015 78 10000 7.2 20 19:21 08.08.2019
4012 Clouds 26 1014 78 10000 8.7 360 18:43 08.08.2019
4013 Clouds 26 1014 78 10000 8.7 360 18:23 08.08.2019
4014 Clear 27 1014 58 10000 7.7 350 17:58 08.08.2019
4015 Clouds 27 1015 69 10000 8.7 340 17:39 08.08.2019
4016 Clouds 27 1015 69 10000 8.7 340 17:21 08.08.2019
4017 Clouds 27 1015 69 10000 7.2 20 16:43 08.08.2019
4018 Clouds 27 1015 69 10000 7.2 20 16:43 08.08.2019
4019 Clouds 27 1015 69 10000 7.2 20 16:25 08.08.2019
4020 Clear 27 1015 48 10000 5.7 30 15:59 08.08.2019
4021 Clear 27 1015 48 10000 5.7 30 15:59 08.08.2019
4022 Clouds 27 1015 69 10000 6.7 20 15:41 08.08.2019
4023 Clouds 27 1015 69 10000 6.7 20 15:22 08.08.2019
4024 Clouds 27 1015 69 10000 7.7 360 14:42 08.08.2019
4025 Clouds 27 1015 69 10000 7.7 360 14:23 08.08.2019
4026 Clear 27 1015 62 10000 5.1 10 13:59 08.08.2019
4027 Clear 27 1015 69 8000 6.7 20 13:39 08.08.2019
4028 Clear 26 1015 51 10000 4.1 20 13:18 08.08.2019
4029 Clear 26 1015 51 10000 4.1 20 13:18 08.08.2019
4030 Clear 26 1015 69 8000 2.1 20 12:40 08.08.2019
4031 Clear 26 1015 69 8000 2.1 20 12:20 08.08.2019
4032 Clear 25 1015 74 10000 4.1 30 11:56 08.08.2019
4033 Clouds 24 1015 73 8000 4.6 40 11:37 08.08.2019
4034 Clouds 24 1015 73 8000 4.6 40 11:19 08.08.2019
4035 Clouds 23 1015 78 8000 4.6 60 10:41 08.08.2019
4036 Clouds 23 1015 78 8000 4.6 60 10:41 08.08.2019
4037 Clouds 23 1015 78 8000 4.6 60 10:21 08.08.2019
4038 Clouds 22 1014 83 6000 4.1 80 09:49 08.08.2019
4039 Clouds 21 1014 83 6000 4.1 80 09:30 08.08.2019
4040 Clouds 21 1015 94 5000 4.1 50 08:57 08.08.2019
4041 Mist 21 1014 88 5000 5.1 60 08:37 08.08.2019
4042 Mist 21 1015 94 4000 4.1 40 08:18 08.08.2019
4043 Clouds 21 1015 94 8000 3.6 30 07:40 08.08.2019
4044 Clouds 21 1015 94 8000 3.6 30 07:19 08.08.2019
4045 Clouds 20 1015 94 8000 2.1 30 06:47 08.08.2019
4046 Clouds 21 1015 94 8000 2.1 30 06:26 08.08.2019
4047 Clouds 21 1015 94 8000 2.1 20 05:52 08.08.2019
4048 Clouds 21 1015 94 8000 2.6 20 04:53 08.08.2019
4049 Clouds 22 1015 94 8000 3.1 50 03:52 08.08.2019
4050 Clouds 22 1016 94 8000 3.1 40 02:21 08.08.2019
4051 Clouds 22 1017 94 10000 4.1 10 01:35 08.08.2019
4052 Clouds 22 1017 94 10000 3.1 20 00:26 08.08.2019
4053 Clear 22 1016 94 10000 4.1 10 23:46 07.08.2019
4054 Clear 22 1016 94 10000 4.1 10 23:19 07.08.2019
4055 Clear 22 1016 94 10000 4.6 350 22:56 07.08.2019
4056 Clouds 22 1016 78 10000 6.2 20 22:38 07.08.2019
4057 Clouds 22 1016 78 10000 6.2 20 22:19 07.08.2019
4058 Clear 23 1016 88 10000 4.6 360 21:55 07.08.2019
4059 Clouds 23 1016 83 10000 6.2 20 21:36 07.08.2019
4060 Clear 24 1016 73 10000 4.6 10 21:18 07.08.2019
4061 Clouds 24 1015 73 10000 6.2 20 20:42 07.08.2019
4062 Clouds 24 1015 73 10000 6.2 20 20:23 07.08.2019
4063 Clear 25 1015 65 10000 5.1 360 19:57 07.08.2019
4064 Clouds 25 1015 73 10000 6.2 20 19:38 07.08.2019
4065 Clouds 25 1015 73 10000 6.2 20 19:20 07.08.2019
4066 Clouds 26 1015 73 10000 7.2 340 18:43 07.08.2019
4067 Clouds 26 1015 73 10000 7.2 340 18:21 07.08.2019
4068 Clear 26 1015 58 10000 6.2 10 17:58 07.08.2019
4069 Clouds 26 1015 69 10000 7.2 360 17:39 07.08.2019
4070 Clouds 26 1015 69 10000 7.2 360 17:21 07.08.2019
4071 Clear 26 1015 58 10000 6.7 350 16:57 07.08.2019
4072 Clouds 26 1015 69 10000 5.1 20 16:39 07.08.2019
4073 Clouds 26 1015 69 10000 5.1 20 16:20 07.08.2019
4074 Clear 26 1015 54 10000 6.2 350 15:56 07.08.2019
4075 Clouds 26 1015 69 10000 6.2 20 15:37 07.08.2019
4076 Clouds 26 1015 69 10000 6.2 20 15:19 07.08.2019
4077 Clouds 26 1015 69 10000 5.1 20 14:45 07.08.2019
4078 Clouds 26 1015 69 10000 5.1 20 14:27 07.08.2019
4079 Clear 25 1015 61 10000 6.2 320 13:54 07.08.2019
4080 Clouds 25 1016 69 10000 6.2 40 13:36 07.08.2019
4081 Clouds 25 1016 69 10000 4.1 20 13:18 07.08.2019
4082 Clouds 25 1016 69 10000 4.1 20 12:55 07.08.2019
4083 Clouds 25 1015 73 10000 5.1 40 12:36 07.08.2019
4084 Clouds 24 1015 83 10000 3.1 340 12:18 07.08.2019
4085 Clouds 24 1015 73 10000 4.1 360 11:41 07.08.2019
4086 Clouds 24 1015 73 10000 4.1 360 11:20 07.08.2019
4087 Clear 23 1015 88 10000 5.1 30 10:56 07.08.2019
4088 Clouds 23 1014 73 10000 4.1 360 10:38 07.08.2019
4089 Clouds 22 1015 94 10000 2.6 0 10:18 07.08.2019
4090 Clouds 21 1014 88 10000 5.1 360 09:44 07.08.2019
4091 Clouds 21 1014 88 10000 5.1 360 09:22 07.08.2019
4092 Clouds 20 1014 100 10000 2.6 20 08:55 07.08.2019
4093 Clouds 20 1014 94 10000 1.5 40 08:37 07.08.2019
4094 Clouds 21 1015 100 10000 1 0 08:19 07.08.2019
4095 Clouds 21 1015 100 10000 2.1 20 07:39 07.08.2019
4096 Clouds 21 1015 100 10000 2.1 20 07:20 07.08.2019
4097 Clouds 21 1014 100 10000 3.1 50 06:29 07.08.2019
4098 Clouds 21 1015 100 10000 2.1 30 05:49 07.08.2019
4099 Clouds 21 1015 100 7000 3.1 10 04:51 07.08.2019
4100 Clouds 21 1015 94 10000 2.6 360 03:21 07.08.2019
4101 Clouds 21 1015 94 10000 2.6 360 02:44 07.08.2019
4102 Clouds 21 1015 100 10000 3.6 350 01:58 07.08.2019
4103 Clouds 22 1015 100 10000 4.1 360 01:38 07.08.2019
4104 Clouds 22 1016 100 10000 2.6 320 00:39 07.08.2019
4105 Clouds 22 1016 100 10000 2.6 320 00:20 07.08.2019
4106 Clouds 22 1016 94 10000 2.1 330 23:41 06.08.2019
4107 Clouds 22 1016 94 10000 2.1 330 23:21 06.08.2019
4108 Clouds 22 1015 94 10000 4.6 360 22:56 06.08.2019
4109 Clouds 22 1014 78 10000 4.1 20 22:37 06.08.2019
4110 Clouds 22 1015 94 10000 6.7 350 22:18 06.08.2019
4111 Clouds 23 1014 78 10000 5.1 20 21:42 06.08.2019
4112 Clouds 23 1014 78 10000 5.1 20 21:24 06.08.2019
4113 Clear 24 1014 73 10000 6.2 350 20:57 06.08.2019
4114 Clouds 24 1014 73 10000 7.2 20 20:39 06.08.2019
4115 Clouds 24 1014 73 10000 7.2 20 20:21 06.08.2019
4116 Clouds 25 1014 73 10000 5.1 360 19:43 06.08.2019
4117 Clouds 25 1014 73 10000 5.1 360 19:25 06.08.2019
4118 Clouds 26 1014 73 10000 6.2 20 18:46 06.08.2019
4119 Clouds 26 1014 73 10000 6.2 20 18:27 06.08.2019
4120 Clouds 26 1014 69 10000 7.2 20 17:59 06.08.2019
4121 Clouds 26 1014 69 10000 7.2 20 17:40 06.08.2019
4122 Clouds 26 1014 69 10000 7.2 20 17:21 06.08.2019
4123 Clear 26 1014 54 10000 6.2 360 16:59 06.08.2019
4124 Clouds 26 1014 69 10000 7.2 20 16:39 06.08.2019
4125 Clouds 26 1014 69 10000 7.2 20 16:20 06.08.2019
4126 Clear 26 1015 61 10000 4.1 320 15:57 06.08.2019
4127 Clouds 25 1014 61 10000 4.1 20 15:38 06.08.2019
4128 Clouds 25 1014 61 10000 4.1 20 15:19 06.08.2019
4129 Clouds 25 1014 61 10000 4.1 20 15:19 06.08.2019
4130 Clouds 25 1015 69 10000 8.2 340 14:43 06.08.2019
4131 Clouds 25 1015 69 10000 8.2 340 14:25 06.08.2019
4132 Clear 25 1015 69 10000 5.1 330 13:58 06.08.2019
4133 Clear 25 1015 69 10000 5.1 330 13:57 06.08.2019
4134 Clouds 25 1015 69 10000 6.2 320 13:38 06.08.2019
4135 Clouds 25 1015 69 10000 6.2 320 13:20 06.08.2019
4136 Clear 25 1015 61 10000 3.1 340 12:56 06.08.2019
4137 Clear 25 1015 61 10000 3.1 340 12:56 06.08.2019
4138 Clear 25 1015 61 10000 3.1 340 12:56 06.08.2019
4139 Clouds 25 1015 69 10000 5.1 320 12:38 06.08.2019
4140 Clouds 25 1015 69 10000 5.1 320 12:19 06.08.2019
4141 Clouds 24 1015 69 10000 4.1 60 11:41 06.08.2019
4142 Clouds 23 1015 94 10000 3.1 30 11:18 06.08.2019
4143 Clouds 23 1015 94 10000 3.1 30 11:18 06.08.2019
4144 Clouds 22 1015 73 10000 2.1 60 10:41 06.08.2019
4145 Clouds 22 1015 73 10000 2.1 60 10:22 06.08.2019
4146 Clear 21 1014 83 10000 2.1 60 09:49 06.08.2019
4147 Clear 21 1014 83 10000 2.1 60 09:24 06.08.2019
4148 Clouds 20 1015 94 10000 2.6 20 08:57 06.08.2019
4149 Clear 20 1015 82 10000 2.1 360 08:38 06.08.2019
4150 Clear 20 1015 82 10000 2.1 360 08:20 06.08.2019
4151 Clouds 20 1015 94 10000 3.1 20 07:36 06.08.2019
4152 Clouds 20 1015 100 10000 2.6 50 06:51 06.08.2019
4153 Clouds 20 1015 94 10000 3.1 20 06:29 06.08.2019
4154 Clouds 21 1015 94 10000 3.1 10 05:48 06.08.2019
4155 Clouds 21 1016 100 10000 2.6 20 03:44 06.08.2019
4156 Clouds 21 1017 94 10000 3.6 350 01:51 06.08.2019
4157 Clouds 21 1016 94 10000 3.6 350 01:22 06.08.2019
4158 Clouds 22 1017 94 10000 3.6 360 00:29 06.08.2019
4159 Clouds 21 1016 94 10000 4.6 340 23:44 05.08.2019
4160 Clear 22 1016 94 10000 5.1 330 23:18 05.08.2019
4161 Clouds 22 1015 78 10000 4.1 340 22:40 05.08.2019
4162 Clouds 22 1015 78 10000 4.1 340 22:22 05.08.2019
4163 Clear 23 1015 78 10000 6.2 340 21:54 05.08.2019
4164 Clouds 23 1015 78 10000 3.6 360 21:36 05.08.2019
4165 Clear 24 1015 65 10000 5.1 340 21:18 05.08.2019
4166 Clouds 24 1015 73 10000 4.1 360 20:42 05.08.2019
4167 Clouds 25 1015 73 10000 4.1 360 20:24 05.08.2019
4168 Clear 25 1015 57 10000 5.7 350 19:59 05.08.2019
4169 Clouds 25 1015 73 10000 6.7 360 19:39 05.08.2019
4170 Clouds 25 1015 73 10000 6.7 360 19:39 05.08.2019
4171 Clouds 25 1015 73 10000 6.7 360 19:20 05.08.2019
4172 Clouds 25 1015 69 10000 7.2 360 18:45 05.08.2019
4173 Clouds 25 1015 69 10000 7.2 360 18:22 05.08.2019
4174 Clear 25 1015 61 10000 7.2 330 17:58 05.08.2019
4175 Clouds 25 1015 69 10000 7.2 360 17:40 05.08.2019
4176 Clouds 25 1015 69 10000 7.2 360 17:22 05.08.2019
4177 Clouds 26 1015 69 10000 5.7 360 16:45 05.08.2019
4178 Clouds 26 1015 69 10000 5.7 360 16:24 05.08.2019
4179 Clouds 25 1015 69 10000 5.1 20 15:44 05.08.2019
4180 Clouds 25 1015 69 10000 5.1 20 15:21 05.08.2019
4181 Clear 25 1016 61 10000 5.1 340 14:55 05.08.2019
4182 Clouds 25 1016 69 10000 7.2 360 14:37 05.08.2019
4183 Clouds 25 1016 69 10000 7.2 360 14:19 05.08.2019
4184 Clouds 25 1016 69 10000 5.1 320 13:40 05.08.2019
4185 Clouds 25 1016 69 10000 5.1 320 13:20 05.08.2019
4186 Clouds 24 1016 69 10000 5.1 360 12:44 05.08.2019
4187 Clouds 24 1016 69 10000 5.1 360 12:20 05.08.2019
4188 Clouds 23 1016 78 10000 3.1 300 11:45 05.08.2019
4189 Clouds 23 1016 78 10000 3.1 300 11:45 05.08.2019
4190 Clouds 23 1016 78 10000 3.1 300 11:45 05.08.2019
4191 Clouds 23 1016 78 10000 3.1 300 11:26 05.08.2019
4192 Clouds 22 1017 94 10000 3.6 340 10:50 05.08.2019
4193 Clouds 22 1016 78 10000 4.6 320 10:32 05.08.2019
4194 Clouds 21 1016 88 10000 3.1 20 09:57 05.08.2019
4195 Clouds 21 1016 83 10000 3.1 360 09:39 05.08.2019
4196 Clouds 21 1016 83 10000 3.1 360 09:20 05.08.2019
4197 Clouds 20 1016 83 10000 2.6 360 08:44 05.08.2019
4198 Clouds 20 1016 83 10000 2.6 360 08:25 05.08.2019
4199 Clouds 21 1016 100 10000 3.1 10 07:49 05.08.2019
4200 Clouds 21 1016 100 10000 3.1 10 07:30 05.08.2019
4201 Clouds 21 1016 100 10000 3.1 10 06:58 05.08.2019
4202 Clouds 21 1016 100 10000 3.1 20 06:27 05.08.2019
4203 Clouds 21 1016 100 10000 3.6 20 05:33 05.08.2019
4204 Clouds 21 1016 100 10000 4.1 30 04:55 05.08.2019
4205 Clouds 21 1016 100 10000 3.1 30 03:53 05.08.2019
4206 Clouds 21 1017 100 10000 3.1 20 03:20 05.08.2019
4207 Clouds 22 1017 100 10000 4.1 10 02:21 05.08.2019
4208 Clouds 22 1017 100 10000 3.6 360 01:31 05.08.2019
4209 Clouds 22 1018 94 10000 3.1 360 00:41 05.08.2019
4210 Clouds 22 1018 94 10000 3.1 360 00:21 05.08.2019
4211 Clouds 22 1017 94 10000 4.1 360 23:43 04.08.2019
4212 Clouds 22 1017 94 10000 4.1 360 23:24 04.08.2019
4213 Clouds 22 1017 88 10000 4.6 340 22:58 04.08.2019
4214 Clouds 22 1016 83 10000 4.1 360 22:38 04.08.2019
4215 Clouds 22 1016 83 10000 4.1 360 22:20 04.08.2019
4216 Clouds 22 1016 78 10000 5.1 360 21:59 04.08.2019
4217 Clouds 23 1016 83 10000 4.6 360 21:41 04.08.2019
4218 Clouds 23 1016 83 10000 4.6 360 21:19 04.08.2019
4219 Clouds 24 1015 73 10000 5.7 360 20:42 04.08.2019
4220 Clouds 24 1015 73 10000 5.7 360 20:19 04.08.2019
4221 Clear 24 1015 57 10000 5.7 350 19:55 04.08.2019
4222 Clouds 24 1015 73 10000 6.7 20 19:36 04.08.2019
4223 Clear 25 1015 57 10000 6.2 360 19:18 04.08.2019
4224 Clouds 25 1015 69 10000 6.7 360 18:41 04.08.2019
4225 Clouds 25 1015 69 10000 6.7 360 18:20 04.08.2019
4226 Clouds 25 1015 69 10000 5.1 320 17:44 04.08.2019
4227 Clouds 25 1015 69 10000 5.1 320 17:24 04.08.2019
4228 Clear 25 1015 64 10000 5.1 360 16:48 04.08.2019
4229 Clear 25 1015 64 10000 5.1 360 16:30 04.08.2019
4230 Clear 25 1015 57 10000 6.2 320 15:58 04.08.2019
4231 Clear 25 1016 64 10000 4.6 360 15:38 04.08.2019
4232 Clear 25 1016 64 10000 4.6 360 15:19 04.08.2019
4233 Clear 25 1016 64 10000 6.2 320 14:43 04.08.2019
4234 Clear 25 1016 64 10000 6.2 320 14:25 04.08.2019
4235 Clear 25 1016 60 10000 5.7 340 13:47 04.08.2019
4236 Clear 25 1016 60 10000 5.7 340 13:27 04.08.2019
4237 Clouds 25 1017 65 10000 2.6 0 12:57 04.08.2019
4238 Clouds 24 1017 65 10000 2.6 0 12:57 04.08.2019
4239 Clouds 24 1016 64 10000 4.6 340 12:39 04.08.2019
4240 Clouds 24 1016 64 10000 4.6 340 12:21 04.08.2019
4241 Clouds 23 1016 64 10000 2.1 260 11:48 04.08.2019
4242 Clouds 23 1016 64 10000 2.1 260 11:23 04.08.2019
4243 Clouds 22 1016 68 8000 3.6 320 10:48 04.08.2019
4244 Clouds 22 1016 68 8000 3.6 320 10:23 04.08.2019
4245 Clouds 21 1016 73 6000 4.1 360 09:47 04.08.2019
4246 Clouds 21 1016 73 6000 4.1 360 09:27 04.08.2019
4247 Clouds 21 1016 94 10000 3.1 10 08:59 04.08.2019
4248 Clouds 20 1016 73 6000 2.6 320 08:38 04.08.2019
4249 Clouds 20 1016 94 10000 2.1 340 07:56 04.08.2019
4250 Clouds 20 1016 94 10000 2.6 340 07:37 04.08.2019
4251 Clouds 20 1016 94 10000 3.6 340 06:43 04.08.2019
4252 Clouds 21 1016 94 10000 3.6 340 06:19 04.08.2019
4253 Clouds 21 1017 94 10000 3.6 360 03:38 04.08.2019
4254 Clouds 21 1017 94 10000 3.6 340 01:56 04.08.2019
4255 Clouds 21 1017 94 10000 3.1 340 01:33 04.08.2019
4256 Clouds 21 1017 94 10000 3.6 340 00:43 04.08.2019
4257 Clouds 21 1017 94 10000 3.6 340 00:25 04.08.2019
4258 Clouds 21 1017 94 10000 5.1 340 23:56 03.08.2019
4259 Clouds 21 1017 94 10000 4.1 340 23:37 03.08.2019
4260 Clouds 21 1017 94 10000 4.6 340 23:18 03.08.2019
4261 Clouds 21 1016 68 10000 5.1 40 22:41 03.08.2019
4262 Clouds 21 1016 68 10000 5.1 40 22:19 03.08.2019
4263 Clouds 22 1016 73 10000 6.2 40 21:39 03.08.2019
4264 Clouds 22 1016 73 10000 6.2 40 21:21 03.08.2019
4265 Clouds 23 1015 73 10000 6.2 40 20:45 03.08.2019
4266 Clouds 23 1015 73 10000 6.2 40 20:25 03.08.2019
4267 Clear 23 1015 69 10000 6.2 330 19:56 03.08.2019
4268 Clouds 24 1015 69 10000 6.2 40 19:38 03.08.2019
4269 Clouds 24 1015 69 10000 6.2 40 19:20 03.08.2019
4270 Clear 24 1016 65 10000 6.7 340 18:45 03.08.2019
4271 Clear 24 1016 65 10000 6.7 340 18:24 03.08.2019
4272 Clouds 24 1016 69 10000 6.2 20 17:46 03.08.2019
4273 Clouds 24 1016 69 10000 6.2 20 17:20 03.08.2019
4274 Clouds 25 1016 64 10000 6.2 40 16:39 03.08.2019
4275 Clouds 25 1016 64 10000 6.2 40 16:21 03.08.2019
4276 Clear 25 1016 61 10000 5.7 330 15:59 03.08.2019
4277 Clouds 25 1016 64 10000 5.1 20 15:39 03.08.2019
4278 Clouds 25 1016 64 10000 5.1 20 15:20 03.08.2019
4279 Clouds 24 1017 64 10000 5.1 20 14:37 03.08.2019
4280 Clear 24 1017 61 10000 4.6 340 14:18 03.08.2019
4281 Clear 24 1017 61 10000 4.6 340 14:18 03.08.2019
4282 Clouds 24 1017 64 10000 4.1 320 13:43 03.08.2019
4283 Clouds 24 1017 64 10000 4.1 320 13:23 03.08.2019
4284 Clouds 23 1016 69 10000 4.1 320 12:56 03.08.2019
4285 Clouds 23 1016 69 10000 4.1 320 12:37 03.08.2019
4286 Clouds 23 1016 73 10000 2.6 300 12:19 03.08.2019
4287 Clouds 22 1016 73 10000 4.1 300 11:39 03.08.2019
4288 Clouds 22 1016 73 10000 4.1 300 11:20 03.08.2019
4289 Clouds 21 1016 73 10000 4.1 300 10:38 03.08.2019
4290 Clouds 21 1016 73 10000 4.1 300 10:19 03.08.2019
4291 Clouds 21 1016 77 10000 4.1 340 09:38 03.08.2019
4292 Clouds 21 1016 77 10000 4.1 340 09:38 03.08.2019
4293 Clouds 20 1016 100 10000 1.5 350 09:18 03.08.2019
4294 Clouds 20 1015 82 10000 2.1 20 08:43 03.08.2019
4295 Clouds 19 1016 100 10000 2.6 340 07:40 03.08.2019
4296 Clouds 19 1015 100 10000 3.1 340 06:57 03.08.2019
4297 Clouds 20 1015 100 10000 4.1 340 06:18 03.08.2019
4298 Clouds 20 1016 100 10000 2.6 350 03:35 03.08.2019
4299 Clouds 21 1016 100 10000 4.1 340 02:26 03.08.2019
4300 Clouds 21 1017 100 10000 3.1 330 00:59 03.08.2019
4301 Clear 21 1017 100 10000 4.1 320 00:32 03.08.2019
4302 Clear 22 1016 94 10000 5.1 350 23:42 02.08.2019
4303 Clear 22 1016 94 10000 5.1 350 23:42 02.08.2019
4304 Clear 22 1016 94 10000 5.1 350 23:20 02.08.2019
4305 Clear 22 1016 94 10000 3.6 360 22:59 02.08.2019
4306 Clouds 22 1015 83 10000 4.1 320 22:40 02.08.2019
4307 Clouds 22 1015 83 10000 4.1 320 22:22 02.08.2019
4308 Clear 23 1016 83 10000 5.1 340 21:56 02.08.2019
4309 Clouds 23 1015 83 10000 4.6 20 21:37 02.08.2019
4310 Clouds 23 1015 83 10000 4.6 20 21:37 02.08.2019
4311 Clouds 23 1015 83 10000 4.6 20 21:19 02.08.2019
4312 Clouds 24 1015 78 10000 4.6 20 20:43 02.08.2019
4313 Clouds 24 1015 78 10000 4.6 20 20:22 02.08.2019
4314 Clear 25 1015 69 10000 7.7 350 19:53 02.08.2019
4315 Clouds 25 1015 73 10000 7.7 20 19:32 02.08.2019
4316 Clear 25 1015 61 10000 6.7 350 18:50 02.08.2019
4317 Clouds 25 1015 73 10000 8.2 360 18:32 02.08.2019
4318 Clear 25 1015 58 10000 7.2 340 17:57 02.08.2019
4319 Clouds 25 1015 73 10000 7.2 340 17:39 02.08.2019
4320 Clouds 25 1015 73 10000 7.2 340 17:20 02.08.2019
4321 Clouds 25 1015 73 10000 7.7 340 16:39 02.08.2019
4322 Clouds 25 1015 73 10000 7.7 340 16:20 02.08.2019
4323 Clear 26 1015 65 10000 6.2 350 15:56 02.08.2019
4324 Clouds 26 1016 69 10000 5.1 320 15:36 02.08.2019
4325 Clear 25 1016 69 10000 6.2 330 15:18 02.08.2019
4326 Clouds 25 1016 69 10000 6.7 320 14:41 02.08.2019
4327 Clouds 25 1016 78 10000 3.6 340 14:18 02.08.2019
4328 Mist 24 1016 73 10000 5.7 300 13:45 02.08.2019
4329 Mist 24 1016 73 10000 5.7 300 13:20 02.08.2019
4330 Mist 24 1016 78 10000 4.1 340 12:43 02.08.2019
4331 Mist 23 1016 78 10000 4.1 340 12:20 02.08.2019
4332 Mist 22 1016 83 10000 3.1 320 11:41 02.08.2019
4333 Mist 22 1016 83 10000 3.1 320 11:41 02.08.2019
4334 Mist 22 1016 83 10000 3.1 320 11:22 02.08.2019
4335 Mist 21 1016 83 10000 4.1 340 10:48 02.08.2019
4336 Mist 21 1016 83 10000 4.1 340 10:24 02.08.2019
4337 Mist 21 1016 100 9000 4.1 330 09:57 02.08.2019
4338 Mist 21 1015 88 10000 3.6 320 09:38 02.08.2019
4339 Mist 21 1015 88 10000 3.6 320 09:38 02.08.2019
4340 Mist 21 1015 88 10000 3.6 320 09:20 02.08.2019
4341 Mist 21 1015 88 10000 2.1 320 08:40 02.08.2019
4342 Mist 21 1015 100 2000 3.1 340 08:18 02.08.2019
4343 Mist 21 1015 100 2000 3.1 340 07:42 02.08.2019
4344 Mist 21 1015 100 2000 3.1 340 07:24 02.08.2019
4345 Mist 21 1015 100 4000 2.1 10 06:37 02.08.2019
4346 Clouds 21 1016 100 10000 1.5 10 05:44 02.08.2019
4347 Clouds 22 1016 100 10000 3.6 350 03:35 02.08.2019
4348 Clouds 22 1017 100 10000 2.6 340 02:42 02.08.2019
4349 Clouds 22 1017 100 10000 2.6 350 01:38 02.08.2019
4350 Clouds 22 1017 100 10000 2.6 340 00:32 02.08.2019
4351 Clouds 22 1016 100 10000 3.1 330 23:45 01.08.2019
4352 Drizzle 22 1016 100 10000 3.1 330 23:26 01.08.2019
4353 Drizzle 22 1015 94 2000 3.1 320 22:46 01.08.2019
4354 Drizzle 22 1015 94 2000 3.1 320 22:25 01.08.2019
4355 Drizzle 22 1016 100 10000 3.1 320 21:59 01.08.2019
4356 Drizzle 23 1015 94 2000 3.6 320 21:41 01.08.2019
4357 Drizzle 23 1015 94 2000 3.6 320 21:21 01.08.2019
4358 Drizzle 23 1014 88 2000 4.1 340 20:46 01.08.2019
4359 Drizzle 23 1014 88 2000 4.1 340 20:23 01.08.2019
4360 Clouds 23 1014 88 10000 6.7 340 19:58 01.08.2019
4361 Clouds 24 1014 83 10000 6.2 320 19:37 01.08.2019
4362 Clouds 24 1014 83 10000 6.7 320 19:18 01.08.2019
4363 Clouds 25 1013 73 6000 7.2 340 18:43 01.08.2019
4364 Clouds 25 1013 73 6000 7.2 340 18:43 01.08.2019
4365 Clouds 25 1013 73 6000 7.2 340 18:23 01.08.2019
4366 Clouds 25 1013 73 6000 7.2 340 18:23 01.08.2019
4367 Clouds 26 1013 69 6000 8.7 340 17:47 01.08.2019
4368 Clouds 26 1013 69 6000 8.7 340 17:29 01.08.2019
4369 Clouds 25 1014 78 10000 5.1 320 16:45 01.08.2019
4370 Clouds 25 1014 78 10000 5.1 320 16:23 01.08.2019
4371 Clouds 25 1014 78 10000 5.1 340 15:46 01.08.2019
4372 Clouds 25 1014 78 10000 5.1 340 15:22 01.08.2019
4373 Clouds 25 1014 78 10000 5.1 340 14:59 01.08.2019
4374 Clouds 25 1014 78 5000 5.7 320 14:41 01.08.2019
4375 Clouds 25 1014 78 5000 5.7 320 14:19 01.08.2019
4376 Clouds 25 1014 78 10000 4.1 320 13:56 01.08.2019
4377 Clouds 24 1014 83 10000 3.1 320 13:38 01.08.2019
4378 Clouds 24 1014 83 10000 3.1 320 13:20 01.08.2019
4379 Clouds 24 1013 83 10000 5.1 320 12:41 01.08.2019
4380 Clouds 23 1013 83 10000 5.1 320 12:22 01.08.2019
4381 Clouds 23 1013 83 6000 3.1 320 11:43 01.08.2019
4382 Clouds 23 1013 83 6000 3.1 320 11:24 01.08.2019
4383 Clouds 23 1013 78 10000 5.1 260 10:46 01.08.2019
4384 Clouds 23 1013 78 10000 5.1 260 10:28 01.08.2019
4385 Clouds 22 1014 88 10000 2.1 300 09:59 01.08.2019
4386 Clouds 22 1013 78 10000 3.1 280 09:40 01.08.2019
4387 Clouds 22 1013 78 10000 3.1 280 09:22 01.08.2019
4388 Clouds 21 1016 78 5000 3.1 260 08:44 01.08.2019
4389 Clouds 21 1016 78 5000 3.1 260 08:20 01.08.2019
4390 Clouds 21 1013 94 10000 1 0 07:49 01.08.2019
4391 Clouds 21 1012 94 10000 2.1 300 07:25 01.08.2019
4392 Clouds 21 1012 94 10000 2.1 330 06:48 01.08.2019
4393 Clouds 21 1012 94 10000 2.1 330 05:51 01.08.2019
4394 Clouds 21 1012 94 10000 2.6 340 04:24 01.08.2019
4395 Clouds 22 1013 100 10000 1 0 02:33 01.08.2019
4396 Clouds 21 1013 94 10000 4.1 310 00:43 01.08.2019
4397 Clouds 21 1013 94 10000 4.1 310 00:24 01.08.2019
4398 Clouds 21 1013 94 10000 4.1 310 00:24 01.08.2019
4399 Clear 21 1013 94 10000 4.1 320 23:43 31.07.2019
4400 Clear 21 1013 94 10000 4.1 320 23:21 31.07.2019
4401 Clouds 22 1011 78 10000 2.1 280 22:56 31.07.2019
4402 Clouds 22 1011 78 10000 2.1 280 22:38 31.07.2019
4403 Clouds 22 1011 78 10000 2.1 280 22:19 31.07.2019
4404 Clouds 23 1011 78 10000 4.1 340 21:38 31.07.2019
4405 Clear 23 1011 69 10000 5.7 330 21:18 31.07.2019
4406 Clouds 23 1011 78 10000 5.1 340 20:43 31.07.2019
4407 Clouds 23 1011 78 10000 5.1 340 20:22 31.07.2019
4408 Clear 25 1011 69 10000 5.1 340 19:42 31.07.2019
4409 Clear 25 1011 69 10000 5.1 340 19:23 31.07.2019
4410 Clear 25 1011 51 10000 6.7 340 18:53 31.07.2019
4411 Clear 25 1011 73 10000 5.1 340 18:28 31.07.2019
4412 Clear 25 1011 54 10000 7.7 330 17:59 31.07.2019
4413 Clear 25 1011 69 10000 7.2 340 17:40 31.07.2019
4414 Clear 25 1011 69 10000 7.2 340 17:19 31.07.2019
4415 Clear 26 1012 69 10000 6.2 320 16:46 31.07.2019
4416 Clear 26 1012 69 10000 6.2 320 16:20 31.07.2019
4417 Clear 26 1012 69 10000 7.2 320 15:45 31.07.2019
4418 Clear 26 1012 69 10000 7.2 320 15:26 31.07.2019
4419 Clear 26 1012 69 10000 7.2 320 15:26 31.07.2019
4420 Clear 25 1012 51 10000 6.2 340 14:54 31.07.2019
4421 Clouds 25 1012 69 10000 7.2 360 14:36 31.07.2019
4422 Clear 26 1012 51 10000 4.6 330 14:18 31.07.2019
4423 Clouds 26 1012 69 10000 5.1 340 13:42 31.07.2019
4424 Clouds 26 1012 69 10000 5.1 340 13:23 31.07.2019
4425 Clear 25 1012 57 10000 2.6 340 12:56 31.07.2019
4426 Clouds 25 1012 65 10000 4.1 300 12:37 31.07.2019
4427 Clouds 24 1013 78 10000 2.1 270 12:18 31.07.2019
4428 Clouds 23 1012 73 10000 4.1 320 11:38 31.07.2019
4429 Clouds 23 1012 73 10000 4.1 320 11:19 31.07.2019
4430 Clear 21 1024 83 10000 2.1 280 10:42 31.07.2019
4431 Clear 21 1024 83 10000 2.1 280 10:20 31.07.2019
4432 Clouds 21 1012 100 10000 1.5 240 09:54 31.07.2019
4433 Clear 20 1024 83 10000 2.1 280 09:36 31.07.2019
4434 Clouds 19 1012 93 5000 3.22 353.05 09:18 31.07.2019
4435 Clouds 18 1012 93 7000 0.5 0 08:40 31.07.2019
4436 Clouds 18 1012 93 7000 0.5 0 08:20 31.07.2019
4437 Clouds 18 1012 93 10000 2.6 260 07:35 31.07.2019
4438 Clouds 18 1012 100 10000 0.5 290 06:34 31.07.2019
4439 Clouds 19 1013 100 10000 3.56 356.616 04:52 31.07.2019
4440 Clouds 20 1014 94 10000 2.6 340 03:24 31.07.2019
4441 Clouds 21 1015 94 10000 4.1 360 23:58 30.07.2019
4442 Clouds 21 1014 94 10000 4.6 360 23:40 30.07.2019
4443 Clouds 21 1014 88 10000 4.6 20 23:19 30.07.2019
4444 Clouds 21 1013 73 10000 6.2 20 22:46 30.07.2019
4445 Clouds 21 1013 73 10000 6.2 20 22:25 30.07.2019
4446 Clouds 22 1014 78 10000 5.1 350 21:54 30.07.2019
4447 Clouds 23 1013 69 10000 6.2 20 21:36 30.07.2019
4448 Clouds 23 1013 64 10000 6.7 360 21:18 30.07.2019
4449 Clouds 24 1013 69 10000 6.2 20 20:41 30.07.2019
4450 Clouds 24 1013 69 10000 6.2 20 20:23 30.07.2019
4451 Clouds 24 1013 64 10000 6.2 20 19:58 30.07.2019
4452 Clouds 24 1013 64 10000 6.2 20 19:38 30.07.2019
4453 Clear 24 1013 65 10000 8.2 360 18:56 30.07.2019
4454 Clouds 24 1013 64 10000 8.2 20 18:38 30.07.2019
4455 Clouds 25 1013 64 10000 9.8 20 18:18 30.07.2019
4456 Clouds 25 1013 64 10000 9.8 20 17:41 30.07.2019
4457 Clouds 25 1013 64 10000 9.8 20 17:19 30.07.2019
4458 Clouds 25 1014 69 10000 7.2 40 16:51 30.07.2019
4459 Clouds 25 1014 69 10000 7.2 40 16:21 30.07.2019
4460 Clear 25 1014 61 10000 7.7 360 15:56 30.07.2019
4461 Clouds 25 1014 69 10000 9.8 20 15:37 30.07.2019
4462 Clear 25 1014 61 10000 8.2 360 15:18 30.07.2019
4463 Clouds 25 1014 69 10000 9.8 20 14:41 30.07.2019
4464 Clouds 25 1014 69 10000 9.8 20 14:19 30.07.2019
4465 Clouds 25 1014 65 10000 7.2 20 13:46 30.07.2019
4466 -273 0 0 0 0 0 13:28 30.07.2019
4467 Clouds 25 1015 69 10000 5.7 20 12:58 30.07.2019
4468 Clouds 25 1015 69 10000 5.7 20 12:58 30.07.2019
4469 Clouds 24 1015 69 10000 7.2 360 12:39 30.07.2019
4470 Clouds 25 1015 69 10000 7.2 360 12:21 30.07.2019
4471 Clouds 24 1015 83 10000 5.1 30 11:40 30.07.2019
4472 Clouds 23 1015 83 10000 5.1 30 11:20 30.07.2019
4473 Clouds 22 1015 73 10000 4.1 20 10:46 30.07.2019
4474 Clouds 22 1015 73 10000 4.1 20 10:27 30.07.2019
4475 Clouds 21 1015 100 10000 7.73 24.045 09:50 30.07.2019
4476 Clouds 21 1015 78 10000 3.1 60 09:31 30.07.2019
4477 Clouds 20 1015 94 5000 2.6 20 08:53 30.07.2019
4478 Clouds 20 1014 88 10000 2.1 20 08:31 30.07.2019
4479 Clouds 19 1015 94 10000 2.1 20 07:47 30.07.2019
4480 Clouds 19 1015 94 10000 2.1 20 07:29 30.07.2019
4481 Clouds 19 1015 94 10000 2.6 30 06:48 30.07.2019
4482 Clouds 20 1015 94 10000 2.6 30 06:21 30.07.2019
4483 Clouds 20 1015 94 10000 3.6 20 05:33 30.07.2019
4484 Clouds 21 1016 94 10000 4.1 20 02:31 30.07.2019
4485 Clouds 21 1016 94 10000 4.6 10 01:19 30.07.2019
4486 Clouds 21 1016 94 10000 3.6 20 00:21 30.07.2019
4487 Clouds 22 1016 88 10000 5.1 10 23:45 29.07.2019
4488 Clouds 22 1016 88 10000 5.1 10 23:26 29.07.2019
4489 Clouds 22 1015 88 10000 6.2 360 22:57 29.07.2019
4490 Clouds 22 1014 78 10000 5.1 20 22:38 29.07.2019
4491 Clouds 22 1014 78 10000 5.1 20 22:20 29.07.2019
4492 Clouds 23 1015 78 10000 7.2 360 21:57 29.07.2019
4493 Clouds 23 1014 73 10000 6.76 5.667 21:38 29.07.2019
4494 Clouds 23 1014 73 10000 6.9 7.913 21:20 29.07.2019
4495 Clouds 23 1014 73 10000 6.9 7.913 21:20 29.07.2019
4496 Clouds 24 1014 73 10000 5.7 40 20:48 29.07.2019
4497 Clouds 24 1014 73 10000 5.7 40 20:25 29.07.2019
4498 Clouds 25 1014 69 10000 7.2 10 19:57 29.07.2019
4499 Clouds 25 1014 69 10000 7.2 20 19:37 29.07.2019
4500 Clouds 25 1014 69 10000 7.2 20 19:19 29.07.2019
4501 Clouds 25 1014 69 10000 8.7 340 18:42 29.07.2019
4502 Clouds 25 1014 69 10000 8.7 340 18:22 29.07.2019
4503 Clouds 25 1014 69 10000 8.2 360 17:52 29.07.2019
4504 Clouds 25 1014 69 10000 8.2 360 17:34 29.07.2019
4505 Clear 25 1014 61 10000 7.2 350 16:59 29.07.2019
4506 Clouds 25 1014 69 10000 6.2 360 16:40 29.07.2019
4507 Clouds 25 1014 69 10000 6.2 360 16:22 29.07.2019
4508 Clouds 25 1014 65 10000 7.2 350 15:51 29.07.2019
4509 Clouds 25 1014 64 10000 6.2 340 15:32 29.07.2019
4510 Clouds 25 1014 65 10000 6.2 350 14:56 29.07.2019
4511 Clouds 25 1015 64 10000 8.7 20 14:37 29.07.2019
4512 Clouds 25 1015 61 10000 5.1 20 14:18 29.07.2019
4513 Clouds 24 1015 64 10000 7.2 360 13:41 29.07.2019
4514 Clouds 24 1015 64 10000 7.2 360 13:23 29.07.2019
4515 Clouds 24 1015 69 10000 5.1 20 12:42 29.07.2019
4516 Clouds 24 1015 69 10000 5.1 20 12:22 29.07.2019
4517 Clouds 23 1015 64 10000 5.1 20 11:43 29.07.2019
4518 Clouds 23 1015 64 10000 5.1 20 11:22 29.07.2019
4519 Clouds 23 1014 64 10000 5.1 20 10:45 29.07.2019
4520 Clouds 23 1014 64 10000 5.1 20 10:24 29.07.2019
4521 Clouds 21 1014 68 10000 2.6 20 09:46 29.07.2019
4522 Clouds 22 1014 68 10000 2.6 20 09:25 29.07.2019
4523 Clouds 21 1014 82 10000 3.6 20 08:57 29.07.2019
4524 Clouds 21 1014 68 10000 3.1 360 08:31 29.07.2019
4525 Clouds 20 1014 82 10000 3.6 30 07:58 29.07.2019
4526 Clouds 20 1014 82 10000 4.1 10 07:32 29.07.2019
4527 Clouds 20 1014 72 0 2.1 360 06:45 29.07.2019
4528 Clouds 21 1013 82 10000 4.1 40 05:43 29.07.2019
4529 Clouds 21 1013 82 10000 4.6 360 04:49 29.07.2019
4530 Clouds 21 1014 83 10000 4.1 20 01:57 29.07.2019
4531 Clouds 21 1014 77 10000 4.6 20 01:39 29.07.2019
4532 Clouds 21 1014 77 10000 4.1 10 01:18 29.07.2019
4533 Clouds 21 1014 77 10000 5.1 10 00:41 29.07.2019
4534 Clouds 21 1014 77 10000 5.1 10 00:18 29.07.2019
4535 Clouds 21 1014 77 10000 4.6 10 23:40 28.07.2019
4536 Clouds 21 1014 77 10000 5.1 350 23:18 28.07.2019
4537 Clouds 22 1013 64 10000 6.2 20 22:37 28.07.2019
4538 Clouds 22 1013 78 10000 5.1 10 22:18 28.07.2019
4539 Clouds 22 1013 64 10000 7.2 20 21:43 28.07.2019
4540 Clouds 23 1013 73 10000 6.2 340 21:18 28.07.2019
4541 Clouds 23 1012 64 10000 8.2 360 20:44 28.07.2019
4542 Clouds 23 1012 64 10000 8.2 360 20:26 28.07.2019
4543 Clouds 24 1012 60 10000 8.7 360 19:42 28.07.2019
4544 Clouds 24 1012 60 10000 8.7 360 19:22 28.07.2019
4545 Clouds 24 1012 65 10000 6.2 360 18:51 28.07.2019
4546 Clouds 25 1012 60 10000 8.7 340 18:30 28.07.2019
4547 Clouds 25 1012 69 10000 6.7 360 17:58 28.07.2019
4548 Clouds 25 1012 69 10000 6.7 360 17:58 28.07.2019
4549 Clouds 25 1012 57 10000 7.7 20 17:40 28.07.2019
4550 Clouds 25 1012 57 10000 7.7 20 17:20 28.07.2019
4551 Clouds 25 1012 64 10000 6.2 360 16:47 28.07.2019
4552 Clouds 25 1012 64 10000 6.2 360 16:28 28.07.2019
4553 Clouds 25 1012 65 10000 5.7 360 15:57 28.07.2019
4554 Clouds 25 1012 65 10000 5.7 360 15:57 28.07.2019
4555 Clouds 24 1013 64 10000 6.7 360 15:39 28.07.2019
4556 Clouds 24 1013 64 10000 6.7 360 15:20 28.07.2019
4557 Clouds 24 1013 60 10000 6.7 20 14:37 28.07.2019
4558 Clouds 23 1013 94 10000 6.7 340 14:18 28.07.2019
4559 Clouds 22 1013 83 10000 6.2 20 13:41 28.07.2019
4560 Clouds 22 1013 83 10000 6.2 20 13:21 28.07.2019
4561 Drizzle 22 1013 78 10000 4.6 350 12:59 28.07.2019
4562 Drizzle 22 1013 83 3000 7.7 20 12:39 28.07.2019
4563 Drizzle 22 1013 83 3000 7.7 20 12:20 28.07.2019
4564 Clouds 23 1013 78 10000 3.6 340 11:44 28.07.2019
4565 Clouds 23 1013 78 10000 3.6 340 11:26 28.07.2019
4566 Clouds 22 1013 78 10000 5.1 20 10:40 28.07.2019
4567 Clouds 23 1013 78 10000 5.1 20 10:20 28.07.2019
4568 Clouds 22 1013 83 10000 2.6 320 09:41 28.07.2019
4569 Clouds 22 1013 83 10000 2.6 320 09:23 28.07.2019
4570 Clouds 21 1013 88 10000 2.6 90 08:51 28.07.2019
4571 Clouds 21 1013 77 0 2.47 85.144 08:28 28.07.2019
4572 Clouds 21 1013 83 10000 2.6 120 07:53 28.07.2019
4573 Clouds 21 1013 88 10000 2.1 100 07:35 28.07.2019
4574 Clouds 21 1013 94 10000 3.1 60 06:41 28.07.2019
4575 Clouds 21 1013 88 10000 3.6 30 05:26 28.07.2019
4576 Clouds 21 1014 88 10000 4.1 20 03:27 28.07.2019
4577 Clouds 21 1015 88 10000 3.1 20 02:23 28.07.2019
4578 Clouds 21 1016 88 10000 2.6 20 01:19 28.07.2019
4579 Clouds 21 1016 88 10000 3.6 20 00:44 28.07.2019
4580 Clouds 21 1016 88 10000 3.6 20 00:18 28.07.2019
4581 Clouds 21 1016 88 10000 4.1 20 23:44 27.07.2019
4582 Clear 21 1015 83 10000 5.1 10 23:19 27.07.2019
4583 Clear 21 1015 83 10000 5.1 10 23:19 27.07.2019
4584 Clouds 22 1015 68 10000 4.1 360 22:40 27.07.2019
4585 Clouds 22 1015 68 10000 4.1 360 22:19 27.07.2019
4586 Clouds 22 1015 68 10000 4.1 360 21:39 27.07.2019
4587 Clouds 23 1015 68 10000 4.1 360 21:20 27.07.2019
4588 Clear 23 1015 60 10000 5.7 20 20:50 27.07.2019
4589 Clouds 23 1014 64 10000 5.1 360 20:25 27.07.2019
4590 Clouds 24 1014 64 10000 7.2 20 19:46 27.07.2019
4591 Clouds 24 1014 64 10000 7.2 20 19:26 27.07.2019
4592 Clouds 24 1014 64 10000 7.2 20 19:26 27.07.2019
4593 Clear 25 1015 54 10000 6.7 360 18:52 27.07.2019
4594 Clouds 25 1015 60 10000 7.2 320 18:34 27.07.2019
4595 Clear 25 1015 54 10000 7.2 350 17:57 27.07.2019
4596 Clouds 25 1015 60 10000 8.2 20 17:36 27.07.2019
4597 Clear 25 1015 54 10000 6.2 10 17:18 27.07.2019
4598 Clouds 25 1016 60 10000 7.2 20 16:42 27.07.2019
4599 Clouds 25 1016 60 10000 7.2 20 16:23 27.07.2019
4600 Clouds 25 1016 51 10000 6.2 350 15:52 27.07.2019
4601 Clouds 25 1016 60 10000 7.2 40 15:21 27.07.2019
4602 Clouds 25 1016 60 10000 7.2 40 15:21 27.07.2019
4603 Clouds 25 1016 47 10000 4.6 20 14:51 27.07.2019
4604 Clouds 25 1017 60 10000 6.2 20 14:31 27.07.2019
4605 Clouds 25 1017 54 10000 4.6 20 13:56 27.07.2019
4606 Clouds 25 1017 60 10000 7.2 20 13:37 27.07.2019
4607 Clouds 24 1017 64 10000 4.1 40 13:18 27.07.2019
4608 Clouds 24 1017 60 10000 6.2 20 12:41 27.07.2019
4609 Clouds 24 1017 60 10000 6.2 20 12:21 27.07.2019
4610 Clouds 23 1017 60 10000 4.1 40 11:42 27.07.2019
4611 Clouds 23 1017 60 10000 4.1 40 11:24 27.07.2019
4612 Clouds 22 1017 64 10000 5.1 60 10:42 27.07.2019
4613 Clouds 22 1017 64 10000 5.1 60 10:23 27.07.2019
4614 Clouds 20 1017 73 10000 5.1 60 09:43 27.07.2019
4615 Clouds 20 1017 73 10000 5.1 60 09:24 27.07.2019
4616 Clouds 19 1017 93 10000 2.6 60 08:53 27.07.2019
4617 Clouds 19 1017 72 10000 3.1 20 08:34 27.07.2019
4618 Clouds 18 1017 93 10000 2.1 50 07:58 27.07.2019
4619 Clouds 19 1017 93 10000 2.1 50 07:40 27.07.2019
4620 Clouds 19 1017 93 10000 2.1 50 07:20 27.07.2019
4621 Clouds 19 1017 93 10000 2.6 40 06:49 27.07.2019
4622 Clouds 19 1017 93 10000 2.6 40 06:49 27.07.2019
4623 Clouds 19 1017 93 10000 2.6 40 06:21 27.07.2019
4624 Clouds 20 1017 93 10000 3.6 20 05:35 27.07.2019
4625 Clouds 20 1018 93 10000 3.1 360 04:41 27.07.2019
4626 Clouds 20 1018 94 10000 3.1 20 03:40 27.07.2019
4627 Clouds 20 1019 88 10000 3.1 20 02:43 27.07.2019
4628 Clouds 20 1019 94 10000 2.6 30 01:57 27.07.2019
4629 Clouds 20 1019 77 10000 3.1 20 01:32 27.07.2019
4630 Clouds 21 1019 88 10000 3.1 20 00:38 27.07.2019
4631 Clouds 21 1019 88 10000 3.1 20 00:19 27.07.2019
4632 Clouds 21 1019 88 10000 4.1 20 23:42 26.07.2019
4633 Clouds 21 1019 88 10000 4.1 20 23:23 26.07.2019
4634 Clouds 21 1018 77 10000 6.2 20 22:43 26.07.2019
4635 Clouds 21 1018 77 10000 6.2 20 22:24 26.07.2019
4636 Clouds 22 1018 83 10000 6.2 360 21:51 26.07.2019
4637 Clouds 22 1018 68 10000 7.2 360 21:20 26.07.2019
4638 Clouds 23 1017 69 10000 6.7 350 20:51 26.07.2019
4639 Clouds 23 1017 73 10000 7.7 360 20:32 26.07.2019
4640 Clouds 24 1017 69 10000 6.2 350 19:55 26.07.2019
4641 Clouds 24 1017 69 10000 7.2 20 19:36 26.07.2019
4642 Clouds 25 1017 65 10000 6.2 340 19:18 26.07.2019
4643 Clouds 25 1017 64 10000 7.2 360 18:41 26.07.2019
4644 Clouds 25 1017 64 10000 7.2 360 18:21 26.07.2019
4645 Clouds 25 1017 65 10000 7.2 340 17:56 26.07.2019
4646 Clouds 25 1018 64 10000 8.2 360 17:37 26.07.2019
4647 Clouds 25 1017 69 10000 6.7 340 17:18 26.07.2019
4648 Clouds 25 1018 65 10000 7.2 360 16:41 26.07.2019
4649 Clouds 25 1018 65 10000 7.2 360 16:21 26.07.2019
4650 Clouds 25 1018 65 10000 6.7 340 15:59 26.07.2019
4651 Clouds 25 1018 69 10000 9.3 340 15:40 26.07.2019
4652 Clouds 25 1018 69 10000 9.3 340 15:20 26.07.2019
4653 Clouds 26 1018 65 10000 8.2 360 14:44 26.07.2019
4654 Clouds 26 1018 65 10000 8.2 360 14:24 26.07.2019
4655 Clouds 25 1018 69 10000 8.2 360 13:47 26.07.2019
4656 Clouds 25 1018 69 10000 8.2 360 13:28 26.07.2019
4657 Clouds 24 1018 69 10000 5.7 20 12:49 26.07.2019
4658 Clouds 24 1018 78 10000 8.2 20 12:23 26.07.2019
4659 Clouds 24 1018 78 10000 5.1 30 11:56 26.07.2019
4660 Clouds 24 1018 61 10000 4.1 40 11:37 26.07.2019
4661 Clouds 24 1018 88 10000 5.1 30 11:18 26.07.2019
4662 Clouds 23 1017 64 10000 4.1 40 10:39 26.07.2019
4663 Clouds 23 1017 64 10000 4.1 40 10:20 26.07.2019
4664 Clouds 22 1018 83 10000 5.1 40 09:50 26.07.2019
4665 Clouds 22 1017 73 10000 6.2 20 09:28 26.07.2019
4666 Clouds 21 1017 73 10000 4.1 20 08:41 26.07.2019
4667 Clouds 21 1017 73 10000 4.1 20 08:21 26.07.2019
4668 Clouds 21 1017 94 10000 3.6 20 07:40 26.07.2019
4669 Clouds 21 1017 94 10000 3.6 20 07:22 26.07.2019
4670 Clouds 21 1017 94 10000 3.6 30 06:30 26.07.2019
4671 Clouds 21 1017 94 10000 3.1 30 04:30 26.07.2019
4672 Clouds 21 1017 94 10000 2.6 50 03:53 26.07.2019
4673 Clouds 21 1018 100 10000 3.1 30 01:49 26.07.2019
4674 Clouds 22 1018 94 10000 3.6 20 01:19 26.07.2019
4675 Clouds 22 1018 94 10000 3.6 40 00:29 26.07.2019
4676 Clouds 22 1018 94 10000 3.1 10 23:46 25.07.2019
4677 Clouds 22 1018 94 10000 3.1 10 23:20 25.07.2019
4678 Clouds 22 1017 78 10000 5.1 360 22:42 25.07.2019
4679 Clouds 22 1017 78 10000 5.1 360 22:22 25.07.2019
4680 Clouds 23 1018 88 10000 5.1 340 21:56 25.07.2019
4681 Clouds 23 1017 73 10000 6.2 360 21:37 25.07.2019
4682 Clouds 23 1017 73 10000 6.2 360 21:19 25.07.2019
4683 Clouds 24 1016 73 10000 5.1 20 20:40 25.07.2019
4684 Clouds 23 1016 73 10000 5.1 20 20:20 25.07.2019
4685 Clouds 24 1016 73 10000 6.7 360 19:40 25.07.2019
4686 Clouds 24 1016 73 10000 6.7 360 19:22 25.07.2019
4687 Clouds 25 1016 73 10000 6.7 360 18:43 25.07.2019
4688 Clouds 25 1016 73 10000 6.7 360 18:25 25.07.2019
4689 Clouds 25 1016 69 10000 6.7 360 17:50 25.07.2019
4690 Clouds 25 1016 69 10000 6.7 360 17:32 25.07.2019
4691 Clear 25 1016 61 10000 5.1 350 16:57 25.07.2019
4692 Clouds 25 1016 69 10000 7.7 360 16:38 25.07.2019
4693 Clouds 25 1016 69 10000 7.7 360 16:20 25.07.2019
4694 Clouds 26 1016 69 10000 6.2 20 15:48 25.07.2019
4695 Clouds 26 1016 69 10000 6.2 20 15:20 25.07.2019
4696 Clouds 26 1016 69 10000 8.2 340 14:43 25.07.2019
4697 Clouds 26 1016 69 10000 8.2 340 14:23 25.07.2019
4698 Clear 26 1016 62 10000 5.7 350 13:56 25.07.2019
4699 Clouds 26 1016 69 10000 5.1 20 13:36 25.07.2019
4700 Clear 26 1016 65 10000 4.1 20 13:18 25.07.2019
4701 Clouds 26 1015 69 10000 3.6 340 12:30 25.07.2019
4702 Clear 25 1016 78 10000 2.6 360 11:54 25.07.2019
4703 Clouds 24 1015 73 10000 6.2 20 11:36 25.07.2019
4704 Clear 24 1016 88 10000 3.1 20 11:18 25.07.2019
4705 Clouds 23 1015 78 10000 5.1 20 10:42 25.07.2019
4706 Clouds 23 1015 78 10000 5.1 20 10:23 25.07.2019
4707 Mist 22 1015 83 5000 3.1 20 09:44 25.07.2019
4708 Mist 22 1015 83 5000 3.1 20 09:44 25.07.2019
4709 Mist 22 1015 83 5000 3.1 20 09:25 25.07.2019
4710 Clouds 22 1014 83 5000 3.6 60 08:44 25.07.2019
4711 Clouds 22 1014 83 5000 3.6 60 08:20 25.07.2019
4712 Clouds 22 1014 100 9000 3.1 30 07:36 25.07.2019
4713 Mist 22 1014 100 4000 3.1 40 06:44 25.07.2019
4714 Mist 22 1014 100 4000 3.6 40 05:53 25.07.2019
4715 Clouds 22 1014 100 5000 2.6 20 05:31 25.07.2019
4716 Clouds 22 1015 100 5000 3.1 40 04:39 25.07.2019
4717 Clouds 22 1015 100 7000 3.1 20 02:21 25.07.2019
4718 Clouds 23 1016 94 7000 3.1 10 01:21 25.07.2019
4719 Clouds 23 1016 94 10000 2.1 40 00:22 25.07.2019
4720 Clouds 23 1016 100 10000 3.6 340 23:52 24.07.2019
4721 Clouds 23 1015 94 9000 1.5 30 23:31 24.07.2019
4722 Clouds 23 1015 94 10000 1.5 30 22:58 24.07.2019
4723 Clouds 23 1013 83 10000 4.1 340 22:39 24.07.2019
4724 Clouds 23 1013 83 10000 4.1 340 22:20 24.07.2019
4725 Clouds 24 1013 83 10000 4.1 340 21:43 24.07.2019
4726 Clouds 24 1013 83 10000 4.1 340 21:22 24.07.2019
4727 Clear 25 1013 78 10000 4.1 350 20:58 24.07.2019
4728 Clouds 25 1013 73 10000 4.1 340 20:38 24.07.2019
4729 Clouds 25 1013 73 10000 4.1 340 20:20 24.07.2019
4730 Clear 25 1013 69 10000 4.6 350 19:55 24.07.2019
4731 Clouds 25 1013 78 10000 6.2 360 19:36 24.07.2019
4732 Clear 26 1013 65 10000 5.7 340 19:18 24.07.2019
4733 Clouds 26 1013 69 10000 7.2 360 18:41 24.07.2019
4734 Clouds 26 1013 69 10000 7.2 360 18:23 24.07.2019
4735 Clouds 26 1013 69 10000 8.2 360 17:43 24.07.2019
4736 Clouds 26 1013 69 10000 8.2 360 17:20 24.07.2019
4737 Clouds 27 1014 69 10000 7.2 320 16:42 24.07.2019
4738 Clouds 27 1014 69 10000 7.2 320 16:22 24.07.2019
4739 Clouds 27 1014 69 10000 5.1 360 15:41 24.07.2019
4740 Clouds 27 1014 69 10000 5.1 360 15:23 24.07.2019
4741 Clear 27 1014 62 10000 4.6 350 14:57 24.07.2019
4742 Clouds 27 1014 69 10000 6.2 20 14:38 24.07.2019
4743 Clouds 27 1014 69 10000 6.2 20 14:38 24.07.2019
4744 Clouds 27 1014 69 10000 6.2 20 14:38 24.07.2019
4745 Clear 26 1014 62 10000 5.1 350 14:19 24.07.2019
4746 Clouds 26 1014 69 10000 5.1 340 13:37 24.07.2019
4747 Clear 26 1014 69 10000 3.1 30 13:19 24.07.2019
4748 Clear 26 1014 69 10000 3.1 30 12:51 24.07.2019
4749 Clouds 25 1014 73 10000 5.1 360 12:32 24.07.2019
4750 Clouds 24 1014 73 10000 6.2 80 11:40 24.07.2019
4751 Clouds 24 1014 73 10000 6.2 80 11:20 24.07.2019
4752 Mist 23 1014 83 10000 4.1 40 10:45 24.07.2019
4753 Mist 23 1014 83 10000 4.1 40 10:25 24.07.2019
4754 Mist 22 1014 100 7000 2.1 30 09:49 24.07.2019
4755 Mist 22 1014 83 10000 3.1 40 09:26 24.07.2019
4756 Clouds 22 1014 100 6000 1.76 44.425 08:58 24.07.2019
4757 Clouds 22 1014 100 6000 1.76 44.425 08:58 24.07.2019
4758 Clouds 22 1014 100 7000 2.1 70 08:32 24.07.2019
4759 Clouds 22 1014 100 8000 1.5 70 07:52 24.07.2019
4760 Clouds 22 1014 100 7000 2.6 70 07:31 24.07.2019
4761 Clouds 22 1014 100 8000 2.1 360 06:36 24.07.2019
4762 Clouds 22 1014 100 5000 2.6 10 05:56 24.07.2019
4763 Clouds 23 1016 100 10000 3.6 340 02:54 24.07.2019
4764 Clouds 23 1016 100 10000 3.1 330 01:31 24.07.2019
4765 Clouds 23 1017 100 10000 3.6 340 00:57 24.07.2019
4766 Clouds 23 1017 94 10000 4.1 330 00:23 24.07.2019
4767 Clouds 23 1016 94 10000 3.6 10 23:45 23.07.2019
4768 Clouds 23 1016 94 10000 3.6 10 23:25 23.07.2019
4769 Clouds 23 1016 94 10000 4.6 340 22:55 23.07.2019
4770 Clouds 23 1015 83 10000 4.1 20 22:36 23.07.2019
4771 Clouds 23 1015 100 10000 5.1 330 22:18 23.07.2019
4772 Clouds 23 1015 94 10000 5.1 340 21:42 23.07.2019
4773 Clouds 23 1015 94 10000 5.1 340 21:23 23.07.2019
4774 Clouds 24 1014 83 10000 5.1 340 20:48 23.07.2019
4775 Clouds 24 1014 83 10000 5.1 340 20:27 23.07.2019
4776 Clouds 25 1014 83 10000 5.1 340 19:43 23.07.2019
4777 Clouds 25 1014 83 10000 5.1 340 19:24 23.07.2019
4778 Clear 26 1014 74 10000 5.7 340 18:53 23.07.2019
4779 Clouds 26 1014 73 10000 5.1 340 18:25 23.07.2019
4780 Clear 26 1014 69 10000 6.2 340 17:58 23.07.2019
4781 Clouds 26 1015 78 10000 5.1 300 17:40 23.07.2019
4782 Clouds 26 1015 78 10000 5.1 300 17:20 23.07.2019
4783 Clouds 26 1015 73 10000 5.1 320 16:41 23.07.2019
4784 Clouds 26 1015 73 10000 5.1 320 16:22 23.07.2019
4785 Clouds 27 1015 69 10000 7.2 320 15:47 23.07.2019
4786 Clouds 27 1015 69 10000 7.2 320 15:27 23.07.2019
4787 Clouds 26 1015 69 10000 4.1 340 14:41 23.07.2019
4788 Clouds 26 1015 69 10000 4.1 340 14:22 23.07.2019
4789 Clear 26 1016 65 10000 3.1 320 13:59 23.07.2019
4790 Clouds 26 1015 69 10000 4.1 320 13:40 23.07.2019
4791 Clouds 26 1015 69 10000 4.1 320 13:22 23.07.2019
4792 Clouds 24 1015 73 10000 5.1 320 12:49 23.07.2019
4793 Clouds 24 1015 73 10000 5.1 320 12:27 23.07.2019
4794 Mist 23 1016 94 10000 2.6 250 11:55 23.07.2019
4795 Mist 23 1016 78 10000 3.1 260 11:37 23.07.2019
4796 Mist 23 1016 49 8000 2.6 260 11:18 23.07.2019
4797 Mist 22 1015 78 10000 3.1 260 10:41 23.07.2019
4798 Mist 22 1015 78 10000 3.1 260 10:21 23.07.2019
4799 Mist 22 1015 83 10000 4.1 240 09:41 23.07.2019
4800 Mist 22 1015 83 10000 4.1 240 09:20 23.07.2019
4801 Clouds 22 1015 83 10000 3.1 280 08:43 23.07.2019
4802 Clouds 21 1015 83 10000 3.1 280 08:20 23.07.2019
4803 Clouds 21 1015 83 10000 3.1 280 08:20 23.07.2019
4804 Clouds 21 1015 83 10000 3.1 280 08:20 23.07.2019
4805 Clouds 21 1015 100 10000 3.6 250 07:55 23.07.2019
4806 Clouds 21 1015 100 10000 2.6 270 07:36 23.07.2019
4807 Clouds 21 1015 100 10000 2.6 270 07:36 23.07.2019
4808 Clouds 21 1015 100 10000 1 0 06:50 23.07.2019
4809 Clouds 21 1015 100 10000 1.5 270 06:30 23.07.2019
4810 Clouds 21 1016 100 6000 2.6 320 03:39 23.07.2019
4811 Clouds 21 1016 100 10000 2.6 270 01:34 23.07.2019
4812 Clouds 22 1016 94 10000 2.1 290 00:31 23.07.2019
4813 Clouds 22 1016 94 10000 2.6 300 23:56 22.07.2019
4814 Clouds 22 1016 88 10000 3.1 290 23:36 22.07.2019
4815 Clouds 22 1016 88 10000 3.1 290 23:18 22.07.2019
4816 Clouds 22 1015 83 10000 4.1 300 22:42 22.07.2019
4817 Clouds 22 1015 83 10000 4.1 300 22:21 22.07.2019
4818 Clouds 24 1014 78 10000 2.6 320 21:43 22.07.2019
4819 Clouds 24 1014 78 10000 2.6 320 21:23 22.07.2019
4820 Clear 24 1015 74 10000 4.1 330 20:50 22.07.2019
4821 Clouds 25 1014 73 10000 3.6 320 20:32 22.07.2019
4822 Clear 26 1014 65 10000 5.7 330 19:57 22.07.2019
4823 Clouds 26 1014 69 10000 6.2 320 19:37 22.07.2019
4824 Clear 26 1015 65 10000 5.1 330 19:19 22.07.2019
4825 Clear 26 1015 69 10000 5.1 300 18:46 22.07.2019
4826 Clear 26 1015 69 10000 5.1 300 18:27 22.07.2019
4827 Clear 26 1015 73 10000 7.2 280 17:44 22.07.2019
4828 Clear 26 1015 73 10000 7.2 280 17:26 22.07.2019
4829 Clear 27 1015 62 10000 6.2 310 16:59 22.07.2019
4830 Clear 27 1016 69 10000 8.2 320 16:38 22.07.2019
4831 Clear 27 1016 69 10000 8.2 320 16:38 22.07.2019
4832 Clear 27 1016 69 10000 8.2 320 16:20 22.07.2019
4833 Clear 27 1016 69 10000 6.2 320 15:44 22.07.2019
4834 Clear 27 1016 69 10000 6.2 320 15:20 22.07.2019
4835 Clear 26 1016 65 10000 5.1 300 14:44 22.07.2019
4836 Clear 26 1016 65 10000 5.1 300 14:22 22.07.2019
4837 Clear 26 1016 65 10000 2.6 290 13:51 22.07.2019
4838 Clear 26 1016 65 10000 6.2 300 13:31 22.07.2019
4839 Clear 25 1017 74 10000 2.6 280 12:51 22.07.2019
4840 Clouds 25 1017 69 10000 5.7 300 12:32 22.07.2019
4841 Clouds 23 1017 88 10000 2.1 260 11:56 22.07.2019
4842 Clouds 23 1017 78 10000 3.6 280 11:36 22.07.2019
4843 Clouds 23 1017 78 10000 3.6 280 11:36 22.07.2019
4844 Mist 23 1017 88 10000 3.1 240 11:18 22.07.2019
4845 Mist 22 1017 100 10000 2.6 270 10:37 22.07.2019
4846 Mist 22 1017 100 10000 2.1 230 10:18 22.07.2019
4847 Mist 22 1016 83 10000 3.1 260 09:39 22.07.2019
4848 Mist 22 1016 83 10000 3.1 260 09:20 22.07.2019
4849 Clouds 22 1016 83 10000 3.1 280 08:38 22.07.2019
4850 Clouds 22 1016 83 10000 3.1 280 08:20 22.07.2019
4851 Clouds 22 1017 100 10000 1.5 260 07:52 22.07.2019
4852 Clouds 22 1016 100 10000 4.1 300 07:27 22.07.2019
4853 Clouds 22 1016 100 10000 1.5 340 05:30 22.07.2019
4854 Clouds 22 1018 100 10000 1.5 330 03:45 22.07.2019
4855 Clouds 22 1019 100 10000 2.6 340 01:28 22.07.2019
4856 Clouds 22 1018 100 10000 3.1 330 00:49 22.07.2019
4857 Clear 22 1018 94 10000 3.6 300 00:22 22.07.2019
4858 Clouds 22 1018 94 10000 2.6 300 23:50 21.07.2019
4859 Clouds 23 1018 100 10000 4.1 300 22:59 21.07.2019
4860 Clouds 23 1016 78 10000 3.1 340 22:41 21.07.2019
4861 Clouds 23 1016 78 10000 3.1 340 22:21 21.07.2019
4862 Clouds 23 1017 88 10000 4.1 330 21:55 21.07.2019
4863 Clouds 24 1016 78 10000 4.1 340 21:36 21.07.2019
4864 Clear 24 1016 78 10000 5.1 330 21:18 21.07.2019
4865 Clouds 24 1016 78 10000 5.7 300 20:41 21.07.2019
4866 Clouds 24 1016 78 10000 5.7 300 20:23 21.07.2019
4867 Clear 25 1016 74 10000 5.1 320 19:52 21.07.2019
4868 Clouds 25 1016 73 10000 6.2 320 19:29 21.07.2019
4869 Clear 26 1016 65 10000 5.1 320 18:56 21.07.2019
4870 Clouds 26 1016 69 10000 7.2 320 18:37 21.07.2019
4871 Clear 26 1016 65 10000 5.7 330 18:19 21.07.2019
4872 Clouds 26 1016 69 10000 6.7 320 17:40 21.07.2019
4873 Clouds 27 1016 69 10000 6.7 320 17:19 21.07.2019
4874 Clouds 27 1016 65 10000 5.1 320 16:42 21.07.2019
4875 Clouds 27 1016 65 10000 5.1 320 16:24 21.07.2019
4876 Clouds 27 1017 65 10000 5.1 320 15:43 21.07.2019
4877 Clouds 27 1017 65 10000 5.1 320 15:22 21.07.2019
4878 Clear 26 1017 65 10000 7.2 280 14:53 21.07.2019
4879 Clear 26 1017 65 10000 7.2 280 14:25 21.07.2019
4880 Clouds 26 1017 58 10000 3.6 240 13:57 21.07.2019
4881 Clouds 26 1017 58 10000 3.6 240 13:57 21.07.2019
4882 Clouds 26 1017 65 10000 6.2 320 13:39 21.07.2019
4883 Clouds 26 1017 65 10000 6.2 320 13:19 21.07.2019
4884 Clouds 24 1017 69 10000 5.7 320 12:40 21.07.2019
4885 Clouds 24 1017 69 10000 5.7 320 12:40 21.07.2019
4886 Clouds 24 1017 69 10000 5.7 320 12:21 21.07.2019
4887 Clouds 24 1017 73 10000 3.6 280 11:45 21.07.2019
4888 Clouds 24 1017 73 10000 3.6 280 11:26 21.07.2019
4889 Mist 23 1017 73 6000 2.6 220 10:47 21.07.2019
4890 Mist 23 1017 73 6000 2.6 220 10:25 21.07.2019
4891 Mist 22 1017 73 10000 2.6 230 09:55 21.07.2019
4892 Mist 22 1017 78 6000 2.6 240 09:35 21.07.2019
4893 Clouds 21 1016 83 5000 2.6 280 08:49 21.07.2019
4894 Clouds 22 1017 83 10000 2.6 270 08:30 21.07.2019
4895 Clouds 22 1017 83 10000 2.6 280 07:53 21.07.2019
4896 Clouds 22 1017 100 10000 2.1 270 07:18 21.07.2019
4897 Clouds 22 1017 94 10000 2.6 270 06:23 21.07.2019
4898 Clouds 22 1018 100 10000 2.1 260 03:51 21.07.2019
4899 Clouds 22 1018 94 10000 3.1 290 01:53 21.07.2019
4900 Clouds 22 1018 94 10000 4.1 310 00:46 21.07.2019
4901 Clouds 22 1018 94 10000 4.1 310 00:21 21.07.2019
4902 Clouds 22 1017 94 10000 4.1 290 23:45 20.07.2019
4903 Clouds 22 1017 94 10000 4.1 290 23:25 20.07.2019
4904 Clouds 22 1017 94 10000 4.1 280 22:55 20.07.2019
4905 Clouds 22 1016 88 5000 3.1 300 22:37 20.07.2019
4906 Clouds 23 1017 88 10000 3.1 290 22:18 20.07.2019
4907 Clouds 23 1016 83 5000 3.6 300 21:40 20.07.2019
4908 Clouds 23 1016 83 5000 3.6 300 21:22 20.07.2019
4909 Clouds 23 1015 83 5000 5.1 320 20:43 20.07.2019
4910 Clouds 24 1015 83 5000 5.1 320 20:22 20.07.2019
4911 Clouds 24 1014 78 10000 6.7 320 19:49 20.07.2019
4912 Clouds 24 1014 78 10000 6.7 320 19:27 20.07.2019
4913 Clouds 26 1014 73 10000 6.7 300 18:46 20.07.2019
4914 Clouds 26 1014 73 10000 6.7 300 18:26 20.07.2019
4915 Clear 26 1014 65 10000 7.7 320 17:58 20.07.2019
4916 Clouds 26 1014 69 10000 2.6 180 17:37 20.07.2019
4917 Clear 26 1014 58 10000 7.2 300 17:19 20.07.2019
4918 Clouds 26 1014 65 10000 8.2 280 16:39 20.07.2019
4919 Clouds 26 1014 65 10000 8.2 280 16:21 20.07.2019
4920 Clouds 26 1014 65 10000 8.7 280 15:41 20.07.2019
4921 Clouds 26 1014 65 10000 8.7 280 15:21 20.07.2019
4922 Clear 26 1014 54 10000 6.2 280 14:49 20.07.2019
4923 Clouds 26 1014 65 10000 8.2 280 14:29 20.07.2019
4924 Clear 25 1015 61 10000 3.6 280 13:57 20.07.2019
4925 Clear 25 1015 65 10000 4.1 280 13:37 20.07.2019
4926 Clear 25 1015 65 10000 4.1 280 13:19 20.07.2019
4927 Clouds 25 1014 69 10000 6.2 280 12:48 20.07.2019
4928 Clouds 24 1015 78 10000 3.6 260 12:19 20.07.2019
4929 Clouds 23 1014 69 10000 6.2 280 11:46 20.07.2019
4930 Clouds 23 1014 69 10000 6.2 280 11:21 20.07.2019
4931 Clouds 22 1014 78 8000 4.1 280 10:42 20.07.2019
4932 Clouds 22 1014 78 8000 4.1 280 10:23 20.07.2019
4933 Clouds 21 1014 94 10000 4.1 280 09:52 20.07.2019
4934 Clouds 21 1013 83 6000 4.1 260 09:27 20.07.2019
4935 Clouds 21 1014 100 10000 3.1 260 08:54 20.07.2019
4936 Clouds 21 1013 83 6000 4.6 280 08:24 20.07.2019
4937 Clouds 21 1013 100 10000 1.5 240 07:43 20.07.2019
4938 Clouds 21 1013 100 10000 2.6 280 06:46 20.07.2019
4939 Clouds 21 1013 100 10000 1.5 310 05:49 20.07.2019
4940 Clouds 21 1013 100 10000 1.5 290 04:31 20.07.2019
4941 Clouds 22 1014 94 10000 3.1 320 01:59 20.07.2019
4942 Clouds 22 1014 94 10000 3.1 310 00:59 20.07.2019
4943 Clouds 22 1014 94 10000 3.6 310 00:37 20.07.2019
4944 Clouds 22 1014 94 10000 3.6 310 00:18 20.07.2019
4945 Clouds 23 1013 88 10000 3.1 300 23:39 19.07.2019
4946 Clouds 23 1013 88 10000 3.1 300 23:21 19.07.2019
4947 Clouds 22 1012 88 10000 3.1 320 22:43 19.07.2019
4948 Clouds 22 1012 88 10000 3.1 320 22:22 19.07.2019
4949 Clouds 23 1012 83 10000 4.1 300 21:45 19.07.2019
4950 Clouds 24 1012 83 10000 4.1 300 21:26 19.07.2019
4951 Clouds 24 1011 78 10000 2.6 300 20:45 19.07.2019
4952 Clouds 24 1011 78 10000 2.6 300 20:26 19.07.2019
4953 Clouds 25 1011 73 10000 4.1 300 19:48 19.07.2019
4954 Clouds 25 1011 73 10000 4.1 300 19:20 19.07.2019
4955 Clouds 26 1011 69 10000 6.2 280 18:42 19.07.2019
4956 Clouds 26 1011 69 10000 6.2 280 18:21 19.07.2019
4957 Clear 25 1011 65 10000 6.2 320 17:52 19.07.2019
4958 Clouds 26 1011 73 10000 6.2 280 17:27 19.07.2019
4959 Clouds 26 1011 73 10000 6.2 280 17:27 19.07.2019
4960 Clouds 26 1011 69 10000 6.2 300 16:49 19.07.2019
4961 Clouds 26 1011 69 10000 6.2 300 16:26 19.07.2019
4962 Clear 26 1011 58 10000 5.7 300 15:52 19.07.2019
4963 Clouds 26 1011 69 10000 7.2 320 15:31 19.07.2019
4964 Clear 24 1011 61 10000 5.1 300 14:57 19.07.2019
4965 Clouds 25 1011 73 10000 5.7 280 14:39 19.07.2019
4966 Clouds 25 1011 73 10000 5.7 280 14:21 19.07.2019
4967 Clouds 25 1012 65 10000 4.1 310 13:44 19.07.2019
4968 Clouds 25 1012 65 10000 4.1 310 13:44 19.07.2019
4969 Clouds 25 1012 65 10000 4.1 310 13:44 19.07.2019
4970 Clouds 25 1012 65 10000 4.1 310 13:44 19.07.2019
4971 Clouds 25 1012 65 10000 4.1 310 13:25 19.07.2019
4972 Clouds 24 1012 69 10000 2.1 320 12:55 19.07.2019
4973 Clouds 24 1012 69 10000 5.1 260 12:31 19.07.2019
4974 Clear 23 1012 78 10000 1.5 0 11:59 19.07.2019
4975 Clouds 23 1011 73 10000 4.1 340 11:41 19.07.2019
4976 Clouds 22 1012 88 10000 1.5 360 11:18 19.07.2019
4977 Clouds 22 1012 78 10000 3.1 320 10:42 19.07.2019
4978 Clouds 22 1012 78 10000 3.1 320 10:22 19.07.2019
4979 Clouds 21 1012 94 10000 1.5 0 09:57 19.07.2019
4980 Clouds 21 1011 83 10000 3.6 300 09:39 19.07.2019
4981 Clouds 21 1011 83 10000 3.6 300 09:20 19.07.2019
4982 Clouds 20 1011 83 10000 2.6 340 08:42 19.07.2019
4983 Clouds 20 1012 94 10000 2.1 20 07:53 19.07.2019
4984 Clouds 20 1012 94 10000 2.6 20 07:28 19.07.2019
4985 Clouds 21 1012 88 10000 3.6 10 05:55 19.07.2019
4986 Clouds 21 1014 94 10000 4.1 20 02:23 19.07.2019
4987 Clouds 21 1014 94 10000 3.6 360 00:59 19.07.2019
4988 Clouds 21 1014 94 10000 4.1 360 00:31 19.07.2019
4989 Clouds 21 1014 88 10000 4.6 350 23:43 18.07.2019
4990 Clouds 21 1014 88 10000 4.6 350 23:24 18.07.2019
4991 Clouds 21 1014 88 10000 4.6 360 22:59 18.07.2019
4992 Clouds 21 1014 88 10000 4.6 360 22:59 18.07.2019
4993 Clouds 21 1013 77 10000 5.1 20 22:39 18.07.2019
4994 Clouds 22 1014 83 10000 4.6 350 22:18 18.07.2019
4995 Clouds 22 1013 78 10000 5.7 20 21:43 18.07.2019
4996 Clouds 22 1013 78 10000 5.7 20 21:24 18.07.2019
4997 Clouds 22 1013 78 10000 5.7 20 21:24 18.07.2019
4998 Clouds 22 1013 51 10000 5.1 20 20:49 18.07.2019
4999 Clouds 22 1013 51 10000 5.1 20 20:29 18.07.2019
5000 Clouds 22 1013 51 10000 5.1 20 20:29 18.07.2019
5001 Clear 23 1012 69 10000 7.2 350 19:53 18.07.2019
5002 Clouds 23 1013 73 10000 8.7 340 19:32 18.07.2019
5003 Clear 24 1013 65 10000 7.7 340 18:58 18.07.2019
5004 Clouds 24 1015 69 10000 8.7 20 18:38 18.07.2019
5005 Clouds 24 1015 69 10000 8.7 20 18:19 18.07.2019
5006 Clouds 24 1013 69 10000 8.7 360 17:42 18.07.2019
5007 Clouds 24 1013 69 10000 8.7 360 17:42 18.07.2019
5008 Clouds 24 1013 69 10000 8.7 360 17:24 18.07.2019
5009 Clear 25 1013 54 10000 5.7 350 16:55 18.07.2019
5010 Clear 24 1014 60 10000 6.7 20 16:29 18.07.2019
5011 Clear 25 1014 50 10000 5.7 350 15:58 18.07.2019
5012 Clear 25 1014 60 10000 8.2 20 15:39 18.07.2019
5013 Clear 25 1014 60 10000 8.2 20 15:20 18.07.2019
5014 Clear 24 1015 60 10000 6.2 20 14:43 18.07.2019
5015 Clear 24 1015 60 10000 6.2 20 14:25 18.07.2019
5016 Clouds 24 1015 53 10000 4.6 350 13:46 18.07.2019
5017 Clouds 24 1015 53 10000 4.6 350 13:22 18.07.2019
5018 Clouds 23 1015 56 10000 6.2 360 12:49 18.07.2019
5019 Clouds 23 1016 60 10000 3.6 30 12:21 18.07.2019
5020 Clouds 23 1016 60 10000 3.6 30 12:21 18.07.2019
5021 Clouds 23 1016 60 10000 3.6 30 12:21 18.07.2019
5022 Clouds 23 1016 60 10000 3.6 30 11:56 18.07.2019
5023 Clouds 22 1016 56 10000 5.1 60 11:38 18.07.2019
5024 Clouds 22 1016 68 10000 3.6 10 11:19 18.07.2019
5025 Clouds 21 1016 64 8000 4.1 340 10:41 18.07.2019
5026 Clouds 20 1015 64 8000 4.1 360 09:49 18.07.2019
5027 Clouds 20 1015 64 8000 4.1 360 09:26 18.07.2019
5028 Clouds 19 1016 77 10000 4.1 350 08:51 18.07.2019
5029 Clouds 19 1015 68 6000 2.6 20 08:22 18.07.2019
5030 Clouds 19 1016 77 10000 1.5 10 07:54 18.07.2019
5031 Clouds 19 1016 77 10000 1.5 10 07:34 18.07.2019
5032 Clouds 19 1016 68 0 1.5 30 06:43 18.07.2019
5033 Clouds 20 1016 77 10000 4.1 40 05:58 18.07.2019
5034 Clouds 20 1017 72 10000 5.7 360 03:25 18.07.2019
5035 Clouds 20 1018 77 10000 3.1 10 01:52 18.07.2019
5036 Clouds 20 1018 77 10000 4.6 360 01:32 18.07.2019
5037 Clouds 20 1018 77 10000 4.6 350 23:57 17.07.2019
5038 Clouds 20 1018 77 10000 4.6 10 23:21 17.07.2019
5039 Clouds 20 1018 77 10000 4.1 10 22:58 17.07.2019
5040 Clouds 20 1018 77 10000 4.1 10 22:58 17.07.2019
5041 Clouds 21 1017 64 10000 4.1 40 22:40 17.07.2019
5042 Clouds 21 1017 64 10000 4.1 40 22:20 17.07.2019
5043 Clouds 21 1017 64 10000 4.1 40 21:46 17.07.2019
5044 Clouds 21 1017 64 10000 4.1 40 21:28 17.07.2019
5045 Clouds 22 1017 60 10000 5.1 340 20:59 17.07.2019
5046 Clouds 22 1017 60 10000 5.1 20 20:40 17.07.2019
5047 Clouds 23 1017 56 10000 4.1 340 20:21 17.07.2019
5048 Clouds 23 1017 56 10000 4.1 340 19:57 17.07.2019
5049 Clouds 23 1017 56 10000 7.2 360 19:39 17.07.2019
5050 Clouds 23 1018 60 10000 7.2 20 19:18 17.07.2019
5051 Clouds 23 1018 60 10000 7.2 20 18:41 17.07.2019
5052 Clouds 24 1018 57 10000 8.2 20 18:20 17.07.2019
5053 Clouds 24 1018 57 10000 8.2 20 17:50 17.07.2019
5054 Clouds 24 1018 57 10000 8.2 20 17:27 17.07.2019
5055 Clouds 24 1018 57 10000 6.2 330 16:56 17.07.2019
5056 Clouds 24 1018 53 10000 8.2 340 16:38 17.07.2019
5057 Clouds 24 1018 53 10000 8.2 340 16:18 17.07.2019
5058 Clouds 24 1018 57 10000 5.1 350 15:50 17.07.2019
5059 Clouds 24 1018 57 0 8.2 360 15:25 17.07.2019
5060 Clouds 24 1018 61 10000 4.1 350 14:55 17.07.2019
5061 Clouds 24 1018 57 10000 5.1 340 14:37 17.07.2019
5062 Clouds 24 1018 57 10000 5.1 340 14:18 17.07.2019
5063 Clouds 24 1019 60 10000 3.1 320 13:41 17.07.2019
5064 Clouds 24 1019 60 10000 3.1 320 13:21 17.07.2019
5065 Clouds 23 1019 56 10000 4.1 320 12:40 17.07.2019
5066 Clouds 23 1019 56 10000 4.1 320 12:21 17.07.2019
5067 Clouds 22 1019 73 10000 3.6 360 11:45 17.07.2019
5068 Clouds 22 1018 64 10000 5.1 360 11:21 17.07.2019
5069 Clouds 21 1018 68 10000 4.1 360 10:55 17.07.2019
5070 Clouds 21 1018 68 10000 4.1 360 10:37 17.07.2019
5071 Clouds 21 1018 68 10000 4.1 360 10:18 17.07.2019
5072 Clouds 21 1018 77 10000 3.1 0 09:44 17.07.2019
5073 Clouds 20 1017 64 10000 4.1 360 09:24 17.07.2019
5074 Clouds 20 1017 82 10000 3.6 340 08:43 17.07.2019
5075 Clouds 20 1017 82 10000 3.6 340 08:22 17.07.2019
5076 Clouds 20 1017 82 10000 3.1 10 07:50 17.07.2019
5077 Clouds 20 1017 82 10000 3.1 10 07:24 17.07.2019
5078 Clouds 20 1017 82 10000 4.1 340 06:57 17.07.2019
5079 Clouds 20 1017 82 10000 4.1 340 06:30 17.07.2019
5080 Clouds 20 1017 82 10000 4.1 340 06:30 17.07.2019
5081 Clouds 20 1017 88 10000 3.1 10 05:49 17.07.2019
5082 Clouds 20 1017 88 10000 3.6 10 05:28 17.07.2019
5083 Clouds 20 1017 88 10000 3.6 340 04:42 17.07.2019
5084 Clouds 20 1017 88 10000 4.6 350 03:19 17.07.2019
5085 Clouds 20 1017 88 10000 3.6 20 02:19 17.07.2019
5086 Clouds 20 1018 88 10000 3.6 20 01:26 17.07.2019
5087 Clouds 20 1018 88 10000 3.6 360 00:55 17.07.2019
5088 Clouds 21 1018 88 10000 3.6 10 00:36 17.07.2019
5089 Clouds 21 1018 88 10000 3.6 10 00:18 17.07.2019
5090 Clouds 21 1017 94 10000 5.1 10 23:36 16.07.2019
5091 Clouds 21 1017 94 10000 5.1 10 23:18 16.07.2019
5092 Clouds 21 1016 73 10000 5.1 20 22:42 16.07.2019
5093 Clouds 21 1016 73 10000 5.1 20 22:20 16.07.2019
5094 Clouds 21 1017 88 10000 4.6 20 21:46 16.07.2019
5095 Clouds 21 1016 73 10000 7.2 20 21:22 16.07.2019
5096 Clouds 22 1016 83 10000 5.7 360 20:58 16.07.2019
5097 Clouds 22 1016 68 10000 7.2 360 20:39 16.07.2019
5098 Clouds 22 1016 68 10000 7.2 360 20:21 16.07.2019
5099 Clouds 23 1015 73 10000 6.2 350 19:51 16.07.2019
5100 Clouds 23 1015 73 10000 7.2 20 19:28 16.07.2019
5101 Clouds 23 1015 69 10000 6.2 20 18:57 16.07.2019
5102 Clouds 23 1015 69 10000 6.2 20 18:38 16.07.2019
5103 Clouds 23 1015 69 10000 6.2 20 18:19 16.07.2019
5104 Clouds 24 1015 69 10000 9.3 360 17:40 16.07.2019
5105 Clouds 24 1015 69 10000 9.3 360 17:21 16.07.2019
5106 Clear 24 1015 61 10000 6.7 350 16:44 16.07.2019
5107 Clouds 25 1016 64 10000 6.2 340 16:21 16.07.2019
5108 Clouds 24 1016 64 10000 5.1 340 15:42 16.07.2019
5109 Clouds 24 1016 64 10000 5.1 340 15:21 16.07.2019
5110 Clear 24 1016 65 10000 4.74 353.516 14:59 16.07.2019
5111 Clouds 24 1016 64 10000 6.2 340 14:41 16.07.2019
5112 Clouds 24 1016 64 10000 6.2 340 14:23 16.07.2019
5113 Clear 24 1016 65 10000 4.1 360 13:46 16.07.2019
5114 Clouds 24 1016 64 10000 6.2 340 13:27 16.07.2019
5115 Clouds 23 1016 69 10000 4.78 352.652 12:56 16.07.2019
5116 Clouds 23 1016 68 10000 2.1 40 12:38 16.07.2019
5117 Clouds 23 1016 68 10000 2.1 40 12:19 16.07.2019
5118 Clouds 22 1016 78 10000 2.6 10 11:44 16.07.2019
5119 Clouds 22 1016 73 10000 4.1 40 11:24 16.07.2019
5120 -273 0 0 0 0 0 10:57 16.07.2019
5121 Clouds 21 1015 73 10000 2.1 40 10:38 16.07.2019
5122 Clouds 21 1015 73 10000 2.1 40 10:18 16.07.2019
5123 Clouds 20 1015 77 10000 3.1 40 09:42 16.07.2019
5124 Clouds 20 1015 77 10000 3.1 40 09:20 16.07.2019
5125 Clouds 20 1016 88 10000 3.1 10 08:46 16.07.2019
5126 Clouds 20 1015 88 10000 4.6 20 08:23 16.07.2019
5127 Clouds 20 1015 94 10000 3.1 10 07:50 16.07.2019
5128 Clouds 20 1015 94 10000 4.1 360 07:32 16.07.2019
5129 Clouds 20 1015 94 10000 3.6 30 06:58 16.07.2019
5130 Clouds 20 1015 94 10000 3.6 30 06:35 16.07.2019
5131 Clouds 20 1015 94 10000 4.6 10 05:48 16.07.2019
5132 Clouds 20 1015 94 10000 3.6 20 05:25 16.07.2019
5133 Clouds 20 1015 94 10000 3.47 7.754 04:26 16.07.2019
5134 Clouds 20 1016 94 10000 3.6 30 03:34 16.07.2019
5135 Clouds 21 1016 94 10000 4.1 30 02:42 16.07.2019
5136 Clouds 21 1016 94 10000 4.1 30 02:19 16.07.2019
5137 Clouds 21 1016 88 10000 4.1 10 01:23 16.07.2019
5138 Clouds 21 1016 88 10000 4.1 30 00:22 16.07.2019
5139 Clouds 21 1017 88 10000 4.1 20 23:58 15.07.2019
5140 Clouds 21 1016 94 10000 5.1 10 23:37 15.07.2019
5141 Clouds 21 1016 88 10000 5.1 20 22:59 15.07.2019
5142 Clouds 21 1015 77 10000 6.2 20 22:38 15.07.2019
5143 Clouds 21 1015 77 10000 6.2 20 22:19 15.07.2019
5144 Clouds 22 1015 73 10000 5.1 20 21:42 15.07.2019
5145 Clouds 22 1015 73 10000 5.1 20 21:21 15.07.2019
5146 Clouds 22 1015 78 10000 6.2 10 20:58 15.07.2019
5147 Clouds 22 1015 73 10000 6.2 20 20:40 15.07.2019
5148 Clouds 22 1015 73 10000 6.2 20 20:22 15.07.2019
5149 Clear 23 1015 73 10000 7.2 10 19:55 15.07.2019
5150 Clouds 23 1015 73 10000 7.7 20 19:37 15.07.2019
5151 Clouds 23 1015 73 10000 7.7 20 19:18 15.07.2019
5152 Clouds 24 1015 69 10000 7.7 20 18:42 15.07.2019
5153 Clouds 24 1015 69 10000 7.7 20 18:19 15.07.2019
5154 Clear 25 1015 65 10000 8.2 10 17:55 15.07.2019
5155 Clouds 25 1015 64 10000 8.2 20 17:37 15.07.2019
5156 Clouds 25 1015 64 10000 8.2 20 17:19 15.07.2019
5157 Clouds 25 1015 64 10000 9.3 360 16:39 15.07.2019
5158 Clouds 25 1015 64 10000 9.3 360 16:21 15.07.2019
5159 Clouds 25 1015 61 10000 7.2 360 15:58 15.07.2019
5160 Clouds 25 1016 64 10000 8.2 20 15:37 15.07.2019
5161 Clouds 25 1016 64 10000 8.2 20 15:19 15.07.2019
5162 Clouds 25 1015 61 10000 6.2 10 14:45 15.07.2019
5163 Clouds 25 1016 69 10000 7.2 20 14:26 15.07.2019
5164 Clouds 24 1016 65 10000 5.1 20 13:57 15.07.2019
5165 Clouds 24 1016 64 10000 6.2 60 13:36 15.07.2019
5166 Clouds 24 1016 64 10000 6.2 60 13:18 15.07.2019
5167 Clouds 23 1016 69 10000 5.1 360 12:42 15.07.2019
5168 Clouds 23 1016 69 10000 5.1 360 12:21 15.07.2019
5169 Clouds 22 1016 78 10000 5.1 20 11:43 15.07.2019
5170 Clouds 22 1016 73 10000 6.2 20 11:25 15.07.2019
5171 Clouds 21 1016 88 10000 3.6 40 10:48 15.07.2019
5172 Clouds 21 1016 77 10000 4.1 20 10:30 15.07.2019
5173 Clouds 21 1016 88 10000 4.6 70 09:57 15.07.2019
5174 Clouds 21 1016 77 10000 4.6 60 09:39 15.07.2019
5175 Clouds 21 1016 77 10000 4.6 60 09:18 15.07.2019
5176 Clouds 20 1015 77 10000 4.1 360 08:41 15.07.2019
5177 Clouds 20 1015 77 10000 4.1 360 08:23 15.07.2019
5178 Clouds 20 1016 100 10000 4.1 30 07:41 15.07.2019
5179 Clouds 20 1016 100 10000 4.1 30 07:20 15.07.2019
5180 Clouds 20 1016 100 10000 4.1 30 06:39 15.07.2019
5181 Clouds 21 1016 100 10000 4.5 26.002 05:49 15.07.2019
5182 Clouds 21 1016 100 10000 4.1 20 05:29 15.07.2019
5183 Clouds 21 1016 94 10000 4.6 20 04:43 15.07.2019
5184 Clouds 21 1016 94 10000 4.1 30 03:51 15.07.2019
5185 Clouds 21 1017 94 10000 5.1 30 02:47 15.07.2019
5186 Clouds 21 1017 100 5000 5.1 20 01:45 15.07.2019
5187 Clouds 21 1017 83 6000 4.1 40 01:26 15.07.2019
5188 Clouds 21 1017 100 10000 3.6 30 00:51 15.07.2019
5189 Clouds 21 1017 83 10000 5.7 20 00:22 15.07.2019
5190 Clouds 21 1017 100 10000 5.1 20 23:55 14.07.2019
5191 Clouds 21 1017 83 10000 5.7 20 23:36 14.07.2019
5192 Clouds 21 1017 83 10000 5.7 20 23:18 14.07.2019
5193 Clouds 21 1017 83 10000 5.7 10 22:55 14.07.2019
5194 Clouds 22 1016 78 10000 5.1 40 22:36 14.07.2019
5195 Clouds 22 1016 78 10000 5.1 40 22:18 14.07.2019
5196 Clear 23 1016 83 10000 6.2 40 21:42 14.07.2019
5197 Clear 23 1016 83 10000 6.2 40 21:18 14.07.2019
5198 Clouds 24 1016 73 10000 8.7 20 20:57 14.07.2019
5199 Clouds 24 1016 73 10000 8.7 20 20:37 14.07.2019
5200 Clouds 24 1016 73 10000 8.7 20 20:18 14.07.2019
5201 Clouds 25 1016 69 10000 7.7 20 19:43 14.07.2019
5202 Clouds 25 1016 69 10000 7.7 20 19:24 14.07.2019
5203 Clear 25 1015 65 10000 8.2 20 18:57 14.07.2019
5204 Clear 25 1016 69 10000 7.7 20 18:38 14.07.2019
5205 Clear 25 1016 69 10000 7.7 20 18:19 14.07.2019
5206 Clear 26 1016 57 10000 7.7 10 17:47 14.07.2019
5207 Clear 26 1016 65 10000 7.2 40 17:21 14.07.2019
5208 Clear 26 1016 54 10000 6.7 10 16:46 14.07.2019
5209 Clear 26 1017 61 10000 7.7 20 16:24 14.07.2019
5210 Clear 26 1016 51 10000 6.7 350 15:54 14.07.2019
5211 Clear 26 1017 61 10000 7.2 20 15:29 14.07.2019
5212 Clear 25 1016 51 10000 6.7 20 14:50 14.07.2019
5213 Clear 25 1017 64 10000 8.2 40 14:22 14.07.2019
5214 Clear 25 1017 57 10000 6.2 360 13:49 14.07.2019
5215 Clouds 25 1017 64 10000 7.2 20 13:27 14.07.2019
5216 Clear 25 1017 61 10000 5.1 30 12:59 14.07.2019
5217 Clouds 24 1017 64 10000 6.2 20 12:41 14.07.2019
5218 Clouds 24 1017 64 10000 6.2 20 12:21 14.07.2019
5219 Clear 24 1017 73 10000 4.1 40 11:52 14.07.2019
5220 Clouds 24 1017 64 10000 5.1 60 11:24 14.07.2019
5221 Clouds 22 1017 83 10000 3.6 60 10:50 14.07.2019
5222 Clouds 22 1017 73 6000 4.6 40 10:25 14.07.2019
5223 Clouds 21 1017 94 10000 3.6 0 09:56 14.07.2019
5224 Clouds 21 1016 77 6000 4.6 20 09:37 14.07.2019
5225 Clouds 21 1016 77 6000 4.6 20 09:19 14.07.2019
5226 Clouds 21 1016 73 6000 1.5 60 08:41 14.07.2019
5227 Clouds 21 1016 94 10000 4.1 30 07:56 14.07.2019
5228 Clouds 21 1016 94 10000 3.6 60 07:35 14.07.2019
5229 Clouds 21 1016 94 10000 4.1 60 06:29 14.07.2019
5230 Clouds 21 1016 94 10000 4.1 50 05:44 14.07.2019
5231 Clouds 20 1017 94 10000 2.6 40 03:46 14.07.2019
5232 Clouds 20 1017 94 10000 2.6 50 03:27 14.07.2019
5233 Clouds 21 1018 88 10000 2.1 40 02:39 14.07.2019
5234 Clouds 21 1018 88 10000 2.1 40 02:20 14.07.2019
5235 Clouds 21 1018 88 10000 3.1 20 01:31 14.07.2019
5236 Clouds 21 1019 88 10000 3.1 20 00:55 14.07.2019
5237 Clouds 21 1019 88 10000 3.1 20 00:37 14.07.2019
5238 Clouds 21 1019 88 10000 3.1 20 00:18 14.07.2019
5239 Clouds 21 1018 88 10000 4.1 20 23:42 13.07.2019
5240 Clouds 22 1018 88 10000 4.1 20 23:22 13.07.2019
5241 Clouds 22 1017 73 10000 4.1 360 22:43 13.07.2019
5242 Clouds 22 1017 73 10000 4.1 360 22:22 13.07.2019
5243 Clear 23 1017 78 10000 4.6 350 21:49 13.07.2019
5244 Clouds 23 1017 69 10000 5.1 20 21:23 13.07.2019
5245 Clear 24 1017 69 10000 4.6 340 20:53 13.07.2019
5246 Clouds 24 1017 64 10000 4.1 340 20:34 13.07.2019
5247 Clear 25 1017 61 10000 5.1 340 19:59 13.07.2019
5248 Clouds 25 1017 69 10000 4.1 340 19:37 13.07.2019
5249 Clouds 25 1017 69 10000 4.1 340 19:19 13.07.2019
5250 Clouds 25 1017 64 10000 7.2 340 18:39 13.07.2019
5251 Clouds 25 1017 64 10000 7.2 340 18:19 13.07.2019
5252 Clouds 26 1017 65 10000 5.7 320 17:38 13.07.2019
5253 Clouds 26 1017 65 10000 5.7 320 17:19 13.07.2019
5254 Clouds 26 1017 65 10000 5.7 320 17:19 13.07.2019
5255 Clear 25 1017 61 10000 5.7 310 16:44 13.07.2019
5256 Clouds 26 1017 61 10000 6.2 340 16:26 13.07.2019
5257 Clear 26 1017 58 10000 5.7 350 15:48 13.07.2019
5258 Clouds 26 1017 61 10000 7.7 340 15:25 13.07.2019
5259 Clear 26 1017 54 10000 3.6 330 14:57 13.07.2019
5260 Clouds 26 1017 65 10000 6.2 360 14:39 13.07.2019
5261 Clouds 26 1017 65 10000 6.2 360 14:20 13.07.2019
5262 Clear 26 1017 57 10000 6.2 320 13:43 13.07.2019
5263 Clear 25 1017 57 10000 6.2 320 13:19 13.07.2019
5264 Clouds 25 1017 61 10000 3.1 280 12:41 13.07.2019
5265 Clouds 25 1017 61 10000 3.1 280 12:23 13.07.2019
5266 Clouds 24 1018 73 10000 1 0 11:57 13.07.2019
5267 Clouds 23 1017 64 10000 4.1 300 11:36 13.07.2019
5268 Clouds 23 1017 64 10000 4.1 300 11:18 13.07.2019
5269 Clouds 22 1018 69 10000 2.1 220 10:39 13.07.2019
5270 Clouds 22 1018 69 10000 2.1 220 10:21 13.07.2019
5271 Clouds 20 1017 83 10000 1 240 09:42 13.07.2019
5272 Clouds 20 1017 83 10000 1 240 09:24 13.07.2019
5273 Clouds 19 1018 100 10000 1.5 210 08:48 13.07.2019
5274 Clouds 19 1017 88 10000 2.1 200 08:27 13.07.2019
5275 Clear 18 1017 100 10000 1.5 250 07:42 13.07.2019
5276 Clear 18 1017 100 10000 1.5 250 07:20 13.07.2019
5277 Clear 19 1017 100 10000 0.5 190 06:29 13.07.2019
5278 Clouds 20 1017 100 10000 0.5 190 05:46 13.07.2019
5279 Clouds 20 1017 100 10000 1 220 04:39 13.07.2019
5280 Clouds 20 1017 100 10000 1 220 04:19 13.07.2019
5281 Clouds 20 1018 94 10000 0.5 0 03:40 13.07.2019
5282 Clouds 20 1018 100 10000 1 300 02:52 13.07.2019
5283 Clouds 20 1019 100 10000 1.5 330 01:52 13.07.2019
5284 Clouds 21 1019 94 10000 2.1 340 01:21 13.07.2019
5285 Clouds 21 1019 94 10000 3.1 330 00:58 13.07.2019
5286 Clouds 21 1019 88 10000 3.1 320 00:21 13.07.2019
5287 Clouds 21 1019 94 10000 3.6 320 23:50 12.07.2019
5288 Clouds 21 1018 83 10000 4.1 320 23:30 12.07.2019
5289 Clouds 22 1018 83 10000 3.6 330 22:57 12.07.2019
5290 Clear 22 1017 73 10000 4.1 280 22:38 12.07.2019
5291 Clear 22 1017 73 10000 4.1 280 22:20 12.07.2019
5292 Clear 23 1017 73 10000 4.1 340 21:41 12.07.2019
5293 Clear 23 1017 73 10000 4.1 340 21:19 12.07.2019
5294 Clouds 24 1017 73 10000 3.1 360 20:44 12.07.2019
5295 Clouds 24 1016 69 10000 5.1 320 20:22 12.07.2019
5296 Clouds 24 1017 73 10000 4.6 340 19:43 12.07.2019
5297 Clouds 25 1016 64 10000 4.6 340 19:25 12.07.2019
5298 Clouds 25 1016 65 10000 6.2 310 18:49 12.07.2019
5299 Clouds 25 1016 69 10000 5.1 340 18:23 12.07.2019
5300 Clouds 25 1016 65 10000 5.7 320 17:58 12.07.2019
5301 Clouds 25 1016 69 10000 5.1 340 17:38 12.07.2019
5302 Clouds 25 1016 69 10000 5.1 340 17:19 12.07.2019
5303 Clouds 25 1016 65 10000 7.2 340 16:36 12.07.2019
5304 Clouds 25 1016 65 10000 7.2 340 16:18 12.07.2019
5305 Clouds 25 1016 69 10000 7.2 320 15:38 12.07.2019
5306 Clouds 24 1016 69 10000 7.2 320 15:19 12.07.2019
5307 Clear 25 1016 65 10000 7.2 330 14:44 12.07.2019
5308 Clear 25 1016 69 10000 8.2 320 14:21 12.07.2019
5309 Clear 25 1016 61 10000 3.1 310 13:47 12.07.2019
5310 Clear 24 1016 69 10000 6.2 320 13:24 12.07.2019
5311 Mist 24 1016 61 10000 3.6 270 12:44 12.07.2019
5312 Mist 24 1016 69 10000 7.2 320 12:24 12.07.2019
5313 Mist 22 1016 78 10000 3.1 240 11:57 12.07.2019
5314 Mist 22 1017 64 10000 2.1 240 11:38 12.07.2019
5315 Mist 22 1017 64 10000 2.1 240 11:19 12.07.2019
5316 Clear 22 1016 78 10000 1.5 260 10:41 12.07.2019
5317 Clear 22 1016 78 10000 1.5 260 10:23 12.07.2019
5318 Clear 21 1016 100 10000 3.1 240 09:53 12.07.2019
5319 Clear 21 1015 83 10000 2.6 240 09:28 12.07.2019
5320 Clear 20 1016 100 10000 1.5 250 08:51 12.07.2019
5321 Clear 20 1015 83 10000 1 240 08:24 12.07.2019
5322 Clouds 20 1016 100 10000 1 0 07:51 12.07.2019
5323 Clouds 20 1016 100 10000 3.1 240 07:31 12.07.2019
5324 Clouds 20 1015 100 10000 2.1 270 06:32 12.07.2019
5325 Clouds 21 1015 100 10000 2.1 270 05:52 12.07.2019
5326 Clouds 21 1015 100 10000 2.6 300 04:55 12.07.2019
5327 Clouds 21 1016 94 10000 2.1 300 02:55 12.07.2019
5328 Clouds 21 1016 94 10000 2.1 360 01:37 12.07.2019
5329 Clouds 21 1015 94 10000 1.5 350 00:44 12.07.2019
5330 Clouds 21 1016 94 10000 2.1 340 00:19 12.07.2019
5331 Clouds 22 1016 83 10000 3.6 330 23:43 11.07.2019
5332 Clouds 22 1016 83 10000 3.6 330 23:23 11.07.2019
5333 Clouds 22 1015 78 10000 3.6 330 22:48 11.07.2019
5334 Clear 22 1015 73 6000 2.1 300 22:25 11.07.2019
5335 Clear 22 1015 73 6000 2.1 300 22:25 11.07.2019
5336 Clouds 23 1015 73 10000 4.6 320 21:55 11.07.2019
5337 Clear 23 1014 69 6000 2.1 300 21:36 11.07.2019
5338 Clear 23 1014 69 6000 2.1 300 21:18 11.07.2019
5339 Clear 24 1014 64 8000 5.7 320 20:42 11.07.2019
5340 Clear 24 1014 64 8000 5.7 320 20:22 11.07.2019
5341 Clouds 24 1014 65 10000 4.66 277.392 19:56 11.07.2019
5342 Clouds 25 1013 69 8000 8.2 320 19:37 11.07.2019
5343 Clouds 25 1013 69 8000 8.2 320 19:19 11.07.2019
5344 Clouds 25 1013 64 8000 8.2 320 18:41 11.07.2019
5345 Clouds 25 1013 64 8000 8.2 320 18:23 11.07.2019
5346 Clouds 25 1013 57 10000 7.2 310 17:49 11.07.2019
5347 Clouds 25 1013 65 8000 6.2 300 17:30 11.07.2019
5348 Clouds 25 1013 57 10000 7.2 320 16:55 11.07.2019
5349 Clouds 25 1013 65 10000 8.2 300 16:37 11.07.2019
5350 Clouds 25 1013 65 10000 8.2 300 16:18 11.07.2019
5351 Clear 26 1013 65 10000 7.2 320 15:40 11.07.2019
5352 Clear 26 1013 65 10000 7.2 320 15:20 11.07.2019
5353 Clouds 25 1013 58 10000 6.2 310 14:44 11.07.2019
5354 Clear 25 1013 64 10000 7.2 320 14:24 11.07.2019
5355 Clouds 25 1013 57 10000 4.6 260 13:52 11.07.2019
5356 Clear 25 1013 61 8000 7.7 320 13:33 11.07.2019
5357 Clouds 24 1013 65 10000 3.6 280 12:58 11.07.2019
5358 Clouds 24 1013 64 8000 7.7 300 12:38 11.07.2019
5359 Clouds 24 1013 64 8000 7.7 300 12:19 11.07.2019
5360 Clouds 23 1012 69 6000 4.1 260 11:43 11.07.2019
5361 Clouds 23 1012 69 6000 4.1 260 11:24 11.07.2019
5362 Clouds 22 1013 78 10000 4.1 230 10:51 11.07.2019
5363 Clouds 22 1012 68 5000 3.1 200 10:19 11.07.2019
5364 Mist 21 1012 83 10000 3.1 240 09:49 11.07.2019
5365 Mist 20 1012 73 6000 3.1 200 09:31 11.07.2019
5366 Clouds 19 1012 93 10000 2.1 230 08:57 11.07.2019
5367 Clear 19 1011 77 6000 2.6 240 08:37 11.07.2019
5368 Clear 19 1011 77 6000 2.6 240 08:19 11.07.2019
5369 Clouds 18 1012 100 10000 2.6 240 07:42 11.07.2019
5370 Clouds 18 1012 93 10000 2.6 230 06:49 11.07.2019
5371 Clouds 19 1012 93 10000 2.1 230 06:18 11.07.2019
5372 Clear 18 1012 100 10000 1 190 05:31 11.07.2019
5373 Clear 19 1012 100 10000 1 0 04:56 11.07.2019
5374 Clear 19 1012 100 10000 3.1 340 03:19 11.07.2019
5375 Clear 19 1013 93 10000 3.1 340 02:18 11.07.2019
5376 Clear 20 1014 88 10000 2.1 340 00:32 11.07.2019
5377 Clear 20 1014 88 10000 2.6 330 23:50 10.07.2019
5378 Clear 20 1014 88 10000 3.1 310 23:24 10.07.2019
5379 Clear 21 1013 83 10000 4.1 320 22:54 10.07.2019
5380 Clear 21 1012 73 10000 4.1 320 22:22 10.07.2019
5381 Clear 22 1013 68 10000 5.1 300 21:55 10.07.2019
5382 Clear 22 1012 64 10000 4.1 320 21:37 10.07.2019
5383 Clear 22 1012 64 10000 4.1 320 21:19 10.07.2019
5384 Clear 23 1012 60 10000 4.1 320 20:41 10.07.2019
5385 Clear 23 1012 60 10000 4.1 320 20:21 10.07.2019
5386 Clear 23 1012 60 10000 5.1 320 19:55 10.07.2019
5387 Clouds 23 1012 60 10000 7.2 320 19:37 10.07.2019
5388 Clouds 23 1012 60 10000 7.2 320 19:18 10.07.2019
5389 Clouds 24 1012 57 10000 3.6 320 18:42 10.07.2019
5390 Clouds 24 1012 57 10000 3.6 320 18:22 10.07.2019
5391 Clouds 24 1012 57 10000 6.7 330 17:44 10.07.2019
5392 Clouds 24 1013 57 10000 2.6 310 17:25 10.07.2019
5393 Clouds 24 1012 60 10000 5.1 340 16:41 10.07.2019
5394 Clouds 24 1012 60 10000 5.1 340 16:21 10.07.2019
5395 Clouds 24 1012 57 10000 6.2 320 15:47 10.07.2019
5396 Clouds 24 1013 60 10000 5.1 320 15:25 10.07.2019
5397 Clouds 24 1013 57 10000 4.6 340 14:46 10.07.2019
5398 Clouds 24 1013 57 10000 6.2 360 14:26 10.07.2019
5399 Clouds 23 1013 69 10000 3.1 0 13:54 10.07.2019
5400 Clouds 23 1013 60 10000 5.1 320 13:23 10.07.2019
5401 Clouds 23 1013 73 10000 2.6 20 12:59 10.07.2019
5402 Clouds 23 1013 60 10000 4.1 360 12:39 10.07.2019
5403 Clouds 23 1013 60 10000 4.1 360 12:20 10.07.2019
5404 Clouds 21 1014 78 10000 3.6 360 11:47 10.07.2019
5405 Clouds 21 1013 73 10000 3.1 20 11:21 10.07.2019
5406 Clouds 21 1014 83 10000 2.6 20 10:56 10.07.2019
5407 Clouds 21 1013 68 10000 4.1 20 10:23 10.07.2019
5408 Clouds 20 1013 77 10000 4.1 100 09:45 10.07.2019
5409 Clouds 20 1013 77 10000 4.1 100 09:21 10.07.2019
5410 Clouds 20 1013 77 10000 4.1 100 09:21 10.07.2019
5411 Clouds 18 1013 100 10000 1.5 30 08:57 10.07.2019
5412 Clouds 18 1014 100 0 2.1 110 08:38 10.07.2019
5413 Clouds 18 1014 100 0 2.1 110 08:20 10.07.2019
5414 Clouds 18 1013 100 10000 1.5 20 07:42 10.07.2019
5415 Clouds 18 1013 100 10000 1.5 20 07:22 10.07.2019
5416 Clouds 18 1014 93 0 2.1 80 06:31 10.07.2019
5417 Clouds 19 1014 93 10000 3.6 60 05:40 10.07.2019
5418 Clouds 19 1014 93 10000 3.35 21.201 04:30 10.07.2019
5419 Clouds 20 1016 88 10000 4.6 30 01:49 10.07.2019
5420 Clouds 20 1016 88 10000 4.6 30 01:49 10.07.2019
5421 Clouds 20 1016 88 10000 3.6 10 00:43 10.07.2019
5422 Clouds 20 1016 88 10000 4.1 10 23:42 09.07.2019
5423 Clouds 21 1016 88 10000 4.1 10 23:23 09.07.2019
5424 Clouds 21 1016 77 10000 3.83 10.448 22:54 09.07.2019
5425 Clouds 21 1015 64 10000 3.1 40 22:36 09.07.2019
5426 Clouds 21 1015 64 10000 3.1 40 22:18 09.07.2019
5427 Clouds 22 1015 64 10000 3.1 40 21:43 09.07.2019
5428 Clouds 22 1015 64 10000 3.1 40 21:24 09.07.2019
5429 Clouds 23 1015 64 10000 5.1 10 20:44 09.07.2019
5430 Clouds 23 1015 64 10000 4.1 20 20:25 09.07.2019
5431 Clouds 24 1015 57 10000 5.7 360 19:43 09.07.2019
5432 Clouds 24 1015 64 10000 7.2 20 19:24 09.07.2019
5433 Clouds 24 1015 53 10000 6.2 360 18:49 09.07.2019
5434 Clouds 24 1015 53 10000 6.2 360 18:49 09.07.2019
5435 Clouds 24 1015 57 10000 8.2 20 18:27 09.07.2019
5436 Clouds 24 1015 53 10000 4.88 6.301 17:57 09.07.2019
5437 Clouds 24 1015 60 10000 5.1 20 17:39 09.07.2019
5438 Clouds 24 1015 60 10000 5.1 20 17:20 09.07.2019
5439 Clouds 24 1016 53 10000 6.2 10 16:50 09.07.2019
5440 Clouds 24 1016 57 10000 9.3 20 16:25 09.07.2019
5441 Clouds 24 1016 57 10000 5.1 10 15:55 09.07.2019
5442 Clouds 24 1016 60 10000 5.1 360 15:36 09.07.2019
5443 Clouds 24 1017 57 10000 5.7 10 14:59 09.07.2019
5444 Clouds 24 1017 60 10000 5.7 20 14:39 09.07.2019
5445 Clouds 24 1017 60 10000 5.7 20 14:20 09.07.2019
5446 Clouds 24 1017 57 10000 6.2 10 13:45 09.07.2019
5447 Clouds 23 1017 64 10000 8.2 80 13:27 09.07.2019
5448 Clouds 23 1017 57 10000 4.1 20 12:42 09.07.2019
5449 Clouds 23 1017 57 10000 4.1 20 12:23 09.07.2019
5450 Clouds 23 1017 64 10000 4.6 20 11:58 09.07.2019
5451 Clouds 22 1017 56 10000 4.1 20 11:40 09.07.2019
5452 Clouds 22 1017 56 10000 4.1 20 11:21 09.07.2019
5453 Clouds 20 1017 77 10000 4.1 30 10:57 09.07.2019
5454 Clouds 20 1024 77 8000 2.1 180 10:34 09.07.2019
5455 Clouds 20 1024 77 8000 2.1 180 10:34 09.07.2019
5456 Clouds 21 1017 88 10000 3.6 50 09:48 09.07.2019
5457 Clouds 20 1017 73 10000 3.1 40 09:29 09.07.2019
5458 Clouds 19 1017 100 10000 2.1 40 08:59 09.07.2019
5459 Clouds 18 1016 82 10000 3.1 60 08:40 09.07.2019
5460 Clear 18 1017 88 10000 2.6 40 04:18 05.07.2019
5461 Clear 19 1018 82 10000 3.1 40 03:38 05.07.2019
5462 Clear 19 1018 82 10000 3.1 40 03:19 05.07.2019
5463 Clear 19 1018 82 10000 3.1 40 02:49 05.07.2019
5464 Clouds 19 1019 82 10000 3.1 50 01:52 05.07.2019
5465 Clouds 20 1019 82 10000 3.6 50 01:25 05.07.2019
5466 Clouds 20 1019 77 10000 3.6 50 00:48 05.07.2019
5467 Clouds 20 1019 77 10000 3.6 30 00:25 05.07.2019
5468 Clouds 20 1018 72 10000 4.6 20 23:23 04.07.2019
5469 Clouds 20 1018 72 10000 4.6 20 23:23 04.07.2019
5470 Clouds 20 1018 72 10000 5.1 10 22:59 04.07.2019
5471 Clouds 21 1017 64 10000 4.1 360 22:40 04.07.2019
5472 Clouds 21 1017 64 10000 4.1 360 22:19 04.07.2019
5473 Clouds 21 1017 64 10000 5.1 360 21:41 04.07.2019
5474 Clouds 21 1017 64 10000 5.1 360 21:22 04.07.2019
5475 Clouds 22 1017 64 10000 5.7 360 20:58 04.07.2019
5476 Clouds 22 1017 60 10000 5.7 20 20:37 04.07.2019
5477 Clouds 22 1017 60 10000 5.7 20 20:18 04.07.2019
5478 Clouds 22 1017 60 10000 5.7 20 20:18 04.07.2019
5479 Clouds 23 1016 60 10000 7.7 360 19:41 04.07.2019
5480 Clouds 23 1016 60 10000 7.7 360 19:21 04.07.2019
5481 Clear 24 1016 61 10000 6.2 350 18:46 04.07.2019
5482 Clouds 24 1016 60 10000 9.8 20 18:27 04.07.2019
5483 Clear 23 1016 57 10000 5.7 360 17:55 04.07.2019
5484 Clouds 23 1016 60 10000 8.2 340 17:37 04.07.2019
5485 Clouds 24 1016 60 10000 8.2 340 17:18 04.07.2019
5486 Clear 24 1016 50 10000 6.2 360 15:43 04.07.2019
5487 Clouds 24 1017 53 10000 7.7 360 15:24 04.07.2019
5488 Clear 24 1016 54 10000 4.6 340 14:58 04.07.2019
5489 Clouds 25 1010 50 10000 5.1 20 14:38 04.07.2019
5490 Clouds 24 1010 50 10000 5.1 20 14:19 04.07.2019
5491 Clear 24 1017 53 10000 4.1 10 13:55 04.07.2019
5492 Clouds 24 1017 50 10000 5.1 20 13:37 04.07.2019
5493 Clouds 24 1017 50 10000 5.1 20 13:18 04.07.2019
5494 Clouds 23 1017 53 10000 5.1 20 12:38 04.07.2019
5495 Clouds 23 1017 53 10000 5.1 20 12:19 04.07.2019
5496 Clouds 22 1017 56 10000 5.1 20 11:42 04.07.2019
5497 Clouds 22 1017 56 10000 5.1 20 11:20 04.07.2019
5498 Clouds 22 1017 68 10000 2.6 0 10:45 04.07.2019
5499 Clouds 22 1017 64 10000 4.1 360 10:27 04.07.2019
5500 Clouds 21 1017 77 10000 2.1 0 09:46 04.07.2019
5501 Clouds 20 1016 68 10000 2.1 360 09:26 04.07.2019
5502 Clouds 19 1017 88 10000 0.86 26.476 08:57 04.07.2019
5503 Clouds 19 1017 88 10000 0.86 26.476 08:57 04.07.2019
5504 Clouds 19 1016 72 10000 1.5 160 08:29 04.07.2019
5505 Clouds 19 1016 93 10000 1.5 70 07:57 04.07.2019
5506 Clouds 19 1016 93 7000 0.86 26.476 07:37 04.07.2019
5507 Clouds 19 1016 93 7000 0.86 26.476 07:18 04.07.2019
5508 Clouds 19 1016 93 10000 1.5 90 05:59 04.07.2019
5509 Clouds 19 1016 93 7000 1.5 70 05:41 04.07.2019
5510 Clouds 20 1016 82 10000 2.1 30 03:48 04.07.2019
5511 Clouds 19 1017 88 10000 3.1 360 01:48 04.07.2019
5512 Clouds 19 1017 82 10000 3.1 360 01:26 04.07.2019
5513 Clouds 19 1017 82 10000 3.6 350 00:39 04.07.2019
5514 Clouds 19 1017 82 10000 4.6 340 23:52 03.07.2019
5515 Clouds 20 1017 77 10000 4.1 340 23:20 03.07.2019
5516 Clouds 20 1016 77 10000 5.1 340 22:56 03.07.2019
5517 Clouds 20 1016 68 10000 4.1 20 22:37 03.07.2019
5518 Clouds 20 1016 68 10000 4.1 20 22:18 03.07.2019
5519 Clouds 21 1016 73 10000 6.2 340 21:50 03.07.2019
5520 Clouds 21 1015 64 10000 6.2 340 21:31 03.07.2019
5521 Clouds 22 1016 64 10000 5.7 340 20:47 03.07.2019
5522 Clouds 22 1016 60 10000 7.2 340 20:29 03.07.2019
5523 Clouds 22 1016 60 10000 7.2 340 20:29 03.07.2019
5524 Clouds 23 1015 60 10000 5.7 340 19:57 03.07.2019
5525 Clouds 23 1015 56 10000 7.2 360 19:39 03.07.2019
5526 Clouds 23 1015 57 10000 6.2 340 18:56 03.07.2019
5527 Clouds 23 1015 56 10000 5.1 340 18:37 03.07.2019
5528 Clouds 23 1015 56 10000 5.1 340 18:19 03.07.2019
5529 Clouds 24 1015 53 10000 5.7 330 17:49 03.07.2019
5530 Clear 24 1015 53 10000 7.2 20 17:19 03.07.2019
5531 Clouds 24 1015 53 10000 6.2 330 16:45 03.07.2019
5532 Clouds 24 1015 53 10000 6.2 330 16:45 03.07.2019
5533 Clouds 24 1015 49 10000 7.2 320 16:24 03.07.2019
5534 Clouds 24 1015 53 10000 5.7 330 15:54 03.07.2019
5535 Clouds 24 1016 56 10000 6.2 360 15:36 03.07.2019
5536 Clouds 24 1016 56 10000 6.2 360 15:18 03.07.2019
5537 Clouds 24 1016 56 10000 6.2 340 14:42 03.07.2019
5538 Clouds 24 1016 56 10000 6.2 340 14:20 03.07.2019
5539 Clouds 24 1016 53 10000 4.1 300 13:45 03.07.2019
5540 Clouds 24 1016 53 10000 5.1 300 13:27 03.07.2019
5541 Clouds 23 1016 53 10000 3.1 250 12:51 03.07.2019
5542 Clouds 23 1016 49 10000 6.2 20 12:19 03.07.2019
5543 Clouds 22 1016 64 10000 2.6 310 11:43 03.07.2019
5544 Clouds 21 1016 64 10000 2.6 310 11:23 03.07.2019
5545 Clouds 21 1016 72 10000 2.25 326.748 10:57 03.07.2019
5546 Clouds 21 1016 64 10000 5.1 340 10:37 03.07.2019
5547 Clouds 21 1016 64 10000 5.1 340 10:18 03.07.2019
5548 Clouds 20 1015 68 10000 2.1 340 09:40 03.07.2019
5549 Clouds 20 1015 68 10000 2.1 340 09:20 03.07.2019
5550 Clouds 20 1016 72 10000 2.1 340 08:50 03.07.2019
5551 Clouds 20 1015 72 10000 1.5 330 08:28 03.07.2019
5552 Clouds 19 1016 72 10000 3.1 330 07:42 03.07.2019
5553 Clouds 19 1016 72 10000 3.1 330 07:21 03.07.2019
5554 Clouds 20 1016 72 10000 3.1 30 06:25 03.07.2019
5555 Clouds 20 1016 72 10000 2.6 20 05:34 03.07.2019
5556 Clouds 20 1016 72 10000 4.6 350 04:38 03.07.2019
5557 Clouds 20 1016 72 10000 4.08 4.091 03:24 03.07.2019
5558 Clouds 20 1017 72 10000 3.6 10 01:49 03.07.2019
5559 Clouds 20 1017 77 10000 2.6 20 01:21 03.07.2019
5560 Clouds 20 1017 77 10000 2.6 20 01:21 03.07.2019
5561 Clouds 20 1017 72 10000 4.1 340 00:45 03.07.2019
5562 Clouds 20 1017 72 10000 3.1 10 23:59 02.07.2019
5563 Clouds 20 1017 72 10000 5.1 350 23:37 02.07.2019
5564 Clouds 20 1017 72 10000 5.1 350 23:19 02.07.2019
5565 Clouds 20 1017 77 10000 4.6 350 22:56 02.07.2019
5566 Clouds 20 1016 64 10000 5.1 320 22:37 02.07.2019
5567 Clouds 20 1016 64 10000 5.1 320 22:18 02.07.2019
5568 Clouds 21 1016 64 10000 5.1 320 21:42 02.07.2019
5569 Clouds 21 1016 64 10000 5.1 320 21:22 02.07.2019
5570 Clouds 21 1016 60 10000 5.1 330 20:58 02.07.2019
5571 Clouds 21 1016 64 10000 7.2 20 20:39 02.07.2019
5572 Clouds 21 1016 64 10000 7.2 20 20:20 02.07.2019
5573 Clouds 22 1016 60 10000 7.2 20 19:42 02.07.2019
5574 Clouds 22 1016 60 10000 7.2 20 19:23 02.07.2019
5575 Clouds 23 1016 56 10000 4.1 360 18:49 02.07.2019
5576 Clouds 23 1016 56 10000 4.1 360 18:19 02.07.2019
5577 Clouds 23 1016 56 10000 4.1 360 18:19 02.07.2019
5578 Clouds 23 1016 56 10000 6.2 20 17:44 02.07.2019
5579 Clouds 23 1016 56 10000 6.2 20 17:24 02.07.2019
5580 Clouds 24 1016 57 10000 5.1 340 16:54 02.07.2019
5581 Clouds 24 1017 53 10000 7.2 360 16:35 02.07.2019
5582 Clouds 23 1017 53 10000 6.2 350 15:48 02.07.2019
5583 Clouds 23 1017 56 10000 7.2 360 15:27 02.07.2019
5584 Clouds 23 1017 57 10000 5.1 350 14:59 02.07.2019
5585 Clouds 23 1017 56 10000 5.1 340 14:40 02.07.2019
5586 Clouds 23 1017 56 10000 5.1 340 14:20 02.07.2019
5587 Clouds 22 1018 56 10000 6.2 300 13:42 02.07.2019
5588 Clouds 22 1018 56 10000 6.2 300 13:18 02.07.2019
5589 Clouds 23 1018 56 10000 6.2 340 12:44 02.07.2019
5590 Clouds 23 1018 56 10000 6.2 340 12:22 02.07.2019
5591 Clouds 21 1018 60 10000 3.1 320 11:44 02.07.2019
5592 Clouds 21 1018 60 10000 3.1 320 11:44 02.07.2019
5593 Clouds 21 1018 60 10000 3.1 320 11:23 02.07.2019
5594 Clouds 20 1018 72 10000 3.6 320 10:55 02.07.2019
5595 Clouds 21 1018 64 10000 3.1 320 10:29 02.07.2019
5596 Clouds 20 1018 77 10000 2.6 350 09:57 02.07.2019
5597 Clouds 20 1018 68 10000 2.1 300 09:22 02.07.2019
5598 Clouds 20 1018 82 10000 1.5 20 08:57 02.07.2019
5599 Clouds 20 1018 68 10000 3.1 320 08:37 02.07.2019
5600 Clouds 19 1018 82 10000 3.6 350 07:59 02.07.2019
5601 Clouds 19 1018 82 10000 2.1 360 07:21 02.07.2019
5602 Clouds 19 1018 82 10000 1.5 340 06:59 02.07.2019
5603 Clouds 19 1018 82 10000 2.6 350 06:36 02.07.2019
5604 Clouds 20 1018 82 10000 3.6 340 05:27 02.07.2019
5605 Clouds 20 1019 82 10000 4.1 350 02:38 02.07.2019
5606 Clouds 20 1020 82 10000 4.1 10 00:28 02.07.2019
5607 Clouds 20 1019 82 10000 3.6 340 23:32 01.07.2019
5608 Clouds 20 1019 82 10000 4.1 350 22:54 01.07.2019
5609 Clouds 20 1019 82 10000 4.1 350 22:54 01.07.2019
5610 Clouds 20 1018 77 10000 6.2 340 22:36 01.07.2019
5611 Clouds 20 1018 77 10000 6.2 340 22:18 01.07.2019
5612 Clouds 21 1018 68 10000 4.6 360 21:43 01.07.2019
5613 Clouds 21 1018 68 10000 4.6 360 21:24 01.07.2019
5614 Clouds 21 1018 73 10000 5.7 340 20:46 01.07.2019
5615 Clouds 21 1018 73 10000 6.2 360 20:20 01.07.2019
5616 Clouds 22 1018 69 10000 5.7 330 19:54 01.07.2019
5617 Clouds 23 1018 64 10000 6.2 320 19:36 01.07.2019
5618 Clouds 23 1018 64 10000 6.2 320 19:18 01.07.2019
5619 Clouds 23 1018 64 10000 6.7 340 18:42 01.07.2019
5620 Clouds 23 1018 64 10000 6.7 340 18:21 01.07.2019
5621 Clouds 23 1019 64 10000 6.7 340 17:45 01.07.2019
5622 Clouds 24 1019 60 10000 6.2 320 17:25 01.07.2019
5623 Clouds 24 1019 61 10000 6.2 340 16:57 01.07.2019
5624 Clouds 24 1019 60 10000 6.2 300 16:38 01.07.2019
5625 Clouds 23 1019 65 10000 5.1 340 16:19 01.07.2019
5626 Clouds 23 1020 64 10000 6.2 320 15:42 01.07.2019
5627 Clouds 23 1020 64 10000 6.2 320 15:22 01.07.2019
5628 Clouds 23 1020 64 10000 8.2 360 14:44 01.07.2019
5629 Clouds 22 1020 73 10000 2.1 0 14:20 01.07.2019
5630 Clouds 22 1020 68 10000 6.7 320 13:47 01.07.2019
5631 Clouds 22 1020 68 10000 6.7 320 13:24 01.07.2019
5632 Clouds 21 1020 83 10000 3.6 330 12:56 01.07.2019
5633 Clouds 21 1020 73 10000 3.1 320 12:37 01.07.2019
5634 Clouds 21 1020 94 10000 2.6 320 12:19 01.07.2019
5635 Clouds 21 1020 73 10000 2.6 340 11:43 01.07.2019
5636 Clouds 21 1020 73 10000 2.6 340 11:22 01.07.2019
5637 Clouds 20 1020 77 10000 2.6 340 10:48 01.07.2019
5638 Clouds 20 1020 77 10000 2.6 340 10:24 01.07.2019
5639 Clouds 20 1020 100 10000 2.6 350 09:58 01.07.2019
5640 Clouds 20 1020 77 10000 2.1 360 09:40 01.07.2019
5641 Clouds 20 1020 77 10000 2.1 360 09:21 01.07.2019
5642 Clouds 20 1019 77 10000 2.1 340 08:38 01.07.2019
5643 Clear 20 1019 88 10000 3.6 350 07:57 01.07.2019
5644 Clouds 20 1019 88 10000 3.1 30 07:27 01.07.2019
5645 Clouds 20 1019 88 10000 2.6 360 06:27 01.07.2019
5646 Clouds 20 1021 94 10000 3.1 350 01:43 01.07.2019
5647 Clouds 20 1021 88 10000 4.6 350 00:49 01.07.2019
5648 Clouds 20 1021 88 10000 4.6 350 00:29 01.07.2019
5649 Clouds 21 1021 88 10000 5.1 350 23:56 30.06.2019
5650 Clouds 21 1021 88 10000 5.1 340 23:21 30.06.2019
5651 Clouds 21 1021 88 10000 4.1 340 22:52 30.06.2019
5652 Clouds 21 1021 88 10000 5.1 350 22:21 30.06.2019
5653 Clouds 21 1020 73 10000 4.6 360 21:42 30.06.2019
5654 Clouds 21 1020 73 10000 4.6 360 21:22 30.06.2019
5655 Clouds 22 1020 78 10000 6.2 340 20:57 30.06.2019
5656 Clouds 22 1019 68 10000 5.1 340 20:39 30.06.2019
5657 Clouds 22 1019 68 10000 5.1 340 20:21 30.06.2019
5658 Clouds 23 1019 68 10000 4.6 340 19:44 30.06.2019
5659 Clouds 23 1019 68 10000 4.6 340 19:25 30.06.2019
5660 Clouds 23 1019 68 10000 4.6 340 19:25 30.06.2019
5661 Clouds 24 1020 64 10000 5.7 340 18:39 30.06.2019
5662 Clouds 24 1019 65 10000 5.7 340 18:20 30.06.2019
5663 Clouds 24 1020 65 10000 4.6 340 17:39 30.06.2019
5664 Clouds 24 1020 65 10000 5.1 340 17:18 30.06.2019
5665 Clouds 24 1020 64 10000 5.7 340 16:49 30.06.2019
5666 Clouds 24 1020 64 10000 5.7 340 16:27 30.06.2019
5667 Clouds 24 1020 64 10000 6.2 340 15:38 30.06.2019
5668 Clear 24 1020 65 10000 6.2 320 15:19 30.06.2019
5669 Clear 24 1020 65 10000 6.2 320 14:55 30.06.2019
5670 Clouds 24 1020 64 10000 7.2 340 14:36 30.06.2019
5671 Clouds 24 1020 61 10000 4.6 310 13:57 30.06.2019
5672 Clouds 24 1020 64 10000 6.2 320 13:37 30.06.2019
5673 Clouds 23 1020 78 10000 2.1 310 13:18 30.06.2019
5674 Clouds 23 1020 64 8000 4.1 300 12:42 30.06.2019
5675 Clouds 23 1020 64 8000 4.1 300 12:20 30.06.2019
5676 Clouds 22 1019 64 10000 3.1 300 11:45 30.06.2019
5677 Clouds 22 1019 64 10000 3.1 300 11:21 30.06.2019
5678 Clouds 22 1019 64 10000 3.1 300 11:21 30.06.2019
5679 Clouds 21 1020 83 10000 3.6 290 10:55 30.06.2019
5680 Clouds 21 1020 83 10000 3.6 290 10:55 30.06.2019
5681 Clouds 21 1019 73 8000 4.1 300 10:36 30.06.2019
5682 Clouds 21 1019 83 10000 3.1 280 10:18 30.06.2019
5683 Clouds 21 1019 73 6000 2.6 260 09:43 30.06.2019
5684 Clouds 21 1019 73 6000 2.6 260 09:20 30.06.2019
5685 Clouds 20 1018 73 5000 3.1 300 08:40 30.06.2019
5686 Clouds 20 1018 73 5000 3.1 300 08:22 30.06.2019
5687 Clouds 20 1019 88 10000 0.5 0 07:51 30.06.2019
5688 Clouds 20 1018 88 10000 2.1 290 07:26 30.06.2019
5689 Rain 20 1019 77 0 0.5 0 06:37 30.06.2019
5690 Clouds 20 1018 94 10000 2.27 329.634 03:34 30.06.2019
5691 Clouds 20 1018 100 10000 2.1 330 01:58 30.06.2019
5692 Clouds 20 1018 94 10000 3.39 325.303 01:23 30.06.2019
5693 Clouds 20 1018 94 10000 3.63 317.398 00:24 30.06.2019
5694 Clouds 20 1018 94 10000 4.1 310 23:53 29.06.2019
5695 Clouds 21 1018 88 10000 4.6 310 23:23 29.06.2019
5696 Clouds 21 1017 83 10000 4.6 310 22:52 29.06.2019
5697 Clouds 21 1017 77 10000 5.1 320 22:25 29.06.2019
5698 Clouds 22 1017 83 10000 4.6 340 21:56 29.06.2019
5699 Clouds 22 1017 73 10000 6.2 320 21:38 29.06.2019
5700 Clouds 22 1016 78 10000 5.7 330 21:19 29.06.2019
5701 Clouds 22 1016 68 10000 6.2 320 20:36 29.06.2019
5702 Clouds 23 1016 69 10000 5.7 320 20:18 29.06.2019
5703 Clouds 23 1016 64 10000 6.2 300 19:43 29.06.2019
5704 Clouds 24 1016 64 10000 6.2 300 19:21 29.06.2019
5705 Clouds 24 1016 64 10000 7.2 360 18:48 29.06.2019
5706 Clouds 24 1016 64 10000 7.2 360 18:25 29.06.2019
5707 Clouds 25 1016 64 10000 7.2 300 17:40 29.06.2019
5708 Clouds 24 1016 64 10000 7.2 300 17:21 29.06.2019
5709 Clouds 24 1016 69 10000 7.2 320 16:45 29.06.2019
5710 Clouds 24 1016 69 10000 7.2 320 16:25 29.06.2019
5711 Clouds 24 1016 69 10000 7.2 340 15:34 29.06.2019
5712 Clouds 24 1016 61 10000 5.7 330 14:59 29.06.2019
5713 Clouds 24 1016 69 10000 5.1 320 14:41 29.06.2019
5714 Clouds 24 1016 69 10000 5.1 320 14:23 29.06.2019
5715 Clouds 24 1016 64 10000 6.2 320 13:44 29.06.2019
5716 Clouds 24 1016 64 10000 6.2 320 13:25 29.06.2019
5717 Clouds 23 1016 64 10000 6.2 320 12:43 29.06.2019
5718 Clouds 23 1016 64 10000 6.2 320 12:24 29.06.2019
5719 Clouds 22 1019 73 10000 2.1 300 11:48 29.06.2019
5720 Clouds 22 1019 73 10000 2.1 300 11:29 29.06.2019
5721 Clouds 21 1016 83 10000 1.5 340 10:52 29.06.2019
5722 Clouds 21 1016 77 10000 2.1 280 10:29 29.06.2019
5723 Clouds 21 1016 77 10000 2.6 310 09:58 29.06.2019
5724 Clouds 21 1015 77 10000 3.1 300 09:29 29.06.2019
5725 Clouds 19 1015 82 10000 3.1 340 08:41 29.06.2019
5726 Clouds 19 1015 100 10000 3.1 310 07:46 29.06.2019
5727 Clouds 19 1015 100 10000 2.1 340 07:19 29.06.2019
5728 Clouds 19 1015 100 10000 1.5 320 06:42 29.06.2019
5729 Clouds 19 1015 100 10000 2.1 20 06:20 29.06.2019
5730 Clouds 19 1016 94 10000 3.6 10 02:26 29.06.2019
5731 Clouds 20 1017 94 10000 3.6 340 00:57 29.06.2019
5732 Clouds 20 1017 94 10000 3.6 330 23:59 28.06.2019
5733 Clouds 20 1017 94 10000 4.1 350 23:23 28.06.2019
5734 Clouds 21 1016 94 10000 4.1 330 22:53 28.06.2019
5735 Clouds 21 1015 77 10000 6.2 340 22:27 28.06.2019
5736 Clouds 21 1015 77 10000 6.7 340 21:46 28.06.2019
5737 Clouds 21 1015 77 10000 6.7 340 21:21 28.06.2019
5738 Clouds 23 1015 69 10000 7.2 340 20:46 28.06.2019
5739 Clouds 23 1015 69 10000 7.2 340 20:25 28.06.2019
5740 Clouds 23 1015 73 10000 6.7 340 19:53 28.06.2019
5741 Clouds 23 1015 73 10000 7.2 340 19:27 28.06.2019
5742 Clouds 24 1014 64 10000 7.2 340 18:45 28.06.2019
5743 Clouds 24 1014 64 10000 7.2 340 18:22 28.06.2019
5744 Clouds 23 1014 65 10000 5.7 320 17:59 28.06.2019
5745 Clouds 23 1014 69 10000 7.7 340 17:29 28.06.2019
5746 Clouds 24 1015 60 10000 8.2 340 16:50 28.06.2019
5747 Clouds 24 1015 60 10000 8.2 340 16:27 28.06.2019
5748 Clouds 23 1015 64 10000 7.2 340 15:48 28.06.2019
5749 Clouds 23 1015 64 10000 7.2 340 15:23 28.06.2019
5750 Clouds 22 1015 64 8000 6.2 360 14:43 28.06.2019
5751 Clouds 23 1015 64 8000 6.2 360 14:23 28.06.2019
5752 Clouds 23 1015 73 10000 3.6 340 13:58 28.06.2019
5753 Clouds 23 1015 73 10000 3.6 340 13:58 28.06.2019
5754 Clouds 23 1016 69 10000 6.2 320 13:39 28.06.2019
5755 Clouds 22 1016 78 10000 4.1 20 13:19 28.06.2019
5756 Clouds 22 1015 68 10000 6.2 360 12:45 28.06.2019
5757 Clouds 22 1016 88 10000 4.1 20 11:54 28.06.2019
5758 Clouds 21 1016 73 10000 7.2 360 11:25 28.06.2019
5759 Clouds 21 1016 77 10000 5.1 20 10:45 28.06.2019
5760 Clouds 21 1016 77 10000 5.1 20 10:21 28.06.2019
5761 Clouds 20 1015 82 10000 3.1 40 09:49 28.06.2019
5762 Clouds 20 1015 82 10000 3.1 40 09:29 28.06.2019
5763 Clouds 19 1015 82 10000 4.1 20 08:47 28.06.2019
5764 Clouds 19 1015 82 10000 4.1 20 08:26 28.06.2019
5765 Clouds 19 1016 100 10000 2.6 40 07:47 28.06.2019
5766 Clouds 19 1016 100 10000 2.6 40 07:28 28.06.2019
5767 Clouds 19 1016 100 10000 2.6 50 06:31 28.06.2019
5768 Clouds 19 1019 88 10000 2.6 30 01:39 28.06.2019
5769 Clouds 19 1019 88 10000 3.1 20 00:42 28.06.2019
5770 Clouds 20 1019 88 10000 4.6 20 23:51 27.06.2019
5771 Clouds 20 1018 88 10000 4.1 20 23:28 27.06.2019
5772 Clouds 20 1018 88 10000 4.1 20 22:56 27.06.2019
5773 Clouds 20 1018 68 10000 6.2 20 22:37 27.06.2019
5774 Clouds 21 1018 77 10000 5.7 20 22:18 27.06.2019
5775 Clouds 21 1017 68 10000 7.7 20 21:48 27.06.2019
5776 Clouds 21 1017 68 10000 7.7 20 21:29 27.06.2019
5777 Clouds 22 1017 73 10000 7.2 10 20:57 27.06.2019
5778 Clouds 22 1017 68 10000 6.2 40 20:39 27.06.2019
5779 Clouds 22 1017 73 10000 7.2 360 20:19 27.06.2019
5780 Clouds 23 1017 68 10000 8.2 360 19:44 27.06.2019
5781 Clouds 23 1017 68 10000 8.2 360 19:25 27.06.2019
5782 Clouds 23 1017 73 10000 5.7 40 18:43 27.06.2019
5783 Clouds 23 1017 73 10000 5.7 40 18:21 27.06.2019
5784 Clouds 23 1017 69 10000 5.7 40 17:44 27.06.2019
5785 Clouds 23 1017 69 10000 5.7 40 17:22 27.06.2019
5786 Clouds 23 1017 69 10000 5.7 40 17:22 27.06.2019
5787 Clouds 23 1017 69 10000 6.7 40 16:40 27.06.2019
5788 Clouds 23 1017 78 10000 6.2 30 16:20 27.06.2019
5789 Clouds 23 1017 78 10000 6.2 30 15:58 27.06.2019
5790 Clouds 22 1017 69 10000 6.2 40 15:40 27.06.2019
5791 Clouds 23 1018 94 10000 6.2 10 14:59 27.06.2019
5792 Clouds 22 1018 73 8000 6.7 40 14:39 27.06.2019
5793 Clouds 22 1018 73 8000 6.7 40 14:21 27.06.2019
5794 Clouds 22 1018 73 10000 6.2 40 13:43 27.06.2019
5795 Clouds 22 1018 73 10000 6.2 40 13:25 27.06.2019
5796 Clouds 21 1018 77 10000 5.7 20 12:49 27.06.2019
5797 Clouds 21 1018 77 10000 5.7 20 12:31 27.06.2019
5798 Drizzle 21 1018 88 5000 5.7 20 11:48 27.06.2019
5799 Drizzle 21 1018 88 5000 5.7 20 11:24 27.06.2019
5800 Clouds 21 1018 100 10000 3.1 30 10:58 27.06.2019
5801 Clouds 21 1018 77 10000 5.7 360 10:40 27.06.2019
5802 Clouds 21 1018 100 10000 3.1 40 10:19 27.06.2019
5803 Clouds 20 1017 77 10000 7.2 20 09:41 27.06.2019
5804 Clouds 20 1017 77 10000 7.2 20 09:20 27.06.2019
5805 Clouds 20 1017 82 10000 4.6 360 08:50 27.06.2019
5806 Clouds 20 1017 82 10000 4.6 360 08:28 27.06.2019
5807 Clouds 20 1017 100 10000 2.6 20 07:46 27.06.2019
5808 Clouds 20 1017 100 10000 2.6 20 06:59 27.06.2019
5809 Clouds 20 1017 100 10000 2.6 360 06:37 27.06.2019
5810 Clouds 20 1017 100 10000 2.1 40 03:52 27.06.2019
5811 Clouds 21 1018 88 10000 3.1 20 02:43 27.06.2019
5812 Clouds 20 1018 88 10000 3.6 10 01:45 27.06.2019
5813 Clouds 21 1019 88 10000 3.6 20 00:53 27.06.2019
5814 Clouds 21 1019 88 10000 3.6 20 00:27 27.06.2019
5815 Clouds 21 1019 88 10000 4.1 360 23:51 26.06.2019
5816 Clouds 21 1019 88 10000 4.1 10 23:23 26.06.2019
5817 Clouds 21 1018 88 10000 5.1 340 22:59 26.06.2019
5818 Clouds 21 1017 77 10000 5.1 20 22:40 26.06.2019
5819 Clouds 21 1017 77 10000 5.1 20 22:40 26.06.2019
5820 Clouds 22 1017 77 10000 5.1 20 22:20 26.06.2019
5821 Clouds 22 1017 73 10000 6.2 20 21:43 26.06.2019
5822 Clouds 22 1017 73 10000 6.2 20 21:21 26.06.2019
5823 Clouds 23 1017 73 10000 6.7 350 20:58 26.06.2019
5824 Clouds 23 1017 73 10000 7.2 20 20:39 26.06.2019
5825 Clouds 23 1017 73 10000 7.2 20 20:39 26.06.2019
5826 Clouds 23 1017 73 10000 7.2 20 20:21 26.06.2019
5827 Clouds 24 1016 78 10000 5.1 360 19:44 26.06.2019
5828 Clouds 24 1016 78 10000 5.1 360 19:25 26.06.2019
5829 Clouds 25 1016 73 10000 6.7 350 18:48 26.06.2019
5830 Clouds 24 1016 73 10000 6.7 350 18:23 26.06.2019
5831 Clouds 24 1017 73 10000 6.7 320 17:58 26.06.2019
5832 Clouds 25 1017 78 10000 10.3 360 17:38 26.06.2019
5833 Clouds 25 1017 73 10000 7.7 330 17:19 26.06.2019
5834 Clouds 25 1017 73 10000 7.2 360 16:46 26.06.2019
5835 Clouds 25 1017 73 10000 7.2 360 16:23 26.06.2019
5836 Clouds 25 1017 73 10000 7.2 340 15:42 26.06.2019
5837 Clouds 25 1017 73 10000 7.2 340 15:23 26.06.2019
5838 Clouds 25 1017 73 10000 7.2 340 15:23 26.06.2019
5839 Clouds 25 1017 73 10000 7.2 340 14:38 26.06.2019
5840 Clouds 26 1017 61 10000 2.1 0 14:19 26.06.2019
5841 Clouds 26 1018 65 10000 1.5 0 13:44 26.06.2019
5842 Clouds 26 1018 65 10000 1.5 0 13:20 26.06.2019
5843 Clouds 25 1017 57 10000 2.1 320 12:42 26.06.2019
5844 -273 0 0 0 0 0 12:42 26.06.2019
5845 Clouds 25 1017 57 10000 2.1 320 12:23 26.06.2019
5846 Clouds 25 1017 61 10000 4.1 20 11:49 26.06.2019
5847 Clouds 24 1017 61 10000 4.1 20 11:21 26.06.2019
5848 Clouds 23 1017 69 10000 1 120 10:46 26.06.2019
5849 Clouds 22 1017 69 10000 1 120 10:27 26.06.2019
5850 Clouds 21 1017 78 10000 2.1 200 09:49 26.06.2019
5851 Clouds 21 1017 78 10000 2.1 200 09:20 26.06.2019
5852 Clouds 20 1018 100 10000 2.1 150 08:49 26.06.2019
5853 Clouds 20 1018 100 10000 2.1 150 08:20 26.06.2019
5854 Clear 19 1017 100 10000 1 0 07:46 26.06.2019
5855 Clear 19 1017 100 10000 1 0 07:25 26.06.2019
5856 Clear 20 1017 100 10000 2.1 290 06:32 26.06.2019
5857 Clouds 21 1018 100 10000 1.5 20 01:28 26.06.2019
5858 Clouds 21 1018 88 10000 2.6 20 00:25 26.06.2019
5859 Clouds 22 1017 88 10000 3.6 20 23:47 25.06.2019
5860 Clouds 22 1017 88 10000 3.6 20 23:28 25.06.2019
5861 Clouds 22 1017 88 10000 3.6 10 22:57 25.06.2019
5862 Clouds 22 1016 83 10000 5.1 20 22:39 25.06.2019
5863 Clouds 22 1016 83 10000 5.1 20 22:20 25.06.2019
5864 Clouds 23 1016 73 10000 5.1 20 21:44 25.06.2019
5865 Clouds 23 1016 73 10000 5.1 20 21:22 25.06.2019
5866 Clear 24 1016 69 10000 7.2 20 20:46 25.06.2019
5867 Clear 24 1016 69 10000 7.2 20 20:46 25.06.2019
5868 Clear 24 1016 69 10000 7.2 20 20:23 25.06.2019
5869 Clear 25 1015 61 10000 6.7 350 19:54 25.06.2019
5870 Clear 25 1015 69 10000 6.2 340 19:36 25.06.2019
5871 Clear 25 1015 57 10000 7.2 350 19:18 25.06.2019
5872 Clear 26 1015 65 10000 5.1 320 18:40 25.06.2019
5873 Clear 26 1015 65 10000 5.1 320 18:21 25.06.2019
5874 Clear 26 1015 65 10000 5.1 320 18:21 25.06.2019
5875 -273 0 0 0 0 0 17:32 25.06.2019
5876 -273 0 0 0 0 0 17:32 25.06.2019
5877 Clear 26 1015 54 10000 6.2 340 16:58 25.06.2019
5878 Clear 26 1015 61 10000 6.2 360 16:40 25.06.2019
5879 Clear 26 1015 61 10000 6.2 360 16:22 25.06.2019
5880 Clear 26 1015 57 10000 6.2 20 15:42 25.06.2019
5881 Clear 26 1015 57 10000 6.2 20 15:24 25.06.2019
5882 Clear 26 1015 54 10000 5.1 350 14:54 25.06.2019
5883 Clear 26 1016 57 10000 6.2 40 14:35 25.06.2019
5884 Clear 25 1016 61 10000 6.2 40 13:47 25.06.2019
5885 Clear 25 1016 61 10000 6.2 40 13:47 25.06.2019
5886 Clear 25 1016 61 10000 6.2 40 13:29 25.06.2019
5887 Clouds 25 1016 65 10000 3.6 60 12:55 25.06.2019
5888 Clouds 25 1016 61 10000 3.1 40 12:37 25.06.2019
5889 Clouds 24 1016 73 10000 2.6 10 12:18 25.06.2019
5890 Clouds 24 1016 64 10000 2.1 40 11:43 25.06.2019
5891 -273 0 0 0 0 0 11:21 25.06.2019
5892 Clouds 23 1016 64 10000 2.1 340 10:45 25.06.2019
5893 Clouds 22 1017 88 10000 2.1 60 10:23 25.06.2019
5894 Clouds 22 1017 88 10000 2.1 60 09:55 25.06.2019
5895 Clouds 21 1016 68 10000 2.1 360 09:37 25.06.2019
5896 Clouds 21 1017 100 10000 2.6 30 09:18 25.06.2019
5897 Clouds 20 1016 77 10000 2.1 360 08:43 25.06.2019
5898 Clouds 20 1016 77 10000 2.1 360 08:24 25.06.2019
5899 Clouds 20 1016 100 10000 2.1 30 07:40 25.06.2019
5900 Clouds 20 1016 100 10000 3.1 10 06:57 25.06.2019
5901 Clouds 20 1016 100 8000 2.1 10 06:39 25.06.2019
5902 Clouds 20 1016 94 10000 4.1 50 02:47 25.06.2019
5903 Clear 21 1017 94 10000 3.1 50 01:41 25.06.2019
5904 Clear 21 1017 88 10000 3.1 20 00:37 25.06.2019
5905 Clear 20 1017 88 10000 2.6 20 23:56 24.06.2019
5906 Clear 20 1017 83 10000 3.6 20 23:38 24.06.2019
5907 Clear 21 1017 78 10000 4.6 360 23:20 24.06.2019
5908 Clouds 21 1016 77 10000 3.1 360 22:41 24.06.2019
5909 Clear 22 1016 73 10000 4.6 360 22:19 24.06.2019
5910 Clouds 23 1016 68 10000 4.1 360 21:39 24.06.2019
5911 Clear 23 1016 64 10000 4.6 10 21:19 24.06.2019
5912 Clear 24 1016 64 10000 4.6 10 20:56 24.06.2019
5913 Clouds 24 1016 69 10000 4.1 340 20:38 24.06.2019
5914 Clouds 24 1016 69 10000 4.1 340 20:20 24.06.2019
5915 Clear 25 1015 64 10000 5.1 360 19:44 24.06.2019
5916 Clear 25 1015 64 10000 5.1 360 19:21 24.06.2019
5917 Clear 25 1015 47 8000 6.2 340 18:47 24.06.2019
5918 Clear 25 1015 47 8000 6.2 340 18:27 24.06.2019
5919 Clear 25 1015 60 10000 5.7 20 17:47 24.06.2019
5920 Clear 25 1015 60 10000 5.7 20 17:27 24.06.2019
5921 Clear 25 1015 60 10000 5.7 20 16:48 24.06.2019
5922 Clear 25 1015 60 10000 5.7 20 16:21 24.06.2019
5923 Clear 26 1015 39 10000 3.6 20 15:56 24.06.2019
5924 Clear 26 1024 53 10000 5.1 40 15:38 24.06.2019
5925 Clear 25 1015 47 10000 3.6 20 15:19 24.06.2019
5926 Clear 25 1015 57 10000 5.1 20 14:33 24.06.2019
5927 Clear 24 1015 60 10000 5.1 40 13:49 24.06.2019
5928 Clear 24 1015 60 10000 5.1 40 13:24 24.06.2019
5929 Clouds 23 1015 60 10000 3.1 40 12:44 24.06.2019
5930 Clouds 23 1015 60 10000 3.1 40 12:22 24.06.2019
5931 Clouds 22 1015 69 10000 2.93 23.34 11:55 24.06.2019
5932 Clouds 22 1015 60 10000 3.1 20 11:37 24.06.2019
5933 Clouds 21 1016 77 10000 2.6 40 11:18 24.06.2019
5934 Clouds 21 1015 64 10000 3.1 20 10:41 24.06.2019
5935 Clouds 21 1015 64 10000 3.1 20 10:20 24.06.2019
5936 Clouds 20 1015 68 10000 2.6 340 09:48 24.06.2019
5937 Clouds 19 1015 88 10000 2.6 50 09:19 24.06.2019
5938 Clouds 19 1015 88 10000 2.6 50 08:51 24.06.2019
5939 Clouds 19 1015 68 10000 2.1 20 08:22 24.06.2019
5940 Clouds 18 1015 93 10000 2.6 20 07:44 24.06.2019
5941 Clouds 18 1015 93 10000 2.6 20 07:24 24.06.2019
5942 Clouds 18 1015 93 10000 2.6 360 06:27 24.06.2019
5943 Clouds 19 1015 93 10000 2.6 30 05:56 24.06.2019
5944 Clouds 19 1015 100 10000 1.5 20 04:59 24.06.2019
5945 Clouds 19 1015 93 10000 2.6 50 03:57 24.06.2019
5946 Clouds 19 1015 93 10000 4.1 20 02:52 24.06.2019
5947 Clouds 19 1016 100 10000 2.1 30 01:55 24.06.2019
5948 Clear 19 1016 100 10000 2.1 40 01:36 24.06.2019
5949 Clear 19 1016 100 10000 2.1 20 00:55 24.06.2019
5950 Clear 20 1015 88 10000 2.6 20 00:37 24.06.2019
5951 Clear 19 1016 88 10000 1.5 40 00:18 24.06.2019
5952 Clear 20 1015 88 10000 2.1 0 23:41 23.06.2019
5953 Clear 20 1015 88 10000 2.1 0 23:20 23.06.2019
5954 Clouds 20 1015 77 10000 5.1 340 22:42 23.06.2019
5955 Clouds 20 1015 77 10000 5.1 340 22:20 23.06.2019
5956 Clouds 22 1014 73 10000 5.7 340 21:43 23.06.2019
5957 Clouds 22 1014 73 10000 5.7 340 21:23 23.06.2019
5958 Clear 23 1014 53 10000 5.1 20 20:52 23.06.2019
5959 Clouds 23 1014 68 10000 5.7 20 20:32 23.06.2019
5960 Clear 23 1014 57 10000 6.7 350 19:58 23.06.2019
5961 Clear 23 1014 57 10000 6.7 350 19:57 23.06.2019
5962 Clouds 23 1014 68 10000 5.7 40 19:39 23.06.2019
5963 Clear 24 1013 50 10000 7.7 350 19:19 23.06.2019
5964 Clouds 24 1014 64 10000 7.7 340 18:44 23.06.2019
5965 Clear 24 1013 57 10000 6.7 350 18:20 23.06.2019
5966 Clouds 24 1014 64 10000 7.2 20 17:44 23.06.2019
5967 Clouds 24 1014 64 10000 7.2 20 17:24 23.06.2019
5968 Clouds 24 1014 64 10000 7.7 360 16:46 23.06.2019
5969 Clouds 24 1014 64 10000 7.7 360 16:25 23.06.2019
5970 Clear 24 1013 47 10000 6.2 360 15:55 23.06.2019
5971 Clouds 24 1014 64 10000 8.2 360 15:37 23.06.2019
5972 Clouds 24 1014 54 10000 5.7 350 15:18 23.06.2019
5973 Clouds 24 1014 69 10000 6.2 340 14:38 23.06.2019
5974 Clouds 24 1014 69 10000 6.2 340 14:20 23.06.2019
5975 Clouds 23 1014 68 10000 8.2 360 13:43 23.06.2019
5976 Clouds 23 1014 68 10000 8.2 360 13:21 23.06.2019
5977 Clouds 23 1014 61 10000 5.7 350 12:59 23.06.2019
5978 Clouds 22 1014 68 10000 4.6 340 12:40 23.06.2019
5979 Clouds 22 1014 60 10000 3.6 360 12:19 23.06.2019
5980 Clouds 22 1014 60 10000 3.6 360 12:19 23.06.2019
5981 Clouds 22 1014 73 10000 3.6 300 11:46 23.06.2019
5982 Clouds 22 1014 73 10000 3.6 300 11:27 23.06.2019
5983 Clouds 21 1014 73 10000 3.1 20 10:49 23.06.2019
5984 Clouds 21 1014 73 10000 3.1 20 10:21 23.06.2019
5985 Clear 19 1014 100 10000 2.6 120 09:58 23.06.2019
5986 Clouds 19 1014 82 10000 2.1 360 09:22 23.06.2019
5987 Clouds 17 1014 100 10000 2.46 4.597 08:47 23.06.2019
5988 Clouds 17 1014 100 10000 2.54 5.268 08:28 23.06.2019
5989 Clouds 16 1015 93 8000 1.5 320 07:57 23.06.2019
5990 Clouds 16 1015 93 8000 1.5 320 07:39 23.06.2019
5991 Mist 16 1015 100 7000 2.6 310 07:18 23.06.2019
5992 Mist 16 1015 100 7000 2.6 310 06:46 23.06.2019
5993 Clouds 18 1014 100 6000 2.01 28.775 05:44 23.06.2019
5994 Clear 19 1015 93 10000 1.5 50 02:51 23.06.2019
5995 Clear 19 1016 93 10000 3.1 340 01:39 23.06.2019
5996 Clear 20 1016 93 10000 2.6 350 00:58 23.06.2019
5997 Clear 20 1016 93 10000 2.1 350 00:27 23.06.2019
5998 Clear 20 1015 88 10000 3.6 350 23:44 22.06.2019
5999 Clear 20 1015 88 10000 3.6 350 23:25 22.06.2019
6000 Clear 21 1015 83 10000 5.7 340 22:47 22.06.2019
6001 Clear 21 1015 83 10000 5.7 340 22:26 22.06.2019
6002 Clouds 22 1014 77 10000 5.1 340 21:45 22.06.2019
6003 Clear 23 1014 57 10000 6.7 350 21:20 22.06.2019
6004 Clear 23 1014 57 10000 6.7 350 20:57 22.06.2019
6005 Clouds 23 1014 73 10000 6.2 20 20:38 22.06.2019
6006 Clouds 23 1014 73 10000 6.2 20 20:20 22.06.2019
6007 Clouds 24 1013 64 10000 6.2 20 19:40 22.06.2019
6008 Clear 24 1013 54 10000 7.2 360 19:20 22.06.2019
6009 Clear 24 1013 64 10000 7.2 360 18:42 22.06.2019
6010 Clear 24 1013 64 10000 7.2 360 18:22 22.06.2019
6011 Clear 24 1014 69 10000 6.2 20 17:44 22.06.2019
6012 Clear 24 1014 69 10000 6.2 20 17:25 22.06.2019
6013 Clear 24 1014 69 10000 6.2 20 16:43 22.06.2019
6014 Clear 24 1014 69 10000 6.2 20 16:24 22.06.2019
6015 Clear 23 1014 68 10000 9.3 340 15:45 22.06.2019
6016 Clear 23 1014 68 10000 9.3 340 15:27 22.06.2019
6017 Clear 23 1014 68 10000 9.3 340 15:27 22.06.2019
6018 Clear 24 1014 39 10000 7.2 350 14:52 22.06.2019
6019 Clear 24 1015 68 10000 7.2 340 14:32 22.06.2019
6020 Clear 24 1015 64 10000 4.1 320 13:57 22.06.2019
6021 Clear 24 1015 64 10000 4.1 320 13:39 22.06.2019
6022 Clear 23 1015 60 10000 5.7 330 13:18 22.06.2019
6023 Clouds 23 1015 68 10000 4.1 320 12:43 22.06.2019
6024 Clear 22 1015 60 10000 3.29 9.861 12:19 22.06.2019
6025 Clouds 22 1015 68 10000 5.1 320 11:41 22.06.2019
6026 Clear 20 1016 88 10000 2.1 70 11:19 22.06.2019
6027 Clouds 20 1015 68 10000 4.1 320 10:22 22.06.2019
6028 Clear 18 1016 100 10000 2.1 150 09:56 22.06.2019
6029 Clouds 18 1015 77 10000 2.1 20 09:35 22.06.2019
6030 Clouds 18 1015 77 10000 2.1 20 09:35 22.06.2019
6031 Fog 16 1016 82 10000 2.1 360 08:48 22.06.2019
6032 Fog 16 1016 82 10000 2.1 360 08:29 22.06.2019
6033 Mist 14 1016 93 3200 1.5 110 07:44 22.06.2019
6034 Clouds 15 1015 100 10000 1.5 40 07:20 22.06.2019
6035 Clouds 15 1015 100 10000 2.1 30 06:40 22.06.2019
6036 Clouds 17 1016 100 10000 2.1 60 03:42 22.06.2019
6037 Clouds 18 1017 93 10000 2.6 30 02:24 22.06.2019
6038 Clouds 18 1017 93 10000 4.1 20 00:52 22.06.2019
6039 Clouds 18 1017 93 10000 4.1 20 00:29 22.06.2019
6040 Clouds 19 1017 88 10000 5.1 20 23:49 21.06.2019
6041 Clouds 19 1017 88 10000 5.1 20 23:23 21.06.2019
6042 Clouds 19 1017 88 10000 5.1 20 22:56 21.06.2019
6043 Clouds 19 1016 72 10000 6.2 20 22:32 21.06.2019
6044 Clouds 20 1016 82 10000 6.7 10 21:58 21.06.2019
6045 Clouds 20 1016 72 10000 6.2 20 21:38 21.06.2019
6046 Clouds 21 1016 77 10000 7.2 360 21:19 21.06.2019
6047 Clouds 21 1016 72 10000 8.2 20 20:47 21.06.2019
6048 Clouds 21 1016 72 10000 8.2 20 20:25 21.06.2019
6049 Clouds 22 1016 68 10000 9.3 20 19:45 21.06.2019
6050 Clouds 22 1015 64 10000 8.2 360 18:59 21.06.2019
6051 Clouds 22 1016 68 10000 10.3 20 18:35 21.06.2019
6052 Clouds 23 1015 60 10000 7.04 7.885 17:58 21.06.2019
6053 Clouds 23 1016 64 10000 8.2 340 17:30 21.06.2019
6054 Clouds 23 1016 64 10000 9.3 360 16:43 21.06.2019
6055 Clouds 23 1016 64 10000 9.3 360 16:23 21.06.2019
6056 Clouds 23 1016 57 10000 6.2 360 15:58 21.06.2019
6057 Clear 23 1017 56 10000 6.2 340 15:36 21.06.2019
6058 Clouds 23 1017 60 10000 6.2 340 14:54 21.06.2019
6059 Clouds 23 1017 60 10000 6.2 340 14:32 21.06.2019
6060 Clouds 22 1017 64 10000 5.1 30 13:59 21.06.2019
6061 Clouds 22 1018 56 10000 7.2 20 13:37 21.06.2019
6062 Clouds 22 1018 68 10000 4.6 10 13:19 21.06.2019
6063 Clouds 22 1018 60 10000 5.1 60 12:42 21.06.2019
6064 Clouds 22 1018 60 10000 5.1 60 12:22 21.06.2019
6065 Clouds 20 1018 64 10000 6.2 40 11:48 21.06.2019
6066 Clouds 20 1018 64 10000 6.2 40 11:28 21.06.2019
6067 Clouds 20 1018 68 10000 7.2 20 10:56 21.06.2019
6068 Clouds 20 1018 68 10000 7.2 20 10:38 21.06.2019
6069 Clouds 19 1018 100 10000 3.6 70 10:20 21.06.2019
6070 Clouds 19 1018 68 10000 8.2 20 09:42 21.06.2019
6071 Clouds 19 1018 68 10000 8.2 20 09:21 21.06.2019
6072 Clouds 18 1018 77 10000 6.2 20 08:45 21.06.2019
6073 Clouds 18 1018 77 10000 6.2 20 08:27 21.06.2019
6074 Clouds 18 1018 77 10000 6.2 20 08:27 21.06.2019
6075 Clouds 17 1018 100 10000 3.1 40 07:56 21.06.2019
6076 Clouds 17 1018 100 10000 3.6 40 07:38 21.06.2019
6077 Clouds 17 1018 100 10000 3.1 30 06:59 21.06.2019
6078 Clouds 18 1018 100 10000 2.6 40 06:24 21.06.2019
6079 Clouds 19 1018 100 10000 3.1 30 05:32 21.06.2019
6080 Clouds 19 1018 100 10000 4.6 40 04:35 21.06.2019
6081 Clouds 19 1018 93 10000 3.6 30 03:35 21.06.2019
6082 Clouds 19 1018 100 10000 4.6 40 02:58 21.06.2019
6083 Clouds 19 1018 93 10000 3.6 40 01:58 21.06.2019
6084 Clouds 19 1019 93 10000 3.6 20 00:58 21.06.2019
6085 Clouds 20 1019 88 10000 3.6 20 00:27 21.06.2019
6086 Clouds 20 1018 82 10000 4.6 10 23:53 20.06.2019
6087 Clouds 20 1018 82 10000 5.7 360 23:24 20.06.2019
6088 Clouds 20 1018 83 10000 6.2 360 22:58 20.06.2019
6089 Clouds 21 1017 73 10000 5.1 360 22:39 20.06.2019
6090 Clouds 21 1017 73 10000 5.1 360 22:21 20.06.2019
6091 Clouds 21 1017 77 10000 5.1 340 21:52 20.06.2019
6092 Clouds 22 1017 68 10000 7.2 340 21:20 20.06.2019
6093 Clouds 22 1017 68 10000 7.2 340 20:59 20.06.2019
6094 Clouds 22 1017 68 10000 7.2 340 20:40 20.06.2019
6095 Clouds 23 1017 60 10000 6.7 350 20:20 20.06.2019
6096 Clouds 23 1017 64 10000 7.2 340 19:43 20.06.2019
6097 Clouds 23 1017 57 10000 6.7 340 19:19 20.06.2019
6098 Clouds 23 1017 57 10000 6.7 340 18:55 20.06.2019
6099 Clouds 23 1017 64 10000 7.2 360 18:37 20.06.2019
6100 Clouds 23 1017 53 10000 6.7 350 18:18 20.06.2019
6101 Clouds 23 1017 64 10000 8.7 320 17:43 20.06.2019
6102 Clouds 24 1017 53 10000 6.2 350 17:19 20.06.2019
6103 Clouds 24 1017 60 10000 7.2 320 16:40 20.06.2019
6104 Clouds 24 1017 53 10000 6.7 330 16:19 20.06.2019
6105 Clouds 24 1017 64 10000 6.7 340 15:43 20.06.2019
6106 Clouds 24 1017 64 10000 6.7 340 15:23 20.06.2019
6107 Clouds 24 1017 53 10000 6.2 330 14:54 20.06.2019
6108 Clouds 24 1018 64 10000 7.7 340 14:36 20.06.2019
6109 Clouds 24 1018 53 10000 5.1 360 14:18 20.06.2019
6110 Clouds 24 1018 60 10000 5.7 340 13:38 20.06.2019
6111 Clouds 23 1018 57 10000 3.6 10 13:18 20.06.2019
6112 Clouds 23 1018 60 10000 5.7 340 12:41 20.06.2019
6113 Clouds 23 1018 60 10000 5.7 340 12:21 20.06.2019
6114 Clouds 23 1017 64 10000 5.1 20 11:41 20.06.2019
6115 Clouds 23 1017 64 10000 5.1 20 11:23 20.06.2019
6116 Clouds 22 1018 68 10000 3.1 80 10:45 20.06.2019
6117 Clouds 21 1018 68 10000 3.1 80 10:24 20.06.2019
6118 Clouds 20 1018 94 10000 1.5 70 09:55 20.06.2019
6119 Clouds 20 1018 77 10000 2.1 320 09:37 20.06.2019
6120 Clouds 18 1018 100 8000 0.5 0 09:19 20.06.2019
6121 Clouds 17 1017 82 10000 1 20 08:44 20.06.2019
6122 Clouds 17 1017 82 10000 1 20 08:23 20.06.2019
6123 Clouds 16 1018 100 10000 1 0 07:47 20.06.2019
6124 Clouds 16 1018 100 10000 1 0 07:25 20.06.2019
6125 Clouds 16 1018 100 10000 1 0 07:25 20.06.2019
6126 Clouds 18 1017 100 10000 1.5 50 06:22 20.06.2019
6127 Clouds 19 1018 93 10000 3.6 20 03:41 20.06.2019
6128 Clear 19 1018 100 10000 3.6 20 02:28 20.06.2019
6129 Clear 19 1019 93 10000 3.6 360 00:33 20.06.2019
6130 Clear 20 1018 88 10000 3.6 350 23:48 19.06.2019
6131 Clear 20 1018 88 10000 3.6 350 23:29 19.06.2019
6132 Clouds 21 1017 77 10000 3.1 360 22:49 19.06.2019
6133 Clouds 21 1017 77 10000 3.1 360 22:25 19.06.2019
6134 Clouds 22 1018 73 10000 5.7 360 21:58 19.06.2019
6135 Clouds 22 1017 73 10000 4.1 360 21:39 19.06.2019
6136 Clouds 22 1017 73 10000 4.1 360 21:21 19.06.2019
6137 Clouds 23 1017 64 10000 4.1 340 20:42 19.06.2019
6138 Clouds 23 1017 64 10000 4.1 340 20:21 19.06.2019
6139 Clouds 24 1017 64 10000 5.1 20 19:46 19.06.2019
6140 Clouds 24 1017 64 10000 5.1 20 19:28 19.06.2019
6141 Clouds 22 1017 57 10000 5.7 350 18:57 19.06.2019
6142 Clouds 22 1017 121 10000 6.2 340 18:26 19.06.2019
6143 Clear 22 1025 87 10000 6.2 20 17:48 19.06.2019
6144 Clear 22 1025 87 10000 6.2 20 17:27 19.06.2019
6145 Clouds 25 1017 50 10000 5.7 360 16:56 19.06.2019
6146 Clear 25 1018 53 10000 6.2 40 16:37 19.06.2019
6147 Clouds 25 1017 50 10000 4.6 360 16:19 19.06.2019
6148 Clear 25 1018 50 10000 7.2 20 15:45 19.06.2019
6149 Clear 25 1018 50 10000 7.2 20 15:24 19.06.2019
6150 Clear 25 1018 50 10000 7.2 20 15:24 19.06.2019
6151 Clouds 25 1018 50 10000 5.1 360 14:44 19.06.2019
6152 Clouds 24 1018 50 10000 5.1 360 14:26 19.06.2019
6153 Clouds 24 1018 60 10000 6.2 20 13:48 19.06.2019
6154 Clouds 24 1018 60 10000 6.2 20 13:29 19.06.2019
6155 Clouds 23 1018 64 10000 4.6 360 12:59 19.06.2019
6156 Clouds 23 1018 64 10000 5.1 10 12:41 19.06.2019
6157 Clouds 23 1018 69 10000 4.1 20 12:19 19.06.2019
6158 Clouds 22 1018 60 10000 4.1 40 11:43 19.06.2019
6159 Clouds 22 1018 60 10000 4.1 40 11:43 19.06.2019
6160 Clouds 23 1018 60 10000 4.1 40 11:23 19.06.2019
6161 Clouds 21 1018 77 10000 3.1 20 10:51 19.06.2019
6162 Clear 21 1018 64 10000 3.1 20 10:30 19.06.2019
6163 Clouds 19 1018 93 10000 4.1 50 09:58 19.06.2019
6164 Clouds 19 1019 82 10000 2.1 50 09:38 19.06.2019
6165 Clear 18 1018 100 10000 3.6 20 09:19 19.06.2019
6166 Clouds 18 1018 100 10000 2.6 20 08:44 19.06.2019
6167 Clouds 18 1018 100 10000 2.6 20 08:25 19.06.2019
6168 Clear 16 1017 100 10000 3.6 10 07:44 19.06.2019
6169 Clear 16 1017 100 10000 3.6 10 07:23 19.06.2019
6170 Clear 16 1017 100 10000 3.6 10 06:42 19.06.2019
6171 Clear 18 1017 93 10000 4.1 10 06:20 19.06.2019
6172 Clear 18 1017 93 10000 3.6 20 05:41 19.06.2019
6173 Clear 18 1017 93 10000 3.1 30 03:58 19.06.2019
6174 Clear 18 1018 93 10000 3.6 50 02:59 19.06.2019
6175 Clear 19 1019 88 10000 3.6 50 01:47 19.06.2019
6176 Clear 19 1019 88 10000 3.1 50 00:56 19.06.2019
6177 Clear 19 1019 88 10000 3.1 50 00:38 19.06.2019
6178 Clear 19 1019 82 10000 3.1 40 00:19 19.06.2019
6179 Clear 19 1019 82 10000 3.6 30 23:46 18.06.2019
6180 Clear 20 1019 82 10000 3.6 30 23:25 18.06.2019
6181 Clear 20 1018 72 10000 5.1 20 22:43 18.06.2019
6182 Clear 20 1018 72 10000 5.1 20 22:24 18.06.2019
6183 Clear 21 1018 68 10000 5.7 360 21:56 18.06.2019
6184 Clear 21 1017 68 10000 3.1 40 21:37 18.06.2019
6185 Clear 22 1017 60 10000 6.7 350 21:19 18.06.2019
6186 Clear 22 1017 64 10000 4.6 60 20:42 18.06.2019
6187 Clear 22 1017 64 10000 4.6 60 20:23 18.06.2019
6188 Clear 23 1017 60 10000 6.2 20 19:41 18.06.2019
6189 Clear 23 1017 60 10000 6.2 20 19:23 18.06.2019
6190 Clear 24 1017 44 10000 5.1 360 18:56 18.06.2019
6191 Clear 24 1017 53 10000 5.1 40 18:26 18.06.2019
6192 Clear 24 1017 44 10000 5.7 340 17:56 18.06.2019
6193 Clear 24 1017 44 10000 5.7 340 17:56 18.06.2019
6194 Clear 24 1017 53 10000 5.1 360 17:38 18.06.2019
6195 Clear 24 1017 39 10000 4.1 330 17:19 18.06.2019
6196 Clear 23 1017 53 10000 6.2 360 16:42 18.06.2019
6197 Clear 23 1017 53 10000 6.2 360 16:22 18.06.2019
6198 Clear 23 1017 53 10000 6.2 360 16:22 18.06.2019
6199 Clear 23 1018 60 10000 4.6 20 15:43 18.06.2019
6200 Clear 23 1018 60 10000 4.6 20 15:23 18.06.2019
6201 Clear 23 1018 50 10000 5.7 350 14:57 18.06.2019
6202 Clear 23 1018 56 10000 7.2 360 14:39 18.06.2019
6203 Clouds 23 1018 41 10000 3.1 310 14:19 18.06.2019
6204 Clouds 22 1018 60 10000 7.2 320 13:50 18.06.2019
6205 Clouds 22 1018 60 10000 7.2 320 13:31 18.06.2019
6206 Clear 22 1018 64 10000 3.1 320 12:46 18.06.2019
6207 Clear 21 1018 64 10000 3.1 320 12:28 18.06.2019
6208 Clouds 21 1018 68 10000 2.1 40 11:56 18.06.2019
6209 Clouds 21 1018 64 10000 1.5 280 11:38 18.06.2019
6210 Clouds 19 1018 82 10000 0.5 0 11:18 18.06.2019
6211 Clouds 19 1018 68 10000 2.1 100 10:43 18.06.2019
6212 Clouds 19 1018 68 10000 2.1 100 10:22 18.06.2019
6213 Clouds 19 1018 68 10000 2.1 100 10:22 18.06.2019
6214 Clouds 18 1018 93 10000 1.5 120 09:52 18.06.2019
6215 Clouds 18 1018 72 10000 2.6 180 09:25 18.06.2019
6216 Clouds 17 1018 100 10000 0.5 0 08:56 18.06.2019
6217 Clouds 17 1018 82 10000 2.1 180 08:38 18.06.2019
6218 Clouds 16 1018 100 10000 0.5 260 08:20 18.06.2019
6219 Clouds 16 1017 100 10000 1.5 240 07:26 18.06.2019
6220 Clouds 15 1017 100 10000 1 230 06:55 18.06.2019
6221 Clouds 16 1017 93 10000 1.5 240 05:27 18.06.2019
6222 Clouds 16 1017 93 10000 1.5 240 05:27 18.06.2019
6223 Clouds 16 1017 93 10000 1.5 250 04:22 18.06.2019
6224 Clouds 17 1017 93 10000 1.5 40 02:50 18.06.2019
6225 Clouds 17 1018 93 10000 3.6 20 01:28 18.06.2019
6226 Clouds 18 1018 88 10000 3.1 20 00:58 18.06.2019
6227 Clouds 18 1018 88 10000 2.6 30 00:39 18.06.2019
6228 Clouds 18 1018 88 10000 2.1 50 00:21 18.06.2019
6229 Clouds 18 1018 88 10000 2.6 20 23:38 17.06.2019
6230 Clouds 19 1017 82 10000 2.6 20 23:19 17.06.2019
6231 Clouds 19 1017 72 10000 4.1 340 22:41 17.06.2019
6232 Clouds 19 1017 72 10000 4.1 340 22:21 17.06.2019
6233 Clouds 19 1017 72 10000 4.1 340 21:55 17.06.2019
6234 Clouds 20 1017 72 10000 5.1 20 21:36 17.06.2019
6235 Clouds 20 1017 64 10000 4.1 350 21:18 17.06.2019
6236 Clouds 21 1016 68 10000 6.2 20 20:36 17.06.2019
6237 Clouds 21 1016 64 10000 7.2 320 20:18 17.06.2019
6238 Clouds 22 1016 64 10000 5.1 340 19:40 17.06.2019
6239 Clouds 21 1016 64 10000 5.1 340 19:21 17.06.2019
6240 Clear 22 1016 53 10000 5.1 340 18:55 17.06.2019
6241 Clouds 22 1016 64 10000 7.7 360 18:36 17.06.2019
6242 Clear 22 1016 50 10000 6.2 340 18:18 17.06.2019
6243 Clouds 22 1016 64 10000 7.2 360 17:41 17.06.2019
6244 Clouds 22 1016 64 10000 7.2 360 17:23 17.06.2019
6245 Clear 22 1017 64 10000 6.2 360 16:43 17.06.2019
6246 Clear 22 1017 64 10000 6.2 360 16:25 17.06.2019
6247 Clear 22 1016 50 10000 5.1 360 15:55 17.06.2019
6248 Clear 22 1017 64 10000 5.7 340 15:37 17.06.2019
6249 Clear 22 1017 64 10000 5.7 340 15:18 17.06.2019
6250 Clear 23 1017 60 10000 6.2 20 14:42 17.06.2019
6251 Clear 23 1017 60 10000 6.2 20 14:23 17.06.2019
6252 Clear 22 1017 60 10000 4.1 350 13:49 17.06.2019
6253 Clear 22 1018 64 10000 5.1 360 13:23 17.06.2019
6254 Clouds 22 1018 60 10000 2.6 30 12:50 17.06.2019
6255 Clouds 21 1018 60 10000 4.1 60 12:31 17.06.2019
6256 Clouds 21 1018 73 10000 2.6 40 11:48 17.06.2019
6257 Clouds 20 1018 64 10000 5.1 40 11:26 17.06.2019
6258 Clouds 19 1018 93 10000 2.6 20 10:58 17.06.2019
6259 Clouds 18 1018 68 10000 4.6 340 10:40 17.06.2019
6260 Clouds 18 1018 68 10000 4.6 340 10:21 17.06.2019
6261 Clouds 18 1018 100 10000 3.6 40 09:51 17.06.2019
6262 Clouds 17 1018 77 10000 2.1 40 09:27 17.06.2019
6263 Clouds 16 1018 82 10000 1 20 08:41 17.06.2019
6264 Clouds 16 1018 82 10000 1 20 08:23 17.06.2019
6265 Clouds 14 1018 100 10000 1.7 60.042 07:45 17.06.2019
6266 Clouds 14 1018 93 8000 1 0 07:27 17.06.2019
6267 Clouds 14 1018 100 10000 1 0 06:42 17.06.2019
6268 Clouds 15 1018 93 10000 1.5 50 05:47 17.06.2019
6269 Clouds 15 1018 93 10000 2.6 50 04:41 17.06.2019
6270 Clouds 16 1019 93 10000 2.1 50 03:47 17.06.2019
6271 Clouds 18 1020 88 10000 2.1 30 02:59 17.06.2019
6272 Clouds 18 1020 88 10000 2.1 30 02:41 17.06.2019
6273 Clouds 18 1020 88 10000 2.1 30 01:55 17.06.2019
6274 Clouds 18 1020 88 10000 2.1 30 01:33 17.06.2019
6275 Clouds 18 1021 88 10000 2.6 10 00:44 17.06.2019
6276 Clouds 18 1021 88 10000 2.6 10 00:22 17.06.2019
6277 Clouds 19 1020 82 10000 4.1 20 23:43 16.06.2019
6278 Clouds 19 1020 82 10000 4.1 20 23:22 16.06.2019
6279 Clouds 19 1020 82 10000 3.6 350 22:57 16.06.2019
6280 Clouds 19 1020 82 10000 5.1 340 22:39 16.06.2019
6281 Clouds 19 1020 82 10000 5.1 340 22:18 16.06.2019
6282 Clouds 20 1019 72 10000 6.2 340 21:42 16.06.2019
6283 Clouds 20 1019 72 10000 6.2 340 21:23 16.06.2019
6284 Clouds 20 1019 68 10000 4.6 340 20:59 16.06.2019
6285 Clouds 21 1019 68 10000 3.6 360 20:37 16.06.2019
6286 Clouds 21 1019 68 10000 3.6 360 20:18 16.06.2019
6287 Clouds 21 1019 64 10000 8.2 340 19:43 16.06.2019
6288 Clouds 22 1019 64 10000 8.2 340 19:22 16.06.2019
6289 Clouds 22 1019 56 10000 5.7 330 18:59 16.06.2019
6290 Clouds 22 1019 60 10000 8.2 360 18:41 16.06.2019
6291 Clouds 22 1019 60 10000 8.2 360 18:20 16.06.2019
6292 Clouds 22 1019 60 10000 8.2 360 18:20 16.06.2019
6293 Clouds 22 1019 53 10000 6.7 330 17:48 16.06.2019
6294 Clouds 22 1019 64 10000 7.7 340 17:24 16.06.2019
6295 Clouds 22 1019 64 10000 7.7 340 17:24 16.06.2019
6296 Clear 23 1019 50 10000 6.2 320 16:57 16.06.2019
6297 Clear 22 1019 64 10000 6.2 320 16:39 16.06.2019
6298 Clear 22 1019 64 10000 6.2 320 16:21 16.06.2019
6299 Clear 23 1019 64 10000 6.2 300 15:44 16.06.2019
6300 Clear 23 1019 64 10000 6.2 300 15:24 16.06.2019
6301 Clear 23 1019 47 10000 5.1 330 14:45 16.06.2019
6302 Clear 22 1019 56 10000 7.7 320 14:25 16.06.2019
6303 Clear 22 1019 44 10000 3.1 0 13:57 16.06.2019
6304 Clear 22 1019 64 10000 5.1 320 13:38 16.06.2019
6305 Clear 22 1019 64 10000 5.1 320 13:20 16.06.2019
6306 Clear 21 1019 60 10000 5.1 340 12:42 16.06.2019
6307 Clear 21 1019 60 10000 5.1 340 12:21 16.06.2019
6308 Clouds 21 1019 60 10000 3.1 320 11:49 16.06.2019
6309 Clouds 20 1019 60 10000 4.6 340 11:21 16.06.2019
6310 Clouds 20 1019 64 10000 3.1 340 10:59 16.06.2019
6311 Clouds 20 1019 64 10000 3.1 340 10:41 16.06.2019
6312 Clouds 20 1019 64 10000 3.1 340 10:18 16.06.2019
6313 Clouds 18 1018 72 10000 2.1 20 09:41 16.06.2019
6314 Clouds 17 1018 72 10000 2.1 20 09:23 16.06.2019
6315 Clear 16 1018 100 10000 1.5 40 08:45 16.06.2019
6316 Clouds 15 1018 77 10000 1 20 08:20 16.06.2019
6317 Clouds 15 1018 100 10000 1.5 40 07:44 16.06.2019
6318 Clouds 15 1018 100 10000 1.5 20 07:26 16.06.2019
6319 Clouds 15 1017 100 10000 2.1 20 06:50 16.06.2019
6320 Clouds 16 1017 100 10000 2.6 50 05:53 16.06.2019
6321 Clouds 16 1017 100 10000 2.6 30 05:19 16.06.2019
6322 Clouds 16 1017 93 10000 3.1 30 03:59 16.06.2019
6323 Clouds 16 1018 93 10000 3.1 30 03:33 16.06.2019
6324 Clouds 16 1018 93 10000 3.6 50 02:48 16.06.2019
6325 Clouds 17 1019 88 10000 3.1 40 01:47 16.06.2019
6326 Clouds 17 1019 88 10000 2.6 50 01:28 16.06.2019
6327 Clouds 17 1020 72 10000 3.1 360 00:42 16.06.2019
6328 Clouds 17 1020 72 10000 3.1 360 00:23 16.06.2019
6329 Clouds 18 1019 88 10000 4.1 20 23:55 15.06.2019
6330 Clouds 18 1019 77 10000 4.6 10 23:36 15.06.2019
6331 Clouds 18 1019 77 10000 4.6 10 23:18 15.06.2019
6332 Clouds 18 1019 63 10000 7.2 20 22:41 15.06.2019
6333 Clouds 18 1019 63 10000 7.2 20 22:22 15.06.2019
6334 Clouds 19 1019 63 10000 8.2 20 21:42 15.06.2019
6335 Clouds 20 1019 63 10000 8.2 20 21:20 15.06.2019
6336 Clouds 20 1019 64 10000 8.2 20 20:43 15.06.2019
6337 Clouds 20 1019 64 10000 8.2 20 20:22 15.06.2019
6338 Clear 21 1018 60 10000 7.7 10 19:46 15.06.2019
6339 Clouds 21 1018 64 10000 9.3 40 19:25 15.06.2019
6340 Clear 21 1018 56 10000 7.2 40 18:42 15.06.2019
6341 Clear 21 1018 56 10000 7.2 40 18:23 15.06.2019
6342 Clear 22 1019 56 10000 7.2 40 17:44 15.06.2019
6343 Clear 22 1019 56 10000 7.2 40 17:26 15.06.2019
6344 Clear 22 1019 49 10000 7.2 10 16:49 15.06.2019
6345 Clear 22 1019 49 10000 7.2 10 16:49 15.06.2019
6346 Clear 22 1019 53 10000 7.2 40 16:21 15.06.2019
6347 Clear 22 1019 56 10000 7.2 360 15:45 15.06.2019
6348 Clear 22 1019 56 10000 7.2 360 15:24 15.06.2019
6349 Clear 21 1019 53 10000 8.2 360 14:56 15.06.2019
6350 Clear 21 1019 52 10000 7.2 20 14:37 15.06.2019
6351 Clear 21 1019 52 10000 7.2 20 14:18 15.06.2019
6352 Clear 21 1020 60 10000 8.2 20 13:42 15.06.2019
6353 Clear 21 1020 60 10000 8.2 20 13:20 15.06.2019
6354 Clear 21 1019 53 10000 5.1 30 12:53 15.06.2019
6355 Clear 21 1020 56 10000 8.2 60 12:28 15.06.2019
6356 Clear 20 1020 60 10000 6.2 20 11:59 15.06.2019
6357 Clear 20 1020 56 10000 4.1 40 11:41 15.06.2019
6358 Clear 20 1020 56 10000 4.1 40 11:23 15.06.2019
6359 Clouds 19 1020 72 10000 6.7 50 10:41 15.06.2019
6360 Clouds 19 1020 72 10000 6.7 50 10:23 15.06.2019
6361 Clouds 18 1020 77 10000 6.2 60 09:44 15.06.2019
6362 Clear 17 1020 63 10000 5.1 80 09:25 15.06.2019
6363 Clouds 15 1020 87 10000 4.1 50 08:53 15.06.2019
6364 Clear 15 1020 72 10000 3.1 80 08:32 15.06.2019
6365 Clouds 13 1019 93 10000 4.1 60 07:50 15.06.2019
6366 Clouds 13 1019 93 10000 4.1 60 07:50 15.06.2019
6367 Clouds 14 1020 87 10000 4.1 60 07:24 15.06.2019
6368 Clouds 14 1019 87 10000 5.1 60 06:41 15.06.2019
6369 Clouds 16 1019 87 10000 5.1 60 06:18 15.06.2019
6370 Clouds 16 1020 87 10000 5.1 50 05:27 15.06.2019
6371 Clear 16 1020 87 10000 4.1 60 04:44 15.06.2019
6372 Clouds 16 1020 82 10000 4.1 50 03:47 15.06.2019
6373 Clouds 16 1020 82 10000 4.1 60 02:56 15.06.2019
6374 Clouds 17 1020 82 10000 3.1 40 02:23 15.06.2019
6375 Clouds 17 1021 77 10000 4.1 60 01:49 15.06.2019
6376 Clouds 18 1021 77 10000 3.6 40 00:58 15.06.2019
6377 Clouds 18 1021 77 10000 4.6 30 00:39 15.06.2019
6378 Clouds 18 1021 77 10000 5.1 30 23:55 14.06.2019
6379 Clouds 18 1021 68 10000 5.7 20 23:26 14.06.2019
6380 Clouds 18 1020 68 10000 5.7 20 22:56 14.06.2019
6381 Clear 18 1020 59 10000 5.1 20 22:37 14.06.2019
6382 Clear 18 1020 59 10000 5.1 20 22:19 14.06.2019
6383 Clear 19 1020 59 10000 6.2 20 21:40 14.06.2019
6384 Clear 19 1020 59 10000 6.2 20 21:22 14.06.2019
6385 Clear 20 1019 52 10000 7.7 360 20:43 14.06.2019
6386 Clear 21 1019 52 10000 7.7 360 20:19 14.06.2019
6387 Clouds 21 1019 46 10000 6.7 10 19:56 14.06.2019
6388 Clear 21 1019 49 10000 8.2 20 19:36 14.06.2019
6389 Clear 21 1019 49 10000 8.2 20 19:18 14.06.2019
6390 Clear 21 1019 49 10000 6.2 360 18:42 14.06.2019
6391 Clear 21 1019 49 10000 6.2 360 18:24 14.06.2019
6392 Clear 21 1019 49 10000 6.2 360 18:24 14.06.2019
6393 Clouds 22 1019 49 10000 6.7 350 17:55 14.06.2019
6394 Clouds 22 1019 49 10000 6.2 360 17:36 14.06.2019
6395 Clouds 22 1019 49 10000 6.2 360 17:18 14.06.2019
6396 Clouds 22 1019 49 10000 5.7 10 16:44 14.06.2019
6397 Clouds 22 1019 52 10000 8.2 360 16:20 14.06.2019
6398 Clouds 22 1019 52 10000 8.2 360 16:20 14.06.2019
6399 Clouds 22 1019 52 10000 8.2 360 16:20 14.06.2019
6400 Clouds 22 1020 52 0 5.7 20 15:42 14.06.2019
6401 Clouds 22 1020 52 0 5.7 20 15:42 14.06.2019
6402 Clouds 21 1020 52 0 5.7 20 15:24 14.06.2019
6403 Clouds 22 1019 49 10000 4.1 350 14:59 14.06.2019
6404 Clouds 22 1019 49 10000 4.1 350 14:59 14.06.2019
6405 Clouds 22 1019 49 10000 4.1 350 14:59 14.06.2019
6406 Clouds 22 1019 49 10000 4.1 350 14:59 14.06.2019
6407 Clouds 22 1020 52 10000 5.1 360 14:40 14.06.2019
6408 Clouds 22 1020 52 10000 5.1 360 14:20 14.06.2019
6409 Clouds 21 1019 52 10000 5.7 360 13:42 14.06.2019
6410 Clouds 21 1019 52 10000 5.7 360 13:24 14.06.2019
6411 Clouds 21 1019 49 10000 3.6 360 12:43 14.06.2019
6412 -273 0 0 0 0 0 12:25 14.06.2019
6413 -273 0 0 0 0 0 12:25 14.06.2019
6414 Clouds 20 1019 60 10000 4.1 30 11:58 14.06.2019
6415 Clouds 20 1019 52 10000 3.6 360 11:39 14.06.2019
6416 Clouds 20 1019 52 10000 3.6 360 11:20 14.06.2019
6417 Clouds 20 1019 52 10000 2.6 20 10:43 14.06.2019
6418 Clouds 20 1019 52 10000 2.6 20 10:20 14.06.2019
6419 Clouds 18 1019 72 10000 1 0 09:46 14.06.2019
6420 Clouds 18 1019 72 10000 1 0 09:46 14.06.2019
6421 Clear 17 1018 67 10000 1.5 160 09:24 14.06.2019
6422 Clouds 15 1018 87 10000 0.5 170 08:47 14.06.2019
6423 Clouds 15 1018 72 10000 1.5 200 08:19 14.06.2019
6424 Clouds 13 1018 93 10000 1 180 07:51 14.06.2019
6425 Clouds 13 1018 87 10000 2.77 340.649 07:21 14.06.2019
6426 Clear 14 1018 87 0 1 150 06:35 14.06.2019
6427 -273 0 0 0 0 0 05:58 14.06.2019
6428 -273 0 0 0 0 0 05:58 14.06.2019
6429 Clear 16 1018 82 0 1 190 05:21 14.06.2019
6430 Clouds 16 1017 82 10000 1 290 04:46 14.06.2019
6431 Clouds 16 1017 82 10000 1.5 280 03:52 14.06.2019
6432 Clouds 16 1017 82 10000 1.5 300 03:26 14.06.2019
6433 Clouds 16 1017 82 10000 2.1 330 02:55 14.06.2019
6434 Clouds 16 1017 82 10000 2.1 330 02:27 14.06.2019
6435 Clouds 16 1017 82 10000 2.1 330 02:27 14.06.2019
6436 Clouds 16 1017 82 10000 2.1 330 02:27 14.06.2019
6437 Clouds 17 1018 82 10000 1.5 340 00:58 14.06.2019
6438 Clouds 17 1018 77 0 1 280 00:23 14.06.2019
6439 Clouds 18 1018 72 0 2.6 300 23:59 13.06.2019
6440 Clouds 18 1018 72 0 2.6 300 23:41 13.06.2019
6441 Clouds 18 1018 72 0 2.6 300 23:21 13.06.2019
6442 Clouds 18 1015 68 10000 4.1 300 22:40 13.06.2019
6443 Clouds 18 1015 68 10000 4.1 300 22:21 13.06.2019
6444 Clouds 19 1015 68 10000 5.1 300 21:40 13.06.2019
6445 Clouds 19 1015 68 10000 5.1 300 21:20 13.06.2019
6446 Clouds 20 1015 72 10000 5.1 330 20:57 13.06.2019
6447 Clouds 20 1015 72 10000 5.1 330 20:57 13.06.2019
6448 Clouds 20 1014 64 10000 5.7 320 20:38 13.06.2019
6449 Clouds 20 1014 64 10000 5.7 320 20:19 13.06.2019
6450 Clouds 19 1014 68 10000 8.2 320 19:41 13.06.2019
6451 Clouds 19 1014 68 10000 8.2 320 19:22 13.06.2019
6452 Clouds 20 1014 68 10000 7.2 320 18:57 13.06.2019
6453 Clouds 21 1013 68 10000 5.1 300 18:39 13.06.2019
6454 Clouds 20 1013 68 10000 5.1 300 18:21 13.06.2019
6455 Clouds 20 1013 68 8000 2.6 180 17:42 13.06.2019
6456 Clouds 20 1013 68 8000 2.6 180 17:20 13.06.2019
6457 Clouds 21 1013 68 10000 6.7 310 16:50 13.06.2019
6458 Clouds 21 1012 68 8000 6.7 320 16:22 13.06.2019
6459 Clouds 21 1012 68 10000 6.7 330 15:57 13.06.2019
6460 Clouds 21 1012 68 10000 6.7 330 15:57 13.06.2019
6461 Clouds 21 1012 68 8000 5.7 320 15:39 13.06.2019
6462 Clouds 21 1012 68 8000 5.7 320 15:19 13.06.2019
6463 Clouds 22 1012 68 10000 6.2 320 14:46 13.06.2019
6464 Clouds 22 1012 64 8000 8.2 360 14:27 13.06.2019
6465 Clouds 22 1012 68 10000 5.7 330 13:46 13.06.2019
6466 Clouds 22 1012 68 8000 5.7 320 13:21 13.06.2019
6467 Clouds 21 1011 68 10000 6.2 320 12:58 13.06.2019
6468 Clouds 21 1011 68 8000 5.7 340 12:38 13.06.2019
6469 Clouds 21 1011 68 8000 5.7 340 12:19 13.06.2019
6470 Clouds 21 1011 73 6000 6.2 340 11:43 13.06.2019
6471 Clouds 21 1011 73 6000 6.2 340 11:24 13.06.2019
6472 Clouds 20 1011 82 10000 4.1 10 10:47 13.06.2019
6473 Clouds 20 1011 77 6000 6.2 340 10:28 13.06.2019
6474 Clouds 19 1011 88 10000 3.6 20 09:50 13.06.2019
6475 Clouds 19 1011 88 10000 3.6 20 09:50 13.06.2019
6476 Clouds 19 1010 82 5000 4.1 20 09:27 13.06.2019
6477 Clouds 19 1010 93 10000 3.1 30 08:51 13.06.2019
6478 Clouds 19 1010 88 5000 2.6 20 08:30 13.06.2019
6479 Clouds 19 1010 93 10000 4.6 30 07:59 13.06.2019
6480 Clouds 19 1010 93 10000 4.6 30 07:32 13.06.2019
6481 Clouds 19 1010 100 10000 4.6 20 06:54 13.06.2019
6482 Clouds 19 1010 100 10000 4.6 20 06:36 13.06.2019
6483 Clouds 19 1010 100 10000 4.6 20 06:18 13.06.2019
6484 Clouds 19 1010 100 10000 4.6 20 05:38 13.06.2019
6485 Clouds 19 1010 100 10000 4.6 20 05:18 13.06.2019
6486 Clouds 19 1011 100 0 2.6 320 03:45 13.06.2019
6487 Clouds 19 1011 100 0 2.6 320 03:45 13.06.2019
6488 Clouds 19 1011 100 10000 3.1 10 01:55 13.06.2019
6489 Clouds 19 1011 100 10000 2.6 20 00:31 13.06.2019
6490 Clouds 19 1010 93 10000 4.1 340 23:37 12.06.2019
6491 Clouds 19 1010 93 10000 4.1 340 23:19 12.06.2019
6492 Clouds 20 1010 77 10000 4.1 20 22:41 12.06.2019
6493 Clouds 20 1010 77 10000 4.1 20 22:21 12.06.2019
6494 Clouds 21 1009 77 10000 7.2 20 21:43 12.06.2019
6495 Clouds 21 1009 77 10000 7.2 20 21:25 12.06.2019
6496 Clear 22 1009 56 10000 6.2 360 20:49 12.06.2019
6497 Clear 22 1009 73 10000 8.2 20 20:30 12.06.2019
6498 Clear 23 1009 53 10000 7.2 360 19:57 12.06.2019
6499 Clear 23 1009 53 10000 7.2 360 19:57 12.06.2019
6500 Clear 23 1009 68 10000 8.2 360 19:38 12.06.2019
6501 Clear 23 1009 68 10000 8.2 360 19:20 12.06.2019
6502 Clear 23 1009 64 10000 7.2 360 18:47 12.06.2019
6503 Clear 23 1009 64 10000 7.2 360 18:27 12.06.2019
6504 Clear 23 1009 44 10000 7.7 360 17:47 12.06.2019
6505 Clouds 23 1010 64 10000 8.7 360 17:23 12.06.2019
6506 Clear 23 1009 47 10000 6.7 10 16:44 12.06.2019
6507 Clouds 23 1010 68 10000 7.2 360 16:25 12.06.2019
6508 Clear 23 1010 53 10000 5.7 10 15:59 12.06.2019
6509 Clear 23 1010 68 10000 6.2 360 15:36 12.06.2019
6510 Clear 23 1010 50 10000 6.7 360 14:59 12.06.2019
6511 Clear 23 1011 64 10000 7.2 20 14:35 12.06.2019
6512 Clear 23 1010 53 10000 6.2 350 13:59 12.06.2019
6513 Clear 22 1011 64 10000 6.2 360 13:41 12.06.2019
6514 Clear 22 1011 64 10000 6.2 360 13:19 12.06.2019
6515 Clear 22 1010 57 10000 4.1 10 12:44 12.06.2019
6516 Clear 22 1011 64 10000 6.2 360 12:22 12.06.2019
6517 Clouds 21 1011 56 10000 3.1 360 11:59 12.06.2019
6518 Clear 21 1011 64 10000 5.1 360 11:40 12.06.2019
6519 Clear 21 1011 64 10000 5.1 360 11:21 12.06.2019
6520 Clouds 20 1011 72 10000 2.1 10 10:44 12.06.2019
6521 Clouds 20 1011 64 0 2.1 20 10:21 12.06.2019
6522 Clouds 19 1011 68 0 2.1 20 09:43 12.06.2019
6523 Clouds 19 1011 68 0 2.1 20 09:23 12.06.2019
6524 Clear 18 1011 82 10000 1.5 60 08:46 12.06.2019
6525 Clouds 17 1012 82 0 0.5 0 08:20 12.06.2019
6526 Clouds 17 1011 88 10000 2.6 50 07:37 12.06.2019
6527 Clouds 18 1011 82 10000 3.1 60 06:43 12.06.2019
6528 Clear 18 1011 82 10000 4.1 10 05:27 12.06.2019
6529 Clouds 18 1012 88 10000 4.1 10 03:55 12.06.2019
6530 Clouds 18 1014 88 10000 3.6 20 01:26 12.06.2019
6531 Clouds 18 1014 88 10000 4.1 20 00:38 12.06.2019
6532 Clouds 18 1014 82 10000 4.1 10 23:45 11.06.2019
6533 Clouds 18 1014 82 10000 3.6 20 23:27 11.06.2019
6534 Clouds 19 1013 72 10000 5.1 360 22:43 11.06.2019
6535 Clouds 19 1013 72 10000 5.1 360 22:19 11.06.2019
6536 Clear 19 1014 77 10000 5.1 360 21:57 11.06.2019
6537 Clouds 19 1013 72 10000 6.2 360 21:37 11.06.2019
6538 Clouds 19 1013 72 10000 6.2 360 21:19 11.06.2019
6539 Clouds 20 1013 72 10000 6.7 10 20:47 11.06.2019
6540 Clouds 20 1013 68 10000 10.3 20 20:24 11.06.2019
6541 Clouds 21 1013 60 10000 6.7 10 19:54 11.06.2019
6542 Clouds 21 1013 64 10000 9.3 20 19:32 11.06.2019
6543 Clouds 22 1013 53 10000 7.7 360 18:56 11.06.2019
6544 Clear 22 1014 60 10000 8.2 360 18:21 11.06.2019
6545 Clear 22 1014 64 10000 8.2 20 17:42 11.06.2019
6546 Clear 22 1014 64 10000 8.2 20 17:22 11.06.2019
6547 Clear 22 1014 53 10000 7.7 360 16:56 11.06.2019
6548 Clear 22 1014 64 10000 10.3 360 16:37 11.06.2019
6549 Clear 22 1014 64 10000 10.3 360 16:19 11.06.2019
6550 Clouds 22 1015 60 10000 7.2 20 15:42 11.06.2019
6551 Clouds 22 1015 60 10000 7.2 20 15:42 11.06.2019
6552 Clouds 22 1015 60 10000 7.2 20 15:21 11.06.2019
6553 Clear 22 1015 53 10000 6.2 350 14:44 11.06.2019
6554 Clouds 22 1015 60 10000 7.2 360 14:21 11.06.2019
6555 Clouds 22 1015 53 10000 4.6 360 13:50 11.06.2019
6556 Clouds 22 1015 60 10000 6.2 320 13:24 11.06.2019
6557 Clouds 21 1016 64 10000 4.1 300 12:44 11.06.2019
6558 Clouds 21 1016 64 10000 4.1 300 12:23 11.06.2019
6559 Clouds 20 1016 60 10000 4.6 40 11:58 11.06.2019
6560 Clouds 20 1016 60 10000 4.1 20 11:38 11.06.2019
6561 Clouds 20 1016 60 10000 4.1 20 11:19 11.06.2019
6562 Clouds 19 1016 68 10000 4.1 340 10:43 11.06.2019
6563 Clouds 19 1016 68 10000 4.1 340 10:25 11.06.2019
6564 Clouds 18 1016 77 10000 2.1 30 09:46 11.06.2019
6565 Clouds 18 1016 72 10000 2.1 340 09:23 11.06.2019
6566 Clouds 17 1016 82 10000 2.1 50 08:44 11.06.2019
6567 Clouds 17 1015 72 10000 2.1 20 08:24 11.06.2019
6568 Clouds 16 1016 82 10000 2.6 50 07:37 11.06.2019
6569 Clouds 16 1016 77 10000 2.6 40 06:55 11.06.2019
6570 Clouds 17 1016 82 10000 3.1 30 06:25 11.06.2019
6571 Clouds 17 1016 87 10000 2.6 50 04:53 11.06.2019
6572 Clouds 17 1017 88 10000 3.1 20 02:54 11.06.2019
6573 Clouds 18 1018 82 10000 3.6 20 01:25 11.06.2019
6574 Clouds 18 1018 82 10000 3.6 20 00:46 11.06.2019
6575 Clouds 18 1019 82 10000 5.1 10 23:47 10.06.2019
6576 Clouds 18 1018 82 10000 4.6 20 23:22 10.06.2019
6577 Clouds 19 1018 77 10000 5.7 20 22:55 10.06.2019
6578 Clouds 19 1018 68 10000 6.2 360 22:36 10.06.2019
6579 Clouds 19 1018 68 10000 6.2 360 22:18 10.06.2019
6580 Clouds 19 1018 68 10000 6.2 360 21:40 10.06.2019
6581 Clouds 19 1018 68 10000 6.2 360 21:22 10.06.2019
6582 Clouds 20 1018 68 10000 7.7 360 20:45 10.06.2019
6583 Clouds 21 1018 64 10000 6.7 20 20:23 10.06.2019
6584 Clear 21 1018 56 10000 6.7 350 19:54 10.06.2019
6585 Clouds 21 1018 60 10000 7.2 20 19:27 10.06.2019
6586 Clouds 21 1018 53 10000 6.2 360 18:59 10.06.2019
6587 Clouds 21 1018 56 10000 8.2 360 18:41 10.06.2019
6588 Clouds 21 1018 56 10000 8.2 360 18:21 10.06.2019
6589 Clouds 22 1018 49 10000 6.7 350 17:58 10.06.2019
6590 Clouds 22 1018 53 0 7.2 20 17:37 10.06.2019
6591 Clouds 22 1018 53 0 7.2 20 17:19 10.06.2019
6592 Clouds 22 1019 56 10000 8.7 360 16:42 10.06.2019
6593 Clouds 22 1019 56 10000 8.7 360 16:23 10.06.2019
6594 Clouds 22 1019 60 10000 8.7 20 15:42 10.06.2019
6595 Clouds 22 1019 60 10000 8.7 20 15:24 10.06.2019
6596 Clouds 22 1019 53 10000 6.7 10 14:55 10.06.2019
6597 Clouds 22 1020 56 10000 7.7 360 14:36 10.06.2019
6598 Clouds 22 1020 56 10000 7.7 360 14:18 10.06.2019
6599 Clouds 22 1020 56 10000 5.1 20 13:42 10.06.2019
6600 Clouds 22 1020 56 10000 5.1 20 13:21 10.06.2019
6601 Clouds 21 1020 64 10000 4.6 30 12:42 10.06.2019
6602 Clouds 21 1020 64 10000 4.6 30 12:23 10.06.2019
6603 Clouds 20 1020 60 10000 3.1 20 11:44 10.06.2019
6604 Clouds 20 1020 60 10000 3.1 20 11:24 10.06.2019
6605 Clouds 19 1020 72 10000 2.6 40 10:42 10.06.2019
6606 Clouds 19 1020 72 10000 2.6 40 10:21 10.06.2019
6607 Clouds 18 1021 88 10000 3.1 30 09:57 10.06.2019
6608 Clouds 18 1020 77 10000 2.6 60 09:38 10.06.2019
6609 Clouds 18 1020 77 10000 2.6 60 09:19 10.06.2019
6610 Clouds 18 1021 88 10000 2.6 70 08:44 10.06.2019
6611 Clouds 18 1020 77 10000 3.1 40 08:23 10.06.2019
6612 Clouds 16 1021 93 10000 2.1 90 07:20 10.06.2019
6613 Clouds 17 1021 88 10000 4.11 28.765 04:29 10.06.2019
6614 Clouds 17 1022 82 10000 3.6 10 01:59 10.06.2019
6615 Clouds 17 1022 82 10000 5.1 10 01:26 10.06.2019
6616 Clouds 17 1023 77 10000 5.1 10 00:56 10.06.2019
6617 Clouds 17 1023 77 10000 4.1 20 00:19 10.06.2019
6618 Clouds 17 1023 82 10000 3.6 20 23:42 09.06.2019
6619 Clouds 17 1023 82 10000 3.6 20 23:19 09.06.2019
6620 Clouds 18 1022 72 10000 4.1 20 22:44 09.06.2019
6621 Clouds 18 1022 68 10000 5.1 360 22:25 09.06.2019
6622 Clouds 19 1022 77 10000 6.2 350 21:45 09.06.2019
6623 Clouds 19 1022 63 10000 5.7 360 21:23 09.06.2019
6624 Clouds 20 1021 60 10000 7.2 340 20:43 09.06.2019
6625 Clouds 20 1021 60 10000 7.2 340 20:23 09.06.2019
6626 Clouds 20 1021 52 10000 6.7 350 19:48 09.06.2019
6627 Clouds 20 1021 60 10000 8.2 360 19:19 09.06.2019
6628 Clouds 21 1021 49 10000 6.7 350 18:59 09.06.2019
6629 Clouds 21 1021 56 10000 8.2 340 18:41 09.06.2019
6630 Clouds 21 1021 56 10000 8.2 340 18:23 09.06.2019
6631 Clouds 21 1021 53 10000 7.2 320 17:47 09.06.2019
6632 Clouds 21 1021 52 10000 6.7 320 17:27 09.06.2019
6633 Clouds 21 1021 53 10000 6.2 330 16:55 09.06.2019
6634 Clouds 21 1021 52 10000 9.3 20 16:36 09.06.2019
6635 Clouds 21 1021 52 10000 9.3 20 16:18 09.06.2019
6636 Clouds 21 1021 49 10000 6.2 340 15:44 09.06.2019
6637 Clouds 21 1022 52 10000 5.7 20 15:26 09.06.2019
6638 Clouds 22 1022 49 10000 5.7 340 14:46 09.06.2019
6639 Clouds 22 1022 53 10000 5.1 320 14:25 09.06.2019
6640 Clear 21 1022 46 10000 3.6 330 13:52 09.06.2019
6641 Clouds 21 1022 52 10000 5.7 20 13:27 09.06.2019
6642 Clouds 20 1022 56 10000 5.7 360 12:42 09.06.2019
6643 Clouds 20 1022 56 10000 5.7 360 12:24 09.06.2019
6644 Clouds 20 1022 60 10000 5.7 320 11:40 09.06.2019
6645 Clouds 20 1022 60 10000 5.7 320 11:22 09.06.2019
6646 Clouds 19 1022 72 10000 4.1 340 10:46 09.06.2019
6647 Clouds 19 1021 63 10000 4.6 360 10:23 09.06.2019
6648 Clouds 19 1021 63 10000 4.6 360 10:23 09.06.2019
6649 Clouds 18 1021 68 10000 4.6 320 09:41 09.06.2019
6650 Clouds 17 1021 68 10000 4.6 320 09:22 09.06.2019
6651 Clouds 16 1020 72 10000 2.6 360 08:53 09.06.2019
6652 Clouds 16 1020 72 10000 2.6 360 08:34 09.06.2019
6653 Clouds 15 1021 93 10000 1.5 260 07:27 09.06.2019
6654 Clouds 15 1021 93 10000 0.5 0 06:30 09.06.2019
6655 Clear 17 1021 93 10000 1.5 10 04:59 09.06.2019
6656 Clouds 17 1021 93 10000 3.6 350 01:46 09.06.2019
6657 Clouds 17 1021 93 10000 3.1 350 01:21 09.06.2019
6658 Clouds 17 1021 93 10000 3.6 340 00:59 09.06.2019
6659 Clouds 18 1021 88 10000 3.6 350 23:56 08.06.2019
6660 Clouds 18 1021 88 10000 4.6 340 23:38 08.06.2019
6661 Clouds 18 1021 88 10000 4.6 340 23:19 08.06.2019
6662 Clouds 19 1020 77 10000 6.2 360 22:42 08.06.2019
6663 Clouds 19 1020 77 10000 6.2 360 22:23 08.06.2019
6664 Clear 20 1020 60 10000 6.2 10 21:52 08.06.2019
6665 Clear 20 1018 68 10000 6.2 360 21:29 08.06.2019
6666 Clear 21 1018 64 10000 6.2 360 20:59 08.06.2019
6667 Clear 21 1018 64 10000 6.2 360 20:40 08.06.2019
6668 Cle